<?xml version="1.0" encoding="UTF-8"?>
<gpx version="1.1" creator="2bulu-scraper" xmlns="http://www.topografix.com/GPX/1/1">
  <metadata><name>峨眉山（北线）报国寺-息心所-金顶</name><desc>source: 2bulu.com trackId=88780011; exported 2026-09-01T16:08:43.541Z</desc>
    <bounds minlat="29.522654" minlon="103.326829" maxlat="29.583031" maxlon="103.441044"/>
    <link href="https://www.2bulu.com/track/t-WtvJne4mAFXp%252FR2KBg5Tzw%253D%253D.htm"><text>2bulu 源页面</text></link>
  </metadata>
  <wpt lat="29.565161653677393" lon="103.4257706306188"><ele>0</ele><name></name></wpt>
  <wpt lat="29.564508073186918" lon="103.42302097390592"><ele>0</ele><name></name></wpt>
  <wpt lat="29.56891465537993" lon="103.4199091633488"><ele>0</ele><name></name></wpt>
  <wpt lat="29.569491793599862" lon="103.41961031800479"><ele>0</ele><name></name></wpt>
  <wpt lat="29.569314792882707" lon="103.41248229654204"><ele>0</ele><name></name></wpt>
  <wpt lat="29.569316137516033" lon="103.41248198122308"><ele>0</ele><name></name></wpt>
  <wpt lat="29.571759103194033" lon="103.40181385346096"><ele>0</ele><name></name></wpt>
  <wpt lat="29.572026373373223" lon="103.40147190814496"><ele>0</ele><name></name></wpt>
  <wpt lat="29.573605809248257" lon="103.39346997929471"><ele>0</ele><name></name></wpt>
  <wpt lat="29.574145513697456" lon="103.3923880499229"><ele>0</ele><name></name></wpt>
  <wpt lat="29.57418639449017" lon="103.39230153154682"><ele>0</ele><name></name></wpt>
  <wpt lat="29.577835695740617" lon="103.39107722727822"><ele>0</ele><name></name></wpt>
  <wpt lat="29.578383359738876" lon="103.38897224891237"><ele>0</ele><name></name></wpt>
  <wpt lat="29.581417863945827" lon="103.38383233189306"><ele>0</ele><name></name></wpt>
  <wpt lat="29.580670925370683" lon="103.37620332092983"><ele>0</ele><name>
          补给站
        </name></wpt>
  <wpt lat="29.577684810919845" lon="103.37113642867588"><ele>0</ele><name></name></wpt>
  <wpt lat="29.574594674748603" lon="103.36340403429426"><ele>0</ele><name>
          补给站
        </name></wpt>
  <wpt lat="29.574596019013953" lon="103.36242939461681"><ele>0</ele><name></name></wpt>
  <wpt lat="29.568665632698686" lon="103.35965566367959"><ele>0</ele><name></name></wpt>
  <wpt lat="29.568507994502216" lon="103.35967003726782"><ele>0</ele><name></name></wpt>
  <wpt lat="29.564149016393678" lon="103.35646122263692"><ele>0</ele><name></name></wpt>
  <wpt lat="29.562816172836452" lon="103.35076121881741"><ele>0</ele><name></name></wpt>
  <wpt lat="29.562818385819206" lon="103.35075993306805"><ele>0</ele><name>
          补给站
        </name></wpt>
  <wpt lat="29.563254844242667" lon="103.34710066368345"><ele>0</ele><name></name></wpt>
  <wpt lat="29.561382698448682" lon="103.34531681627783"><ele>0</ele><name></name></wpt>
  <wpt lat="29.56138358309297" lon="103.34531634123637"><ele>0</ele><name></name></wpt>
  <wpt lat="29.5588417483408" lon="103.3443526843419"><ele>0</ele><name></name></wpt>
  <wpt lat="29.549313742215105" lon="103.34197707244685"><ele>0</ele><name></name></wpt>
  <wpt lat="29.54781047354713" lon="103.34113698661672"><ele>0</ele><name></name></wpt>
  <wpt lat="29.54655202882952" lon="103.33707202050493"><ele>0</ele><name></name></wpt>
  <wpt lat="29.52970919553154" lon="103.32772706179405"><ele>0</ele><name></name></wpt>
  <wpt lat="29.5259125855906" lon="103.33397257865366"><ele>0</ele><name></name></wpt>
  <trk><name>峨眉山（北线）报国寺-息心所-金顶</name>
      <trkseg>
        <trkpt lat="29.569202" lon="103.440896"><ele>494.92725</ele><time>2026-08-11T23:29:30.000Z</time></trkpt>
        <trkpt lat="29.569243" lon="103.440921"><ele>493.36838</ele><time>2026-08-11T23:29:39.000Z</time></trkpt>
        <trkpt lat="29.569271" lon="103.440935"><ele>489.4402</ele><time>2026-08-11T23:30:12.000Z</time></trkpt>
        <trkpt lat="29.569323" lon="103.44094"><ele>488.9923</ele><time>2026-08-11T23:30:20.000Z</time></trkpt>
        <trkpt lat="29.569287" lon="103.440932"><ele>492.59125</ele><time>2026-08-11T23:30:50.000Z</time></trkpt>
        <trkpt lat="29.569262" lon="103.440882"><ele>493.07993</ele><time>2026-08-11T23:30:55.000Z</time></trkpt>
        <trkpt lat="29.569275" lon="103.440935"><ele>492.5922</ele><time>2026-08-11T23:31:30.000Z</time></trkpt>
        <trkpt lat="29.569326" lon="103.440939"><ele>492.20236</ele><time>2026-08-11T23:31:34.000Z</time></trkpt>
        <trkpt lat="29.569373" lon="103.440956"><ele>490.95758</ele><time>2026-08-11T23:32:31.000Z</time></trkpt>
        <trkpt lat="29.569412" lon="103.440983"><ele>491.3655</ele><time>2026-08-11T23:32:36.000Z</time></trkpt>
        <trkpt lat="29.56946" lon="103.440998"><ele>492.03128</ele><time>2026-08-11T23:32:42.000Z</time></trkpt>
        <trkpt lat="29.56944" lon="103.441044"><ele>493.71188</ele><time>2026-08-11T23:35:55.000Z</time></trkpt>
        <trkpt lat="29.56947" lon="103.441"><ele>493.7836</ele><time>2026-08-11T23:37:19.000Z</time></trkpt>
        <trkpt lat="29.56952" lon="103.440974"><ele>493.80023</ele><time>2026-08-11T23:37:24.000Z</time></trkpt>
        <trkpt lat="29.569468" lon="103.440985"><ele>493.35355</ele><time>2026-08-11T23:37:55.000Z</time></trkpt>
        <trkpt lat="29.569422" lon="103.440971"><ele>493.01434</ele><time>2026-08-11T23:37:59.000Z</time></trkpt>
        <trkpt lat="29.569371" lon="103.440951"><ele>492.87558</ele><time>2026-08-11T23:38:03.000Z</time></trkpt>
        <trkpt lat="29.569317" lon="103.440931"><ele>492.9568</ele><time>2026-08-11T23:38:07.000Z</time></trkpt>
        <trkpt lat="29.569264" lon="103.440923"><ele>492.95764</ele><time>2026-08-11T23:38:11.000Z</time></trkpt>
        <trkpt lat="29.569222" lon="103.4409"><ele>492.98642</ele><time>2026-08-11T23:38:16.000Z</time></trkpt>
        <trkpt lat="29.569219" lon="103.440848"><ele>492.29654</ele><time>2026-08-11T23:38:20.000Z</time></trkpt>
        <trkpt lat="29.569195" lon="103.440799"><ele>492.36053</ele><time>2026-08-11T23:38:27.000Z</time></trkpt>
        <trkpt lat="29.569176" lon="103.440742"><ele>492.22394</ele><time>2026-08-11T23:38:32.000Z</time></trkpt>
        <trkpt lat="29.569162" lon="103.44069"><ele>492.89493</ele><time>2026-08-11T23:38:36.000Z</time></trkpt>
        <trkpt lat="29.569128" lon="103.440655"><ele>493.26434</ele><time>2026-08-11T23:38:40.000Z</time></trkpt>
        <trkpt lat="29.569084" lon="103.440631"><ele>493.2548</ele><time>2026-08-11T23:38:44.000Z</time></trkpt>
        <trkpt lat="29.56904" lon="103.440612"><ele>493.14514</ele><time>2026-08-11T23:38:49.000Z</time></trkpt>
        <trkpt lat="29.569025" lon="103.440557"><ele>493.0154</ele><time>2026-08-11T23:38:54.000Z</time></trkpt>
        <trkpt lat="29.569022" lon="103.440497"><ele>492.75293</ele><time>2026-08-11T23:39:15.000Z</time></trkpt>
        <trkpt lat="29.569025" lon="103.440429"><ele>492.8473</ele><time>2026-08-11T23:39:19.000Z</time></trkpt>
        <trkpt lat="29.569027" lon="103.440369"><ele>493.15698</ele><time>2026-08-11T23:39:23.000Z</time></trkpt>
        <trkpt lat="29.569011" lon="103.440308"><ele>493.27222</ele><time>2026-08-11T23:39:28.000Z</time></trkpt>
        <trkpt lat="29.568994" lon="103.440249"><ele>494.08597</ele><time>2026-08-11T23:39:33.000Z</time></trkpt>
        <trkpt lat="29.568978" lon="103.440197"><ele>495.2524</ele><time>2026-08-11T23:39:39.000Z</time></trkpt>
        <trkpt lat="29.568936" lon="103.440158"><ele>496.26865</ele><time>2026-08-11T23:40:03.000Z</time></trkpt>
        <trkpt lat="29.568897" lon="103.440105"><ele>496.12878</ele><time>2026-08-11T23:40:07.000Z</time></trkpt>
        <trkpt lat="29.568858" lon="103.440061"><ele>497.16052</ele><time>2026-08-11T23:40:11.000Z</time></trkpt>
        <trkpt lat="29.568826" lon="103.440022"><ele>497.48123</ele><time>2026-08-11T23:40:16.000Z</time></trkpt>
        <trkpt lat="29.568795" lon="103.439978"><ele>497.88242</ele><time>2026-08-11T23:40:21.000Z</time></trkpt>
        <trkpt lat="29.568764" lon="103.439935"><ele>498.32156</ele><time>2026-08-11T23:40:25.000Z</time></trkpt>
        <trkpt lat="29.568731" lon="103.439893"><ele>498.6472</ele><time>2026-08-11T23:40:29.000Z</time></trkpt>
        <trkpt lat="29.568696" lon="103.439841"><ele>498.6407</ele><time>2026-08-11T23:40:33.000Z</time></trkpt>
        <trkpt lat="29.568671" lon="103.439796"><ele>498.59094</ele><time>2026-08-11T23:40:36.000Z</time></trkpt>
        <trkpt lat="29.568647" lon="103.439737"><ele>498.35098</ele><time>2026-08-11T23:40:40.000Z</time></trkpt>
        <trkpt lat="29.568631" lon="103.439688"><ele>497.98172</ele><time>2026-08-11T23:40:43.000Z</time></trkpt>
        <trkpt lat="29.568611" lon="103.439636"><ele>497.7406</ele><time>2026-08-11T23:40:47.000Z</time></trkpt>
        <trkpt lat="29.568574" lon="103.439594"><ele>498.74335</ele><time>2026-08-11T23:40:51.000Z</time></trkpt>
        <trkpt lat="29.568538" lon="103.439554"><ele>498.4795</ele><time>2026-08-11T23:40:55.000Z</time></trkpt>
        <trkpt lat="29.5685" lon="103.439519"><ele>499.042</ele><time>2026-08-11T23:40:59.000Z</time></trkpt>
        <trkpt lat="29.56846" lon="103.439469"><ele>499.22147</ele><time>2026-08-11T23:41:03.000Z</time></trkpt>
        <trkpt lat="29.568422" lon="103.439423"><ele>498.61987</ele><time>2026-08-11T23:41:07.000Z</time></trkpt>
        <trkpt lat="29.568377" lon="103.439386"><ele>498.91345</ele><time>2026-08-11T23:41:11.000Z</time></trkpt>
        <trkpt lat="29.568337" lon="103.439348"><ele>498.78802</ele><time>2026-08-11T23:41:15.000Z</time></trkpt>
        <trkpt lat="29.568295" lon="103.439312"><ele>498.57928</ele><time>2026-08-11T23:41:19.000Z</time></trkpt>
        <trkpt lat="29.568252" lon="103.439281"><ele>499.01257</ele><time>2026-08-11T23:41:23.000Z</time></trkpt>
        <trkpt lat="29.568213" lon="103.439241"><ele>499.7129</ele><time>2026-08-11T23:41:27.000Z</time></trkpt>
        <trkpt lat="29.568177" lon="103.439198"><ele>500.62012</ele><time>2026-08-11T23:41:31.000Z</time></trkpt>
        <trkpt lat="29.568139" lon="103.439163"><ele>501.28564</ele><time>2026-08-11T23:41:35.000Z</time></trkpt>
        <trkpt lat="29.56811" lon="103.439119"><ele>501.1821</ele><time>2026-08-11T23:41:39.000Z</time></trkpt>
        <trkpt lat="29.568083" lon="103.439073"><ele>500.86508</ele><time>2026-08-11T23:41:43.000Z</time></trkpt>
        <trkpt lat="29.568044" lon="103.439027"><ele>500.81046</ele><time>2026-08-11T23:41:47.000Z</time></trkpt>
        <trkpt lat="29.568009" lon="103.438982"><ele>500.74686</ele><time>2026-08-11T23:41:51.000Z</time></trkpt>
        <trkpt lat="29.567977" lon="103.438936"><ele>500.73706</ele><time>2026-08-11T23:41:55.000Z</time></trkpt>
        <trkpt lat="29.567944" lon="103.438894"><ele>501.2733</ele><time>2026-08-11T23:41:59.000Z</time></trkpt>
        <trkpt lat="29.567913" lon="103.438845"><ele>501.52863</ele><time>2026-08-11T23:42:03.000Z</time></trkpt>
        <trkpt lat="29.567885" lon="103.438794"><ele>501.2187</ele><time>2026-08-11T23:42:07.000Z</time></trkpt>
        <trkpt lat="29.567852" lon="103.438759"><ele>501.3119</ele><time>2026-08-11T23:42:10.000Z</time></trkpt>
        <trkpt lat="29.567811" lon="103.438712"><ele>501.42294</ele><time>2026-08-11T23:42:14.000Z</time></trkpt>
        <trkpt lat="29.567768" lon="103.438665"><ele>501.9447</ele><time>2026-08-11T23:42:18.000Z</time></trkpt>
        <trkpt lat="29.567735" lon="103.438623"><ele>502.00146</ele><time>2026-08-11T23:42:22.000Z</time></trkpt>
        <trkpt lat="29.567701" lon="103.438571"><ele>502.3567</ele><time>2026-08-11T23:42:27.000Z</time></trkpt>
        <trkpt lat="29.567677" lon="103.438523"><ele>503.02087</ele><time>2026-08-11T23:42:31.000Z</time></trkpt>
        <trkpt lat="29.567646" lon="103.438479"><ele>503.86288</ele><time>2026-08-11T23:42:35.000Z</time></trkpt>
        <trkpt lat="29.567606" lon="103.438438"><ele>504.8226</ele><time>2026-08-11T23:42:39.000Z</time></trkpt>
        <trkpt lat="29.56757" lon="103.438407"><ele>506.69434</ele><time>2026-08-11T23:42:43.000Z</time></trkpt>
        <trkpt lat="29.567533" lon="103.438378"><ele>507.8078</ele><time>2026-08-11T23:42:47.000Z</time></trkpt>
        <trkpt lat="29.567499" lon="103.438344"><ele>508.16586</ele><time>2026-08-11T23:42:51.000Z</time></trkpt>
        <trkpt lat="29.567468" lon="103.438304"><ele>508.23138</ele><time>2026-08-11T23:42:55.000Z</time></trkpt>
        <trkpt lat="29.567437" lon="103.438261"><ele>508.95303</ele><time>2026-08-11T23:42:59.000Z</time></trkpt>
        <trkpt lat="29.567401" lon="103.438215"><ele>509.336</ele><time>2026-08-11T23:43:03.000Z</time></trkpt>
        <trkpt lat="29.567368" lon="103.438157"><ele>509.05597</ele><time>2026-08-11T23:43:07.000Z</time></trkpt>
        <trkpt lat="29.56734" lon="103.4381"><ele>508.83835</ele><time>2026-08-11T23:43:11.000Z</time></trkpt>
        <trkpt lat="29.567315" lon="103.438045"><ele>508.8315</ele><time>2026-08-11T23:43:15.000Z</time></trkpt>
        <trkpt lat="29.567286" lon="103.438002"><ele>509.19043</ele><time>2026-08-11T23:43:20.000Z</time></trkpt>
        <trkpt lat="29.567255" lon="103.437949"><ele>509.3619</ele><time>2026-08-11T23:43:25.000Z</time></trkpt>
        <trkpt lat="29.567235" lon="103.43789"><ele>509.3643</ele><time>2026-08-11T23:43:29.000Z</time></trkpt>
        <trkpt lat="29.567206" lon="103.437841"><ele>509.96164</ele><time>2026-08-11T23:43:33.000Z</time></trkpt>
        <trkpt lat="29.567172" lon="103.437791"><ele>510.0766</ele><time>2026-08-11T23:43:37.000Z</time></trkpt>
        <trkpt lat="29.567142" lon="103.437732"><ele>509.84338</ele><time>2026-08-11T23:43:41.000Z</time></trkpt>
        <trkpt lat="29.567119" lon="103.43768"><ele>509.6622</ele><time>2026-08-11T23:43:45.000Z</time></trkpt>
        <trkpt lat="29.567095" lon="103.437629"><ele>510.13287</ele><time>2026-08-11T23:43:49.000Z</time></trkpt>
        <trkpt lat="29.567072" lon="103.437582"><ele>510.26523</ele><time>2026-08-11T23:43:53.000Z</time></trkpt>
        <trkpt lat="29.567047" lon="103.437529"><ele>510.0252</ele><time>2026-08-11T23:43:58.000Z</time></trkpt>
        <trkpt lat="29.567017" lon="103.437474"><ele>509.6459</ele><time>2026-08-11T23:44:03.000Z</time></trkpt>
        <trkpt lat="29.566992" lon="103.437427"><ele>508.9924</ele><time>2026-08-11T23:44:07.000Z</time></trkpt>
        <trkpt lat="29.566967" lon="103.43738"><ele>509.20547</ele><time>2026-08-11T23:44:11.000Z</time></trkpt>
        <trkpt lat="29.566938" lon="103.43733"><ele>509.98248</ele><time>2026-08-11T23:44:14.000Z</time></trkpt>
        <trkpt lat="29.566911" lon="103.437284"><ele>510.01047</ele><time>2026-08-11T23:44:17.000Z</time></trkpt>
        <trkpt lat="29.566879" lon="103.437234"><ele>510.7648</ele><time>2026-08-11T23:44:21.000Z</time></trkpt>
        <trkpt lat="29.566854" lon="103.43719"><ele>511.40674</ele><time>2026-08-11T23:44:25.000Z</time></trkpt>
        <trkpt lat="29.566829" lon="103.437141"><ele>512.2861</ele><time>2026-08-11T23:44:30.000Z</time></trkpt>
        <trkpt lat="29.566795" lon="103.437091"><ele>514.6229</ele><time>2026-08-11T23:44:34.000Z</time></trkpt>
        <trkpt lat="29.566757" lon="103.437045"><ele>514.822</ele><time>2026-08-11T23:44:38.000Z</time></trkpt>
        <trkpt lat="29.566733" lon="103.436998"><ele>514.97125</ele><time>2026-08-11T23:44:42.000Z</time></trkpt>
        <trkpt lat="29.566707" lon="103.436951"><ele>515.23364</ele><time>2026-08-11T23:44:46.000Z</time></trkpt>
        <trkpt lat="29.56668" lon="103.43691"><ele>516.43896</ele><time>2026-08-11T23:44:49.000Z</time></trkpt>
        <trkpt lat="29.566656" lon="103.436864"><ele>516.9126</ele><time>2026-08-11T23:44:53.000Z</time></trkpt>
        <trkpt lat="29.566635" lon="103.436811"><ele>517.5794</ele><time>2026-08-11T23:44:57.000Z</time></trkpt>
        <trkpt lat="29.566604" lon="103.436767"><ele>517.1499</ele><time>2026-08-11T23:45:01.000Z</time></trkpt>
        <trkpt lat="29.566574" lon="103.436713"><ele>516.7526</ele><time>2026-08-11T23:45:06.000Z</time></trkpt>
        <trkpt lat="29.566556" lon="103.436666"><ele>517.6276</ele><time>2026-08-11T23:45:10.000Z</time></trkpt>
        <trkpt lat="29.56654" lon="103.436616"><ele>517.8509</ele><time>2026-08-11T23:45:14.000Z</time></trkpt>
        <trkpt lat="29.566527" lon="103.436565"><ele>518.0938</ele><time>2026-08-11T23:45:18.000Z</time></trkpt>
        <trkpt lat="29.566505" lon="103.436512"><ele>518.84125</ele><time>2026-08-11T23:45:22.000Z</time></trkpt>
        <trkpt lat="29.566471" lon="103.436464"><ele>519.0498</ele><time>2026-08-11T23:45:27.000Z</time></trkpt>
        <trkpt lat="29.566437" lon="103.436414"><ele>521.13135</ele><time>2026-08-11T23:45:32.000Z</time></trkpt>
        <trkpt lat="29.56641" lon="103.436364"><ele>523.25525</ele><time>2026-08-11T23:45:36.000Z</time></trkpt>
        <trkpt lat="29.566379" lon="103.436313"><ele>524.9272</ele><time>2026-08-11T23:45:40.000Z</time></trkpt>
        <trkpt lat="29.56635" lon="103.436262"><ele>524.9653</ele><time>2026-08-11T23:45:44.000Z</time></trkpt>
        <trkpt lat="29.566329" lon="103.43621"><ele>525.0697</ele><time>2026-08-11T23:45:48.000Z</time></trkpt>
        <trkpt lat="29.566308" lon="103.436157"><ele>525.07</ele><time>2026-08-11T23:45:52.000Z</time></trkpt>
        <trkpt lat="29.566294" lon="103.436102"><ele>525.23883</ele><time>2026-08-11T23:45:56.000Z</time></trkpt>
        <trkpt lat="29.566286" lon="103.436047"><ele>524.3576</ele><time>2026-08-11T23:45:59.000Z</time></trkpt>
        <trkpt lat="29.566269" lon="103.435993"><ele>524.37683</ele><time>2026-08-11T23:46:03.000Z</time></trkpt>
        <trkpt lat="29.566251" lon="103.435936"><ele>524.7388</ele><time>2026-08-11T23:46:07.000Z</time></trkpt>
        <trkpt lat="29.566233" lon="103.435869"><ele>524.82214</ele><time>2026-08-11T23:46:11.000Z</time></trkpt>
        <trkpt lat="29.56622" lon="103.435813"><ele>523.7537</ele><time>2026-08-11T23:46:15.000Z</time></trkpt>
        <trkpt lat="29.566202" lon="103.435754"><ele>523.56256</ele><time>2026-08-11T23:46:19.000Z</time></trkpt>
        <trkpt lat="29.566192" lon="103.435697"><ele>523.188</ele><time>2026-08-11T23:46:23.000Z</time></trkpt>
        <trkpt lat="29.566175" lon="103.435639"><ele>523.5589</ele><time>2026-08-11T23:46:28.000Z</time></trkpt>
        <trkpt lat="29.566158" lon="103.435587"><ele>524.85944</ele><time>2026-08-11T23:46:33.000Z</time></trkpt>
        <trkpt lat="29.566136" lon="103.435531"><ele>524.8207</ele><time>2026-08-11T23:46:38.000Z</time></trkpt>
        <trkpt lat="29.566117" lon="103.435484"><ele>523.80975</ele><time>2026-08-11T23:46:42.000Z</time></trkpt>
        <trkpt lat="29.566097" lon="103.435432"><ele>524.28143</ele><time>2026-08-11T23:46:47.000Z</time></trkpt>
        <trkpt lat="29.566074" lon="103.435381"><ele>524.5018</ele><time>2026-08-11T23:46:51.000Z</time></trkpt>
        <trkpt lat="29.566051" lon="103.435327"><ele>525.61456</ele><time>2026-08-11T23:46:55.000Z</time></trkpt>
        <trkpt lat="29.566032" lon="103.435277"><ele>526.6142</ele><time>2026-08-11T23:46:59.000Z</time></trkpt>
        <trkpt lat="29.566012" lon="103.43523"><ele>526.3697</ele><time>2026-08-11T23:47:03.000Z</time></trkpt>
        <trkpt lat="29.565996" lon="103.435173"><ele>526.0609</ele><time>2026-08-11T23:47:08.000Z</time></trkpt>
        <trkpt lat="29.565981" lon="103.435113"><ele>526.97943</ele><time>2026-08-11T23:47:13.000Z</time></trkpt>
        <trkpt lat="29.565962" lon="103.435055"><ele>527.8484</ele><time>2026-08-11T23:47:18.000Z</time></trkpt>
        <trkpt lat="29.565945" lon="103.435005"><ele>529.302</ele><time>2026-08-11T23:47:23.000Z</time></trkpt>
        <trkpt lat="29.565915" lon="103.434964"><ele>529.30786</ele><time>2026-08-11T23:47:27.000Z</time></trkpt>
        <trkpt lat="29.565881" lon="103.43493"><ele>529.64923</ele><time>2026-08-11T23:47:31.000Z</time></trkpt>
        <trkpt lat="29.565833" lon="103.434901"><ele>529.7823</ele><time>2026-08-11T23:47:34.000Z</time></trkpt>
        <trkpt lat="29.565791" lon="103.43487"><ele>530.6383</ele><time>2026-08-11T23:47:38.000Z</time></trkpt>
        <trkpt lat="29.565749" lon="103.434834"><ele>531.6431</ele><time>2026-08-11T23:47:44.000Z</time></trkpt>
        <trkpt lat="29.565704" lon="103.434809"><ele>532.003</ele><time>2026-08-11T23:47:48.000Z</time></trkpt>
        <trkpt lat="29.565665" lon="103.434775"><ele>531.0351</ele><time>2026-08-11T23:47:52.000Z</time></trkpt>
        <trkpt lat="29.565639" lon="103.434724"><ele>530.6536</ele><time>2026-08-11T23:47:57.000Z</time></trkpt>
        <trkpt lat="29.565621" lon="103.434667"><ele>531.41266</ele><time>2026-08-11T23:48:02.000Z</time></trkpt>
        <trkpt lat="29.565617" lon="103.434607"><ele>531.19244</ele><time>2026-08-11T23:48:07.000Z</time></trkpt>
        <trkpt lat="29.565616" lon="103.434546"><ele>531.78766</ele><time>2026-08-11T23:48:13.000Z</time></trkpt>
        <trkpt lat="29.565628" lon="103.434495"><ele>534.8337</ele><time>2026-08-11T23:48:18.000Z</time></trkpt>
        <trkpt lat="29.565641" lon="103.434445"><ele>537.34125</ele><time>2026-08-11T23:48:23.000Z</time></trkpt>
        <trkpt lat="29.565657" lon="103.434383"><ele>538.7644</ele><time>2026-08-11T23:48:27.000Z</time></trkpt>
        <trkpt lat="29.565671" lon="103.434337"><ele>541.1297</ele><time>2026-08-11T23:48:31.000Z</time></trkpt>
        <trkpt lat="29.565691" lon="103.434287"><ele>541.83417</ele><time>2026-08-11T23:48:37.000Z</time></trkpt>
        <trkpt lat="29.565732" lon="103.434248"><ele>542.0007</ele><time>2026-08-11T23:50:08.000Z</time></trkpt>
        <trkpt lat="29.565753" lon="103.4342"><ele>541.75806</ele><time>2026-08-11T23:50:11.000Z</time></trkpt>
        <trkpt lat="29.56576" lon="103.434134"><ele>541.74536</ele><time>2026-08-11T23:50:15.000Z</time></trkpt>
        <trkpt lat="29.565753" lon="103.434076"><ele>540.89764</ele><time>2026-08-11T23:50:19.000Z</time></trkpt>
        <trkpt lat="29.565755" lon="103.434021"><ele>540.40454</ele><time>2026-08-11T23:50:22.000Z</time></trkpt>
        <trkpt lat="29.565764" lon="103.433956"><ele>540.3724</ele><time>2026-08-11T23:50:26.000Z</time></trkpt>
        <trkpt lat="29.565769" lon="103.433906"><ele>541.86304</ele><time>2026-08-11T23:50:31.000Z</time></trkpt>
        <trkpt lat="29.565767" lon="103.433856"><ele>543.67566</ele><time>2026-08-11T23:50:37.000Z</time></trkpt>
        <trkpt lat="29.565763" lon="103.433798"><ele>544.29395</ele><time>2026-08-11T23:50:43.000Z</time></trkpt>
        <trkpt lat="29.56573" lon="103.433761"><ele>544.8298</ele><time>2026-08-11T23:50:49.000Z</time></trkpt>
        <trkpt lat="29.565743" lon="103.433701"><ele>544.7218</ele><time>2026-08-11T23:50:54.000Z</time></trkpt>
        <trkpt lat="29.565753" lon="103.433639"><ele>544.4014</ele><time>2026-08-11T23:50:59.000Z</time></trkpt>
        <trkpt lat="29.565766" lon="103.433575"><ele>544.7702</ele><time>2026-08-11T23:51:03.000Z</time></trkpt>
        <trkpt lat="29.565773" lon="103.433509"><ele>545.6485</ele><time>2026-08-11T23:51:07.000Z</time></trkpt>
        <trkpt lat="29.565775" lon="103.433452"><ele>546.44775</ele><time>2026-08-11T23:51:11.000Z</time></trkpt>
        <trkpt lat="29.565777" lon="103.433394"><ele>547.8029</ele><time>2026-08-11T23:51:15.000Z</time></trkpt>
        <trkpt lat="29.565779" lon="103.43333"><ele>548.01984</ele><time>2026-08-11T23:51:20.000Z</time></trkpt>
        <trkpt lat="29.565773" lon="103.433271"><ele>548.47626</ele><time>2026-08-11T23:51:24.000Z</time></trkpt>
        <trkpt lat="29.565778" lon="103.433208"><ele>548.1526</ele><time>2026-08-11T23:51:29.000Z</time></trkpt>
        <trkpt lat="29.565792" lon="103.433151"><ele>547.2115</ele><time>2026-08-11T23:51:33.000Z</time></trkpt>
        <trkpt lat="29.565785" lon="103.4331"><ele>546.4999</ele><time>2026-08-11T23:51:37.000Z</time></trkpt>
        <trkpt lat="29.565772" lon="103.433045"><ele>547.05096</ele><time>2026-08-11T23:51:41.000Z</time></trkpt>
        <trkpt lat="29.565745" lon="103.432987"><ele>547.0883</ele><time>2026-08-11T23:51:45.000Z</time></trkpt>
        <trkpt lat="29.565718" lon="103.432938"><ele>547.5783</ele><time>2026-08-11T23:51:49.000Z</time></trkpt>
        <trkpt lat="29.565689" lon="103.432884"><ele>547.7052</ele><time>2026-08-11T23:51:53.000Z</time></trkpt>
        <trkpt lat="29.565661" lon="103.432827"><ele>547.769</ele><time>2026-08-11T23:51:57.000Z</time></trkpt>
        <trkpt lat="29.56563" lon="103.432772"><ele>547.8986</ele><time>2026-08-11T23:52:01.000Z</time></trkpt>
        <trkpt lat="29.565604" lon="103.432724"><ele>548.13666</ele><time>2026-08-11T23:52:05.000Z</time></trkpt>
        <trkpt lat="29.565584" lon="103.432664"><ele>548.3249</ele><time>2026-08-11T23:52:10.000Z</time></trkpt>
        <trkpt lat="29.565558" lon="103.432609"><ele>548.2088</ele><time>2026-08-11T23:52:15.000Z</time></trkpt>
        <trkpt lat="29.565538" lon="103.432548"><ele>548.74695</ele><time>2026-08-11T23:52:20.000Z</time></trkpt>
        <trkpt lat="29.565522" lon="103.432493"><ele>549.138</ele><time>2026-08-11T23:52:25.000Z</time></trkpt>
        <trkpt lat="29.565511" lon="103.43244"><ele>549.6235</ele><time>2026-08-11T23:52:30.000Z</time></trkpt>
        <trkpt lat="29.565501" lon="103.432382"><ele>549.6386</ele><time>2026-08-11T23:52:35.000Z</time></trkpt>
        <trkpt lat="29.565494" lon="103.43232"><ele>550.4716</ele><time>2026-08-11T23:52:40.000Z</time></trkpt>
        <trkpt lat="29.56547" lon="103.432268"><ele>551.22687</ele><time>2026-08-11T23:52:45.000Z</time></trkpt>
        <trkpt lat="29.565441" lon="103.432228"><ele>551.4415</ele><time>2026-08-11T23:52:49.000Z</time></trkpt>
        <trkpt lat="29.565415" lon="103.432184"><ele>552.2275</ele><time>2026-08-11T23:52:53.000Z</time></trkpt>
        <trkpt lat="29.565398" lon="103.432134"><ele>552.5028</ele><time>2026-08-11T23:52:57.000Z</time></trkpt>
        <trkpt lat="29.565385" lon="103.432082"><ele>553.053</ele><time>2026-08-11T23:53:01.000Z</time></trkpt>
        <trkpt lat="29.565371" lon="103.432025"><ele>554.4178</ele><time>2026-08-11T23:53:06.000Z</time></trkpt>
        <trkpt lat="29.565357" lon="103.431974"><ele>555.14343</ele><time>2026-08-11T23:53:11.000Z</time></trkpt>
        <trkpt lat="29.565353" lon="103.431916"><ele>555.74475</ele><time>2026-08-11T23:53:17.000Z</time></trkpt>
        <trkpt lat="29.565365" lon="103.431859"><ele>556.8919</ele><time>2026-08-11T23:53:22.000Z</time></trkpt>
        <trkpt lat="29.565385" lon="103.431805"><ele>558.01636</ele><time>2026-08-11T23:53:28.000Z</time></trkpt>
        <trkpt lat="29.565407" lon="103.431762"><ele>559.4276</ele><time>2026-08-11T23:53:35.000Z</time></trkpt>
        <trkpt lat="29.565429" lon="103.431716"><ele>560.13245</ele><time>2026-08-11T23:53:41.000Z</time></trkpt>
        <trkpt lat="29.56543" lon="103.431663"><ele>561.4696</ele><time>2026-08-11T23:53:45.000Z</time></trkpt>
        <trkpt lat="29.565436" lon="103.431607"><ele>562.86456</ele><time>2026-08-11T23:53:50.000Z</time></trkpt>
        <trkpt lat="29.565448" lon="103.431558"><ele>564.2978</ele><time>2026-08-11T23:53:54.000Z</time></trkpt>
        <trkpt lat="29.565458" lon="103.4315"><ele>565.0947</ele><time>2026-08-11T23:53:59.000Z</time></trkpt>
        <trkpt lat="29.565451" lon="103.431475"><ele>569.4708</ele><time>2026-08-11T23:54:04.000Z</time></trkpt>
        <trkpt lat="29.565459" lon="103.431421"><ele>570.6405</ele><time>2026-08-11T23:54:13.000Z</time></trkpt>
        <trkpt lat="29.565475" lon="103.431364"><ele>571.00085</ele><time>2026-08-11T23:54:18.000Z</time></trkpt>
        <trkpt lat="29.565485" lon="103.431309"><ele>570.8685</ele><time>2026-08-11T23:54:24.000Z</time></trkpt>
        <trkpt lat="29.565484" lon="103.431283"><ele>572.1306</ele><time>2026-08-11T23:54:34.000Z</time></trkpt>
        <trkpt lat="29.565517" lon="103.431163"><ele>572.1306</ele><time>2026-08-11T23:54:44.000Z</time></trkpt>
        <trkpt lat="29.565529" lon="103.431114"><ele>573.09625</ele><time>2026-08-11T23:54:48.000Z</time></trkpt>
        <trkpt lat="29.565529" lon="103.431064"><ele>574.145</ele><time>2026-08-11T23:54:55.000Z</time></trkpt>
        <trkpt lat="29.565513" lon="103.431012"><ele>574.6871</ele><time>2026-08-11T23:55:00.000Z</time></trkpt>
        <trkpt lat="29.565477" lon="103.430967"><ele>574.74976</ele><time>2026-08-11T23:55:06.000Z</time></trkpt>
        <trkpt lat="29.565441" lon="103.430933"><ele>574.45294</ele><time>2026-08-11T23:55:11.000Z</time></trkpt>
        <trkpt lat="29.565404" lon="103.430895"><ele>575.12463</ele><time>2026-08-11T23:55:16.000Z</time></trkpt>
        <trkpt lat="29.565372" lon="103.430845"><ele>575.39233</ele><time>2026-08-11T23:55:21.000Z</time></trkpt>
        <trkpt lat="29.565369" lon="103.430789"><ele>575.6859</ele><time>2026-08-11T23:55:25.000Z</time></trkpt>
        <trkpt lat="29.565364" lon="103.430732"><ele>576.14</ele><time>2026-08-11T23:55:31.000Z</time></trkpt>
        <trkpt lat="29.565357" lon="103.430675"><ele>576.405</ele><time>2026-08-11T23:55:37.000Z</time></trkpt>
        <trkpt lat="29.565357" lon="103.430618"><ele>577.0558</ele><time>2026-08-11T23:55:43.000Z</time></trkpt>
        <trkpt lat="29.565335" lon="103.430566"><ele>577.1997</ele><time>2026-08-11T23:55:49.000Z</time></trkpt>
        <trkpt lat="29.565324" lon="103.430512"><ele>576.7464</ele><time>2026-08-11T23:55:53.000Z</time></trkpt>
        <trkpt lat="29.565309" lon="103.430462"><ele>577.56006</ele><time>2026-08-11T23:55:57.000Z</time></trkpt>
        <trkpt lat="29.565306" lon="103.430404"><ele>578.0323</ele><time>2026-08-11T23:56:01.000Z</time></trkpt>
        <trkpt lat="29.565312" lon="103.430353"><ele>578.363</ele><time>2026-08-11T23:56:05.000Z</time></trkpt>
        <trkpt lat="29.565315" lon="103.430293"><ele>578.55396</ele><time>2026-08-11T23:56:10.000Z</time></trkpt>
        <trkpt lat="29.56532" lon="103.430241"><ele>578.77277</ele><time>2026-08-11T23:56:14.000Z</time></trkpt>
        <trkpt lat="29.565319" lon="103.430181"><ele>579.31165</ele><time>2026-08-11T23:56:19.000Z</time></trkpt>
        <trkpt lat="29.565312" lon="103.430126"><ele>579.87946</ele><time>2026-08-11T23:56:24.000Z</time></trkpt>
        <trkpt lat="29.565304" lon="103.430065"><ele>580.0807</ele><time>2026-08-11T23:56:30.000Z</time></trkpt>
        <trkpt lat="29.56529" lon="103.430015"><ele>581.4872</ele><time>2026-08-11T23:56:37.000Z</time></trkpt>
        <trkpt lat="29.565285" lon="103.429963"><ele>581.5282</ele><time>2026-08-11T23:56:41.000Z</time></trkpt>
        <trkpt lat="29.565268" lon="103.429907"><ele>582.2607</ele><time>2026-08-11T23:56:45.000Z</time></trkpt>
        <trkpt lat="29.565237" lon="103.42985"><ele>582.81903</ele><time>2026-08-11T23:56:49.000Z</time></trkpt>
        <trkpt lat="29.565204" lon="103.429798"><ele>582.7605</ele><time>2026-08-11T23:56:53.000Z</time></trkpt>
        <trkpt lat="29.565176" lon="103.429748"><ele>582.7639</ele><time>2026-08-11T23:56:57.000Z</time></trkpt>
        <trkpt lat="29.565158" lon="103.429696"><ele>582.9874</ele><time>2026-08-11T23:57:01.000Z</time></trkpt>
        <trkpt lat="29.565149" lon="103.429639"><ele>583.18536</ele><time>2026-08-11T23:57:05.000Z</time></trkpt>
        <trkpt lat="29.565129" lon="103.429589"><ele>583.4677</ele><time>2026-08-11T23:57:09.000Z</time></trkpt>
        <trkpt lat="29.565111" lon="103.429537"><ele>583.7531</ele><time>2026-08-11T23:57:13.000Z</time></trkpt>
        <trkpt lat="29.565081" lon="103.42949"><ele>583.5797</ele><time>2026-08-11T23:57:25.000Z</time></trkpt>
        <trkpt lat="29.565054" lon="103.429439"><ele>584.20764</ele><time>2026-08-11T23:57:31.000Z</time></trkpt>
        <trkpt lat="29.565012" lon="103.429393"><ele>584.5057</ele><time>2026-08-11T23:57:35.000Z</time></trkpt>
        <trkpt lat="29.564975" lon="103.429348"><ele>584.5821</ele><time>2026-08-11T23:57:39.000Z</time></trkpt>
        <trkpt lat="29.564961" lon="103.429297"><ele>584.50104</ele><time>2026-08-11T23:57:43.000Z</time></trkpt>
        <trkpt lat="29.564952" lon="103.429245"><ele>585.1037</ele><time>2026-08-11T23:57:47.000Z</time></trkpt>
        <trkpt lat="29.564941" lon="103.429183"><ele>585.6335</ele><time>2026-08-11T23:57:51.000Z</time></trkpt>
        <trkpt lat="29.56493" lon="103.42912"><ele>585.876</ele><time>2026-08-11T23:57:55.000Z</time></trkpt>
        <trkpt lat="29.564912" lon="103.429065"><ele>586.0133</ele><time>2026-08-11T23:58:00.000Z</time></trkpt>
        <trkpt lat="29.564903" lon="103.429003"><ele>585.93445</ele><time>2026-08-11T23:58:05.000Z</time></trkpt>
        <trkpt lat="29.564892" lon="103.42894"><ele>585.712</ele><time>2026-08-11T23:58:10.000Z</time></trkpt>
        <trkpt lat="29.564883" lon="103.42889"><ele>585.25006</ele><time>2026-08-11T23:58:14.000Z</time></trkpt>
        <trkpt lat="29.564871" lon="103.428839"><ele>584.9174</ele><time>2026-08-11T23:58:18.000Z</time></trkpt>
        <trkpt lat="29.564858" lon="103.428778"><ele>584.6738</ele><time>2026-08-11T23:58:22.000Z</time></trkpt>
        <trkpt lat="29.564847" lon="103.428717"><ele>584.1204</ele><time>2026-08-11T23:58:26.000Z</time></trkpt>
        <trkpt lat="29.564836" lon="103.428656"><ele>584.1436</ele><time>2026-08-11T23:58:30.000Z</time></trkpt>
        <trkpt lat="29.564821" lon="103.4286"><ele>583.6763</ele><time>2026-08-11T23:58:34.000Z</time></trkpt>
        <trkpt lat="29.564815" lon="103.428538"><ele>583.4118</ele><time>2026-08-11T23:58:39.000Z</time></trkpt>
        <trkpt lat="29.564814" lon="103.428482"><ele>583.4535</ele><time>2026-08-11T23:58:43.000Z</time></trkpt>
        <trkpt lat="29.564829" lon="103.428427"><ele>583.7581</ele><time>2026-08-11T23:58:47.000Z</time></trkpt>
        <trkpt lat="29.564871" lon="103.428385"><ele>583.24677</ele><time>2026-08-11T23:58:51.000Z</time></trkpt>
        <trkpt lat="29.564914" lon="103.428361"><ele>582.46643</ele><time>2026-08-11T23:58:54.000Z</time></trkpt>
        <trkpt lat="29.564958" lon="103.428331"><ele>582.3706</ele><time>2026-08-11T23:58:57.000Z</time></trkpt>
        <trkpt lat="29.565002" lon="103.428293"><ele>582.6671</ele><time>2026-08-11T23:59:01.000Z</time></trkpt>
        <trkpt lat="29.565038" lon="103.428254"><ele>582.7111</ele><time>2026-08-11T23:59:05.000Z</time></trkpt>
        <trkpt lat="29.565076" lon="103.428217"><ele>583.13416</ele><time>2026-08-11T23:59:09.000Z</time></trkpt>
        <trkpt lat="29.565115" lon="103.428187"><ele>583.37164</ele><time>2026-08-11T23:59:13.000Z</time></trkpt>
        <trkpt lat="29.565163" lon="103.428157"><ele>583.0747</ele><time>2026-08-11T23:59:17.000Z</time></trkpt>
        <trkpt lat="29.56521" lon="103.428134"><ele>583.388</ele><time>2026-08-11T23:59:21.000Z</time></trkpt>
        <trkpt lat="29.56525" lon="103.428101"><ele>583.7214</ele><time>2026-08-11T23:59:25.000Z</time></trkpt>
        <trkpt lat="29.565279" lon="103.42806"><ele>584.06934</ele><time>2026-08-11T23:59:29.000Z</time></trkpt>
        <trkpt lat="29.565317" lon="103.428026"><ele>584.169</ele><time>2026-08-11T23:59:33.000Z</time></trkpt>
        <trkpt lat="29.565356" lon="103.42799"><ele>584.0837</ele><time>2026-08-11T23:59:37.000Z</time></trkpt>
        <trkpt lat="29.565399" lon="103.427952"><ele>583.8535</ele><time>2026-08-11T23:59:41.000Z</time></trkpt>
        <trkpt lat="29.565433" lon="103.427911"><ele>584.8844</ele><time>2026-08-11T23:59:45.000Z</time></trkpt>
        <trkpt lat="29.565441" lon="103.427853"><ele>585.8743</ele><time>2026-08-11T23:59:50.000Z</time></trkpt>
        <trkpt lat="29.565429" lon="103.427802"><ele>586.6913</ele><time>2026-08-11T23:59:56.000Z</time></trkpt>
        <trkpt lat="29.565417" lon="103.427742"><ele>587.2789</ele><time>2026-08-12T00:00:04.000Z</time></trkpt>
        <trkpt lat="29.565403" lon="103.427683"><ele>587.342</ele><time>2026-08-12T00:00:09.000Z</time></trkpt>
        <trkpt lat="29.565376" lon="103.427634"><ele>587.9548</ele><time>2026-08-12T00:00:13.000Z</time></trkpt>
        <trkpt lat="29.565353" lon="103.427585"><ele>588.38</ele><time>2026-08-12T00:00:17.000Z</time></trkpt>
        <trkpt lat="29.565333" lon="103.427536"><ele>588.49347</ele><time>2026-08-12T00:00:21.000Z</time></trkpt>
        <trkpt lat="29.565313" lon="103.427485"><ele>588.6497</ele><time>2026-08-12T00:00:25.000Z</time></trkpt>
        <trkpt lat="29.565295" lon="103.427435"><ele>588.69135</ele><time>2026-08-12T00:00:29.000Z</time></trkpt>
        <trkpt lat="29.565279" lon="103.427385"><ele>589.74286</ele><time>2026-08-12T00:00:33.000Z</time></trkpt>
        <trkpt lat="29.565265" lon="103.427322"><ele>590.30884</ele><time>2026-08-12T00:00:38.000Z</time></trkpt>
        <trkpt lat="29.565265" lon="103.427262"><ele>591.04663</ele><time>2026-08-12T00:00:42.000Z</time></trkpt>
        <trkpt lat="29.565276" lon="103.427203"><ele>591.8206</ele><time>2026-08-12T00:00:47.000Z</time></trkpt>
        <trkpt lat="29.565272" lon="103.427157"><ele>594.29266</ele><time>2026-08-12T00:00:52.000Z</time></trkpt>
        <trkpt lat="29.565254" lon="103.427116"><ele>597.3284</ele><time>2026-08-12T00:00:57.000Z</time></trkpt>
        <trkpt lat="29.565222" lon="103.427075"><ele>599.5444</ele><time>2026-08-12T00:01:02.000Z</time></trkpt>
        <trkpt lat="29.565183" lon="103.427054"><ele>600.84143</ele><time>2026-08-12T00:01:06.000Z</time></trkpt>
        <trkpt lat="29.565135" lon="103.427029"><ele>601.0477</ele><time>2026-08-12T00:01:11.000Z</time></trkpt>
        <trkpt lat="29.565092" lon="103.427001"><ele>602.1042</ele><time>2026-08-12T00:01:16.000Z</time></trkpt>
        <trkpt lat="29.56505" lon="103.42697"><ele>602.94403</ele><time>2026-08-12T00:01:21.000Z</time></trkpt>
        <trkpt lat="29.565008" lon="103.426949"><ele>604.29895</ele><time>2026-08-12T00:01:25.000Z</time></trkpt>
        <trkpt lat="29.564964" lon="103.426933"><ele>606.1492</ele><time>2026-08-12T00:01:32.000Z</time></trkpt>
        <trkpt lat="29.564938" lon="103.426886"><ele>606.3827</ele><time>2026-08-12T00:01:37.000Z</time></trkpt>
        <trkpt lat="29.564928" lon="103.426825"><ele>606.85236</ele><time>2026-08-12T00:01:41.000Z</time></trkpt>
        <trkpt lat="29.564936" lon="103.426767"><ele>607.17926</ele><time>2026-08-12T00:01:45.000Z</time></trkpt>
        <trkpt lat="29.564945" lon="103.426711"><ele>608.17474</ele><time>2026-08-12T00:01:55.000Z</time></trkpt>
        <trkpt lat="29.564976" lon="103.426675"><ele>608.55426</ele><time>2026-08-12T00:02:01.000Z</time></trkpt>
        <trkpt lat="29.565007" lon="103.426634"><ele>608.7191</ele><time>2026-08-12T00:02:23.000Z</time></trkpt>
        <trkpt lat="29.56502" lon="103.426585"><ele>610.1017</ele><time>2026-08-12T00:02:37.000Z</time></trkpt>
        <trkpt lat="29.56503" lon="103.426532"><ele>610.7501</ele><time>2026-08-12T00:02:48.000Z</time></trkpt>
        <trkpt lat="29.565037" lon="103.426477"><ele>611.5116</ele><time>2026-08-12T00:02:59.000Z</time></trkpt>
        <trkpt lat="29.565046" lon="103.426424"><ele>612.776</ele><time>2026-08-12T00:03:10.000Z</time></trkpt>
        <trkpt lat="29.565056" lon="103.426369"><ele>613.55316</ele><time>2026-08-12T00:03:19.000Z</time></trkpt>
        <trkpt lat="29.565066" lon="103.426312"><ele>613.92053</ele><time>2026-08-12T00:03:27.000Z</time></trkpt>
        <trkpt lat="29.565069" lon="103.426259"><ele>615.2007</ele><time>2026-08-12T00:03:36.000Z</time></trkpt>
        <trkpt lat="29.565077" lon="103.426207"><ele>617.05756</ele><time>2026-08-12T00:03:45.000Z</time></trkpt>
        <trkpt lat="29.565092" lon="103.426154"><ele>618.6868</ele><time>2026-08-12T00:03:58.000Z</time></trkpt>
        <trkpt lat="29.565112" lon="103.426113"><ele>621.0268</ele><time>2026-08-12T00:04:06.000Z</time></trkpt>
        <trkpt lat="29.565141" lon="103.426073"><ele>622.45306</ele><time>2026-08-12T00:04:19.000Z</time></trkpt>
        <trkpt lat="29.565139" lon="103.426024"><ele>624.2952</ele><time>2026-08-12T00:04:31.000Z</time></trkpt>
        <trkpt lat="29.565147" lon="103.425972"><ele>625.7433</ele><time>2026-08-12T00:04:42.000Z</time></trkpt>
        <trkpt lat="29.565154" lon="103.425923"><ele>627.35535</ele><time>2026-08-12T00:04:51.000Z</time></trkpt>
        <trkpt lat="29.565152" lon="103.425871"><ele>628.70526</ele><time>2026-08-12T00:05:00.000Z</time></trkpt>
        <trkpt lat="29.565151" lon="103.425821"><ele>630.5757</ele><time>2026-08-12T00:05:11.000Z</time></trkpt>
        <trkpt lat="29.565162" lon="103.425789"><ele>634.34753</ele><time>2026-08-12T00:05:43.000Z</time></trkpt>
        <trkpt lat="29.565162" lon="103.425767"><ele>639.0918</ele><time>2026-08-12T00:05:50.000Z</time></trkpt>
        <trkpt lat="29.565181" lon="103.425744"><ele>643.0346</ele><time>2026-08-12T00:06:10.000Z</time></trkpt>
        <trkpt lat="29.565168" lon="103.425694"><ele>644.8701</ele><time>2026-08-12T00:06:26.000Z</time></trkpt>
        <trkpt lat="29.565138" lon="103.425645"><ele>645.7483</ele><time>2026-08-12T00:06:30.000Z</time></trkpt>
        <trkpt lat="29.565113" lon="103.425602"><ele>645.39545</ele><time>2026-08-12T00:06:34.000Z</time></trkpt>
        <trkpt lat="29.565071" lon="103.425562"><ele>646.87427</ele><time>2026-08-12T00:06:38.000Z</time></trkpt>
        <trkpt lat="29.56504" lon="103.425527"><ele>648.5384</ele><time>2026-08-12T00:06:42.000Z</time></trkpt>
        <trkpt lat="29.565006" lon="103.425485"><ele>649.0245</ele><time>2026-08-12T00:06:48.000Z</time></trkpt>
        <trkpt lat="29.564978" lon="103.425429"><ele>647.5765</ele><time>2026-08-12T00:06:52.000Z</time></trkpt>
        <trkpt lat="29.564947" lon="103.425384"><ele>646.4441</ele><time>2026-08-12T00:06:55.000Z</time></trkpt>
        <trkpt lat="29.564917" lon="103.425343"><ele>646.0197</ele><time>2026-08-12T00:06:58.000Z</time></trkpt>
        <trkpt lat="29.564874" lon="103.4253"><ele>645.64075</ele><time>2026-08-12T00:07:02.000Z</time></trkpt>
        <trkpt lat="29.564834" lon="103.425264"><ele>644.7674</ele><time>2026-08-12T00:07:06.000Z</time></trkpt>
        <trkpt lat="29.564793" lon="103.425235"><ele>644.25183</ele><time>2026-08-12T00:07:10.000Z</time></trkpt>
        <trkpt lat="29.564753" lon="103.425204"><ele>644.23334</ele><time>2026-08-12T00:07:15.000Z</time></trkpt>
        <trkpt lat="29.564768" lon="103.425154"><ele>644.8657</ele><time>2026-08-12T00:07:19.000Z</time></trkpt>
        <trkpt lat="29.564753" lon="103.425102"><ele>645.642</ele><time>2026-08-12T00:07:26.000Z</time></trkpt>
        <trkpt lat="29.564772" lon="103.425048"><ele>646.05756</ele><time>2026-08-12T00:07:38.000Z</time></trkpt>
        <trkpt lat="29.564782" lon="103.424993"><ele>646.3356</ele><time>2026-08-12T00:07:47.000Z</time></trkpt>
        <trkpt lat="29.564753" lon="103.42494"><ele>647.16986</ele><time>2026-08-12T00:07:53.000Z</time></trkpt>
        <trkpt lat="29.564712" lon="103.424903"><ele>647.7676</ele><time>2026-08-12T00:07:57.000Z</time></trkpt>
        <trkpt lat="29.564682" lon="103.424857"><ele>647.8134</ele><time>2026-08-12T00:08:03.000Z</time></trkpt>
        <trkpt lat="29.56468" lon="103.424803"><ele>648.34454</ele><time>2026-08-12T00:08:10.000Z</time></trkpt>
        <trkpt lat="29.564688" lon="103.424748"><ele>649.0165</ele><time>2026-08-12T00:08:16.000Z</time></trkpt>
        <trkpt lat="29.564693" lon="103.424693"><ele>649.7417</ele><time>2026-08-12T00:08:22.000Z</time></trkpt>
        <trkpt lat="29.564676" lon="103.424643"><ele>649.74255</ele><time>2026-08-12T00:08:27.000Z</time></trkpt>
        <trkpt lat="29.56466" lon="103.424592"><ele>649.4025</ele><time>2026-08-12T00:08:32.000Z</time></trkpt>
        <trkpt lat="29.564639" lon="103.42454"><ele>650.0373</ele><time>2026-08-12T00:08:38.000Z</time></trkpt>
        <trkpt lat="29.564627" lon="103.424485"><ele>651.3208</ele><time>2026-08-12T00:08:45.000Z</time></trkpt>
        <trkpt lat="29.564597" lon="103.424445"><ele>652.2078</ele><time>2026-08-12T00:08:51.000Z</time></trkpt>
        <trkpt lat="29.564579" lon="103.424392"><ele>653.17444</ele><time>2026-08-12T00:08:58.000Z</time></trkpt>
        <trkpt lat="29.564576" lon="103.424329"><ele>654.0668</ele><time>2026-08-12T00:09:04.000Z</time></trkpt>
        <trkpt lat="29.564576" lon="103.424273"><ele>654.5273</ele><time>2026-08-12T00:09:13.000Z</time></trkpt>
        <trkpt lat="29.564576" lon="103.424221"><ele>655.66113</ele><time>2026-08-12T00:09:24.000Z</time></trkpt>
        <trkpt lat="29.564558" lon="103.424182"><ele>658.7293</ele><time>2026-08-12T00:09:36.000Z</time></trkpt>
        <trkpt lat="29.564532" lon="103.42414"><ele>660.73505</ele><time>2026-08-12T00:09:52.000Z</time></trkpt>
        <trkpt lat="29.564492" lon="103.424111"><ele>661.77844</ele><time>2026-08-12T00:10:01.000Z</time></trkpt>
        <trkpt lat="29.564451" lon="103.424084"><ele>661.63934</ele><time>2026-08-12T00:10:08.000Z</time></trkpt>
        <trkpt lat="29.564424" lon="103.424038"><ele>662.4254</ele><time>2026-08-12T00:10:15.000Z</time></trkpt>
        <trkpt lat="29.564401" lon="103.423989"><ele>662.8424</ele><time>2026-08-12T00:10:23.000Z</time></trkpt>
        <trkpt lat="29.564376" lon="103.423947"><ele>663.6502</ele><time>2026-08-12T00:10:31.000Z</time></trkpt>
        <trkpt lat="29.56436" lon="103.423898"><ele>664.4716</ele><time>2026-08-12T00:10:37.000Z</time></trkpt>
        <trkpt lat="29.564331" lon="103.423858"><ele>664.9724</ele><time>2026-08-12T00:10:42.000Z</time></trkpt>
        <trkpt lat="29.564312" lon="103.423808"><ele>666.2823</ele><time>2026-08-12T00:10:47.000Z</time></trkpt>
        <trkpt lat="29.564331" lon="103.423758"><ele>667.13995</ele><time>2026-08-12T00:10:57.000Z</time></trkpt>
        <trkpt lat="29.564309" lon="103.423713"><ele>669.3536</ele><time>2026-08-12T00:11:17.000Z</time></trkpt>
        <trkpt lat="29.564324" lon="103.423663"><ele>670.2733</ele><time>2026-08-12T00:11:25.000Z</time></trkpt>
        <trkpt lat="29.564356" lon="103.423619"><ele>670.67847</ele><time>2026-08-12T00:11:31.000Z</time></trkpt>
        <trkpt lat="29.564376" lon="103.423566"><ele>671.3816</ele><time>2026-08-12T00:11:38.000Z</time></trkpt>
        <trkpt lat="29.564409" lon="103.423522"><ele>671.4148</ele><time>2026-08-12T00:11:45.000Z</time></trkpt>
        <trkpt lat="29.564415" lon="103.423466"><ele>672.80786</ele><time>2026-08-12T00:11:52.000Z</time></trkpt>
        <trkpt lat="29.564425" lon="103.423412"><ele>674.3013</ele><time>2026-08-12T00:11:59.000Z</time></trkpt>
        <trkpt lat="29.564452" lon="103.423371"><ele>675.33453</ele><time>2026-08-12T00:12:07.000Z</time></trkpt>
        <trkpt lat="29.564439" lon="103.423321"><ele>676.7309</ele><time>2026-08-12T00:12:15.000Z</time></trkpt>
        <trkpt lat="29.564441" lon="103.42327"><ele>678.0696</ele><time>2026-08-12T00:12:22.000Z</time></trkpt>
        <trkpt lat="29.564444" lon="103.423217"><ele>678.86346</ele><time>2026-08-12T00:12:30.000Z</time></trkpt>
        <trkpt lat="29.564462" lon="103.423169"><ele>679.18744</ele><time>2026-08-12T00:12:40.000Z</time></trkpt>
        <trkpt lat="29.56448" lon="103.42312"><ele>679.4576</ele><time>2026-08-12T00:12:47.000Z</time></trkpt>
        <trkpt lat="29.564479" lon="103.423066"><ele>685.5634</ele><time>2026-08-12T00:12:59.000Z</time></trkpt>
        <trkpt lat="29.564472" lon="103.423017"><ele>685.5634</ele><time>2026-08-12T00:13:11.000Z</time></trkpt>
        <trkpt lat="29.564486" lon="103.423017"><ele>691.1728</ele><time>2026-08-12T00:13:21.000Z</time></trkpt>
        <trkpt lat="29.56452" lon="103.423019"><ele>695.6834</ele><time>2026-08-12T00:13:56.000Z</time></trkpt>
        <trkpt lat="29.564515" lon="103.422974"><ele>698.9574</ele><time>2026-08-12T00:16:54.000Z</time></trkpt>
        <trkpt lat="29.564519" lon="103.422916"><ele>699.5055</ele><time>2026-08-12T00:17:00.000Z</time></trkpt>
        <trkpt lat="29.564515" lon="103.422859"><ele>700.06573</ele><time>2026-08-12T00:17:04.000Z</time></trkpt>
        <trkpt lat="29.564519" lon="103.422803"><ele>700.40234</ele><time>2026-08-12T00:17:10.000Z</time></trkpt>
        <trkpt lat="29.564508" lon="103.422751"><ele>701.2037</ele><time>2026-08-12T00:17:18.000Z</time></trkpt>
        <trkpt lat="29.564476" lon="103.422708"><ele>701.6951</ele><time>2026-08-12T00:17:23.000Z</time></trkpt>
        <trkpt lat="29.564454" lon="103.422657"><ele>702.4792</ele><time>2026-08-12T00:17:29.000Z</time></trkpt>
        <trkpt lat="29.564424" lon="103.422619"><ele>705.47235</ele><time>2026-08-12T00:17:38.000Z</time></trkpt>
        <trkpt lat="29.56442" lon="103.422554"><ele>707.163</ele><time>2026-08-12T00:17:50.000Z</time></trkpt>
        <trkpt lat="29.56443" lon="103.422481"><ele>707.163</ele><time>2026-08-12T00:18:02.000Z</time></trkpt>
        <trkpt lat="29.564456" lon="103.422428"><ele>707.0197</ele><time>2026-08-12T00:18:14.000Z</time></trkpt>
        <trkpt lat="29.564459" lon="103.422374"><ele>706.6075</ele><time>2026-08-12T00:18:28.000Z</time></trkpt>
        <trkpt lat="29.564452" lon="103.422322"><ele>707.3332</ele><time>2026-08-12T00:18:40.000Z</time></trkpt>
        <trkpt lat="29.564432" lon="103.422275"><ele>708.78766</ele><time>2026-08-12T00:18:48.000Z</time></trkpt>
        <trkpt lat="29.564421" lon="103.422225"><ele>709.5329</ele><time>2026-08-12T00:18:54.000Z</time></trkpt>
        <trkpt lat="29.564408" lon="103.422167"><ele>710.1379</ele><time>2026-08-12T00:19:01.000Z</time></trkpt>
        <trkpt lat="29.564399" lon="103.422113"><ele>711.69904</ele><time>2026-08-12T00:19:08.000Z</time></trkpt>
        <trkpt lat="29.564398" lon="103.422061"><ele>713.8365</ele><time>2026-08-12T00:19:18.000Z</time></trkpt>
        <trkpt lat="29.564377" lon="103.422015"><ele>715.3499</ele><time>2026-08-12T00:19:28.000Z</time></trkpt>
        <trkpt lat="29.564361" lon="103.42196"><ele>716.7172</ele><time>2026-08-12T00:19:39.000Z</time></trkpt>
        <trkpt lat="29.564361" lon="103.421904"><ele>717.6548</ele><time>2026-08-12T00:19:46.000Z</time></trkpt>
        <trkpt lat="29.564372" lon="103.421854"><ele>717.88257</ele><time>2026-08-12T00:19:56.000Z</time></trkpt>
        <trkpt lat="29.564394" lon="103.421803"><ele>718.2256</ele><time>2026-08-12T00:20:04.000Z</time></trkpt>
        <trkpt lat="29.564419" lon="103.42178"><ele>721.7775</ele><time>2026-08-12T00:21:22.000Z</time></trkpt>
        <trkpt lat="29.564404" lon="103.421728"><ele>722.55066</ele><time>2026-08-12T00:21:42.000Z</time></trkpt>
        <trkpt lat="29.564391" lon="103.421677"><ele>722.9305</ele><time>2026-08-12T00:21:51.000Z</time></trkpt>
        <trkpt lat="29.564371" lon="103.421629"><ele>724.72034</ele><time>2026-08-12T00:22:01.000Z</time></trkpt>
        <trkpt lat="29.564363" lon="103.421577"><ele>727.167</ele><time>2026-08-12T00:22:13.000Z</time></trkpt>
        <trkpt lat="29.564365" lon="103.421526"><ele>729.11816</ele><time>2026-08-12T00:22:21.000Z</time></trkpt>
        <trkpt lat="29.56434" lon="103.421485"><ele>731.1217</ele><time>2026-08-12T00:22:32.000Z</time></trkpt>
        <trkpt lat="29.564317" lon="103.421439"><ele>732.2128</ele><time>2026-08-12T00:22:41.000Z</time></trkpt>
        <trkpt lat="29.564293" lon="103.421443"><ele>736.4299</ele><time>2026-08-12T00:23:00.000Z</time></trkpt>
        <trkpt lat="29.564285" lon="103.421387"><ele>738.6139</ele><time>2026-08-12T00:23:06.000Z</time></trkpt>
        <trkpt lat="29.564308" lon="103.421342"><ele>739.2353</ele><time>2026-08-12T00:23:11.000Z</time></trkpt>
        <trkpt lat="29.564344" lon="103.421307"><ele>739.31696</ele><time>2026-08-12T00:23:15.000Z</time></trkpt>
        <trkpt lat="29.564397" lon="103.421273"><ele>739.65875</ele><time>2026-08-12T00:23:20.000Z</time></trkpt>
        <trkpt lat="29.564449" lon="103.421252"><ele>740.05927</ele><time>2026-08-12T00:23:24.000Z</time></trkpt>
        <trkpt lat="29.564491" lon="103.421237"><ele>741.4519</ele><time>2026-08-12T00:23:33.000Z</time></trkpt>
        <trkpt lat="29.564498" lon="103.421235"><ele>742.3487</ele><time>2026-08-12T00:24:18.000Z</time></trkpt>
        <trkpt lat="29.564498" lon="103.421235"><ele>742.3487</ele><time>2026-08-12T00:24:31.000Z</time></trkpt>
        <trkpt lat="29.564541" lon="103.421209"><ele>742.4001</ele><time>2026-08-12T00:24:53.000Z</time></trkpt>
        <trkpt lat="29.56458" lon="103.421175"><ele>742.553</ele><time>2026-08-12T00:25:04.000Z</time></trkpt>
        <trkpt lat="29.564623" lon="103.421142"><ele>742.8101</ele><time>2026-08-12T00:25:10.000Z</time></trkpt>
        <trkpt lat="29.564667" lon="103.421118"><ele>743.5327</ele><time>2026-08-12T00:25:18.000Z</time></trkpt>
        <trkpt lat="29.564689" lon="103.421072"><ele>744.97266</ele><time>2026-08-12T00:25:28.000Z</time></trkpt>
        <trkpt lat="29.564737" lon="103.421083"><ele>745.4872</ele><time>2026-08-12T00:25:38.000Z</time></trkpt>
        <trkpt lat="29.564775" lon="103.421113"><ele>745.7888</ele><time>2026-08-12T00:25:45.000Z</time></trkpt>
        <trkpt lat="29.564812" lon="103.421145"><ele>746.38477</ele><time>2026-08-12T00:25:49.000Z</time></trkpt>
        <trkpt lat="29.564842" lon="103.42118"><ele>748.82385</ele><time>2026-08-12T00:25:59.000Z</time></trkpt>
        <trkpt lat="29.564872" lon="103.421222"><ele>749.65936</ele><time>2026-08-12T00:26:06.000Z</time></trkpt>
        <trkpt lat="29.5649" lon="103.421261"><ele>750.6847</ele><time>2026-08-12T00:26:14.000Z</time></trkpt>
        <trkpt lat="29.564923" lon="103.421308"><ele>752.2068</ele><time>2026-08-12T00:26:26.000Z</time></trkpt>
        <trkpt lat="29.564966" lon="103.421319"><ele>754.4272</ele><time>2026-08-12T00:26:38.000Z</time></trkpt>
        <trkpt lat="29.56501" lon="103.421327"><ele>756.5092</ele><time>2026-08-12T00:26:53.000Z</time></trkpt>
        <trkpt lat="29.565054" lon="103.421328"><ele>758.7161</ele><time>2026-08-12T00:27:03.000Z</time></trkpt>
        <trkpt lat="29.565096" lon="103.421316"><ele>760.6905</ele><time>2026-08-12T00:27:14.000Z</time></trkpt>
        <trkpt lat="29.565135" lon="103.421295"><ele>763.1767</ele><time>2026-08-12T00:28:40.000Z</time></trkpt>
        <trkpt lat="29.565176" lon="103.421271"><ele>764.2852</ele><time>2026-08-12T00:28:49.000Z</time></trkpt>
        <trkpt lat="29.565216" lon="103.421253"><ele>765.898</ele><time>2026-08-12T00:29:00.000Z</time></trkpt>
        <trkpt lat="29.565259" lon="103.421238"><ele>767.0831</ele><time>2026-08-12T00:29:09.000Z</time></trkpt>
        <trkpt lat="29.565298" lon="103.42121"><ele>768.05286</ele><time>2026-08-12T00:29:18.000Z</time></trkpt>
        <trkpt lat="29.565337" lon="103.421206"><ele>771.0793</ele><time>2026-08-12T00:29:26.000Z</time></trkpt>
        <trkpt lat="29.565351" lon="103.421208"><ele>776.3136</ele><time>2026-08-12T00:29:52.000Z</time></trkpt>
        <trkpt lat="29.565358" lon="103.421198"><ele>781.23267</ele><time>2026-08-12T00:30:53.000Z</time></trkpt>
        <trkpt lat="29.565395" lon="103.421166"><ele>783.39703</ele><time>2026-08-12T00:30:59.000Z</time></trkpt>
        <trkpt lat="29.565441" lon="103.421143"><ele>784.4431</ele><time>2026-08-12T00:31:04.000Z</time></trkpt>
        <trkpt lat="29.565487" lon="103.421118"><ele>785.4073</ele><time>2026-08-12T00:31:11.000Z</time></trkpt>
        <trkpt lat="29.565534" lon="103.421101"><ele>785.9835</ele><time>2026-08-12T00:31:17.000Z</time></trkpt>
        <trkpt lat="29.56558" lon="103.421091"><ele>786.9523</ele><time>2026-08-12T00:31:22.000Z</time></trkpt>
        <trkpt lat="29.565624" lon="103.421074"><ele>787.89954</ele><time>2026-08-12T00:31:32.000Z</time></trkpt>
        <trkpt lat="29.56567" lon="103.421073"><ele>788.1407</ele><time>2026-08-12T00:31:37.000Z</time></trkpt>
        <trkpt lat="29.565718" lon="103.421065"><ele>788.7052</ele><time>2026-08-12T00:31:45.000Z</time></trkpt>
        <trkpt lat="29.565765" lon="103.421066"><ele>789.6471</ele><time>2026-08-12T00:31:55.000Z</time></trkpt>
        <trkpt lat="29.565804" lon="103.421084"><ele>791.71606</ele><time>2026-08-12T00:32:00.000Z</time></trkpt>
        <trkpt lat="29.56585" lon="103.421097"><ele>792.68286</ele><time>2026-08-12T00:32:06.000Z</time></trkpt>
        <trkpt lat="29.565903" lon="103.421091"><ele>792.2904</ele><time>2026-08-12T00:32:12.000Z</time></trkpt>
        <trkpt lat="29.565954" lon="103.42108"><ele>792.2326</ele><time>2026-08-12T00:32:18.000Z</time></trkpt>
        <trkpt lat="29.566001" lon="103.421082"><ele>791.4028</ele><time>2026-08-12T00:32:24.000Z</time></trkpt>
        <trkpt lat="29.566046" lon="103.421089"><ele>792.27716</ele><time>2026-08-12T00:32:43.000Z</time></trkpt>
        <trkpt lat="29.566089" lon="103.421096"><ele>793.6345</ele><time>2026-08-12T00:32:52.000Z</time></trkpt>
        <trkpt lat="29.566138" lon="103.421103"><ele>794.1388</ele><time>2026-08-12T00:32:58.000Z</time></trkpt>
        <trkpt lat="29.566188" lon="103.421098"><ele>794.55035</ele><time>2026-08-12T00:33:03.000Z</time></trkpt>
        <trkpt lat="29.566223" lon="103.421063"><ele>795.652</ele><time>2026-08-12T00:33:10.000Z</time></trkpt>
        <trkpt lat="29.566254" lon="103.421019"><ele>797.893</ele><time>2026-08-12T00:33:15.000Z</time></trkpt>
        <trkpt lat="29.566259" lon="103.420963"><ele>799.6932</ele><time>2026-08-12T00:33:21.000Z</time></trkpt>
        <trkpt lat="29.566252" lon="103.420912"><ele>800.5428</ele><time>2026-08-12T00:33:34.000Z</time></trkpt>
        <trkpt lat="29.566272" lon="103.420859"><ele>800.5921</ele><time>2026-08-12T00:33:43.000Z</time></trkpt>
        <trkpt lat="29.566273" lon="103.420804"><ele>800.57666</ele><time>2026-08-12T00:34:20.000Z</time></trkpt>
        <trkpt lat="29.566293" lon="103.420758"><ele>800.19904</ele><time>2026-08-12T00:34:26.000Z</time></trkpt>
        <trkpt lat="29.56631" lon="103.420704"><ele>800.11694</ele><time>2026-08-12T00:34:31.000Z</time></trkpt>
        <trkpt lat="29.566328" lon="103.420656"><ele>800.00354</ele><time>2026-08-12T00:34:35.000Z</time></trkpt>
        <trkpt lat="29.56635" lon="103.420604"><ele>798.9366</ele><time>2026-08-12T00:34:39.000Z</time></trkpt>
        <trkpt lat="29.56636" lon="103.42055"><ele>798.8913</ele><time>2026-08-12T00:34:43.000Z</time></trkpt>
        <trkpt lat="29.566381" lon="103.420504"><ele>799.3197</ele><time>2026-08-12T00:34:47.000Z</time></trkpt>
        <trkpt lat="29.566405" lon="103.420454"><ele>799.5177</ele><time>2026-08-12T00:34:53.000Z</time></trkpt>
        <trkpt lat="29.566432" lon="103.420402"><ele>800.9475</ele><time>2026-08-12T00:34:59.000Z</time></trkpt>
        <trkpt lat="29.566463" lon="103.420353"><ele>800.7049</ele><time>2026-08-12T00:35:04.000Z</time></trkpt>
        <trkpt lat="29.566496" lon="103.420306"><ele>800.9857</ele><time>2026-08-12T00:35:09.000Z</time></trkpt>
        <trkpt lat="29.566525" lon="103.420267"><ele>801.9333</ele><time>2026-08-12T00:35:13.000Z</time></trkpt>
        <trkpt lat="29.566552" lon="103.420222"><ele>802.2254</ele><time>2026-08-12T00:35:17.000Z</time></trkpt>
        <trkpt lat="29.566585" lon="103.420176"><ele>803.07336</ele><time>2026-08-12T00:35:22.000Z</time></trkpt>
        <trkpt lat="29.566617" lon="103.420136"><ele>803.30023</ele><time>2026-08-12T00:35:27.000Z</time></trkpt>
        <trkpt lat="29.566633" lon="103.420082"><ele>803.50714</ele><time>2026-08-12T00:35:32.000Z</time></trkpt>
        <trkpt lat="29.566637" lon="103.42003"><ele>803.9305</ele><time>2026-08-12T00:35:37.000Z</time></trkpt>
        <trkpt lat="29.566651" lon="103.419972"><ele>804.1289</ele><time>2026-08-12T00:35:42.000Z</time></trkpt>
        <trkpt lat="29.566665" lon="103.419911"><ele>804.05695</ele><time>2026-08-12T00:35:47.000Z</time></trkpt>
        <trkpt lat="29.566687" lon="103.419858"><ele>804.3065</ele><time>2026-08-12T00:35:53.000Z</time></trkpt>
        <trkpt lat="29.566722" lon="103.419832"><ele>806.24506</ele><time>2026-08-12T00:35:59.000Z</time></trkpt>
        <trkpt lat="29.566761" lon="103.419816"><ele>808.33655</ele><time>2026-08-12T00:36:23.000Z</time></trkpt>
        <trkpt lat="29.566774" lon="103.419762"><ele>809.3437</ele><time>2026-08-12T00:36:30.000Z</time></trkpt>
        <trkpt lat="29.566785" lon="103.419702"><ele>809.54175</ele><time>2026-08-12T00:36:36.000Z</time></trkpt>
        <trkpt lat="29.566829" lon="103.419674"><ele>809.91504</ele><time>2026-08-12T00:36:44.000Z</time></trkpt>
        <trkpt lat="29.566872" lon="103.419694"><ele>810.50073</ele><time>2026-08-12T00:36:51.000Z</time></trkpt>
        <trkpt lat="29.566904" lon="103.419733"><ele>810.07117</ele><time>2026-08-12T00:36:57.000Z</time></trkpt>
        <trkpt lat="29.566932" lon="103.419774"><ele>810.1631</ele><time>2026-08-12T00:37:02.000Z</time></trkpt>
        <trkpt lat="29.566966" lon="103.419817"><ele>810.7546</ele><time>2026-08-12T00:37:09.000Z</time></trkpt>
        <trkpt lat="29.566995" lon="103.419862"><ele>810.95935</ele><time>2026-08-12T00:37:16.000Z</time></trkpt>
        <trkpt lat="29.567009" lon="103.419914"><ele>811.1235</ele><time>2026-08-12T00:37:22.000Z</time></trkpt>
        <trkpt lat="29.567017" lon="103.419967"><ele>812.15436</ele><time>2026-08-12T00:37:29.000Z</time></trkpt>
        <trkpt lat="29.567024" lon="103.420019"><ele>813.17236</ele><time>2026-08-12T00:37:36.000Z</time></trkpt>
        <trkpt lat="29.567022" lon="103.420074"><ele>814.1556</ele><time>2026-08-12T00:37:42.000Z</time></trkpt>
        <trkpt lat="29.567019" lon="103.420125"><ele>815.3764</ele><time>2026-08-12T00:37:47.000Z</time></trkpt>
        <trkpt lat="29.567015" lon="103.42018"><ele>815.8569</ele><time>2026-08-12T00:37:53.000Z</time></trkpt>
        <trkpt lat="29.567019" lon="103.42024"><ele>815.479</ele><time>2026-08-12T00:37:59.000Z</time></trkpt>
        <trkpt lat="29.56703" lon="103.420281"><ele>818.4609</ele><time>2026-08-12T00:38:26.000Z</time></trkpt>
        <trkpt lat="29.567054" lon="103.420324"><ele>819.87915</ele><time>2026-08-12T00:38:34.000Z</time></trkpt>
        <trkpt lat="29.567094" lon="103.42036"><ele>819.1976</ele><time>2026-08-12T00:38:52.000Z</time></trkpt>
        <trkpt lat="29.567123" lon="103.4204"><ele>819.48175</ele><time>2026-08-12T00:39:03.000Z</time></trkpt>
        <trkpt lat="29.56716" lon="103.42043"><ele>820.1986</ele><time>2026-08-12T00:39:28.000Z</time></trkpt>
        <trkpt lat="29.567206" lon="103.420442"><ele>820.39124</ele><time>2026-08-12T00:39:33.000Z</time></trkpt>
        <trkpt lat="29.56726" lon="103.420438"><ele>820.6332</ele><time>2026-08-12T00:39:39.000Z</time></trkpt>
        <trkpt lat="29.56731" lon="103.420427"><ele>820.76953</ele><time>2026-08-12T00:39:46.000Z</time></trkpt>
        <trkpt lat="29.567354" lon="103.420422"><ele>822.1028</ele><time>2026-08-12T00:40:00.000Z</time></trkpt>
        <trkpt lat="29.567371" lon="103.420409"><ele>826.7094</ele><time>2026-08-12T00:40:14.000Z</time></trkpt>
        <trkpt lat="29.567411" lon="103.420407"><ele>829.1723</ele><time>2026-08-12T00:40:21.000Z</time></trkpt>
        <trkpt lat="29.567454" lon="103.420387"><ele>830.44244</ele><time>2026-08-12T00:40:29.000Z</time></trkpt>
        <trkpt lat="29.567486" lon="103.420363"><ele>833.9146</ele><time>2026-08-12T00:40:35.000Z</time></trkpt>
        <trkpt lat="29.56752" lon="103.42035"><ele>837.1733</ele><time>2026-08-12T00:40:41.000Z</time></trkpt>
        <trkpt lat="29.567557" lon="103.420343"><ele>840.02344</ele><time>2026-08-12T00:40:49.000Z</time></trkpt>
        <trkpt lat="29.567581" lon="103.420309"><ele>843.48676</ele><time>2026-08-12T00:40:58.000Z</time></trkpt>
        <trkpt lat="29.567624" lon="103.420289"><ele>845.1779</ele><time>2026-08-12T00:41:35.000Z</time></trkpt>
        <trkpt lat="29.567667" lon="103.420263"><ele>845.7204</ele><time>2026-08-12T00:41:44.000Z</time></trkpt>
        <trkpt lat="29.567709" lon="103.420245"><ele>845.9517</ele><time>2026-08-12T00:41:53.000Z</time></trkpt>
        <trkpt lat="29.56775" lon="103.420222"><ele>846.2711</ele><time>2026-08-12T00:42:00.000Z</time></trkpt>
        <trkpt lat="29.567792" lon="103.420203"><ele>846.86127</ele><time>2026-08-12T00:42:08.000Z</time></trkpt>
        <trkpt lat="29.567836" lon="103.42018"><ele>847.1937</ele><time>2026-08-12T00:42:18.000Z</time></trkpt>
        <trkpt lat="29.567879" lon="103.420157"><ele>848.1678</ele><time>2026-08-12T00:42:35.000Z</time></trkpt>
        <trkpt lat="29.567921" lon="103.420133"><ele>849.21436</ele><time>2026-08-12T00:42:43.000Z</time></trkpt>
        <trkpt lat="29.567964" lon="103.42011"><ele>850.6158</ele><time>2026-08-12T00:42:54.000Z</time></trkpt>
        <trkpt lat="29.568002" lon="103.420084"><ele>852.48456</ele><time>2026-08-12T00:43:04.000Z</time></trkpt>
        <trkpt lat="29.568032" lon="103.420074"><ele>856.2488</ele><time>2026-08-12T00:43:11.000Z</time></trkpt>
        <trkpt lat="29.568065" lon="103.420067"><ele>860.4367</ele><time>2026-08-12T00:43:22.000Z</time></trkpt>
        <trkpt lat="29.568108" lon="103.42006"><ele>862.2137</ele><time>2026-08-12T00:43:34.000Z</time></trkpt>
        <trkpt lat="29.568128" lon="103.42005"><ele>864.77826</ele><time>2026-08-12T00:43:56.000Z</time></trkpt>
        <trkpt lat="29.568131" lon="103.42005"><ele>864.77826</ele><time>2026-08-12T00:44:11.000Z</time></trkpt>
        <trkpt lat="29.568178" lon="103.420046"><ele>865.3504</ele><time>2026-08-12T00:44:22.000Z</time></trkpt>
        <trkpt lat="29.568227" lon="103.420033"><ele>865.5965</ele><time>2026-08-12T00:44:32.000Z</time></trkpt>
        <trkpt lat="29.568276" lon="103.420026"><ele>865.8307</ele><time>2026-08-12T00:44:40.000Z</time></trkpt>
        <trkpt lat="29.568325" lon="103.420023"><ele>866.61304</ele><time>2026-08-12T00:44:50.000Z</time></trkpt>
        <trkpt lat="29.56837" lon="103.420018"><ele>867.7543</ele><time>2026-08-12T00:45:01.000Z</time></trkpt>
        <trkpt lat="29.568416" lon="103.420012"><ele>869.0748</ele><time>2026-08-12T00:45:11.000Z</time></trkpt>
        <trkpt lat="29.568458" lon="103.420025"><ele>871.1183</ele><time>2026-08-12T00:45:25.000Z</time></trkpt>
        <trkpt lat="29.568503" lon="103.420021"><ele>872.2381</ele><time>2026-08-12T00:45:38.000Z</time></trkpt>
        <trkpt lat="29.568543" lon="103.420014"><ele>874.37317</ele><time>2026-08-12T00:45:48.000Z</time></trkpt>
        <trkpt lat="29.568582" lon="103.42002"><ele>877.43115</ele><time>2026-08-12T00:46:00.000Z</time></trkpt>
        <trkpt lat="29.568625" lon="103.420031"><ele>879.7882</ele><time>2026-08-12T00:47:24.000Z</time></trkpt>
        <trkpt lat="29.568668" lon="103.420013"><ele>880.6319</ele><time>2026-08-12T00:47:30.000Z</time></trkpt>
        <trkpt lat="29.568712" lon="103.419997"><ele>881.92914</ele><time>2026-08-12T00:47:38.000Z</time></trkpt>
        <trkpt lat="29.568756" lon="103.419987"><ele>883.35846</ele><time>2026-08-12T00:47:47.000Z</time></trkpt>
        <trkpt lat="29.568797" lon="103.419972"><ele>885.45575</ele><time>2026-08-12T00:47:55.000Z</time></trkpt>
        <trkpt lat="29.568833" lon="103.419944"><ele>886.8816</ele><time>2026-08-12T00:48:03.000Z</time></trkpt>
        <trkpt lat="29.568871" lon="103.419919"><ele>888.4168</ele><time>2026-08-12T00:48:11.000Z</time></trkpt>
        <trkpt lat="29.568913" lon="103.41991"><ele>890.2005</ele><time>2026-08-12T00:48:29.000Z</time></trkpt>
        <trkpt lat="29.568951" lon="103.419887"><ele>891.9697</ele><time>2026-08-12T00:48:43.000Z</time></trkpt>
        <trkpt lat="29.568997" lon="103.419869"><ele>892.4355</ele><time>2026-08-12T00:48:48.000Z</time></trkpt>
        <trkpt lat="29.56904" lon="103.419855"><ele>893.1475</ele><time>2026-08-12T00:48:53.000Z</time></trkpt>
        <trkpt lat="29.569087" lon="103.419837"><ele>893.8653</ele><time>2026-08-12T00:48:58.000Z</time></trkpt>
        <trkpt lat="29.569136" lon="103.419812"><ele>894.26056</ele><time>2026-08-12T00:49:03.000Z</time></trkpt>
        <trkpt lat="29.569184" lon="103.419792"><ele>894.6187</ele><time>2026-08-12T00:49:09.000Z</time></trkpt>
        <trkpt lat="29.569225" lon="103.419766"><ele>894.6606</ele><time>2026-08-12T00:49:15.000Z</time></trkpt>
        <trkpt lat="29.569261" lon="103.419734"><ele>894.2073</ele><time>2026-08-12T00:49:30.000Z</time></trkpt>
        <trkpt lat="29.569305" lon="103.419709"><ele>894.2223</ele><time>2026-08-12T00:49:38.000Z</time></trkpt>
        <trkpt lat="29.569349" lon="103.419692"><ele>893.2469</ele><time>2026-08-12T00:49:48.000Z</time></trkpt>
        <trkpt lat="29.569392" lon="103.419672"><ele>892.9048</ele><time>2026-08-12T00:49:58.000Z</time></trkpt>
        <trkpt lat="29.569432" lon="103.419644"><ele>892.98706</ele><time>2026-08-12T00:50:10.000Z</time></trkpt>
        <trkpt lat="29.569471" lon="103.419617"><ele>892.7902</ele><time>2026-08-12T00:50:15.000Z</time></trkpt>
        <trkpt lat="29.569511" lon="103.419598"><ele>891.3926</ele><time>2026-08-12T00:50:31.000Z</time></trkpt>
        <trkpt lat="29.569549" lon="103.419567"><ele>891.722</ele><time>2026-08-12T00:50:37.000Z</time></trkpt>
        <trkpt lat="29.569579" lon="103.419526"><ele>890.97546</ele><time>2026-08-12T00:50:44.000Z</time></trkpt>
        <trkpt lat="29.56961" lon="103.419486"><ele>890.5789</ele><time>2026-08-12T00:50:48.000Z</time></trkpt>
        <trkpt lat="29.569638" lon="103.419443"><ele>889.2598</ele><time>2026-08-12T00:50:52.000Z</time></trkpt>
        <trkpt lat="29.569672" lon="103.419385"><ele>887.8682</ele><time>2026-08-12T00:50:56.000Z</time></trkpt>
        <trkpt lat="29.569699" lon="103.419342"><ele>887.40076</ele><time>2026-08-12T00:50:59.000Z</time></trkpt>
        <trkpt lat="29.569733" lon="103.419292"><ele>886.77936</ele><time>2026-08-12T00:51:03.000Z</time></trkpt>
        <trkpt lat="29.569756" lon="103.419242"><ele>886.0463</ele><time>2026-08-12T00:51:07.000Z</time></trkpt>
        <trkpt lat="29.569782" lon="103.419193"><ele>886.07825</ele><time>2026-08-12T00:51:12.000Z</time></trkpt>
        <trkpt lat="29.569779" lon="103.419125"><ele>886.1768</ele><time>2026-08-12T00:51:16.000Z</time></trkpt>
        <trkpt lat="29.569768" lon="103.419067"><ele>885.592</ele><time>2026-08-12T00:51:19.000Z</time></trkpt>
        <trkpt lat="29.569761" lon="103.418997"><ele>885.97046</ele><time>2026-08-12T00:51:22.000Z</time></trkpt>
        <trkpt lat="29.569764" lon="103.418942"><ele>885.5681</ele><time>2026-08-12T00:51:25.000Z</time></trkpt>
        <trkpt lat="29.569769" lon="103.418874"><ele>885.84326</ele><time>2026-08-12T00:51:30.000Z</time></trkpt>
        <trkpt lat="29.569769" lon="103.418818"><ele>886.37286</ele><time>2026-08-12T00:51:33.000Z</time></trkpt>
        <trkpt lat="29.569777" lon="103.418763"><ele>887.10846</ele><time>2026-08-12T00:51:38.000Z</time></trkpt>
        <trkpt lat="29.569796" lon="103.418706"><ele>886.905</ele><time>2026-08-12T00:51:41.000Z</time></trkpt>
        <trkpt lat="29.569811" lon="103.418651"><ele>885.74365</ele><time>2026-08-12T00:51:45.000Z</time></trkpt>
        <trkpt lat="29.569826" lon="103.418599"><ele>884.6153</ele><time>2026-08-12T00:51:49.000Z</time></trkpt>
        <trkpt lat="29.569844" lon="103.418544"><ele>883.9178</ele><time>2026-08-12T00:51:53.000Z</time></trkpt>
        <trkpt lat="29.569862" lon="103.418491"><ele>882.90326</ele><time>2026-08-12T00:51:58.000Z</time></trkpt>
        <trkpt lat="29.569869" lon="103.418437"><ele>882.1233</ele><time>2026-08-12T00:52:02.000Z</time></trkpt>
        <trkpt lat="29.569858" lon="103.418381"><ele>883.1706</ele><time>2026-08-12T00:52:06.000Z</time></trkpt>
        <trkpt lat="29.569864" lon="103.418324"><ele>883.89056</ele><time>2026-08-12T00:52:12.000Z</time></trkpt>
        <trkpt lat="29.56987" lon="103.418268"><ele>884.65717</ele><time>2026-08-12T00:52:17.000Z</time></trkpt>
        <trkpt lat="29.569882" lon="103.418203"><ele>885.3841</ele><time>2026-08-12T00:52:22.000Z</time></trkpt>
        <trkpt lat="29.56989" lon="103.418145"><ele>885.773</ele><time>2026-08-12T00:52:26.000Z</time></trkpt>
        <trkpt lat="29.569894" lon="103.418087"><ele>886.0239</ele><time>2026-08-12T00:52:30.000Z</time></trkpt>
        <trkpt lat="29.569918" lon="103.418038"><ele>886.80383</ele><time>2026-08-12T00:52:34.000Z</time></trkpt>
        <trkpt lat="29.569942" lon="103.417977"><ele>885.6925</ele><time>2026-08-12T00:52:39.000Z</time></trkpt>
        <trkpt lat="29.569955" lon="103.417914"><ele>884.72034</ele><time>2026-08-12T00:52:42.000Z</time></trkpt>
        <trkpt lat="29.569957" lon="103.417849"><ele>883.6714</ele><time>2026-08-12T00:52:45.000Z</time></trkpt>
        <trkpt lat="29.569968" lon="103.417791"><ele>882.8654</ele><time>2026-08-12T00:52:49.000Z</time></trkpt>
        <trkpt lat="29.570006" lon="103.417757"><ele>882.3956</ele><time>2026-08-12T00:52:52.000Z</time></trkpt>
        <trkpt lat="29.570031" lon="103.417714"><ele>881.23785</ele><time>2026-08-12T00:52:57.000Z</time></trkpt>
        <trkpt lat="29.57003" lon="103.417651"><ele>880.65894</ele><time>2026-08-12T00:53:02.000Z</time></trkpt>
        <trkpt lat="29.570037" lon="103.417597"><ele>880.8628</ele><time>2026-08-12T00:53:06.000Z</time></trkpt>
        <trkpt lat="29.57004" lon="103.417535"><ele>881.1047</ele><time>2026-08-12T00:53:11.000Z</time></trkpt>
        <trkpt lat="29.570052" lon="103.417468"><ele>880.9475</ele><time>2026-08-12T00:53:15.000Z</time></trkpt>
        <trkpt lat="29.570062" lon="103.417406"><ele>880.87866</ele><time>2026-08-12T00:53:19.000Z</time></trkpt>
        <trkpt lat="29.570071" lon="103.417341"><ele>880.6332</ele><time>2026-08-12T00:53:23.000Z</time></trkpt>
        <trkpt lat="29.570079" lon="103.417272"><ele>880.5593</ele><time>2026-08-12T00:53:27.000Z</time></trkpt>
        <trkpt lat="29.570089" lon="103.41721"><ele>880.52856</ele><time>2026-08-12T00:53:31.000Z</time></trkpt>
        <trkpt lat="29.570092" lon="103.417157"><ele>880.27655</ele><time>2026-08-12T00:53:34.000Z</time></trkpt>
        <trkpt lat="29.570091" lon="103.417093"><ele>880.1476</ele><time>2026-08-12T00:53:39.000Z</time></trkpt>
        <trkpt lat="29.570128" lon="103.417054"><ele>880.6373</ele><time>2026-08-12T00:53:44.000Z</time></trkpt>
        <trkpt lat="29.57018" lon="103.417032"><ele>880.7873</ele><time>2026-08-12T00:53:49.000Z</time></trkpt>
        <trkpt lat="29.57023" lon="103.417023"><ele>880.4234</ele><time>2026-08-12T00:53:54.000Z</time></trkpt>
        <trkpt lat="29.570279" lon="103.417018"><ele>880.358</ele><time>2026-08-12T00:54:00.000Z</time></trkpt>
        <trkpt lat="29.570323" lon="103.417023"><ele>879.4154</ele><time>2026-08-12T00:54:06.000Z</time></trkpt>
        <trkpt lat="29.570363" lon="103.416987"><ele>878.15405</ele><time>2026-08-12T00:54:24.000Z</time></trkpt>
        <trkpt lat="29.570382" lon="103.416924"><ele>877.92993</ele><time>2026-08-12T00:54:28.000Z</time></trkpt>
        <trkpt lat="29.570385" lon="103.416867"><ele>877.6843</ele><time>2026-08-12T00:54:31.000Z</time></trkpt>
        <trkpt lat="29.570382" lon="103.416813"><ele>877.66223</ele><time>2026-08-12T00:54:34.000Z</time></trkpt>
        <trkpt lat="29.570378" lon="103.416751"><ele>877.2663</ele><time>2026-08-12T00:54:38.000Z</time></trkpt>
        <trkpt lat="29.570379" lon="103.41669"><ele>876.8802</ele><time>2026-08-12T00:54:42.000Z</time></trkpt>
        <trkpt lat="29.570374" lon="103.416635"><ele>876.328</ele><time>2026-08-12T00:54:46.000Z</time></trkpt>
        <trkpt lat="29.57037" lon="103.416571"><ele>875.8835</ele><time>2026-08-12T00:54:49.000Z</time></trkpt>
        <trkpt lat="29.570367" lon="103.416517"><ele>875.6666</ele><time>2026-08-12T00:54:52.000Z</time></trkpt>
        <trkpt lat="29.570367" lon="103.416454"><ele>875.3741</ele><time>2026-08-12T00:54:55.000Z</time></trkpt>
        <trkpt lat="29.570368" lon="103.416396"><ele>874.7711</ele><time>2026-08-12T00:54:59.000Z</time></trkpt>
        <trkpt lat="29.570371" lon="103.416334"><ele>874.3619</ele><time>2026-08-12T00:55:04.000Z</time></trkpt>
        <trkpt lat="29.570382" lon="103.416254"><ele>874.1419</ele><time>2026-08-12T00:55:10.000Z</time></trkpt>
        <trkpt lat="29.570399" lon="103.416203"><ele>874.0607</ele><time>2026-08-12T00:55:14.000Z</time></trkpt>
        <trkpt lat="29.570433" lon="103.416153"><ele>874.381</ele><time>2026-08-12T00:55:18.000Z</time></trkpt>
        <trkpt lat="29.570471" lon="103.416123"><ele>874.5211</ele><time>2026-08-12T00:55:22.000Z</time></trkpt>
        <trkpt lat="29.570515" lon="103.416112"><ele>874.8188</ele><time>2026-08-12T00:55:27.000Z</time></trkpt>
        <trkpt lat="29.570571" lon="103.416088"><ele>875.65717</ele><time>2026-08-12T00:55:32.000Z</time></trkpt>
        <trkpt lat="29.570615" lon="103.416075"><ele>876.1143</ele><time>2026-08-12T00:55:37.000Z</time></trkpt>
        <trkpt lat="29.570666" lon="103.41606"><ele>876.1256</ele><time>2026-08-12T00:55:43.000Z</time></trkpt>
        <trkpt lat="29.570705" lon="103.416024"><ele>875.861</ele><time>2026-08-12T00:55:50.000Z</time></trkpt>
        <trkpt lat="29.570734" lon="103.415977"><ele>875.82227</ele><time>2026-08-12T00:56:00.000Z</time></trkpt>
        <trkpt lat="29.57073" lon="103.415922"><ele>876.7831</ele><time>2026-08-12T00:56:07.000Z</time></trkpt>
        <trkpt lat="29.570702" lon="103.415881"><ele>878.62256</ele><time>2026-08-12T00:56:13.000Z</time></trkpt>
        <trkpt lat="29.570669" lon="103.415846"><ele>879.036</ele><time>2026-08-12T00:56:21.000Z</time></trkpt>
        <trkpt lat="29.570631" lon="103.415814"><ele>878.57153</ele><time>2026-08-12T00:56:31.000Z</time></trkpt>
        <trkpt lat="29.570584" lon="103.415806"><ele>877.687</ele><time>2026-08-12T00:56:36.000Z</time></trkpt>
        <trkpt lat="29.570538" lon="103.415794"><ele>877.5245</ele><time>2026-08-12T00:56:40.000Z</time></trkpt>
        <trkpt lat="29.570488" lon="103.415759"><ele>877.9567</ele><time>2026-08-12T00:56:44.000Z</time></trkpt>
        <trkpt lat="29.57045" lon="103.415712"><ele>878.34</ele><time>2026-08-12T00:56:48.000Z</time></trkpt>
        <trkpt lat="29.570422" lon="103.415661"><ele>878.1564</ele><time>2026-08-12T00:56:52.000Z</time></trkpt>
        <trkpt lat="29.570388" lon="103.41562"><ele>878.0621</ele><time>2026-08-12T00:56:56.000Z</time></trkpt>
        <trkpt lat="29.570345" lon="103.415582"><ele>878.0662</ele><time>2026-08-12T00:57:01.000Z</time></trkpt>
        <trkpt lat="29.570301" lon="103.41556"><ele>878.0838</ele><time>2026-08-12T00:57:05.000Z</time></trkpt>
        <trkpt lat="29.570248" lon="103.415552"><ele>878.6028</ele><time>2026-08-12T00:57:10.000Z</time></trkpt>
        <trkpt lat="29.570194" lon="103.415551"><ele>878.3741</ele><time>2026-08-12T00:57:16.000Z</time></trkpt>
        <trkpt lat="29.570148" lon="103.415555"><ele>879.16876</ele><time>2026-08-12T00:57:22.000Z</time></trkpt>
        <trkpt lat="29.570102" lon="103.415541"><ele>880.4265</ele><time>2026-08-12T00:57:29.000Z</time></trkpt>
        <trkpt lat="29.570059" lon="103.415509"><ele>882.09766</ele><time>2026-08-12T00:57:34.000Z</time></trkpt>
        <trkpt lat="29.570018" lon="103.415468"><ele>883.17993</ele><time>2026-08-12T00:57:39.000Z</time></trkpt>
        <trkpt lat="29.569983" lon="103.415435"><ele>883.9998</ele><time>2026-08-12T00:57:43.000Z</time></trkpt>
        <trkpt lat="29.569955" lon="103.415391"><ele>885.295</ele><time>2026-08-12T00:57:47.000Z</time></trkpt>
        <trkpt lat="29.569926" lon="103.415344"><ele>886.02795</ele><time>2026-08-12T00:57:51.000Z</time></trkpt>
        <trkpt lat="29.569903" lon="103.415287"><ele>886.4922</ele><time>2026-08-12T00:57:56.000Z</time></trkpt>
        <trkpt lat="29.569893" lon="103.415223"><ele>887.02893</ele><time>2026-08-12T00:58:01.000Z</time></trkpt>
        <trkpt lat="29.569893" lon="103.415157"><ele>887.38324</ele><time>2026-08-12T00:58:05.000Z</time></trkpt>
        <trkpt lat="29.569901" lon="103.415094"><ele>887.00336</ele><time>2026-08-12T00:58:09.000Z</time></trkpt>
        <trkpt lat="29.569903" lon="103.41504"><ele>886.8936</ele><time>2026-08-12T00:58:13.000Z</time></trkpt>
        <trkpt lat="29.56989" lon="103.414977"><ele>886.7395</ele><time>2026-08-12T00:58:18.000Z</time></trkpt>
        <trkpt lat="29.569865" lon="103.414926"><ele>886.74976</ele><time>2026-08-12T00:58:22.000Z</time></trkpt>
        <trkpt lat="29.569832" lon="103.414884"><ele>887.0358</ele><time>2026-08-12T00:58:26.000Z</time></trkpt>
        <trkpt lat="29.569794" lon="103.414849"><ele>887.32336</ele><time>2026-08-12T00:58:30.000Z</time></trkpt>
        <trkpt lat="29.56975" lon="103.414807"><ele>887.4817</ele><time>2026-08-12T00:58:35.000Z</time></trkpt>
        <trkpt lat="29.569717" lon="103.414759"><ele>888.2093</ele><time>2026-08-12T00:58:39.000Z</time></trkpt>
        <trkpt lat="29.56967" lon="103.414729"><ele>888.3883</ele><time>2026-08-12T00:58:44.000Z</time></trkpt>
        <trkpt lat="29.569617" lon="103.414725"><ele>888.82965</ele><time>2026-08-12T00:58:49.000Z</time></trkpt>
        <trkpt lat="29.56957" lon="103.414744"><ele>888.5761</ele><time>2026-08-12T00:58:53.000Z</time></trkpt>
        <trkpt lat="29.569528" lon="103.414764"><ele>888.4948</ele><time>2026-08-12T00:58:57.000Z</time></trkpt>
        <trkpt lat="29.569484" lon="103.414781"><ele>888.059</ele><time>2026-08-12T00:59:01.000Z</time></trkpt>
        <trkpt lat="29.569434" lon="103.414802"><ele>887.6366</ele><time>2026-08-12T00:59:06.000Z</time></trkpt>
        <trkpt lat="29.569381" lon="103.41482"><ele>887.4003</ele><time>2026-08-12T00:59:11.000Z</time></trkpt>
        <trkpt lat="29.569324" lon="103.414826"><ele>887.2331</ele><time>2026-08-12T00:59:16.000Z</time></trkpt>
        <trkpt lat="29.569277" lon="103.414823"><ele>887.1524</ele><time>2026-08-12T00:59:20.000Z</time></trkpt>
        <trkpt lat="29.569237" lon="103.414791"><ele>885.9733</ele><time>2026-08-12T00:59:45.000Z</time></trkpt>
        <trkpt lat="29.569216" lon="103.414743"><ele>885.13824</ele><time>2026-08-12T00:59:49.000Z</time></trkpt>
        <trkpt lat="29.569187" lon="103.414696"><ele>884.888</ele><time>2026-08-12T00:59:52.000Z</time></trkpt>
        <trkpt lat="29.569151" lon="103.414645"><ele>884.974</ele><time>2026-08-12T00:59:56.000Z</time></trkpt>
        <trkpt lat="29.569126" lon="103.414598"><ele>885.0798</ele><time>2026-08-12T01:00:00.000Z</time></trkpt>
        <trkpt lat="29.569105" lon="103.414552"><ele>884.5768</ele><time>2026-08-12T01:00:04.000Z</time></trkpt>
        <trkpt lat="29.569078" lon="103.4145"><ele>884.4693</ele><time>2026-08-12T01:00:08.000Z</time></trkpt>
        <trkpt lat="29.569072" lon="103.414445"><ele>883.8153</ele><time>2026-08-12T01:00:12.000Z</time></trkpt>
        <trkpt lat="29.569071" lon="103.414388"><ele>883.3923</ele><time>2026-08-12T01:00:16.000Z</time></trkpt>
        <trkpt lat="29.569095" lon="103.414336"><ele>883.026</ele><time>2026-08-12T01:00:21.000Z</time></trkpt>
        <trkpt lat="29.569109" lon="103.414283"><ele>882.9374</ele><time>2026-08-12T01:00:26.000Z</time></trkpt>
        <trkpt lat="29.5691" lon="103.414231"><ele>882.43256</ele><time>2026-08-12T01:00:31.000Z</time></trkpt>
        <trkpt lat="29.569108" lon="103.414176"><ele>880.94073</ele><time>2026-08-12T01:00:36.000Z</time></trkpt>
        <trkpt lat="29.569102" lon="103.414119"><ele>881.11035</ele><time>2026-08-12T01:00:41.000Z</time></trkpt>
        <trkpt lat="29.569103" lon="103.414061"><ele>881.6704</ele><time>2026-08-12T01:00:45.000Z</time></trkpt>
        <trkpt lat="29.569128" lon="103.414008"><ele>881.45135</ele><time>2026-08-12T01:00:49.000Z</time></trkpt>
        <trkpt lat="29.569143" lon="103.413944"><ele>880.6641</ele><time>2026-08-12T01:00:54.000Z</time></trkpt>
        <trkpt lat="29.569157" lon="103.413889"><ele>880.75824</ele><time>2026-08-12T01:00:59.000Z</time></trkpt>
        <trkpt lat="29.569151" lon="103.41383"><ele>881.20605</ele><time>2026-08-12T01:01:04.000Z</time></trkpt>
        <trkpt lat="29.569129" lon="103.413783"><ele>881.36945</ele><time>2026-08-12T01:01:07.000Z</time></trkpt>
        <trkpt lat="29.569098" lon="103.413742"><ele>881.47986</ele><time>2026-08-12T01:01:10.000Z</time></trkpt>
        <trkpt lat="29.569067" lon="103.413694"><ele>881.31104</ele><time>2026-08-12T01:01:14.000Z</time></trkpt>
        <trkpt lat="29.569041" lon="103.413636"><ele>880.8582</ele><time>2026-08-12T01:01:19.000Z</time></trkpt>
        <trkpt lat="29.56901" lon="103.413584"><ele>881.0219</ele><time>2026-08-12T01:01:23.000Z</time></trkpt>
        <trkpt lat="29.568983" lon="103.413535"><ele>880.3647</ele><time>2026-08-12T01:01:27.000Z</time></trkpt>
        <trkpt lat="29.568963" lon="103.413478"><ele>879.2445</ele><time>2026-08-12T01:01:32.000Z</time></trkpt>
        <trkpt lat="29.568964" lon="103.413423"><ele>878.654</ele><time>2026-08-12T01:01:37.000Z</time></trkpt>
        <trkpt lat="29.56898" lon="103.413364"><ele>878.08484</ele><time>2026-08-12T01:01:42.000Z</time></trkpt>
        <trkpt lat="29.568982" lon="103.413312"><ele>877.1346</ele><time>2026-08-12T01:01:46.000Z</time></trkpt>
        <trkpt lat="29.568967" lon="103.413236"><ele>876.5775</ele><time>2026-08-12T01:01:50.000Z</time></trkpt>
        <trkpt lat="29.568976" lon="103.413171"><ele>875.4498</ele><time>2026-08-12T01:01:55.000Z</time></trkpt>
        <trkpt lat="29.568994" lon="103.413118"><ele>874.8933</ele><time>2026-08-12T01:01:59.000Z</time></trkpt>
        <trkpt lat="29.56903" lon="103.413077"><ele>875.2911</ele><time>2026-08-12T01:02:05.000Z</time></trkpt>
        <trkpt lat="29.569057" lon="103.413025"><ele>875.18854</ele><time>2026-08-12T01:02:10.000Z</time></trkpt>
        <trkpt lat="29.569098" lon="103.412974"><ele>874.2963</ele><time>2026-08-12T01:02:15.000Z</time></trkpt>
        <trkpt lat="29.569136" lon="103.412934"><ele>873.95483</ele><time>2026-08-12T01:02:18.000Z</time></trkpt>
        <trkpt lat="29.569172" lon="103.412903"><ele>874.0144</ele><time>2026-08-12T01:02:21.000Z</time></trkpt>
        <trkpt lat="29.569211" lon="103.412869"><ele>873.0184</ele><time>2026-08-12T01:02:24.000Z</time></trkpt>
        <trkpt lat="29.569251" lon="103.412832"><ele>872.8153</ele><time>2026-08-12T01:02:28.000Z</time></trkpt>
        <trkpt lat="29.569287" lon="103.412796"><ele>871.6266</ele><time>2026-08-12T01:02:32.000Z</time></trkpt>
        <trkpt lat="29.569323" lon="103.412752"><ele>871.2722</ele><time>2026-08-12T01:02:37.000Z</time></trkpt>
        <trkpt lat="29.569368" lon="103.412711"><ele>870.7398</ele><time>2026-08-12T01:02:42.000Z</time></trkpt>
        <trkpt lat="29.569392" lon="103.412656"><ele>870.7633</ele><time>2026-08-12T01:02:46.000Z</time></trkpt>
        <trkpt lat="29.569373" lon="103.412601"><ele>871.5233</ele><time>2026-08-12T01:02:51.000Z</time></trkpt>
        <trkpt lat="29.569345" lon="103.412553"><ele>871.5437</ele><time>2026-08-12T01:02:56.000Z</time></trkpt>
        <trkpt lat="29.569321" lon="103.4125"><ele>871.8744</ele><time>2026-08-12T01:03:00.000Z</time></trkpt>
        <trkpt lat="29.569339" lon="103.412459"><ele>874.1966</ele><time>2026-08-12T01:03:35.000Z</time></trkpt>
        <trkpt lat="29.569346" lon="103.412402"><ele>874.01404</ele><time>2026-08-12T01:03:46.000Z</time></trkpt>
        <trkpt lat="29.56933" lon="103.41234"><ele>872.78143</ele><time>2026-08-12T01:03:51.000Z</time></trkpt>
        <trkpt lat="29.56934" lon="103.412279"><ele>872.0411</ele><time>2026-08-12T01:03:55.000Z</time></trkpt>
        <trkpt lat="29.56936" lon="103.412226"><ele>870.4204</ele><time>2026-08-12T01:04:00.000Z</time></trkpt>
        <trkpt lat="29.569331" lon="103.412186"><ele>868.96655</ele><time>2026-08-12T01:04:09.000Z</time></trkpt>
        <trkpt lat="29.569284" lon="103.412172"><ele>868.1639</ele><time>2026-08-12T01:04:15.000Z</time></trkpt>
        <trkpt lat="29.569237" lon="103.412162"><ele>867.9234</ele><time>2026-08-12T01:04:20.000Z</time></trkpt>
        <trkpt lat="29.569181" lon="103.412155"><ele>867.1127</ele><time>2026-08-12T01:04:25.000Z</time></trkpt>
        <trkpt lat="29.569129" lon="103.412159"><ele>866.8193</ele><time>2026-08-12T01:04:30.000Z</time></trkpt>
        <trkpt lat="29.569075" lon="103.412161"><ele>866.3959</ele><time>2026-08-12T01:04:34.000Z</time></trkpt>
        <trkpt lat="29.569033" lon="103.41212"><ele>865.44183</ele><time>2026-08-12T01:04:40.000Z</time></trkpt>
        <trkpt lat="29.569028" lon="103.412114"><ele>865.3879</ele><time>2026-08-12T01:04:41.000Z</time></trkpt>
        <trkpt lat="29.569022" lon="103.412107"><ele>865.2372</ele><time>2026-08-12T01:04:42.000Z</time></trkpt>
        <trkpt lat="29.569014" lon="103.4121"><ele>865.2798</ele><time>2026-08-12T01:04:43.000Z</time></trkpt>
        <trkpt lat="29.569006" lon="103.412091"><ele>865.26215</ele><time>2026-08-12T01:04:44.000Z</time></trkpt>
        <trkpt lat="29.568997" lon="103.412085"><ele>865.1962</ele><time>2026-08-12T01:04:45.000Z</time></trkpt>
        <trkpt lat="29.568989" lon="103.412076"><ele>865.17377</ele><time>2026-08-12T01:04:46.000Z</time></trkpt>
        <trkpt lat="29.568983" lon="103.412066"><ele>865.1155</ele><time>2026-08-12T01:04:47.000Z</time></trkpt>
        <trkpt lat="29.568974" lon="103.412056"><ele>865.0863</ele><time>2026-08-12T01:04:48.000Z</time></trkpt>
        <trkpt lat="29.568966" lon="103.412041"><ele>865.09503</ele><time>2026-08-12T01:04:49.000Z</time></trkpt>
        <trkpt lat="29.568959" lon="103.412023"><ele>865.0834</ele><time>2026-08-12T01:04:50.000Z</time></trkpt>
        <trkpt lat="29.568948" lon="103.412002"><ele>865.02</ele><time>2026-08-12T01:04:51.000Z</time></trkpt>
        <trkpt lat="29.568939" lon="103.411983"><ele>864.99945</ele><time>2026-08-12T01:04:52.000Z</time></trkpt>
        <trkpt lat="29.568932" lon="103.411965"><ele>865.0162</ele><time>2026-08-12T01:04:53.000Z</time></trkpt>
        <trkpt lat="29.568931" lon="103.41195"><ele>864.98553</ele><time>2026-08-12T01:04:54.000Z</time></trkpt>
        <trkpt lat="29.568929" lon="103.411939"><ele>864.8907</ele><time>2026-08-12T01:04:55.000Z</time></trkpt>
        <trkpt lat="29.568924" lon="103.411928"><ele>864.8212</ele><time>2026-08-12T01:04:56.000Z</time></trkpt>
        <trkpt lat="29.56892" lon="103.411919"><ele>864.6887</ele><time>2026-08-12T01:04:57.000Z</time></trkpt>
        <trkpt lat="29.568911" lon="103.411917"><ele>863.6655</ele><time>2026-08-12T01:04:58.000Z</time></trkpt>
        <trkpt lat="29.568905" lon="103.411912"><ele>863.1811</ele><time>2026-08-12T01:04:59.000Z</time></trkpt>
        <trkpt lat="29.568897" lon="103.411904"><ele>862.81354</ele><time>2026-08-12T01:05:00.000Z</time></trkpt>
        <trkpt lat="29.568891" lon="103.411896"><ele>862.43286</ele><time>2026-08-12T01:05:01.000Z</time></trkpt>
        <trkpt lat="29.568883" lon="103.411886"><ele>862.32654</ele><time>2026-08-12T01:05:02.000Z</time></trkpt>
        <trkpt lat="29.568874" lon="103.411876"><ele>862.1895</ele><time>2026-08-12T01:05:03.000Z</time></trkpt>
        <trkpt lat="29.568864" lon="103.411864"><ele>861.5102</ele><time>2026-08-12T01:05:04.000Z</time></trkpt>
        <trkpt lat="29.568856" lon="103.411853"><ele>861.2963</ele><time>2026-08-12T01:05:05.000Z</time></trkpt>
        <trkpt lat="29.568847" lon="103.411842"><ele>861.29877</ele><time>2026-08-12T01:05:06.000Z</time></trkpt>
        <trkpt lat="29.568839" lon="103.411836"><ele>860.93176</ele><time>2026-08-12T01:05:07.000Z</time></trkpt>
        <trkpt lat="29.568827" lon="103.411832"><ele>860.7887</ele><time>2026-08-12T01:05:08.000Z</time></trkpt>
        <trkpt lat="29.56881" lon="103.41183"><ele>860.60364</ele><time>2026-08-12T01:05:09.000Z</time></trkpt>
        <trkpt lat="29.568798" lon="103.411832"><ele>860.34265</ele><time>2026-08-12T01:05:10.000Z</time></trkpt>
        <trkpt lat="29.568785" lon="103.41183"><ele>860.32245</ele><time>2026-08-12T01:05:11.000Z</time></trkpt>
        <trkpt lat="29.568771" lon="103.41183"><ele>860.0014</ele><time>2026-08-12T01:05:12.000Z</time></trkpt>
        <trkpt lat="29.568757" lon="103.411831"><ele>859.8071</ele><time>2026-08-12T01:05:13.000Z</time></trkpt>
        <trkpt lat="29.568744" lon="103.411832"><ele>859.64844</ele><time>2026-08-12T01:05:14.000Z</time></trkpt>
        <trkpt lat="29.56873" lon="103.411836"><ele>859.31415</ele><time>2026-08-12T01:05:15.000Z</time></trkpt>
        <trkpt lat="29.568717" lon="103.411837"><ele>859.2285</ele><time>2026-08-12T01:05:16.000Z</time></trkpt>
        <trkpt lat="29.568712" lon="103.411835"><ele>859.12244</ele><time>2026-08-12T01:05:17.000Z</time></trkpt>
        <trkpt lat="29.568706" lon="103.411834"><ele>858.9327</ele><time>2026-08-12T01:05:18.000Z</time></trkpt>
        <trkpt lat="29.5687" lon="103.411835"><ele>858.85266</ele><time>2026-08-12T01:05:19.000Z</time></trkpt>
        <trkpt lat="29.568685" lon="103.411837"><ele>858.77</ele><time>2026-08-12T01:05:21.000Z</time></trkpt>
        <trkpt lat="29.568668" lon="103.411838"><ele>858.89667</ele><time>2026-08-12T01:05:24.000Z</time></trkpt>
        <trkpt lat="29.568656" lon="103.411846"><ele>858.8322</ele><time>2026-08-12T01:05:25.000Z</time></trkpt>
        <trkpt lat="29.568651" lon="103.411843"><ele>858.575</ele><time>2026-08-12T01:05:26.000Z</time></trkpt>
        <trkpt lat="29.568647" lon="103.41184"><ele>858.553</ele><time>2026-08-12T01:05:27.000Z</time></trkpt>
        <trkpt lat="29.568639" lon="103.411841"><ele>858.3822</ele><time>2026-08-12T01:05:28.000Z</time></trkpt>
        <trkpt lat="29.568618" lon="103.411843"><ele>858.0706</ele><time>2026-08-12T01:05:31.000Z</time></trkpt>
        <trkpt lat="29.56861" lon="103.411836"><ele>857.75104</ele><time>2026-08-12T01:05:33.000Z</time></trkpt>
        <trkpt lat="29.568599" lon="103.411819"><ele>857.36334</ele><time>2026-08-12T01:05:34.000Z</time></trkpt>
        <trkpt lat="29.568593" lon="103.411809"><ele>857.36163</ele><time>2026-08-12T01:05:35.000Z</time></trkpt>
        <trkpt lat="29.568586" lon="103.4118"><ele>857.3653</ele><time>2026-08-12T01:05:36.000Z</time></trkpt>
        <trkpt lat="29.568578" lon="103.411793"><ele>857.4814</ele><time>2026-08-12T01:05:37.000Z</time></trkpt>
        <trkpt lat="29.568571" lon="103.411789"><ele>857.44226</ele><time>2026-08-12T01:05:38.000Z</time></trkpt>
        <trkpt lat="29.568565" lon="103.411783"><ele>857.4081</ele><time>2026-08-12T01:05:39.000Z</time></trkpt>
        <trkpt lat="29.568555" lon="103.411776"><ele>857.4636</ele><time>2026-08-12T01:05:40.000Z</time></trkpt>
        <trkpt lat="29.568545" lon="103.411766"><ele>857.50165</ele><time>2026-08-12T01:05:41.000Z</time></trkpt>
        <trkpt lat="29.568539" lon="103.411758"><ele>857.54645</ele><time>2026-08-12T01:05:42.000Z</time></trkpt>
        <trkpt lat="29.568533" lon="103.411753"><ele>857.5124</ele><time>2026-08-12T01:05:43.000Z</time></trkpt>
        <trkpt lat="29.56852" lon="103.411744"><ele>857.6008</ele><time>2026-08-12T01:05:44.000Z</time></trkpt>
        <trkpt lat="29.568507" lon="103.411738"><ele>857.52094</ele><time>2026-08-12T01:05:45.000Z</time></trkpt>
        <trkpt lat="29.568495" lon="103.411732"><ele>857.22314</ele><time>2026-08-12T01:05:46.000Z</time></trkpt>
        <trkpt lat="29.568481" lon="103.411726"><ele>857.06415</ele><time>2026-08-12T01:05:47.000Z</time></trkpt>
        <trkpt lat="29.568467" lon="103.411719"><ele>856.6691</ele><time>2026-08-12T01:05:48.000Z</time></trkpt>
        <trkpt lat="29.568455" lon="103.411712"><ele>856.3356</ele><time>2026-08-12T01:05:49.000Z</time></trkpt>
        <trkpt lat="29.568444" lon="103.411701"><ele>856.17</ele><time>2026-08-12T01:05:50.000Z</time></trkpt>
        <trkpt lat="29.568432" lon="103.411689"><ele>855.9395</ele><time>2026-08-12T01:05:51.000Z</time></trkpt>
        <trkpt lat="29.568424" lon="103.411677"><ele>855.77936</ele><time>2026-08-12T01:05:52.000Z</time></trkpt>
        <trkpt lat="29.568416" lon="103.411666"><ele>855.3352</ele><time>2026-08-12T01:05:53.000Z</time></trkpt>
        <trkpt lat="29.568406" lon="103.411657"><ele>855.20404</ele><time>2026-08-12T01:05:54.000Z</time></trkpt>
        <trkpt lat="29.568401" lon="103.411647"><ele>855.0385</ele><time>2026-08-12T01:05:55.000Z</time></trkpt>
        <trkpt lat="29.568397" lon="103.411639"><ele>854.88684</ele><time>2026-08-12T01:05:56.000Z</time></trkpt>
        <trkpt lat="29.568392" lon="103.41163"><ele>854.69794</ele><time>2026-08-12T01:05:57.000Z</time></trkpt>
        <trkpt lat="29.568387" lon="103.411621"><ele>854.52386</ele><time>2026-08-12T01:05:58.000Z</time></trkpt>
        <trkpt lat="29.568381" lon="103.411614"><ele>854.4036</ele><time>2026-08-12T01:05:59.000Z</time></trkpt>
        <trkpt lat="29.568374" lon="103.411606"><ele>854.33606</ele><time>2026-08-12T01:06:00.000Z</time></trkpt>
        <trkpt lat="29.568367" lon="103.411598"><ele>854.1917</ele><time>2026-08-12T01:06:01.000Z</time></trkpt>
        <trkpt lat="29.568358" lon="103.411589"><ele>853.8344</ele><time>2026-08-12T01:06:02.000Z</time></trkpt>
        <trkpt lat="29.568348" lon="103.411582"><ele>853.7088</ele><time>2026-08-12T01:06:03.000Z</time></trkpt>
        <trkpt lat="29.568343" lon="103.411572"><ele>853.40985</ele><time>2026-08-12T01:06:04.000Z</time></trkpt>
        <trkpt lat="29.56834" lon="103.411562"><ele>852.7328</ele><time>2026-08-12T01:06:05.000Z</time></trkpt>
        <trkpt lat="29.568339" lon="103.41155"><ele>852.1074</ele><time>2026-08-12T01:06:06.000Z</time></trkpt>
        <trkpt lat="29.568341" lon="103.41154"><ele>851.26184</ele><time>2026-08-12T01:06:07.000Z</time></trkpt>
        <trkpt lat="29.568343" lon="103.411529"><ele>850.652</ele><time>2026-08-12T01:06:08.000Z</time></trkpt>
        <trkpt lat="29.568344" lon="103.411518"><ele>850.4375</ele><time>2026-08-12T01:06:09.000Z</time></trkpt>
        <trkpt lat="29.568345" lon="103.411506"><ele>850.3969</ele><time>2026-08-12T01:06:10.000Z</time></trkpt>
        <trkpt lat="29.568349" lon="103.411495"><ele>850.2089</ele><time>2026-08-12T01:06:11.000Z</time></trkpt>
        <trkpt lat="29.568354" lon="103.411482"><ele>849.5158</ele><time>2026-08-12T01:06:12.000Z</time></trkpt>
        <trkpt lat="29.568359" lon="103.411469"><ele>849.0608</ele><time>2026-08-12T01:06:13.000Z</time></trkpt>
        <trkpt lat="29.568364" lon="103.411454"><ele>848.66797</ele><time>2026-08-12T01:06:14.000Z</time></trkpt>
        <trkpt lat="29.568368" lon="103.41144"><ele>848.284</ele><time>2026-08-12T01:06:15.000Z</time></trkpt>
        <trkpt lat="29.568375" lon="103.411424"><ele>847.1615</ele><time>2026-08-12T01:06:16.000Z</time></trkpt>
        <trkpt lat="29.568383" lon="103.411408"><ele>846.36505</ele><time>2026-08-12T01:06:17.000Z</time></trkpt>
        <trkpt lat="29.568392" lon="103.411392"><ele>845.7551</ele><time>2026-08-12T01:06:18.000Z</time></trkpt>
        <trkpt lat="29.568398" lon="103.411376"><ele>845.5586</ele><time>2026-08-12T01:06:19.000Z</time></trkpt>
        <trkpt lat="29.568404" lon="103.41136"><ele>845.16046</ele><time>2026-08-12T01:06:20.000Z</time></trkpt>
        <trkpt lat="29.56841" lon="103.411345"><ele>844.89276</ele><time>2026-08-12T01:06:21.000Z</time></trkpt>
        <trkpt lat="29.568415" lon="103.41133"><ele>844.5777</ele><time>2026-08-12T01:06:22.000Z</time></trkpt>
        <trkpt lat="29.568421" lon="103.411316"><ele>844.3735</ele><time>2026-08-12T01:06:23.000Z</time></trkpt>
        <trkpt lat="29.568428" lon="103.411301"><ele>843.74854</ele><time>2026-08-12T01:06:24.000Z</time></trkpt>
        <trkpt lat="29.568433" lon="103.411286"><ele>843.5734</ele><time>2026-08-12T01:06:25.000Z</time></trkpt>
        <trkpt lat="29.56844" lon="103.411273"><ele>843.4148</ele><time>2026-08-12T01:06:26.000Z</time></trkpt>
        <trkpt lat="29.568445" lon="103.41126"><ele>843.2077</ele><time>2026-08-12T01:06:27.000Z</time></trkpt>
        <trkpt lat="29.568454" lon="103.411246"><ele>842.9128</ele><time>2026-08-12T01:06:28.000Z</time></trkpt>
        <trkpt lat="29.568462" lon="103.411232"><ele>842.7502</ele><time>2026-08-12T01:06:29.000Z</time></trkpt>
        <trkpt lat="29.568469" lon="103.411215"><ele>842.4669</ele><time>2026-08-12T01:06:30.000Z</time></trkpt>
        <trkpt lat="29.568475" lon="103.411194"><ele>842.0654</ele><time>2026-08-12T01:06:31.000Z</time></trkpt>
        <trkpt lat="29.568479" lon="103.411172"><ele>841.68134</ele><time>2026-08-12T01:06:32.000Z</time></trkpt>
        <trkpt lat="29.568483" lon="103.411153"><ele>841.21875</ele><time>2026-08-12T01:06:33.000Z</time></trkpt>
        <trkpt lat="29.568487" lon="103.411137"><ele>840.8785</ele><time>2026-08-12T01:06:34.000Z</time></trkpt>
        <trkpt lat="29.568491" lon="103.411124"><ele>839.9223</ele><time>2026-08-12T01:06:35.000Z</time></trkpt>
        <trkpt lat="29.568495" lon="103.411112"><ele>838.94684</ele><time>2026-08-12T01:06:36.000Z</time></trkpt>
        <trkpt lat="29.568498" lon="103.411101"><ele>838.0939</ele><time>2026-08-12T01:06:37.000Z</time></trkpt>
        <trkpt lat="29.568501" lon="103.411089"><ele>837.88416</ele><time>2026-08-12T01:06:38.000Z</time></trkpt>
        <trkpt lat="29.568502" lon="103.411078"><ele>837.66205</ele><time>2026-08-12T01:06:39.000Z</time></trkpt>
        <trkpt lat="29.568502" lon="103.411067"><ele>837.5821</ele><time>2026-08-12T01:06:40.000Z</time></trkpt>
        <trkpt lat="29.568501" lon="103.411055"><ele>837.3775</ele><time>2026-08-12T01:06:41.000Z</time></trkpt>
        <trkpt lat="29.5685" lon="103.411043"><ele>837.1384</ele><time>2026-08-12T01:06:42.000Z</time></trkpt>
        <trkpt lat="29.568499" lon="103.41103"><ele>837.03015</ele><time>2026-08-12T01:06:43.000Z</time></trkpt>
        <trkpt lat="29.5685" lon="103.411018"><ele>836.9416</ele><time>2026-08-12T01:06:44.000Z</time></trkpt>
        <trkpt lat="29.5685" lon="103.411005"><ele>836.7279</ele><time>2026-08-12T01:06:45.000Z</time></trkpt>
        <trkpt lat="29.568501" lon="103.410991"><ele>836.5174</ele><time>2026-08-12T01:06:46.000Z</time></trkpt>
        <trkpt lat="29.568502" lon="103.410978"><ele>836.1968</ele><time>2026-08-12T01:06:47.000Z</time></trkpt>
        <trkpt lat="29.568502" lon="103.410967"><ele>835.9291</ele><time>2026-08-12T01:06:48.000Z</time></trkpt>
        <trkpt lat="29.568504" lon="103.410956"><ele>835.77826</ele><time>2026-08-12T01:06:49.000Z</time></trkpt>
        <trkpt lat="29.568507" lon="103.410944"><ele>835.60944</ele><time>2026-08-12T01:06:50.000Z</time></trkpt>
        <trkpt lat="29.568511" lon="103.410931"><ele>835.51715</ele><time>2026-08-12T01:06:51.000Z</time></trkpt>
        <trkpt lat="29.568515" lon="103.410917"><ele>835.3691</ele><time>2026-08-12T01:06:52.000Z</time></trkpt>
        <trkpt lat="29.568518" lon="103.410904"><ele>835.19507</ele><time>2026-08-12T01:06:53.000Z</time></trkpt>
        <trkpt lat="29.568522" lon="103.410891"><ele>835.10956</ele><time>2026-08-12T01:06:54.000Z</time></trkpt>
        <trkpt lat="29.568526" lon="103.410878"><ele>835.0942</ele><time>2026-08-12T01:06:55.000Z</time></trkpt>
        <trkpt lat="29.568529" lon="103.410866"><ele>835.0636</ele><time>2026-08-12T01:06:56.000Z</time></trkpt>
        <trkpt lat="29.568532" lon="103.410855"><ele>834.88385</ele><time>2026-08-12T01:06:57.000Z</time></trkpt>
        <trkpt lat="29.568534" lon="103.410844"><ele>834.7753</ele><time>2026-08-12T01:06:58.000Z</time></trkpt>
        <trkpt lat="29.568537" lon="103.410833"><ele>834.63293</ele><time>2026-08-12T01:06:59.000Z</time></trkpt>
        <trkpt lat="29.568541" lon="103.410821"><ele>834.6033</ele><time>2026-08-12T01:07:00.000Z</time></trkpt>
        <trkpt lat="29.568546" lon="103.41081"><ele>834.6241</ele><time>2026-08-12T01:07:01.000Z</time></trkpt>
        <trkpt lat="29.56855" lon="103.410798"><ele>834.76544</ele><time>2026-08-12T01:07:02.000Z</time></trkpt>
        <trkpt lat="29.568554" lon="103.410786"><ele>834.85724</ele><time>2026-08-12T01:07:03.000Z</time></trkpt>
        <trkpt lat="29.568557" lon="103.410775"><ele>834.78265</ele><time>2026-08-12T01:07:04.000Z</time></trkpt>
        <trkpt lat="29.56856" lon="103.410766"><ele>834.5645</ele><time>2026-08-12T01:07:05.000Z</time></trkpt>
        <trkpt lat="29.568562" lon="103.410757"><ele>834.36487</ele><time>2026-08-12T01:07:06.000Z</time></trkpt>
        <trkpt lat="29.568568" lon="103.410748"><ele>834.21783</ele><time>2026-08-12T01:07:07.000Z</time></trkpt>
        <trkpt lat="29.568574" lon="103.410731"><ele>833.895</ele><time>2026-08-12T01:07:09.000Z</time></trkpt>
        <trkpt lat="29.568579" lon="103.410723"><ele>833.73486</ele><time>2026-08-12T01:07:10.000Z</time></trkpt>
        <trkpt lat="29.568581" lon="103.410714"><ele>833.5822</ele><time>2026-08-12T01:07:11.000Z</time></trkpt>
        <trkpt lat="29.568584" lon="103.410705"><ele>833.45483</ele><time>2026-08-12T01:07:12.000Z</time></trkpt>
        <trkpt lat="29.568586" lon="103.410695"><ele>833.2947</ele><time>2026-08-12T01:07:13.000Z</time></trkpt>
        <trkpt lat="29.568592" lon="103.410676"><ele>832.79675</ele><time>2026-08-12T01:07:15.000Z</time></trkpt>
        <trkpt lat="29.568594" lon="103.410667"><ele>832.46405</ele><time>2026-08-12T01:07:16.000Z</time></trkpt>
        <trkpt lat="29.568597" lon="103.410657"><ele>832.31024</ele><time>2026-08-12T01:07:17.000Z</time></trkpt>
        <trkpt lat="29.5686" lon="103.410646"><ele>832.2192</ele><time>2026-08-12T01:07:18.000Z</time></trkpt>
        <trkpt lat="29.568604" lon="103.410633"><ele>831.9347</ele><time>2026-08-12T01:07:19.000Z</time></trkpt>
        <trkpt lat="29.568607" lon="103.410619"><ele>831.79553</ele><time>2026-08-12T01:07:20.000Z</time></trkpt>
        <trkpt lat="29.568608" lon="103.410606"><ele>831.67896</ele><time>2026-08-12T01:07:21.000Z</time></trkpt>
        <trkpt lat="29.568608" lon="103.410593"><ele>831.5716</ele><time>2026-08-12T01:07:22.000Z</time></trkpt>
        <trkpt lat="29.568609" lon="103.410581"><ele>831.6462</ele><time>2026-08-12T01:07:23.000Z</time></trkpt>
        <trkpt lat="29.568609" lon="103.410571"><ele>831.6146</ele><time>2026-08-12T01:07:24.000Z</time></trkpt>
        <trkpt lat="29.568607" lon="103.41056"><ele>831.749</ele><time>2026-08-12T01:07:25.000Z</time></trkpt>
        <trkpt lat="29.568606" lon="103.41055"><ele>831.749</ele><time>2026-08-12T01:07:26.000Z</time></trkpt>
        <trkpt lat="29.568605" lon="103.410539"><ele>831.6833</ele><time>2026-08-12T01:07:27.000Z</time></trkpt>
        <trkpt lat="29.568606" lon="103.410526"><ele>831.8531</ele><time>2026-08-12T01:07:28.000Z</time></trkpt>
        <trkpt lat="29.568608" lon="103.410513"><ele>831.78656</ele><time>2026-08-12T01:07:29.000Z</time></trkpt>
        <trkpt lat="29.56861" lon="103.410499"><ele>831.9217</ele><time>2026-08-12T01:07:30.000Z</time></trkpt>
        <trkpt lat="29.568614" lon="103.410486"><ele>831.97833</ele><time>2026-08-12T01:07:31.000Z</time></trkpt>
        <trkpt lat="29.568617" lon="103.410474"><ele>831.989</ele><time>2026-08-12T01:07:32.000Z</time></trkpt>
        <trkpt lat="29.568621" lon="103.41046"><ele>832.2417</ele><time>2026-08-12T01:07:33.000Z</time></trkpt>
        <trkpt lat="29.568624" lon="103.410447"><ele>832.3003</ele><time>2026-08-12T01:07:34.000Z</time></trkpt>
        <trkpt lat="29.568627" lon="103.410436"><ele>832.34827</ele><time>2026-08-12T01:07:35.000Z</time></trkpt>
        <trkpt lat="29.568629" lon="103.410425"><ele>832.4659</ele><time>2026-08-12T01:07:36.000Z</time></trkpt>
        <trkpt lat="29.56863" lon="103.410415"><ele>832.56714</ele><time>2026-08-12T01:07:37.000Z</time></trkpt>
        <trkpt lat="29.568634" lon="103.410403"><ele>832.7436</ele><time>2026-08-12T01:07:38.000Z</time></trkpt>
        <trkpt lat="29.568634" lon="103.410393"><ele>832.9299</ele><time>2026-08-12T01:07:39.000Z</time></trkpt>
        <trkpt lat="29.568635" lon="103.410381"><ele>833.2469</ele><time>2026-08-12T01:07:40.000Z</time></trkpt>
        <trkpt lat="29.568634" lon="103.410368"><ele>833.29645</ele><time>2026-08-12T01:07:41.000Z</time></trkpt>
        <trkpt lat="29.568633" lon="103.410355"><ele>833.54034</ele><time>2026-08-12T01:07:42.000Z</time></trkpt>
        <trkpt lat="29.568632" lon="103.410341"><ele>833.6693</ele><time>2026-08-12T01:07:43.000Z</time></trkpt>
        <trkpt lat="29.568629" lon="103.410327"><ele>833.87366</ele><time>2026-08-12T01:07:44.000Z</time></trkpt>
        <trkpt lat="29.568625" lon="103.410312"><ele>833.98315</ele><time>2026-08-12T01:07:45.000Z</time></trkpt>
        <trkpt lat="29.568623" lon="103.410298"><ele>834.06104</ele><time>2026-08-12T01:07:46.000Z</time></trkpt>
        <trkpt lat="29.56862" lon="103.410284"><ele>834.15765</ele><time>2026-08-12T01:07:47.000Z</time></trkpt>
        <trkpt lat="29.568619" lon="103.41027"><ele>834.1958</ele><time>2026-08-12T01:07:48.000Z</time></trkpt>
        <trkpt lat="29.568617" lon="103.410257"><ele>834.21643</ele><time>2026-08-12T01:07:49.000Z</time></trkpt>
        <trkpt lat="29.568616" lon="103.410244"><ele>834.04755</ele><time>2026-08-12T01:07:50.000Z</time></trkpt>
        <trkpt lat="29.568614" lon="103.410235"><ele>833.9828</ele><time>2026-08-12T01:07:51.000Z</time></trkpt>
        <trkpt lat="29.568614" lon="103.410226"><ele>834.0487</ele><time>2026-08-12T01:07:52.000Z</time></trkpt>
        <trkpt lat="29.568613" lon="103.410217"><ele>833.9813</ele><time>2026-08-12T01:07:53.000Z</time></trkpt>
        <trkpt lat="29.568616" lon="103.410195"><ele>833.8037</ele><time>2026-08-12T01:07:55.000Z</time></trkpt>
        <trkpt lat="29.568619" lon="103.410182"><ele>833.8196</ele><time>2026-08-12T01:07:56.000Z</time></trkpt>
        <trkpt lat="29.568623" lon="103.410168"><ele>833.8056</ele><time>2026-08-12T01:07:57.000Z</time></trkpt>
        <trkpt lat="29.568627" lon="103.410155"><ele>833.6919</ele><time>2026-08-12T01:07:58.000Z</time></trkpt>
        <trkpt lat="29.568629" lon="103.410143"><ele>833.605</ele><time>2026-08-12T01:07:59.000Z</time></trkpt>
        <trkpt lat="29.568632" lon="103.410131"><ele>833.5732</ele><time>2026-08-12T01:08:00.000Z</time></trkpt>
        <trkpt lat="29.568634" lon="103.41012"><ele>833.53143</ele><time>2026-08-12T01:08:01.000Z</time></trkpt>
        <trkpt lat="29.568636" lon="103.41011"><ele>833.48926</ele><time>2026-08-12T01:08:02.000Z</time></trkpt>
        <trkpt lat="29.568637" lon="103.410101"><ele>833.49835</ele><time>2026-08-12T01:08:03.000Z</time></trkpt>
        <trkpt lat="29.568637" lon="103.410087"><ele>833.41736</ele><time>2026-08-12T01:08:05.000Z</time></trkpt>
        <trkpt lat="29.568635" lon="103.410073"><ele>833.5558</ele><time>2026-08-12T01:08:07.000Z</time></trkpt>
        <trkpt lat="29.568632" lon="103.410065"><ele>833.6354</ele><time>2026-08-12T01:08:08.000Z</time></trkpt>
        <trkpt lat="29.568628" lon="103.410056"><ele>833.6474</ele><time>2026-08-12T01:08:09.000Z</time></trkpt>
        <trkpt lat="29.568624" lon="103.410047"><ele>833.5573</ele><time>2026-08-12T01:08:10.000Z</time></trkpt>
        <trkpt lat="29.56862" lon="103.410038"><ele>833.4634</ele><time>2026-08-12T01:08:11.000Z</time></trkpt>
        <trkpt lat="29.568608" lon="103.410023"><ele>833.4033</ele><time>2026-08-12T01:08:13.000Z</time></trkpt>
        <trkpt lat="29.568601" lon="103.410015"><ele>833.3499</ele><time>2026-08-12T01:08:14.000Z</time></trkpt>
        <trkpt lat="29.568592" lon="103.410006"><ele>833.2385</ele><time>2026-08-12T01:08:15.000Z</time></trkpt>
        <trkpt lat="29.568583" lon="103.409998"><ele>833.04266</ele><time>2026-08-12T01:08:16.000Z</time></trkpt>
        <trkpt lat="29.568574" lon="103.409991"><ele>832.9554</ele><time>2026-08-12T01:08:17.000Z</time></trkpt>
        <trkpt lat="29.568565" lon="103.409983"><ele>832.9772</ele><time>2026-08-12T01:08:18.000Z</time></trkpt>
        <trkpt lat="29.568555" lon="103.409975"><ele>832.8684</ele><time>2026-08-12T01:08:19.000Z</time></trkpt>
        <trkpt lat="29.568547" lon="103.409966"><ele>832.8109</ele><time>2026-08-12T01:08:20.000Z</time></trkpt>
        <trkpt lat="29.568539" lon="103.409956"><ele>832.70044</ele><time>2026-08-12T01:08:21.000Z</time></trkpt>
        <trkpt lat="29.568531" lon="103.409948"><ele>832.59235</ele><time>2026-08-12T01:08:22.000Z</time></trkpt>
        <trkpt lat="29.568521" lon="103.409941"><ele>832.46246</ele><time>2026-08-12T01:08:23.000Z</time></trkpt>
        <trkpt lat="29.568511" lon="103.409935"><ele>832.3332</ele><time>2026-08-12T01:08:24.000Z</time></trkpt>
        <trkpt lat="29.568501" lon="103.40993"><ele>832.22107</ele><time>2026-08-12T01:08:25.000Z</time></trkpt>
        <trkpt lat="29.568491" lon="103.409925"><ele>832.20496</ele><time>2026-08-12T01:08:26.000Z</time></trkpt>
        <trkpt lat="29.568481" lon="103.409922"><ele>832.32153</ele><time>2026-08-12T01:08:27.000Z</time></trkpt>
        <trkpt lat="29.568471" lon="103.409921"><ele>832.3626</ele><time>2026-08-12T01:08:28.000Z</time></trkpt>
        <trkpt lat="29.568461" lon="103.409921"><ele>832.38055</ele><time>2026-08-12T01:08:29.000Z</time></trkpt>
        <trkpt lat="29.568451" lon="103.409922"><ele>832.31055</ele><time>2026-08-12T01:08:30.000Z</time></trkpt>
        <trkpt lat="29.56844" lon="103.409924"><ele>832.32654</ele><time>2026-08-12T01:08:31.000Z</time></trkpt>
        <trkpt lat="29.568429" lon="103.409925"><ele>832.28894</ele><time>2026-08-12T01:08:32.000Z</time></trkpt>
        <trkpt lat="29.568419" lon="103.409924"><ele>832.24713</ele><time>2026-08-12T01:08:33.000Z</time></trkpt>
        <trkpt lat="29.56841" lon="103.409921"><ele>832.2407</ele><time>2026-08-12T01:08:34.000Z</time></trkpt>
        <trkpt lat="29.568403" lon="103.409916"><ele>832.18286</ele><time>2026-08-12T01:08:35.000Z</time></trkpt>
        <trkpt lat="29.568393" lon="103.409907"><ele>832.1321</ele><time>2026-08-12T01:08:37.000Z</time></trkpt>
        <trkpt lat="29.568388" lon="103.4099"><ele>832.0986</ele><time>2026-08-12T01:08:38.000Z</time></trkpt>
        <trkpt lat="29.56838" lon="103.409889"><ele>831.91797</ele><time>2026-08-12T01:08:40.000Z</time></trkpt>
        <trkpt lat="29.568376" lon="103.409883"><ele>831.8569</ele><time>2026-08-12T01:08:41.000Z</time></trkpt>
        <trkpt lat="29.568371" lon="103.409874"><ele>831.748</ele><time>2026-08-12T01:08:42.000Z</time></trkpt>
        <trkpt lat="29.568361" lon="103.409862"><ele>831.5715</ele><time>2026-08-12T01:08:44.000Z</time></trkpt>
        <trkpt lat="29.568357" lon="103.409857"><ele>831.4491</ele><time>2026-08-12T01:08:45.000Z</time></trkpt>
        <trkpt lat="29.56835" lon="103.409846"><ele>831.3275</ele><time>2026-08-12T01:08:47.000Z</time></trkpt>
        <trkpt lat="29.568347" lon="103.409841"><ele>831.2033</ele><time>2026-08-12T01:08:48.000Z</time></trkpt>
        <trkpt lat="29.56834" lon="103.409828"><ele>831.10144</ele><time>2026-08-12T01:08:50.000Z</time></trkpt>
        <trkpt lat="29.568333" lon="103.409813"><ele>831.1065</ele><time>2026-08-12T01:08:52.000Z</time></trkpt>
        <trkpt lat="29.568329" lon="103.409804"><ele>831.0511</ele><time>2026-08-12T01:08:53.000Z</time></trkpt>
        <trkpt lat="29.568324" lon="103.409793"><ele>831.05994</ele><time>2026-08-12T01:08:54.000Z</time></trkpt>
        <trkpt lat="29.568319" lon="103.40978"><ele>830.94257</ele><time>2026-08-12T01:08:55.000Z</time></trkpt>
        <trkpt lat="29.568315" lon="103.409766"><ele>830.899</ele><time>2026-08-12T01:08:56.000Z</time></trkpt>
        <trkpt lat="29.568312" lon="103.409756"><ele>830.89484</ele><time>2026-08-12T01:08:57.000Z</time></trkpt>
        <trkpt lat="29.568309" lon="103.409745"><ele>830.8434</ele><time>2026-08-12T01:08:58.000Z</time></trkpt>
        <trkpt lat="29.568306" lon="103.409733"><ele>830.92365</ele><time>2026-08-12T01:08:59.000Z</time></trkpt>
        <trkpt lat="29.568303" lon="103.409722"><ele>830.8649</ele><time>2026-08-12T01:09:00.000Z</time></trkpt>
        <trkpt lat="29.5683" lon="103.409711"><ele>830.8683</ele><time>2026-08-12T01:09:01.000Z</time></trkpt>
        <trkpt lat="29.568298" lon="103.409702"><ele>830.8434</ele><time>2026-08-12T01:09:02.000Z</time></trkpt>
        <trkpt lat="29.568296" lon="103.409695"><ele>830.97644</ele><time>2026-08-12T01:09:03.000Z</time></trkpt>
        <trkpt lat="29.568295" lon="103.409676"><ele>830.4998</ele><time>2026-08-12T01:09:05.000Z</time></trkpt>
        <trkpt lat="29.568296" lon="103.409665"><ele>830.0607</ele><time>2026-08-12T01:09:06.000Z</time></trkpt>
        <trkpt lat="29.568296" lon="103.409657"><ele>829.8901</ele><time>2026-08-12T01:09:07.000Z</time></trkpt>
        <trkpt lat="29.568291" lon="103.409646"><ele>829.6974</ele><time>2026-08-12T01:09:08.000Z</time></trkpt>
        <trkpt lat="29.568281" lon="103.409631"><ele>829.15826</ele><time>2026-08-12T01:09:09.000Z</time></trkpt>
        <trkpt lat="29.568273" lon="103.40962"><ele>828.7326</ele><time>2026-08-12T01:09:10.000Z</time></trkpt>
        <trkpt lat="29.568264" lon="103.409605"><ele>828.2424</ele><time>2026-08-12T01:09:11.000Z</time></trkpt>
        <trkpt lat="29.56826" lon="103.409597"><ele>827.9817</ele><time>2026-08-12T01:09:12.000Z</time></trkpt>
        <trkpt lat="29.568254" lon="103.409587"><ele>827.75824</ele><time>2026-08-12T01:09:13.000Z</time></trkpt>
        <trkpt lat="29.568251" lon="103.409578"><ele>827.49664</ele><time>2026-08-12T01:09:14.000Z</time></trkpt>
        <trkpt lat="29.568248" lon="103.40957"><ele>827.1631</ele><time>2026-08-12T01:09:15.000Z</time></trkpt>
        <trkpt lat="29.568242" lon="103.409555"><ele>826.91016</ele><time>2026-08-12T01:09:17.000Z</time></trkpt>
        <trkpt lat="29.568237" lon="103.409547"><ele>826.50934</ele><time>2026-08-12T01:09:18.000Z</time></trkpt>
        <trkpt lat="29.568235" lon="103.409539"><ele>826.1899</ele><time>2026-08-12T01:09:19.000Z</time></trkpt>
        <trkpt lat="29.568233" lon="103.40953"><ele>825.8979</ele><time>2026-08-12T01:09:20.000Z</time></trkpt>
        <trkpt lat="29.56823" lon="103.40952"><ele>825.64484</ele><time>2026-08-12T01:09:21.000Z</time></trkpt>
        <trkpt lat="29.568226" lon="103.409505"><ele>825.33466</ele><time>2026-08-12T01:09:23.000Z</time></trkpt>
        <trkpt lat="29.56822" lon="103.409495"><ele>824.987</ele><time>2026-08-12T01:09:24.000Z</time></trkpt>
        <trkpt lat="29.568218" lon="103.409489"><ele>824.69403</ele><time>2026-08-12T01:09:25.000Z</time></trkpt>
        <trkpt lat="29.568216" lon="103.409482"><ele>824.58417</ele><time>2026-08-12T01:09:26.000Z</time></trkpt>
        <trkpt lat="29.568212" lon="103.409472"><ele>824.4903</ele><time>2026-08-12T01:09:27.000Z</time></trkpt>
        <trkpt lat="29.568208" lon="103.409455"><ele>824.1958</ele><time>2026-08-12T01:09:29.000Z</time></trkpt>
        <trkpt lat="29.568203" lon="103.409444"><ele>823.8795</ele><time>2026-08-12T01:09:30.000Z</time></trkpt>
        <trkpt lat="29.568198" lon="103.409434"><ele>823.78564</ele><time>2026-08-12T01:09:31.000Z</time></trkpt>
        <trkpt lat="29.568194" lon="103.409426"><ele>823.58563</ele><time>2026-08-12T01:09:32.000Z</time></trkpt>
        <trkpt lat="29.568191" lon="103.409419"><ele>823.63745</ele><time>2026-08-12T01:09:33.000Z</time></trkpt>
        <trkpt lat="29.568184" lon="103.409406"><ele>823.67456</ele><time>2026-08-12T01:09:35.000Z</time></trkpt>
        <trkpt lat="29.56818" lon="103.40939"><ele>823.82043</ele><time>2026-08-12T01:09:37.000Z</time></trkpt>
        <trkpt lat="29.568176" lon="103.409383"><ele>823.606</ele><time>2026-08-12T01:09:38.000Z</time></trkpt>
        <trkpt lat="29.568174" lon="103.409377"><ele>823.44714</ele><time>2026-08-12T01:09:39.000Z</time></trkpt>
        <trkpt lat="29.56817" lon="103.409368"><ele>823.28815</ele><time>2026-08-12T01:09:40.000Z</time></trkpt>
        <trkpt lat="29.568165" lon="103.409358"><ele>822.9073</ele><time>2026-08-12T01:09:41.000Z</time></trkpt>
        <trkpt lat="29.568154" lon="103.409341"><ele>822.0238</ele><time>2026-08-12T01:09:43.000Z</time></trkpt>
        <trkpt lat="29.568149" lon="103.409334"><ele>821.5886</ele><time>2026-08-12T01:09:44.000Z</time></trkpt>
        <trkpt lat="29.568146" lon="103.409326"><ele>821.5606</ele><time>2026-08-12T01:09:45.000Z</time></trkpt>
        <trkpt lat="29.56814" lon="103.409319"><ele>821.4916</ele><time>2026-08-12T01:09:46.000Z</time></trkpt>
        <trkpt lat="29.568136" lon="103.409313"><ele>821.3253</ele><time>2026-08-12T01:09:47.000Z</time></trkpt>
        <trkpt lat="29.568129" lon="103.409299"><ele>821.2318</ele><time>2026-08-12T01:09:49.000Z</time></trkpt>
        <trkpt lat="29.568119" lon="103.409291"><ele>821.0509</ele><time>2026-08-12T01:09:50.000Z</time></trkpt>
        <trkpt lat="29.568112" lon="103.409282"><ele>820.8338</ele><time>2026-08-12T01:09:51.000Z</time></trkpt>
        <trkpt lat="29.568105" lon="103.409269"><ele>820.50867</ele><time>2026-08-12T01:09:52.000Z</time></trkpt>
        <trkpt lat="29.568099" lon="103.409257"><ele>820.40564</ele><time>2026-08-12T01:09:53.000Z</time></trkpt>
        <trkpt lat="29.568091" lon="103.409245"><ele>820.07086</ele><time>2026-08-12T01:09:54.000Z</time></trkpt>
        <trkpt lat="29.568082" lon="103.409232"><ele>819.67395</ele><time>2026-08-12T01:09:55.000Z</time></trkpt>
        <trkpt lat="29.568075" lon="103.409219"><ele>819.3937</ele><time>2026-08-12T01:09:56.000Z</time></trkpt>
        <trkpt lat="29.568068" lon="103.409206"><ele>819.09546</ele><time>2026-08-12T01:09:57.000Z</time></trkpt>
        <trkpt lat="29.568062" lon="103.409195"><ele>818.7457</ele><time>2026-08-12T01:09:58.000Z</time></trkpt>
        <trkpt lat="29.568061" lon="103.409191"><ele>818.5682</ele><time>2026-08-12T01:09:59.000Z</time></trkpt>
        <trkpt lat="29.568062" lon="103.409187"><ele>818.4088</ele><time>2026-08-12T01:10:00.000Z</time></trkpt>
        <trkpt lat="29.568062" lon="103.409169"><ele>817.821</ele><time>2026-08-12T01:10:02.000Z</time></trkpt>
        <trkpt lat="29.568057" lon="103.409153"><ele>816.9823</ele><time>2026-08-12T01:10:04.000Z</time></trkpt>
        <trkpt lat="29.568053" lon="103.409146"><ele>816.68243</ele><time>2026-08-12T01:10:05.000Z</time></trkpt>
        <trkpt lat="29.568051" lon="103.409138"><ele>816.2259</ele><time>2026-08-12T01:10:06.000Z</time></trkpt>
        <trkpt lat="29.568049" lon="103.409129"><ele>815.75977</ele><time>2026-08-12T01:10:07.000Z</time></trkpt>
        <trkpt lat="29.568045" lon="103.409121"><ele>815.15497</ele><time>2026-08-12T01:10:08.000Z</time></trkpt>
        <trkpt lat="29.568036" lon="103.409103"><ele>814.05164</ele><time>2026-08-12T01:10:10.000Z</time></trkpt>
        <trkpt lat="29.568027" lon="103.40909"><ele>813.91943</ele><time>2026-08-12T01:10:11.000Z</time></trkpt>
        <trkpt lat="29.568019" lon="103.409078"><ele>813.6462</ele><time>2026-08-12T01:10:12.000Z</time></trkpt>
        <trkpt lat="29.56801" lon="103.409068"><ele>813.3749</ele><time>2026-08-12T01:10:13.000Z</time></trkpt>
        <trkpt lat="29.568003" lon="103.409058"><ele>813.0291</ele><time>2026-08-12T01:10:14.000Z</time></trkpt>
        <trkpt lat="29.567997" lon="103.40905"><ele>812.9844</ele><time>2026-08-12T01:10:15.000Z</time></trkpt>
        <trkpt lat="29.56799" lon="103.40904"><ele>812.53284</ele><time>2026-08-12T01:10:16.000Z</time></trkpt>
        <trkpt lat="29.567985" lon="103.409032"><ele>812.3259</ele><time>2026-08-12T01:10:17.000Z</time></trkpt>
        <trkpt lat="29.567981" lon="103.409026"><ele>812.1633</ele><time>2026-08-12T01:10:18.000Z</time></trkpt>
        <trkpt lat="29.567973" lon="103.409013"><ele>811.82745</ele><time>2026-08-12T01:10:20.000Z</time></trkpt>
        <trkpt lat="29.56797" lon="103.409005"><ele>811.5424</ele><time>2026-08-12T01:10:21.000Z</time></trkpt>
        <trkpt lat="29.567966" lon="103.408997"><ele>811.15576</ele><time>2026-08-12T01:10:22.000Z</time></trkpt>
        <trkpt lat="29.567962" lon="103.408988"><ele>810.8857</ele><time>2026-08-12T01:10:23.000Z</time></trkpt>
        <trkpt lat="29.567958" lon="103.408979"><ele>810.4356</ele><time>2026-08-12T01:10:24.000Z</time></trkpt>
        <trkpt lat="29.56795" lon="103.408959"><ele>809.692</ele><time>2026-08-12T01:10:26.000Z</time></trkpt>
        <trkpt lat="29.567944" lon="103.408947"><ele>808.9799</ele><time>2026-08-12T01:10:27.000Z</time></trkpt>
        <trkpt lat="29.567938" lon="103.408933"><ele>808.61774</ele><time>2026-08-12T01:10:28.000Z</time></trkpt>
        <trkpt lat="29.567933" lon="103.408919"><ele>808.21686</ele><time>2026-08-12T01:10:29.000Z</time></trkpt>
        <trkpt lat="29.567927" lon="103.408905"><ele>807.9321</ele><time>2026-08-12T01:10:30.000Z</time></trkpt>
        <trkpt lat="29.567922" lon="103.408893"><ele>807.48694</ele><time>2026-08-12T01:10:31.000Z</time></trkpt>
        <trkpt lat="29.567917" lon="103.408882"><ele>806.9734</ele><time>2026-08-12T01:10:32.000Z</time></trkpt>
        <trkpt lat="29.567913" lon="103.408874"><ele>806.5341</ele><time>2026-08-12T01:10:33.000Z</time></trkpt>
        <trkpt lat="29.567911" lon="103.408867"><ele>806.23975</ele><time>2026-08-12T01:10:34.000Z</time></trkpt>
        <trkpt lat="29.567909" lon="103.408861"><ele>805.6848</ele><time>2026-08-12T01:10:35.000Z</time></trkpt>
        <trkpt lat="29.567909" lon="103.408846"><ele>804.9677</ele><time>2026-08-12T01:10:38.000Z</time></trkpt>
        <trkpt lat="29.567909" lon="103.408834"><ele>804.5416</ele><time>2026-08-12T01:10:40.000Z</time></trkpt>
        <trkpt lat="29.567911" lon="103.408828"><ele>804.24084</ele><time>2026-08-12T01:10:41.000Z</time></trkpt>
        <trkpt lat="29.567912" lon="103.408814"><ele>803.74023</ele><time>2026-08-12T01:10:43.000Z</time></trkpt>
        <trkpt lat="29.567911" lon="103.408808"><ele>803.61914</ele><time>2026-08-12T01:10:44.000Z</time></trkpt>
        <trkpt lat="29.567906" lon="103.408792"><ele>803.2607</ele><time>2026-08-12T01:10:46.000Z</time></trkpt>
        <trkpt lat="29.567897" lon="103.408787"><ele>802.80304</ele><time>2026-08-12T01:10:59.000Z</time></trkpt>
        <trkpt lat="29.567893" lon="103.408784"><ele>802.49255</ele><time>2026-08-12T01:11:02.000Z</time></trkpt>
        <trkpt lat="29.567894" lon="103.408771"><ele>801.3164</ele><time>2026-08-12T01:11:34.000Z</time></trkpt>
        <trkpt lat="29.567899" lon="103.408765"><ele>801.1097</ele><time>2026-08-12T01:11:36.000Z</time></trkpt>
        <trkpt lat="29.567891" lon="103.408743"><ele>800.5152</ele><time>2026-08-12T01:11:39.000Z</time></trkpt>
        <trkpt lat="29.567887" lon="103.408735"><ele>800.3403</ele><time>2026-08-12T01:11:40.000Z</time></trkpt>
        <trkpt lat="29.567881" lon="103.408729"><ele>800.21045</ele><time>2026-08-12T01:11:41.000Z</time></trkpt>
        <trkpt lat="29.56787" lon="103.408728"><ele>799.7555</ele><time>2026-08-12T01:11:45.000Z</time></trkpt>
        <trkpt lat="29.567869" lon="103.408728"><ele>799.7405</ele><time>2026-08-12T01:11:46.000Z</time></trkpt>
        <trkpt lat="29.567864" lon="103.408716"><ele>797.1341</ele><time>2026-08-12T01:14:08.000Z</time></trkpt>
        <trkpt lat="29.567865" lon="103.408707"><ele>796.9389</ele><time>2026-08-12T01:14:09.000Z</time></trkpt>
        <trkpt lat="29.567866" lon="103.408696"><ele>796.7238</ele><time>2026-08-12T01:14:10.000Z</time></trkpt>
        <trkpt lat="29.567868" lon="103.408684"><ele>796.4285</ele><time>2026-08-12T01:14:11.000Z</time></trkpt>
        <trkpt lat="29.567866" lon="103.40867"><ele>796.19214</ele><time>2026-08-12T01:14:12.000Z</time></trkpt>
        <trkpt lat="29.567856" lon="103.408651"><ele>795.9935</ele><time>2026-08-12T01:14:13.000Z</time></trkpt>
        <trkpt lat="29.567848" lon="103.408635"><ele>795.93463</ele><time>2026-08-12T01:14:14.000Z</time></trkpt>
        <trkpt lat="29.567839" lon="103.408617"><ele>795.8232</ele><time>2026-08-12T01:14:15.000Z</time></trkpt>
        <trkpt lat="29.567831" lon="103.408603"><ele>795.8053</ele><time>2026-08-12T01:14:16.000Z</time></trkpt>
        <trkpt lat="29.567823" lon="103.40859"><ele>795.792</ele><time>2026-08-12T01:14:17.000Z</time></trkpt>
        <trkpt lat="29.567818" lon="103.408581"><ele>795.6917</ele><time>2026-08-12T01:14:18.000Z</time></trkpt>
        <trkpt lat="29.567812" lon="103.408572"><ele>795.44824</ele><time>2026-08-12T01:14:19.000Z</time></trkpt>
        <trkpt lat="29.56781" lon="103.408565"><ele>795.14703</ele><time>2026-08-12T01:14:20.000Z</time></trkpt>
        <trkpt lat="29.567807" lon="103.408559"><ele>794.8433</ele><time>2026-08-12T01:14:21.000Z</time></trkpt>
        <trkpt lat="29.5678" lon="103.408548"><ele>794.34344</ele><time>2026-08-12T01:14:23.000Z</time></trkpt>
        <trkpt lat="29.567793" lon="103.408536"><ele>793.535</ele><time>2026-08-12T01:14:25.000Z</time></trkpt>
        <trkpt lat="29.56779" lon="103.408529"><ele>793.1388</ele><time>2026-08-12T01:14:26.000Z</time></trkpt>
        <trkpt lat="29.567787" lon="103.408522"><ele>792.70483</ele><time>2026-08-12T01:14:27.000Z</time></trkpt>
        <trkpt lat="29.567782" lon="103.408514"><ele>792.43506</ele><time>2026-08-12T01:14:28.000Z</time></trkpt>
        <trkpt lat="29.567776" lon="103.408505"><ele>792.14276</ele><time>2026-08-12T01:14:29.000Z</time></trkpt>
        <trkpt lat="29.567769" lon="103.408495"><ele>791.8675</ele><time>2026-08-12T01:14:30.000Z</time></trkpt>
        <trkpt lat="29.567761" lon="103.408485"><ele>791.708</ele><time>2026-08-12T01:14:31.000Z</time></trkpt>
        <trkpt lat="29.567755" lon="103.408477"><ele>791.5089</ele><time>2026-08-12T01:14:32.000Z</time></trkpt>
        <trkpt lat="29.567747" lon="103.408471"><ele>791.32825</ele><time>2026-08-12T01:14:33.000Z</time></trkpt>
        <trkpt lat="29.567741" lon="103.408466"><ele>791.0325</ele><time>2026-08-12T01:14:34.000Z</time></trkpt>
        <trkpt lat="29.56773" lon="103.408458"><ele>790.5203</ele><time>2026-08-12T01:14:36.000Z</time></trkpt>
        <trkpt lat="29.567722" lon="103.408452"><ele>790.38934</ele><time>2026-08-12T01:14:37.000Z</time></trkpt>
        <trkpt lat="29.567715" lon="103.408447"><ele>790.1685</ele><time>2026-08-12T01:14:38.000Z</time></trkpt>
        <trkpt lat="29.567709" lon="103.408441"><ele>789.9111</ele><time>2026-08-12T01:14:39.000Z</time></trkpt>
        <trkpt lat="29.567702" lon="103.408435"><ele>789.7229</ele><time>2026-08-12T01:14:40.000Z</time></trkpt>
        <trkpt lat="29.567688" lon="103.408423"><ele>789.5906</ele><time>2026-08-12T01:14:42.000Z</time></trkpt>
        <trkpt lat="29.56768" lon="103.408418"><ele>789.3511</ele><time>2026-08-12T01:14:43.000Z</time></trkpt>
        <trkpt lat="29.567672" lon="103.408413"><ele>789.03</ele><time>2026-08-12T01:14:44.000Z</time></trkpt>
        <trkpt lat="29.56766" lon="103.408407"><ele>788.7779</ele><time>2026-08-12T01:14:45.000Z</time></trkpt>
        <trkpt lat="29.567647" lon="103.408401"><ele>788.6061</ele><time>2026-08-12T01:14:46.000Z</time></trkpt>
        <trkpt lat="29.567632" lon="103.408396"><ele>788.4927</ele><time>2026-08-12T01:14:47.000Z</time></trkpt>
        <trkpt lat="29.56762" lon="103.408392"><ele>788.4954</ele><time>2026-08-12T01:14:48.000Z</time></trkpt>
        <trkpt lat="29.567611" lon="103.408392"><ele>788.2111</ele><time>2026-08-12T01:14:49.000Z</time></trkpt>
        <trkpt lat="29.567606" lon="103.408395"><ele>788.10583</ele><time>2026-08-12T01:14:50.000Z</time></trkpt>
        <trkpt lat="29.567602" lon="103.408401"><ele>787.8487</ele><time>2026-08-12T01:14:51.000Z</time></trkpt>
        <trkpt lat="29.567596" lon="103.40843"><ele>786.5715</ele><time>2026-08-12T01:14:54.000Z</time></trkpt>
        <trkpt lat="29.567594" lon="103.408443"><ele>785.9379</ele><time>2026-08-12T01:14:55.000Z</time></trkpt>
        <trkpt lat="29.567591" lon="103.408456"><ele>785.38477</ele><time>2026-08-12T01:14:56.000Z</time></trkpt>
        <trkpt lat="29.567586" lon="103.40847"><ele>784.9738</ele><time>2026-08-12T01:14:57.000Z</time></trkpt>
        <trkpt lat="29.56758" lon="103.408484"><ele>784.73956</ele><time>2026-08-12T01:14:58.000Z</time></trkpt>
        <trkpt lat="29.567574" lon="103.408501"><ele>784.4675</ele><time>2026-08-12T01:14:59.000Z</time></trkpt>
        <trkpt lat="29.567568" lon="103.408519"><ele>784.1344</ele><time>2026-08-12T01:15:00.000Z</time></trkpt>
        <trkpt lat="29.567562" lon="103.408537"><ele>783.73596</ele><time>2026-08-12T01:15:01.000Z</time></trkpt>
        <trkpt lat="29.567555" lon="103.408552"><ele>783.6048</ele><time>2026-08-12T01:15:02.000Z</time></trkpt>
        <trkpt lat="29.567548" lon="103.408566"><ele>783.4981</ele><time>2026-08-12T01:15:03.000Z</time></trkpt>
        <trkpt lat="29.567539" lon="103.408578"><ele>783.46136</ele><time>2026-08-12T01:15:04.000Z</time></trkpt>
        <trkpt lat="29.567529" lon="103.40859"><ele>783.378</ele><time>2026-08-12T01:15:05.000Z</time></trkpt>
        <trkpt lat="29.567516" lon="103.408602"><ele>783.279</ele><time>2026-08-12T01:15:06.000Z</time></trkpt>
        <trkpt lat="29.567499" lon="103.408611"><ele>783.0922</ele><time>2026-08-12T01:15:07.000Z</time></trkpt>
        <trkpt lat="29.567478" lon="103.408616"><ele>782.9169</ele><time>2026-08-12T01:15:08.000Z</time></trkpt>
        <trkpt lat="29.567456" lon="103.408617"><ele>782.8853</ele><time>2026-08-12T01:15:09.000Z</time></trkpt>
        <trkpt lat="29.567433" lon="103.408617"><ele>783.03235</ele><time>2026-08-12T01:15:10.000Z</time></trkpt>
        <trkpt lat="29.567411" lon="103.408614"><ele>783.1113</ele><time>2026-08-12T01:15:11.000Z</time></trkpt>
        <trkpt lat="29.567391" lon="103.408607"><ele>782.99866</ele><time>2026-08-12T01:15:12.000Z</time></trkpt>
        <trkpt lat="29.567374" lon="103.408598"><ele>782.8991</ele><time>2026-08-12T01:15:13.000Z</time></trkpt>
        <trkpt lat="29.567355" lon="103.408589"><ele>782.7905</ele><time>2026-08-12T01:15:14.000Z</time></trkpt>
        <trkpt lat="29.567336" lon="103.40858"><ele>782.7978</ele><time>2026-08-12T01:15:15.000Z</time></trkpt>
        <trkpt lat="29.567316" lon="103.408572"><ele>782.7908</ele><time>2026-08-12T01:15:16.000Z</time></trkpt>
        <trkpt lat="29.567295" lon="103.408565"><ele>782.83514</ele><time>2026-08-12T01:15:17.000Z</time></trkpt>
        <trkpt lat="29.567275" lon="103.408556"><ele>782.8159</ele><time>2026-08-12T01:15:18.000Z</time></trkpt>
        <trkpt lat="29.567253" lon="103.408546"><ele>782.704</ele><time>2026-08-12T01:15:19.000Z</time></trkpt>
        <trkpt lat="29.567233" lon="103.408537"><ele>782.5452</ele><time>2026-08-12T01:15:20.000Z</time></trkpt>
        <trkpt lat="29.567217" lon="103.408527"><ele>782.28033</ele><time>2026-08-12T01:15:21.000Z</time></trkpt>
        <trkpt lat="29.567202" lon="103.408516"><ele>782.0777</ele><time>2026-08-12T01:15:22.000Z</time></trkpt>
        <trkpt lat="29.567185" lon="103.408505"><ele>781.5393</ele><time>2026-08-12T01:15:23.000Z</time></trkpt>
        <trkpt lat="29.56717" lon="103.408497"><ele>781.20557</ele><time>2026-08-12T01:15:24.000Z</time></trkpt>
        <trkpt lat="29.567157" lon="103.408487"><ele>781.10504</ele><time>2026-08-12T01:15:25.000Z</time></trkpt>
        <trkpt lat="29.567146" lon="103.40848"><ele>781.1079</ele><time>2026-08-12T01:15:26.000Z</time></trkpt>
        <trkpt lat="29.567133" lon="103.408474"><ele>781.0034</ele><time>2026-08-12T01:15:27.000Z</time></trkpt>
        <trkpt lat="29.567121" lon="103.408471"><ele>780.90875</ele><time>2026-08-12T01:15:28.000Z</time></trkpt>
        <trkpt lat="29.567106" lon="103.408467"><ele>780.93713</ele><time>2026-08-12T01:15:29.000Z</time></trkpt>
        <trkpt lat="29.567091" lon="103.408464"><ele>780.8925</ele><time>2026-08-12T01:15:30.000Z</time></trkpt>
        <trkpt lat="29.567071" lon="103.40846"><ele>780.86566</ele><time>2026-08-12T01:15:31.000Z</time></trkpt>
        <trkpt lat="29.567053" lon="103.408455"><ele>780.8008</ele><time>2026-08-12T01:15:32.000Z</time></trkpt>
        <trkpt lat="29.567039" lon="103.408452"><ele>780.6652</ele><time>2026-08-12T01:15:33.000Z</time></trkpt>
        <trkpt lat="29.567024" lon="103.408445"><ele>780.64014</ele><time>2026-08-12T01:15:34.000Z</time></trkpt>
        <trkpt lat="29.567015" lon="103.408441"><ele>780.6423</ele><time>2026-08-12T01:15:35.000Z</time></trkpt>
        <trkpt lat="29.566996" lon="103.408439"><ele>780.6428</ele><time>2026-08-12T01:15:36.000Z</time></trkpt>
        <trkpt lat="29.566986" lon="103.408441"><ele>780.6247</ele><time>2026-08-12T01:15:37.000Z</time></trkpt>
        <trkpt lat="29.566973" lon="103.408444"><ele>780.5698</ele><time>2026-08-12T01:15:38.000Z</time></trkpt>
        <trkpt lat="29.566955" lon="103.408443"><ele>780.57806</ele><time>2026-08-12T01:15:39.000Z</time></trkpt>
        <trkpt lat="29.566945" lon="103.408444"><ele>780.6068</ele><time>2026-08-12T01:15:40.000Z</time></trkpt>
        <trkpt lat="29.566929" lon="103.408445"><ele>780.6071</ele><time>2026-08-12T01:15:41.000Z</time></trkpt>
        <trkpt lat="29.566909" lon="103.408442"><ele>780.7293</ele><time>2026-08-12T01:15:42.000Z</time></trkpt>
        <trkpt lat="29.566897" lon="103.408444"><ele>780.7131</ele><time>2026-08-12T01:15:43.000Z</time></trkpt>
        <trkpt lat="29.566881" lon="103.408444"><ele>780.5966</ele><time>2026-08-12T01:15:44.000Z</time></trkpt>
        <trkpt lat="29.566866" lon="103.408446"><ele>780.40784</ele><time>2026-08-12T01:15:45.000Z</time></trkpt>
        <trkpt lat="29.566846" lon="103.408445"><ele>780.2636</ele><time>2026-08-12T01:15:46.000Z</time></trkpt>
        <trkpt lat="29.566827" lon="103.408446"><ele>780.16907</ele><time>2026-08-12T01:15:47.000Z</time></trkpt>
        <trkpt lat="29.566805" lon="103.408444"><ele>780.14764</ele><time>2026-08-12T01:15:48.000Z</time></trkpt>
        <trkpt lat="29.566783" lon="103.408441"><ele>779.9409</ele><time>2026-08-12T01:15:49.000Z</time></trkpt>
        <trkpt lat="29.566763" lon="103.408436"><ele>779.84094</ele><time>2026-08-12T01:15:50.000Z</time></trkpt>
        <trkpt lat="29.566744" lon="103.408429"><ele>779.68616</ele><time>2026-08-12T01:15:51.000Z</time></trkpt>
        <trkpt lat="29.56674" lon="103.408427"><ele>779.4755</ele><time>2026-08-12T01:15:52.000Z</time></trkpt>
        <trkpt lat="29.566728" lon="103.408417"><ele>779.2912</ele><time>2026-08-12T01:15:53.000Z</time></trkpt>
        <trkpt lat="29.56671" lon="103.408397"><ele>779.18756</ele><time>2026-08-12T01:15:54.000Z</time></trkpt>
        <trkpt lat="29.566694" lon="103.40837"><ele>779.035</ele><time>2026-08-12T01:15:55.000Z</time></trkpt>
        <trkpt lat="29.566683" lon="103.408342"><ele>778.73456</ele><time>2026-08-12T01:15:56.000Z</time></trkpt>
        <trkpt lat="29.566676" lon="103.408322"><ele>778.4514</ele><time>2026-08-12T01:15:57.000Z</time></trkpt>
        <trkpt lat="29.566673" lon="103.408304"><ele>778.3445</ele><time>2026-08-12T01:15:58.000Z</time></trkpt>
        <trkpt lat="29.566673" lon="103.408286"><ele>778.14954</ele><time>2026-08-12T01:15:59.000Z</time></trkpt>
        <trkpt lat="29.566672" lon="103.408266"><ele>777.7545</ele><time>2026-08-12T01:16:00.000Z</time></trkpt>
        <trkpt lat="29.566673" lon="103.40825"><ele>777.5972</ele><time>2026-08-12T01:16:01.000Z</time></trkpt>
        <trkpt lat="29.566674" lon="103.408245"><ele>777.14465</ele><time>2026-08-12T01:16:02.000Z</time></trkpt>
        <trkpt lat="29.566676" lon="103.408231"><ele>777.15173</ele><time>2026-08-12T01:16:03.000Z</time></trkpt>
        <trkpt lat="29.566678" lon="103.408212"><ele>776.97327</ele><time>2026-08-12T01:16:04.000Z</time></trkpt>
        <trkpt lat="29.566681" lon="103.408191"><ele>776.88324</ele><time>2026-08-12T01:16:05.000Z</time></trkpt>
        <trkpt lat="29.566685" lon="103.408177"><ele>776.81934</ele><time>2026-08-12T01:16:06.000Z</time></trkpt>
        <trkpt lat="29.566687" lon="103.408165"><ele>776.6211</ele><time>2026-08-12T01:16:07.000Z</time></trkpt>
        <trkpt lat="29.566689" lon="103.408151"><ele>776.2153</ele><time>2026-08-12T01:16:08.000Z</time></trkpt>
        <trkpt lat="29.566693" lon="103.408138"><ele>775.9024</ele><time>2026-08-12T01:16:09.000Z</time></trkpt>
        <trkpt lat="29.566699" lon="103.408125"><ele>775.7355</ele><time>2026-08-12T01:16:10.000Z</time></trkpt>
        <trkpt lat="29.566704" lon="103.408112"><ele>775.3139</ele><time>2026-08-12T01:16:11.000Z</time></trkpt>
        <trkpt lat="29.566707" lon="103.408099"><ele>774.95215</ele><time>2026-08-12T01:16:12.000Z</time></trkpt>
        <trkpt lat="29.566711" lon="103.408085"><ele>774.5365</ele><time>2026-08-12T01:16:13.000Z</time></trkpt>
        <trkpt lat="29.566712" lon="103.408072"><ele>774.27026</ele><time>2026-08-12T01:16:14.000Z</time></trkpt>
        <trkpt lat="29.566712" lon="103.408055"><ele>774.137</ele><time>2026-08-12T01:16:15.000Z</time></trkpt>
        <trkpt lat="29.56671" lon="103.408039"><ele>773.90314</ele><time>2026-08-12T01:16:16.000Z</time></trkpt>
        <trkpt lat="29.566707" lon="103.408024"><ele>773.6727</ele><time>2026-08-12T01:16:17.000Z</time></trkpt>
        <trkpt lat="29.566703" lon="103.408011"><ele>773.51416</ele><time>2026-08-12T01:16:18.000Z</time></trkpt>
        <trkpt lat="29.566699" lon="103.407998"><ele>773.567</ele><time>2026-08-12T01:16:19.000Z</time></trkpt>
        <trkpt lat="29.566695" lon="103.407982"><ele>773.56537</ele><time>2026-08-12T01:16:20.000Z</time></trkpt>
        <trkpt lat="29.56669" lon="103.407965"><ele>773.8622</ele><time>2026-08-12T01:16:21.000Z</time></trkpt>
        <trkpt lat="29.566685" lon="103.407948"><ele>773.83075</ele><time>2026-08-12T01:16:22.000Z</time></trkpt>
        <trkpt lat="29.566681" lon="103.407931"><ele>773.82196</ele><time>2026-08-12T01:16:23.000Z</time></trkpt>
        <trkpt lat="29.566676" lon="103.407915"><ele>773.7979</ele><time>2026-08-12T01:16:24.000Z</time></trkpt>
        <trkpt lat="29.566673" lon="103.407901"><ele>773.8215</ele><time>2026-08-12T01:16:25.000Z</time></trkpt>
        <trkpt lat="29.566668" lon="103.407886"><ele>773.9199</ele><time>2026-08-12T01:16:26.000Z</time></trkpt>
        <trkpt lat="29.566663" lon="103.407869"><ele>773.9615</ele><time>2026-08-12T01:16:27.000Z</time></trkpt>
        <trkpt lat="29.566659" lon="103.407854"><ele>773.9258</ele><time>2026-08-12T01:16:28.000Z</time></trkpt>
        <trkpt lat="29.566655" lon="103.407839"><ele>773.92694</ele><time>2026-08-12T01:16:29.000Z</time></trkpt>
        <trkpt lat="29.566652" lon="103.407827"><ele>774.0649</ele><time>2026-08-12T01:16:30.000Z</time></trkpt>
        <trkpt lat="29.566647" lon="103.407814"><ele>774.2471</ele><time>2026-08-12T01:16:31.000Z</time></trkpt>
        <trkpt lat="29.56664" lon="103.407802"><ele>774.3245</ele><time>2026-08-12T01:16:32.000Z</time></trkpt>
        <trkpt lat="29.566633" lon="103.40779"><ele>774.672</ele><time>2026-08-12T01:16:33.000Z</time></trkpt>
        <trkpt lat="29.566628" lon="103.407778"><ele>774.80963</ele><time>2026-08-12T01:16:34.000Z</time></trkpt>
        <trkpt lat="29.566623" lon="103.407764"><ele>774.9119</ele><time>2026-08-12T01:16:35.000Z</time></trkpt>
        <trkpt lat="29.566619" lon="103.407749"><ele>775.1039</ele><time>2026-08-12T01:16:36.000Z</time></trkpt>
        <trkpt lat="29.566615" lon="103.407734"><ele>775.05066</ele><time>2026-08-12T01:16:37.000Z</time></trkpt>
        <trkpt lat="29.566611" lon="103.407719"><ele>774.87115</ele><time>2026-08-12T01:16:38.000Z</time></trkpt>
        <trkpt lat="29.566606" lon="103.407704"><ele>774.6276</ele><time>2026-08-12T01:16:39.000Z</time></trkpt>
        <trkpt lat="29.566602" lon="103.40769"><ele>774.5988</ele><time>2026-08-12T01:16:40.000Z</time></trkpt>
        <trkpt lat="29.566598" lon="103.407677"><ele>774.5416</ele><time>2026-08-12T01:16:41.000Z</time></trkpt>
        <trkpt lat="29.566593" lon="103.407663"><ele>774.57385</ele><time>2026-08-12T01:16:42.000Z</time></trkpt>
        <trkpt lat="29.566589" lon="103.407649"><ele>774.7455</ele><time>2026-08-12T01:16:43.000Z</time></trkpt>
        <trkpt lat="29.566584" lon="103.407634"><ele>774.85254</ele><time>2026-08-12T01:16:44.000Z</time></trkpt>
        <trkpt lat="29.566579" lon="103.407619"><ele>774.9892</ele><time>2026-08-12T01:16:45.000Z</time></trkpt>
        <trkpt lat="29.566575" lon="103.407605"><ele>775.3137</ele><time>2026-08-12T01:16:46.000Z</time></trkpt>
        <trkpt lat="29.566571" lon="103.40759"><ele>775.44324</ele><time>2026-08-12T01:16:47.000Z</time></trkpt>
        <trkpt lat="29.566566" lon="103.407576"><ele>775.5794</ele><time>2026-08-12T01:16:48.000Z</time></trkpt>
        <trkpt lat="29.566562" lon="103.407562"><ele>775.6647</ele><time>2026-08-12T01:16:49.000Z</time></trkpt>
        <trkpt lat="29.566557" lon="103.407549"><ele>775.8342</ele><time>2026-08-12T01:16:50.000Z</time></trkpt>
        <trkpt lat="29.566551" lon="103.407535"><ele>775.9995</ele><time>2026-08-12T01:16:51.000Z</time></trkpt>
        <trkpt lat="29.566545" lon="103.407522"><ele>776.0495</ele><time>2026-08-12T01:16:52.000Z</time></trkpt>
        <trkpt lat="29.566538" lon="103.407509"><ele>776.1275</ele><time>2026-08-12T01:16:53.000Z</time></trkpt>
        <trkpt lat="29.566532" lon="103.407496"><ele>776.2554</ele><time>2026-08-12T01:16:54.000Z</time></trkpt>
        <trkpt lat="29.566525" lon="103.407483"><ele>776.1645</ele><time>2026-08-12T01:16:55.000Z</time></trkpt>
        <trkpt lat="29.566518" lon="103.407471"><ele>776.16846</ele><time>2026-08-12T01:16:56.000Z</time></trkpt>
        <trkpt lat="29.566512" lon="103.407459"><ele>776.16284</ele><time>2026-08-12T01:16:57.000Z</time></trkpt>
        <trkpt lat="29.566508" lon="103.407448"><ele>776.22723</ele><time>2026-08-12T01:16:58.000Z</time></trkpt>
        <trkpt lat="29.566504" lon="103.407436"><ele>776.34717</ele><time>2026-08-12T01:16:59.000Z</time></trkpt>
        <trkpt lat="29.5665" lon="103.407424"><ele>776.43933</ele><time>2026-08-12T01:17:00.000Z</time></trkpt>
        <trkpt lat="29.566498" lon="103.407412"><ele>776.482</ele><time>2026-08-12T01:17:01.000Z</time></trkpt>
        <trkpt lat="29.566494" lon="103.407402"><ele>776.5311</ele><time>2026-08-12T01:17:02.000Z</time></trkpt>
        <trkpt lat="29.56649" lon="103.40739"><ele>776.555</ele><time>2026-08-12T01:17:03.000Z</time></trkpt>
        <trkpt lat="29.566485" lon="103.407376"><ele>776.6617</ele><time>2026-08-12T01:17:04.000Z</time></trkpt>
        <trkpt lat="29.56648" lon="103.407362"><ele>776.78455</ele><time>2026-08-12T01:17:05.000Z</time></trkpt>
        <trkpt lat="29.566475" lon="103.407348"><ele>776.8893</ele><time>2026-08-12T01:17:06.000Z</time></trkpt>
        <trkpt lat="29.56647" lon="103.407334"><ele>777.0106</ele><time>2026-08-12T01:17:07.000Z</time></trkpt>
        <trkpt lat="29.566466" lon="103.407319"><ele>777.1876</ele><time>2026-08-12T01:17:08.000Z</time></trkpt>
        <trkpt lat="29.566461" lon="103.407304"><ele>777.3504</ele><time>2026-08-12T01:17:09.000Z</time></trkpt>
        <trkpt lat="29.566456" lon="103.407289"><ele>777.51355</ele><time>2026-08-12T01:17:10.000Z</time></trkpt>
        <trkpt lat="29.566451" lon="103.407274"><ele>777.6077</ele><time>2026-08-12T01:17:11.000Z</time></trkpt>
        <trkpt lat="29.566446" lon="103.407258"><ele>777.66364</ele><time>2026-08-12T01:17:12.000Z</time></trkpt>
        <trkpt lat="29.566443" lon="103.407241"><ele>777.8637</ele><time>2026-08-12T01:17:13.000Z</time></trkpt>
        <trkpt lat="29.56644" lon="103.407225"><ele>777.9621</ele><time>2026-08-12T01:17:14.000Z</time></trkpt>
        <trkpt lat="29.566437" lon="103.407211"><ele>777.9376</ele><time>2026-08-12T01:17:15.000Z</time></trkpt>
        <trkpt lat="29.566436" lon="103.407196"><ele>777.8659</ele><time>2026-08-12T01:17:16.000Z</time></trkpt>
        <trkpt lat="29.566434" lon="103.407182"><ele>777.76636</ele><time>2026-08-12T01:17:17.000Z</time></trkpt>
        <trkpt lat="29.566431" lon="103.407166"><ele>777.7485</ele><time>2026-08-12T01:17:18.000Z</time></trkpt>
        <trkpt lat="29.566429" lon="103.407148"><ele>777.6927</ele><time>2026-08-12T01:17:19.000Z</time></trkpt>
        <trkpt lat="29.566425" lon="103.407132"><ele>777.6366</ele><time>2026-08-12T01:17:20.000Z</time></trkpt>
        <trkpt lat="29.566423" lon="103.407115"><ele>777.5668</ele><time>2026-08-12T01:17:21.000Z</time></trkpt>
        <trkpt lat="29.56642" lon="103.407098"><ele>777.4653</ele><time>2026-08-12T01:17:22.000Z</time></trkpt>
        <trkpt lat="29.566417" lon="103.40708"><ele>777.2787</ele><time>2026-08-12T01:17:23.000Z</time></trkpt>
        <trkpt lat="29.566415" lon="103.407062"><ele>777.17346</ele><time>2026-08-12T01:17:24.000Z</time></trkpt>
        <trkpt lat="29.566413" lon="103.407044"><ele>777.044</ele><time>2026-08-12T01:17:25.000Z</time></trkpt>
        <trkpt lat="29.566412" lon="103.407026"><ele>776.95734</ele><time>2026-08-12T01:17:26.000Z</time></trkpt>
        <trkpt lat="29.566413" lon="103.407008"><ele>776.8367</ele><time>2026-08-12T01:17:27.000Z</time></trkpt>
        <trkpt lat="29.566414" lon="103.406989"><ele>776.7065</ele><time>2026-08-12T01:17:28.000Z</time></trkpt>
        <trkpt lat="29.566415" lon="103.406972"><ele>776.57916</ele><time>2026-08-12T01:17:29.000Z</time></trkpt>
        <trkpt lat="29.566416" lon="103.406953"><ele>776.3669</ele><time>2026-08-12T01:17:30.000Z</time></trkpt>
        <trkpt lat="29.566418" lon="103.406936"><ele>776.278</ele><time>2026-08-12T01:17:31.000Z</time></trkpt>
        <trkpt lat="29.566421" lon="103.406919"><ele>776.13153</ele><time>2026-08-12T01:17:32.000Z</time></trkpt>
        <trkpt lat="29.566423" lon="103.406902"><ele>775.9497</ele><time>2026-08-12T01:17:33.000Z</time></trkpt>
        <trkpt lat="29.566427" lon="103.406885"><ele>775.7234</ele><time>2026-08-12T01:17:34.000Z</time></trkpt>
        <trkpt lat="29.56643" lon="103.40687"><ele>775.5761</ele><time>2026-08-12T01:17:35.000Z</time></trkpt>
        <trkpt lat="29.566434" lon="103.406854"><ele>775.3916</ele><time>2026-08-12T01:17:36.000Z</time></trkpt>
        <trkpt lat="29.566439" lon="103.406837"><ele>775.05493</ele><time>2026-08-12T01:17:37.000Z</time></trkpt>
        <trkpt lat="29.566444" lon="103.406821"><ele>774.75195</ele><time>2026-08-12T01:17:38.000Z</time></trkpt>
        <trkpt lat="29.56645" lon="103.406805"><ele>774.54724</ele><time>2026-08-12T01:17:39.000Z</time></trkpt>
        <trkpt lat="29.566456" lon="103.406791"><ele>774.4282</ele><time>2026-08-12T01:17:40.000Z</time></trkpt>
        <trkpt lat="29.566462" lon="103.406777"><ele>774.4237</ele><time>2026-08-12T01:17:41.000Z</time></trkpt>
        <trkpt lat="29.566469" lon="103.406765"><ele>774.3556</ele><time>2026-08-12T01:17:42.000Z</time></trkpt>
        <trkpt lat="29.566477" lon="103.406755"><ele>774.3572</ele><time>2026-08-12T01:17:43.000Z</time></trkpt>
        <trkpt lat="29.566485" lon="103.406745"><ele>774.39343</ele><time>2026-08-12T01:17:44.000Z</time></trkpt>
        <trkpt lat="29.566495" lon="103.406736"><ele>774.30457</ele><time>2026-08-12T01:17:45.000Z</time></trkpt>
        <trkpt lat="29.566504" lon="103.406726"><ele>774.3197</ele><time>2026-08-12T01:17:46.000Z</time></trkpt>
        <trkpt lat="29.566512" lon="103.406714"><ele>774.3494</ele><time>2026-08-12T01:17:47.000Z</time></trkpt>
        <trkpt lat="29.56652" lon="103.406704"><ele>774.3566</ele><time>2026-08-12T01:17:48.000Z</time></trkpt>
        <trkpt lat="29.56653" lon="103.406692"><ele>774.3724</ele><time>2026-08-12T01:17:49.000Z</time></trkpt>
        <trkpt lat="29.56654" lon="103.406679"><ele>774.24133</ele><time>2026-08-12T01:17:50.000Z</time></trkpt>
        <trkpt lat="29.566551" lon="103.406666"><ele>774.0982</ele><time>2026-08-12T01:17:51.000Z</time></trkpt>
        <trkpt lat="29.566564" lon="103.406655"><ele>773.94763</ele><time>2026-08-12T01:17:52.000Z</time></trkpt>
        <trkpt lat="29.566575" lon="103.406644"><ele>773.79065</ele><time>2026-08-12T01:17:53.000Z</time></trkpt>
        <trkpt lat="29.566587" lon="103.406632"><ele>773.6818</ele><time>2026-08-12T01:17:54.000Z</time></trkpt>
        <trkpt lat="29.566598" lon="103.406619"><ele>773.32367</ele><time>2026-08-12T01:17:55.000Z</time></trkpt>
        <trkpt lat="29.56661" lon="103.406607"><ele>772.90607</ele><time>2026-08-12T01:17:56.000Z</time></trkpt>
        <trkpt lat="29.566623" lon="103.406596"><ele>772.67847</ele><time>2026-08-12T01:17:57.000Z</time></trkpt>
        <trkpt lat="29.566635" lon="103.406584"><ele>772.5635</ele><time>2026-08-12T01:17:58.000Z</time></trkpt>
        <trkpt lat="29.566645" lon="103.406572"><ele>772.47266</ele><time>2026-08-12T01:17:59.000Z</time></trkpt>
        <trkpt lat="29.566655" lon="103.40656"><ele>772.2793</ele><time>2026-08-12T01:18:00.000Z</time></trkpt>
        <trkpt lat="29.566666" lon="103.406548"><ele>772.19635</ele><time>2026-08-12T01:18:01.000Z</time></trkpt>
        <trkpt lat="29.566677" lon="103.406536"><ele>772.10315</ele><time>2026-08-12T01:18:02.000Z</time></trkpt>
        <trkpt lat="29.566688" lon="103.406524"><ele>771.9499</ele><time>2026-08-12T01:18:03.000Z</time></trkpt>
        <trkpt lat="29.5667" lon="103.406513"><ele>771.8721</ele><time>2026-08-12T01:18:04.000Z</time></trkpt>
        <trkpt lat="29.566713" lon="103.406502"><ele>771.67725</ele><time>2026-08-12T01:18:05.000Z</time></trkpt>
        <trkpt lat="29.566725" lon="103.406491"><ele>771.5459</ele><time>2026-08-12T01:18:06.000Z</time></trkpt>
        <trkpt lat="29.566738" lon="103.406479"><ele>771.5438</ele><time>2026-08-12T01:18:07.000Z</time></trkpt>
        <trkpt lat="29.566743" lon="103.406477"><ele>771.6167</ele><time>2026-08-12T01:18:08.000Z</time></trkpt>
        <trkpt lat="29.566777" lon="103.406445"><ele>771.5455</ele><time>2026-08-12T01:18:09.000Z</time></trkpt>
        <trkpt lat="29.566794" lon="103.406425"><ele>771.47906</ele><time>2026-08-12T01:18:10.000Z</time></trkpt>
        <trkpt lat="29.566811" lon="103.406407"><ele>771.34</ele><time>2026-08-12T01:18:11.000Z</time></trkpt>
        <trkpt lat="29.566826" lon="103.406386"><ele>771.1614</ele><time>2026-08-12T01:18:12.000Z</time></trkpt>
        <trkpt lat="29.56684" lon="103.406367"><ele>770.9666</ele><time>2026-08-12T01:18:13.000Z</time></trkpt>
        <trkpt lat="29.566854" lon="103.406348"><ele>770.73926</ele><time>2026-08-12T01:18:14.000Z</time></trkpt>
        <trkpt lat="29.566868" lon="103.406328"><ele>770.42413</ele><time>2026-08-12T01:18:15.000Z</time></trkpt>
        <trkpt lat="29.566881" lon="103.406309"><ele>770.20624</ele><time>2026-08-12T01:18:16.000Z</time></trkpt>
        <trkpt lat="29.56689" lon="103.406288"><ele>769.9296</ele><time>2026-08-12T01:18:17.000Z</time></trkpt>
        <trkpt lat="29.566898" lon="103.406267"><ele>769.6398</ele><time>2026-08-12T01:18:18.000Z</time></trkpt>
        <trkpt lat="29.566907" lon="103.406247"><ele>769.54675</ele><time>2026-08-12T01:18:19.000Z</time></trkpt>
        <trkpt lat="29.566914" lon="103.406225"><ele>769.5058</ele><time>2026-08-12T01:18:20.000Z</time></trkpt>
        <trkpt lat="29.566915" lon="103.406223"><ele>769.45557</ele><time>2026-08-12T01:18:21.000Z</time></trkpt>
        <trkpt lat="29.566925" lon="103.406194"><ele>769.1659</ele><time>2026-08-12T01:18:22.000Z</time></trkpt>
        <trkpt lat="29.566934" lon="103.406177"><ele>768.8094</ele><time>2026-08-12T01:18:23.000Z</time></trkpt>
        <trkpt lat="29.566942" lon="103.406156"><ele>768.6052</ele><time>2026-08-12T01:18:24.000Z</time></trkpt>
        <trkpt lat="29.566951" lon="103.406136"><ele>768.5001</ele><time>2026-08-12T01:18:25.000Z</time></trkpt>
        <trkpt lat="29.56696" lon="103.406118"><ele>768.341</ele><time>2026-08-12T01:18:26.000Z</time></trkpt>
        <trkpt lat="29.566969" lon="103.406102"><ele>768.295</ele><time>2026-08-12T01:18:27.000Z</time></trkpt>
        <trkpt lat="29.566976" lon="103.406086"><ele>768.2556</ele><time>2026-08-12T01:18:28.000Z</time></trkpt>
        <trkpt lat="29.566984" lon="103.406073"><ele>768.182</ele><time>2026-08-12T01:18:29.000Z</time></trkpt>
        <trkpt lat="29.566994" lon="103.40606"><ele>767.92163</ele><time>2026-08-12T01:18:30.000Z</time></trkpt>
        <trkpt lat="29.567003" lon="103.406046"><ele>767.77386</ele><time>2026-08-12T01:18:31.000Z</time></trkpt>
        <trkpt lat="29.567012" lon="103.406033"><ele>767.50366</ele><time>2026-08-12T01:18:32.000Z</time></trkpt>
        <trkpt lat="29.56702" lon="103.40602"><ele>767.2467</ele><time>2026-08-12T01:18:33.000Z</time></trkpt>
        <trkpt lat="29.567028" lon="103.406006"><ele>767.0012</ele><time>2026-08-12T01:18:34.000Z</time></trkpt>
        <trkpt lat="29.567037" lon="103.405992"><ele>766.82117</ele><time>2026-08-12T01:18:35.000Z</time></trkpt>
        <trkpt lat="29.567047" lon="103.405979"><ele>766.8674</ele><time>2026-08-12T01:18:36.000Z</time></trkpt>
        <trkpt lat="29.567057" lon="103.405964"><ele>767.0726</ele><time>2026-08-12T01:18:37.000Z</time></trkpt>
        <trkpt lat="29.567066" lon="103.405949"><ele>767.1787</ele><time>2026-08-12T01:18:38.000Z</time></trkpt>
        <trkpt lat="29.567074" lon="103.405934"><ele>767.2089</ele><time>2026-08-12T01:18:39.000Z</time></trkpt>
        <trkpt lat="29.567082" lon="103.405919"><ele>767.2255</ele><time>2026-08-12T01:18:40.000Z</time></trkpt>
        <trkpt lat="29.567091" lon="103.405905"><ele>767.20715</ele><time>2026-08-12T01:18:41.000Z</time></trkpt>
        <trkpt lat="29.567098" lon="103.405891"><ele>767.13074</ele><time>2026-08-12T01:18:42.000Z</time></trkpt>
        <trkpt lat="29.567105" lon="103.405876"><ele>767.12384</ele><time>2026-08-12T01:18:43.000Z</time></trkpt>
        <trkpt lat="29.56711" lon="103.405861"><ele>767.1647</ele><time>2026-08-12T01:18:44.000Z</time></trkpt>
        <trkpt lat="29.567115" lon="103.405848"><ele>767.21924</ele><time>2026-08-12T01:18:45.000Z</time></trkpt>
        <trkpt lat="29.567116" lon="103.405833"><ele>767.2535</ele><time>2026-08-12T01:18:46.000Z</time></trkpt>
        <trkpt lat="29.567116" lon="103.405818"><ele>767.27893</ele><time>2026-08-12T01:18:47.000Z</time></trkpt>
        <trkpt lat="29.567116" lon="103.405804"><ele>767.38635</ele><time>2026-08-12T01:18:48.000Z</time></trkpt>
        <trkpt lat="29.567116" lon="103.405789"><ele>767.3777</ele><time>2026-08-12T01:18:49.000Z</time></trkpt>
        <trkpt lat="29.567112" lon="103.405773"><ele>767.4006</ele><time>2026-08-12T01:18:50.000Z</time></trkpt>
        <trkpt lat="29.567106" lon="103.405758"><ele>767.4344</ele><time>2026-08-12T01:18:51.000Z</time></trkpt>
        <trkpt lat="29.567098" lon="103.405744"><ele>767.3832</ele><time>2026-08-12T01:18:52.000Z</time></trkpt>
        <trkpt lat="29.56709" lon="103.405732"><ele>767.30334</ele><time>2026-08-12T01:18:53.000Z</time></trkpt>
        <trkpt lat="29.567081" lon="103.405721"><ele>767.2174</ele><time>2026-08-12T01:18:54.000Z</time></trkpt>
        <trkpt lat="29.567071" lon="103.40571"><ele>767.14984</ele><time>2026-08-12T01:18:55.000Z</time></trkpt>
        <trkpt lat="29.567058" lon="103.405698"><ele>767.08856</ele><time>2026-08-12T01:18:56.000Z</time></trkpt>
        <trkpt lat="29.567047" lon="103.405687"><ele>767.03107</ele><time>2026-08-12T01:18:57.000Z</time></trkpt>
        <trkpt lat="29.567037" lon="103.405676"><ele>767.0597</ele><time>2026-08-12T01:18:58.000Z</time></trkpt>
        <trkpt lat="29.567027" lon="103.405665"><ele>767.03973</ele><time>2026-08-12T01:18:59.000Z</time></trkpt>
        <trkpt lat="29.567018" lon="103.405653"><ele>767.0909</ele><time>2026-08-12T01:19:00.000Z</time></trkpt>
        <trkpt lat="29.567007" lon="103.40564"><ele>767.0139</ele><time>2026-08-12T01:19:01.000Z</time></trkpt>
        <trkpt lat="29.566996" lon="103.405629"><ele>766.93066</ele><time>2026-08-12T01:19:02.000Z</time></trkpt>
        <trkpt lat="29.566989" lon="103.405617"><ele>766.90106</ele><time>2026-08-12T01:19:03.000Z</time></trkpt>
        <trkpt lat="29.56698" lon="103.405605"><ele>766.9071</ele><time>2026-08-12T01:19:04.000Z</time></trkpt>
        <trkpt lat="29.56697" lon="103.405593"><ele>766.8162</ele><time>2026-08-12T01:19:05.000Z</time></trkpt>
        <trkpt lat="29.566959" lon="103.405582"><ele>766.7928</ele><time>2026-08-12T01:19:06.000Z</time></trkpt>
        <trkpt lat="29.566948" lon="103.405572"><ele>766.81714</ele><time>2026-08-12T01:19:07.000Z</time></trkpt>
        <trkpt lat="29.566936" lon="103.405562"><ele>766.7234</ele><time>2026-08-12T01:19:08.000Z</time></trkpt>
        <trkpt lat="29.566925" lon="103.405552"><ele>766.5997</ele><time>2026-08-12T01:19:09.000Z</time></trkpt>
        <trkpt lat="29.566914" lon="103.405542"><ele>766.6314</ele><time>2026-08-12T01:19:10.000Z</time></trkpt>
        <trkpt lat="29.566903" lon="103.405532"><ele>766.5795</ele><time>2026-08-12T01:19:11.000Z</time></trkpt>
        <trkpt lat="29.566892" lon="103.405523"><ele>766.2921</ele><time>2026-08-12T01:19:12.000Z</time></trkpt>
        <trkpt lat="29.566881" lon="103.405515"><ele>766.1799</ele><time>2026-08-12T01:19:13.000Z</time></trkpt>
        <trkpt lat="29.566869" lon="103.405507"><ele>766.334</ele><time>2026-08-12T01:19:14.000Z</time></trkpt>
        <trkpt lat="29.566857" lon="103.405497"><ele>766.19293</ele><time>2026-08-12T01:19:15.000Z</time></trkpt>
        <trkpt lat="29.566846" lon="103.405487"><ele>766.1604</ele><time>2026-08-12T01:19:16.000Z</time></trkpt>
        <trkpt lat="29.566832" lon="103.405475"><ele>766.1085</ele><time>2026-08-12T01:19:17.000Z</time></trkpt>
        <trkpt lat="29.566821" lon="103.405463"><ele>766.06726</ele><time>2026-08-12T01:19:18.000Z</time></trkpt>
        <trkpt lat="29.56681" lon="103.405451"><ele>766.10846</ele><time>2026-08-12T01:19:19.000Z</time></trkpt>
        <trkpt lat="29.566798" lon="103.405439"><ele>766.33575</ele><time>2026-08-12T01:19:20.000Z</time></trkpt>
        <trkpt lat="29.566787" lon="103.405427"><ele>766.3307</ele><time>2026-08-12T01:19:21.000Z</time></trkpt>
        <trkpt lat="29.566776" lon="103.405417"><ele>766.582</ele><time>2026-08-12T01:19:22.000Z</time></trkpt>
        <trkpt lat="29.566768" lon="103.405407"><ele>766.7267</ele><time>2026-08-12T01:19:23.000Z</time></trkpt>
        <trkpt lat="29.56676" lon="103.405393"><ele>766.8123</ele><time>2026-08-12T01:19:24.000Z</time></trkpt>
        <trkpt lat="29.566752" lon="103.405375"><ele>767.0696</ele><time>2026-08-12T01:19:25.000Z</time></trkpt>
        <trkpt lat="29.566746" lon="103.405358"><ele>767.38544</ele><time>2026-08-12T01:19:26.000Z</time></trkpt>
        <trkpt lat="29.56674" lon="103.405342"><ele>767.312</ele><time>2026-08-12T01:19:27.000Z</time></trkpt>
        <trkpt lat="29.566735" lon="103.405327"><ele>767.342</ele><time>2026-08-12T01:19:28.000Z</time></trkpt>
        <trkpt lat="29.566731" lon="103.405313"><ele>767.33</ele><time>2026-08-12T01:19:29.000Z</time></trkpt>
        <trkpt lat="29.566727" lon="103.405299"><ele>767.05835</ele><time>2026-08-12T01:19:30.000Z</time></trkpt>
        <trkpt lat="29.566724" lon="103.405287"><ele>766.85724</ele><time>2026-08-12T01:19:31.000Z</time></trkpt>
        <trkpt lat="29.56672" lon="103.405272"><ele>766.74207</ele><time>2026-08-12T01:19:32.000Z</time></trkpt>
        <trkpt lat="29.566716" lon="103.405256"><ele>766.76666</ele><time>2026-08-12T01:19:33.000Z</time></trkpt>
        <trkpt lat="29.566712" lon="103.405239"><ele>766.6778</ele><time>2026-08-12T01:19:34.000Z</time></trkpt>
        <trkpt lat="29.566708" lon="103.405221"><ele>766.5888</ele><time>2026-08-12T01:19:35.000Z</time></trkpt>
        <trkpt lat="29.566706" lon="103.405205"><ele>766.42847</ele><time>2026-08-12T01:19:36.000Z</time></trkpt>
        <trkpt lat="29.566705" lon="103.405189"><ele>766.2523</ele><time>2026-08-12T01:19:37.000Z</time></trkpt>
        <trkpt lat="29.566704" lon="103.405174"><ele>766.4185</ele><time>2026-08-12T01:19:38.000Z</time></trkpt>
        <trkpt lat="29.566704" lon="103.405159"><ele>766.45154</ele><time>2026-08-12T01:19:39.000Z</time></trkpt>
        <trkpt lat="29.566706" lon="103.405144"><ele>766.4245</ele><time>2026-08-12T01:19:40.000Z</time></trkpt>
        <trkpt lat="29.566709" lon="103.405129"><ele>766.50397</ele><time>2026-08-12T01:19:41.000Z</time></trkpt>
        <trkpt lat="29.566712" lon="103.405115"><ele>766.4376</ele><time>2026-08-12T01:19:42.000Z</time></trkpt>
        <trkpt lat="29.566716" lon="103.405103"><ele>766.5813</ele><time>2026-08-12T01:19:43.000Z</time></trkpt>
        <trkpt lat="29.566722" lon="103.405094"><ele>766.9514</ele><time>2026-08-12T01:19:44.000Z</time></trkpt>
        <trkpt lat="29.566731" lon="103.405088"><ele>767.11334</ele><time>2026-08-12T01:19:45.000Z</time></trkpt>
        <trkpt lat="29.566741" lon="103.405084"><ele>766.95874</ele><time>2026-08-12T01:19:46.000Z</time></trkpt>
        <trkpt lat="29.566753" lon="103.405084"><ele>766.7768</ele><time>2026-08-12T01:19:47.000Z</time></trkpt>
        <trkpt lat="29.566768" lon="103.405084"><ele>766.8351</ele><time>2026-08-12T01:19:48.000Z</time></trkpt>
        <trkpt lat="29.566784" lon="103.405083"><ele>766.92755</ele><time>2026-08-12T01:19:49.000Z</time></trkpt>
        <trkpt lat="29.5668" lon="103.405082"><ele>766.9468</ele><time>2026-08-12T01:19:50.000Z</time></trkpt>
        <trkpt lat="29.566816" lon="103.405081"><ele>766.86316</ele><time>2026-08-12T01:19:51.000Z</time></trkpt>
        <trkpt lat="29.566832" lon="103.405079"><ele>766.6344</ele><time>2026-08-12T01:19:52.000Z</time></trkpt>
        <trkpt lat="29.56685" lon="103.405081"><ele>766.56665</ele><time>2026-08-12T01:19:53.000Z</time></trkpt>
        <trkpt lat="29.566869" lon="103.405083"><ele>766.3491</ele><time>2026-08-12T01:19:54.000Z</time></trkpt>
        <trkpt lat="29.566889" lon="103.405085"><ele>766.3059</ele><time>2026-08-12T01:19:55.000Z</time></trkpt>
        <trkpt lat="29.56691" lon="103.405086"><ele>766.0218</ele><time>2026-08-12T01:19:56.000Z</time></trkpt>
        <trkpt lat="29.566931" lon="103.405085"><ele>765.78955</ele><time>2026-08-12T01:19:57.000Z</time></trkpt>
        <trkpt lat="29.566949" lon="103.405085"><ele>765.77</ele><time>2026-08-12T01:19:58.000Z</time></trkpt>
        <trkpt lat="29.566965" lon="103.405084"><ele>765.67303</ele><time>2026-08-12T01:19:59.000Z</time></trkpt>
        <trkpt lat="29.566984" lon="103.405079"><ele>765.7655</ele><time>2026-08-12T01:20:00.000Z</time></trkpt>
        <trkpt lat="29.567001" lon="103.405074"><ele>765.9128</ele><time>2026-08-12T01:20:01.000Z</time></trkpt>
        <trkpt lat="29.567012" lon="103.405066"><ele>765.8866</ele><time>2026-08-12T01:20:02.000Z</time></trkpt>
        <trkpt lat="29.567026" lon="103.405055"><ele>765.48615</ele><time>2026-08-12T01:20:03.000Z</time></trkpt>
        <trkpt lat="29.567041" lon="103.405041"><ele>765.12775</ele><time>2026-08-12T01:20:04.000Z</time></trkpt>
        <trkpt lat="29.567062" lon="103.405033"><ele>765.18604</ele><time>2026-08-12T01:20:05.000Z</time></trkpt>
        <trkpt lat="29.567079" lon="103.405029"><ele>765.14246</ele><time>2026-08-12T01:20:06.000Z</time></trkpt>
        <trkpt lat="29.567094" lon="103.405024"><ele>765.0212</ele><time>2026-08-12T01:20:07.000Z</time></trkpt>
        <trkpt lat="29.567108" lon="103.405018"><ele>764.84924</ele><time>2026-08-12T01:20:08.000Z</time></trkpt>
        <trkpt lat="29.567124" lon="103.40501"><ele>764.9208</ele><time>2026-08-12T01:20:09.000Z</time></trkpt>
        <trkpt lat="29.567141" lon="103.405005"><ele>764.92255</ele><time>2026-08-12T01:20:10.000Z</time></trkpt>
        <trkpt lat="29.567156" lon="103.405002"><ele>764.7404</ele><time>2026-08-12T01:20:11.000Z</time></trkpt>
        <trkpt lat="29.567169" lon="103.404999"><ele>764.6213</ele><time>2026-08-12T01:20:12.000Z</time></trkpt>
        <trkpt lat="29.567182" lon="103.404996"><ele>764.60583</ele><time>2026-08-12T01:20:13.000Z</time></trkpt>
        <trkpt lat="29.567184" lon="103.404997"><ele>764.4272</ele><time>2026-08-12T01:20:14.000Z</time></trkpt>
        <trkpt lat="29.567214" lon="103.404986"><ele>764.4952</ele><time>2026-08-12T01:20:15.000Z</time></trkpt>
        <trkpt lat="29.567236" lon="103.404979"><ele>764.2738</ele><time>2026-08-12T01:20:16.000Z</time></trkpt>
        <trkpt lat="29.567255" lon="103.404975"><ele>764.0948</ele><time>2026-08-12T01:20:17.000Z</time></trkpt>
        <trkpt lat="29.56727" lon="103.404973"><ele>763.922</ele><time>2026-08-12T01:20:18.000Z</time></trkpt>
        <trkpt lat="29.567285" lon="103.404971"><ele>763.8053</ele><time>2026-08-12T01:20:19.000Z</time></trkpt>
        <trkpt lat="29.567301" lon="103.40497"><ele>763.5194</ele><time>2026-08-12T01:20:20.000Z</time></trkpt>
        <trkpt lat="29.567318" lon="103.40497"><ele>763.6446</ele><time>2026-08-12T01:20:21.000Z</time></trkpt>
        <trkpt lat="29.567334" lon="103.404971"><ele>763.63916</ele><time>2026-08-12T01:20:22.000Z</time></trkpt>
        <trkpt lat="29.567347" lon="103.404972"><ele>763.6425</ele><time>2026-08-12T01:20:23.000Z</time></trkpt>
        <trkpt lat="29.567364" lon="103.404973"><ele>763.82904</ele><time>2026-08-12T01:20:24.000Z</time></trkpt>
        <trkpt lat="29.567381" lon="103.404974"><ele>763.68805</ele><time>2026-08-12T01:20:25.000Z</time></trkpt>
        <trkpt lat="29.567397" lon="103.404975"><ele>763.76154</ele><time>2026-08-12T01:20:26.000Z</time></trkpt>
        <trkpt lat="29.567416" lon="103.404975"><ele>764.0895</ele><time>2026-08-12T01:20:27.000Z</time></trkpt>
        <trkpt lat="29.567434" lon="103.404976"><ele>764.19727</ele><time>2026-08-12T01:20:28.000Z</time></trkpt>
        <trkpt lat="29.567452" lon="103.404975"><ele>764.43774</ele><time>2026-08-12T01:20:29.000Z</time></trkpt>
        <trkpt lat="29.567468" lon="103.404976"><ele>764.5505</ele><time>2026-08-12T01:20:30.000Z</time></trkpt>
        <trkpt lat="29.567485" lon="103.404976"><ele>764.5508</ele><time>2026-08-12T01:20:31.000Z</time></trkpt>
        <trkpt lat="29.567501" lon="103.404975"><ele>764.64166</ele><time>2026-08-12T01:20:32.000Z</time></trkpt>
        <trkpt lat="29.567517" lon="103.404974"><ele>764.55365</ele><time>2026-08-12T01:20:33.000Z</time></trkpt>
        <trkpt lat="29.567534" lon="103.404974"><ele>764.3793</ele><time>2026-08-12T01:20:34.000Z</time></trkpt>
        <trkpt lat="29.56755" lon="103.404973"><ele>764.2552</ele><time>2026-08-12T01:20:35.000Z</time></trkpt>
        <trkpt lat="29.567563" lon="103.404974"><ele>764.17413</ele><time>2026-08-12T01:20:36.000Z</time></trkpt>
        <trkpt lat="29.56758" lon="103.404976"><ele>764.1576</ele><time>2026-08-12T01:20:37.000Z</time></trkpt>
        <trkpt lat="29.567596" lon="103.404979"><ele>764.0956</ele><time>2026-08-12T01:20:38.000Z</time></trkpt>
        <trkpt lat="29.567612" lon="103.404983"><ele>764.0103</ele><time>2026-08-12T01:20:39.000Z</time></trkpt>
        <trkpt lat="29.567626" lon="103.404986"><ele>763.94196</ele><time>2026-08-12T01:20:40.000Z</time></trkpt>
        <trkpt lat="29.56764" lon="103.404991"><ele>763.7867</ele><time>2026-08-12T01:20:41.000Z</time></trkpt>
        <trkpt lat="29.567654" lon="103.404997"><ele>763.4436</ele><time>2026-08-12T01:20:42.000Z</time></trkpt>
        <trkpt lat="29.567667" lon="103.405003"><ele>763.26337</ele><time>2026-08-12T01:20:43.000Z</time></trkpt>
        <trkpt lat="29.567677" lon="103.405008"><ele>763.24207</ele><time>2026-08-12T01:20:44.000Z</time></trkpt>
        <trkpt lat="29.567687" lon="103.405014"><ele>763.0947</ele><time>2026-08-12T01:20:45.000Z</time></trkpt>
        <trkpt lat="29.567698" lon="103.405019"><ele>762.98126</ele><time>2026-08-12T01:20:46.000Z</time></trkpt>
        <trkpt lat="29.567712" lon="103.405024"><ele>762.69476</ele><time>2026-08-12T01:20:47.000Z</time></trkpt>
        <trkpt lat="29.567725" lon="103.405029"><ele>762.5347</ele><time>2026-08-12T01:20:48.000Z</time></trkpt>
        <trkpt lat="29.567736" lon="103.405032"><ele>762.4105</ele><time>2026-08-12T01:20:49.000Z</time></trkpt>
        <trkpt lat="29.567748" lon="103.405036"><ele>762.27386</ele><time>2026-08-12T01:20:50.000Z</time></trkpt>
        <trkpt lat="29.567761" lon="103.405038"><ele>762.1739</ele><time>2026-08-12T01:20:51.000Z</time></trkpt>
        <trkpt lat="29.567774" lon="103.405037"><ele>762.0467</ele><time>2026-08-12T01:20:52.000Z</time></trkpt>
        <trkpt lat="29.567788" lon="103.405034"><ele>761.77606</ele><time>2026-08-12T01:20:53.000Z</time></trkpt>
        <trkpt lat="29.567803" lon="103.405029"><ele>761.4864</ele><time>2026-08-12T01:20:54.000Z</time></trkpt>
        <trkpt lat="29.567818" lon="103.405024"><ele>761.285</ele><time>2026-08-12T01:20:55.000Z</time></trkpt>
        <trkpt lat="29.567834" lon="103.405017"><ele>761.10767</ele><time>2026-08-12T01:20:56.000Z</time></trkpt>
        <trkpt lat="29.567849" lon="103.405011"><ele>761.02594</ele><time>2026-08-12T01:20:57.000Z</time></trkpt>
        <trkpt lat="29.567862" lon="103.405003"><ele>760.79846</ele><time>2026-08-12T01:20:58.000Z</time></trkpt>
        <trkpt lat="29.567874" lon="103.404994"><ele>760.85297</ele><time>2026-08-12T01:20:59.000Z</time></trkpt>
        <trkpt lat="29.567883" lon="103.404988"><ele>760.8396</ele><time>2026-08-12T01:21:00.000Z</time></trkpt>
        <trkpt lat="29.567883" lon="103.404984"><ele>760.65045</ele><time>2026-08-12T01:21:01.000Z</time></trkpt>
        <trkpt lat="29.567888" lon="103.404972"><ele>760.5497</ele><time>2026-08-12T01:21:06.000Z</time></trkpt>
        <trkpt lat="29.5679" lon="103.404964"><ele>760.27954</ele><time>2026-08-12T01:21:07.000Z</time></trkpt>
        <trkpt lat="29.567912" lon="103.404956"><ele>760.1612</ele><time>2026-08-12T01:21:08.000Z</time></trkpt>
        <trkpt lat="29.567924" lon="103.404948"><ele>759.7628</ele><time>2026-08-12T01:21:09.000Z</time></trkpt>
        <trkpt lat="29.567937" lon="103.40494"><ele>759.4335</ele><time>2026-08-12T01:21:10.000Z</time></trkpt>
        <trkpt lat="29.567949" lon="103.404932"><ele>759.2162</ele><time>2026-08-12T01:21:11.000Z</time></trkpt>
        <trkpt lat="29.567962" lon="103.404924"><ele>758.7137</ele><time>2026-08-12T01:21:12.000Z</time></trkpt>
        <trkpt lat="29.567974" lon="103.404916"><ele>758.3722</ele><time>2026-08-12T01:21:13.000Z</time></trkpt>
        <trkpt lat="29.567986" lon="103.404907"><ele>758.06134</ele><time>2026-08-12T01:21:14.000Z</time></trkpt>
        <trkpt lat="29.567999" lon="103.404899"><ele>757.6164</ele><time>2026-08-12T01:21:15.000Z</time></trkpt>
        <trkpt lat="29.568012" lon="103.40489"><ele>757.2104</ele><time>2026-08-12T01:21:16.000Z</time></trkpt>
        <trkpt lat="29.568023" lon="103.404879"><ele>756.94415</ele><time>2026-08-12T01:21:17.000Z</time></trkpt>
        <trkpt lat="29.568036" lon="103.404871"><ele>756.87415</ele><time>2026-08-12T01:21:18.000Z</time></trkpt>
        <trkpt lat="29.56805" lon="103.404865"><ele>756.69403</ele><time>2026-08-12T01:21:19.000Z</time></trkpt>
        <trkpt lat="29.568064" lon="103.404857"><ele>756.582</ele><time>2026-08-12T01:21:20.000Z</time></trkpt>
        <trkpt lat="29.568077" lon="103.404848"><ele>756.5266</ele><time>2026-08-12T01:21:21.000Z</time></trkpt>
        <trkpt lat="29.568091" lon="103.404841"><ele>756.3876</ele><time>2026-08-12T01:21:22.000Z</time></trkpt>
        <trkpt lat="29.568103" lon="103.404833"><ele>756.26733</ele><time>2026-08-12T01:21:23.000Z</time></trkpt>
        <trkpt lat="29.568116" lon="103.404827"><ele>756.12506</ele><time>2026-08-12T01:21:24.000Z</time></trkpt>
        <trkpt lat="29.568128" lon="103.404819"><ele>756.0165</ele><time>2026-08-12T01:21:25.000Z</time></trkpt>
        <trkpt lat="29.568141" lon="103.40481"><ele>755.8718</ele><time>2026-08-12T01:21:26.000Z</time></trkpt>
        <trkpt lat="29.568155" lon="103.404803"><ele>755.7336</ele><time>2026-08-12T01:21:27.000Z</time></trkpt>
        <trkpt lat="29.56817" lon="103.404794"><ele>755.9706</ele><time>2026-08-12T01:21:28.000Z</time></trkpt>
        <trkpt lat="29.568185" lon="103.404788"><ele>755.8606</ele><time>2026-08-12T01:21:29.000Z</time></trkpt>
        <trkpt lat="29.568199" lon="103.404783"><ele>755.80383</ele><time>2026-08-12T01:21:30.000Z</time></trkpt>
        <trkpt lat="29.568212" lon="103.404777"><ele>755.82825</ele><time>2026-08-12T01:21:31.000Z</time></trkpt>
        <trkpt lat="29.568226" lon="103.404771"><ele>755.7817</ele><time>2026-08-12T01:21:32.000Z</time></trkpt>
        <trkpt lat="29.56824" lon="103.404763"><ele>755.9639</ele><time>2026-08-12T01:21:33.000Z</time></trkpt>
        <trkpt lat="29.568255" lon="103.404754"><ele>756.2254</ele><time>2026-08-12T01:21:34.000Z</time></trkpt>
        <trkpt lat="29.56827" lon="103.404743"><ele>756.4457</ele><time>2026-08-12T01:21:35.000Z</time></trkpt>
        <trkpt lat="29.568285" lon="103.404737"><ele>756.51654</ele><time>2026-08-12T01:21:36.000Z</time></trkpt>
        <trkpt lat="29.568298" lon="103.404727"><ele>756.71674</ele><time>2026-08-12T01:21:37.000Z</time></trkpt>
        <trkpt lat="29.568312" lon="103.404717"><ele>756.81354</ele><time>2026-08-12T01:21:38.000Z</time></trkpt>
        <trkpt lat="29.568325" lon="103.404707"><ele>756.91376</ele><time>2026-08-12T01:21:39.000Z</time></trkpt>
        <trkpt lat="29.568337" lon="103.404696"><ele>757.0331</ele><time>2026-08-12T01:21:40.000Z</time></trkpt>
        <trkpt lat="29.568347" lon="103.404683"><ele>757.1389</ele><time>2026-08-12T01:21:41.000Z</time></trkpt>
        <trkpt lat="29.568355" lon="103.40467"><ele>757.2713</ele><time>2026-08-12T01:21:42.000Z</time></trkpt>
        <trkpt lat="29.568363" lon="103.404656"><ele>757.2764</ele><time>2026-08-12T01:21:43.000Z</time></trkpt>
        <trkpt lat="29.568369" lon="103.404642"><ele>757.2381</ele><time>2026-08-12T01:21:44.000Z</time></trkpt>
        <trkpt lat="29.568376" lon="103.404628"><ele>757.3952</ele><time>2026-08-12T01:21:45.000Z</time></trkpt>
        <trkpt lat="29.568382" lon="103.404614"><ele>757.3713</ele><time>2026-08-12T01:21:46.000Z</time></trkpt>
        <trkpt lat="29.568389" lon="103.404601"><ele>757.3978</ele><time>2026-08-12T01:21:47.000Z</time></trkpt>
        <trkpt lat="29.568395" lon="103.404588"><ele>757.33594</ele><time>2026-08-12T01:21:48.000Z</time></trkpt>
        <trkpt lat="29.568401" lon="103.404576"><ele>757.32605</ele><time>2026-08-12T01:21:49.000Z</time></trkpt>
        <trkpt lat="29.568407" lon="103.404564"><ele>757.35785</ele><time>2026-08-12T01:21:50.000Z</time></trkpt>
        <trkpt lat="29.568413" lon="103.404554"><ele>757.30475</ele><time>2026-08-12T01:21:51.000Z</time></trkpt>
        <trkpt lat="29.568419" lon="103.404542"><ele>757.1655</ele><time>2026-08-12T01:21:52.000Z</time></trkpt>
        <trkpt lat="29.568425" lon="103.404531"><ele>757.1</ele><time>2026-08-12T01:21:53.000Z</time></trkpt>
        <trkpt lat="29.568431" lon="103.404518"><ele>756.962</ele><time>2026-08-12T01:21:54.000Z</time></trkpt>
        <trkpt lat="29.568437" lon="103.404506"><ele>756.95483</ele><time>2026-08-12T01:21:55.000Z</time></trkpt>
        <trkpt lat="29.568445" lon="103.404494"><ele>756.7599</ele><time>2026-08-12T01:21:56.000Z</time></trkpt>
        <trkpt lat="29.568453" lon="103.404482"><ele>756.6762</ele><time>2026-08-12T01:21:57.000Z</time></trkpt>
        <trkpt lat="29.568461" lon="103.404469"><ele>756.52576</ele><time>2026-08-12T01:21:58.000Z</time></trkpt>
        <trkpt lat="29.568468" lon="103.404455"><ele>756.4689</ele><time>2026-08-12T01:21:59.000Z</time></trkpt>
        <trkpt lat="29.568475" lon="103.40444"><ele>756.41034</ele><time>2026-08-12T01:22:00.000Z</time></trkpt>
        <trkpt lat="29.568483" lon="103.404425"><ele>756.2696</ele><time>2026-08-12T01:22:01.000Z</time></trkpt>
        <trkpt lat="29.56849" lon="103.404411"><ele>756.21515</ele><time>2026-08-12T01:22:02.000Z</time></trkpt>
        <trkpt lat="29.568498" lon="103.404397"><ele>756.1671</ele><time>2026-08-12T01:22:03.000Z</time></trkpt>
        <trkpt lat="29.568504" lon="103.404383"><ele>756.05835</ele><time>2026-08-12T01:22:04.000Z</time></trkpt>
        <trkpt lat="29.568512" lon="103.404369"><ele>755.97046</ele><time>2026-08-12T01:22:05.000Z</time></trkpt>
        <trkpt lat="29.568519" lon="103.404355"><ele>756.0286</ele><time>2026-08-12T01:22:06.000Z</time></trkpt>
        <trkpt lat="29.568527" lon="103.404343"><ele>756.0801</ele><time>2026-08-12T01:22:07.000Z</time></trkpt>
        <trkpt lat="29.568535" lon="103.404332"><ele>756.1371</ele><time>2026-08-12T01:22:08.000Z</time></trkpt>
        <trkpt lat="29.568541" lon="103.40432"><ele>756.12836</ele><time>2026-08-12T01:22:09.000Z</time></trkpt>
        <trkpt lat="29.568546" lon="103.404307"><ele>756.2933</ele><time>2026-08-12T01:22:10.000Z</time></trkpt>
        <trkpt lat="29.568552" lon="103.404294"><ele>756.46106</ele><time>2026-08-12T01:22:11.000Z</time></trkpt>
        <trkpt lat="29.568559" lon="103.404284"><ele>756.58984</ele><time>2026-08-12T01:22:12.000Z</time></trkpt>
        <trkpt lat="29.568564" lon="103.40427"><ele>756.58984</ele><time>2026-08-12T01:22:13.000Z</time></trkpt>
        <trkpt lat="29.56857" lon="103.404256"><ele>756.5847</ele><time>2026-08-12T01:22:14.000Z</time></trkpt>
        <trkpt lat="29.568576" lon="103.404243"><ele>756.58673</ele><time>2026-08-12T01:22:15.000Z</time></trkpt>
        <trkpt lat="29.568582" lon="103.40423"><ele>756.56134</ele><time>2026-08-12T01:22:16.000Z</time></trkpt>
        <trkpt lat="29.568588" lon="103.404216"><ele>756.52527</ele><time>2026-08-12T01:22:17.000Z</time></trkpt>
        <trkpt lat="29.568595" lon="103.404202"><ele>756.44147</ele><time>2026-08-12T01:22:18.000Z</time></trkpt>
        <trkpt lat="29.5686" lon="103.404192"><ele>756.3218</ele><time>2026-08-12T01:22:19.000Z</time></trkpt>
        <trkpt lat="29.568606" lon="103.404177"><ele>755.92957</ele><time>2026-08-12T01:22:20.000Z</time></trkpt>
        <trkpt lat="29.568615" lon="103.404158"><ele>755.7664</ele><time>2026-08-12T01:22:21.000Z</time></trkpt>
        <trkpt lat="29.568625" lon="103.404139"><ele>755.76385</ele><time>2026-08-12T01:22:22.000Z</time></trkpt>
        <trkpt lat="29.568636" lon="103.404121"><ele>755.7825</ele><time>2026-08-12T01:22:23.000Z</time></trkpt>
        <trkpt lat="29.56865" lon="103.4041"><ele>755.5701</ele><time>2026-08-12T01:22:24.000Z</time></trkpt>
        <trkpt lat="29.568664" lon="103.404079"><ele>755.343</ele><time>2026-08-12T01:22:25.000Z</time></trkpt>
        <trkpt lat="29.568681" lon="103.404053"><ele>755.0522</ele><time>2026-08-12T01:22:26.000Z</time></trkpt>
        <trkpt lat="29.568696" lon="103.404027"><ele>755.09845</ele><time>2026-08-12T01:22:27.000Z</time></trkpt>
        <trkpt lat="29.56871" lon="103.40401"><ele>755.0198</ele><time>2026-08-12T01:22:28.000Z</time></trkpt>
        <trkpt lat="29.568721" lon="103.403997"><ele>754.8805</ele><time>2026-08-12T01:22:29.000Z</time></trkpt>
        <trkpt lat="29.568729" lon="103.403985"><ele>754.8794</ele><time>2026-08-12T01:22:30.000Z</time></trkpt>
        <trkpt lat="29.568736" lon="103.403971"><ele>754.8116</ele><time>2026-08-12T01:22:31.000Z</time></trkpt>
        <trkpt lat="29.568744" lon="103.403955"><ele>754.7885</ele><time>2026-08-12T01:22:32.000Z</time></trkpt>
        <trkpt lat="29.568754" lon="103.403941"><ele>754.82556</ele><time>2026-08-12T01:22:33.000Z</time></trkpt>
        <trkpt lat="29.568764" lon="103.403926"><ele>754.8598</ele><time>2026-08-12T01:22:34.000Z</time></trkpt>
        <trkpt lat="29.568775" lon="103.403915"><ele>754.8202</ele><time>2026-08-12T01:22:35.000Z</time></trkpt>
        <trkpt lat="29.568786" lon="103.403918"><ele>754.80023</ele><time>2026-08-12T01:22:36.000Z</time></trkpt>
        <trkpt lat="29.568798" lon="103.403909"><ele>754.8421</ele><time>2026-08-12T01:22:37.000Z</time></trkpt>
        <trkpt lat="29.568813" lon="103.403901"><ele>754.831</ele><time>2026-08-12T01:22:38.000Z</time></trkpt>
        <trkpt lat="29.568828" lon="103.403897"><ele>754.7467</ele><time>2026-08-12T01:22:39.000Z</time></trkpt>
        <trkpt lat="29.568833" lon="103.403895"><ele>754.6413</ele><time>2026-08-12T01:22:40.000Z</time></trkpt>
        <trkpt lat="29.568847" lon="103.403891"><ele>754.5516</ele><time>2026-08-12T01:22:41.000Z</time></trkpt>
        <trkpt lat="29.568931" lon="103.403896"><ele>753.88306</ele><time>2026-08-12T01:22:44.000Z</time></trkpt>
        <trkpt lat="29.56895" lon="103.403899"><ele>753.631</ele><time>2026-08-12T01:22:45.000Z</time></trkpt>
        <trkpt lat="29.568964" lon="103.403905"><ele>753.46387</ele><time>2026-08-12T01:22:46.000Z</time></trkpt>
        <trkpt lat="29.568979" lon="103.403911"><ele>753.1748</ele><time>2026-08-12T01:22:47.000Z</time></trkpt>
        <trkpt lat="29.568996" lon="103.403916"><ele>752.98486</ele><time>2026-08-12T01:22:48.000Z</time></trkpt>
        <trkpt lat="29.569012" lon="103.403921"><ele>752.6831</ele><time>2026-08-12T01:22:49.000Z</time></trkpt>
        <trkpt lat="29.569028" lon="103.403926"><ele>752.35156</ele><time>2026-08-12T01:22:50.000Z</time></trkpt>
        <trkpt lat="29.569045" lon="103.40393"><ele>752.0946</ele><time>2026-08-12T01:22:51.000Z</time></trkpt>
        <trkpt lat="29.56906" lon="103.40393"><ele>751.9307</ele><time>2026-08-12T01:22:52.000Z</time></trkpt>
        <trkpt lat="29.569078" lon="103.403929"><ele>751.9469</ele><time>2026-08-12T01:22:53.000Z</time></trkpt>
        <trkpt lat="29.569091" lon="103.403929"><ele>751.6716</ele><time>2026-08-12T01:22:54.000Z</time></trkpt>
        <trkpt lat="29.569121" lon="103.40393"><ele>751.3469</ele><time>2026-08-12T01:22:56.000Z</time></trkpt>
        <trkpt lat="29.569137" lon="103.403929"><ele>750.9646</ele><time>2026-08-12T01:22:57.000Z</time></trkpt>
        <trkpt lat="29.569154" lon="103.403926"><ele>750.8848</ele><time>2026-08-12T01:22:58.000Z</time></trkpt>
        <trkpt lat="29.569171" lon="103.403916"><ele>750.17004</ele><time>2026-08-12T01:23:00.000Z</time></trkpt>
        <trkpt lat="29.569185" lon="103.403906"><ele>750.05493</ele><time>2026-08-12T01:23:01.000Z</time></trkpt>
        <trkpt lat="29.569199" lon="103.403895"><ele>749.5988</ele><time>2026-08-12T01:23:02.000Z</time></trkpt>
        <trkpt lat="29.569215" lon="103.403884"><ele>749.52795</ele><time>2026-08-12T01:23:03.000Z</time></trkpt>
        <trkpt lat="29.569226" lon="103.403873"><ele>749.22003</ele><time>2026-08-12T01:23:04.000Z</time></trkpt>
        <trkpt lat="29.56924" lon="103.403861"><ele>749.12933</ele><time>2026-08-12T01:23:05.000Z</time></trkpt>
        <trkpt lat="29.569255" lon="103.403848"><ele>749.09485</ele><time>2026-08-12T01:23:06.000Z</time></trkpt>
        <trkpt lat="29.569271" lon="103.403835"><ele>748.8315</ele><time>2026-08-12T01:23:07.000Z</time></trkpt>
        <trkpt lat="29.569288" lon="103.403821"><ele>748.6558</ele><time>2026-08-12T01:23:08.000Z</time></trkpt>
        <trkpt lat="29.569306" lon="103.403808"><ele>748.60583</ele><time>2026-08-12T01:23:09.000Z</time></trkpt>
        <trkpt lat="29.569322" lon="103.403796"><ele>748.5824</ele><time>2026-08-12T01:23:10.000Z</time></trkpt>
        <trkpt lat="29.56934" lon="103.403789"><ele>748.55145</ele><time>2026-08-12T01:23:11.000Z</time></trkpt>
        <trkpt lat="29.569357" lon="103.403782"><ele>748.5688</ele><time>2026-08-12T01:23:12.000Z</time></trkpt>
        <trkpt lat="29.569376" lon="103.403774"><ele>748.4705</ele><time>2026-08-12T01:23:13.000Z</time></trkpt>
        <trkpt lat="29.569394" lon="103.403767"><ele>748.35693</ele><time>2026-08-12T01:23:14.000Z</time></trkpt>
        <trkpt lat="29.569411" lon="103.403758"><ele>748.2138</ele><time>2026-08-12T01:23:15.000Z</time></trkpt>
        <trkpt lat="29.569428" lon="103.403749"><ele>748.094</ele><time>2026-08-12T01:23:16.000Z</time></trkpt>
        <trkpt lat="29.569443" lon="103.40374"><ele>747.9033</ele><time>2026-08-12T01:23:17.000Z</time></trkpt>
        <trkpt lat="29.569459" lon="103.40373"><ele>747.8552</ele><time>2026-08-12T01:23:18.000Z</time></trkpt>
        <trkpt lat="29.569473" lon="103.403721"><ele>747.7825</ele><time>2026-08-12T01:23:19.000Z</time></trkpt>
        <trkpt lat="29.569489" lon="103.403712"><ele>747.54266</ele><time>2026-08-12T01:23:20.000Z</time></trkpt>
        <trkpt lat="29.569504" lon="103.403703"><ele>747.5371</ele><time>2026-08-12T01:23:21.000Z</time></trkpt>
        <trkpt lat="29.569521" lon="103.40369"><ele>747.2553</ele><time>2026-08-12T01:23:22.000Z</time></trkpt>
        <trkpt lat="29.569536" lon="103.403676"><ele>747.0222</ele><time>2026-08-12T01:23:23.000Z</time></trkpt>
        <trkpt lat="29.569551" lon="103.403662"><ele>747.1234</ele><time>2026-08-12T01:23:24.000Z</time></trkpt>
        <trkpt lat="29.569565" lon="103.40365"><ele>747.0906</ele><time>2026-08-12T01:23:25.000Z</time></trkpt>
        <trkpt lat="29.569579" lon="103.403638"><ele>747.05176</ele><time>2026-08-12T01:23:26.000Z</time></trkpt>
        <trkpt lat="29.569595" lon="103.403634"><ele>746.984</ele><time>2026-08-12T01:23:27.000Z</time></trkpt>
        <trkpt lat="29.569608" lon="103.403624"><ele>746.87024</ele><time>2026-08-12T01:23:28.000Z</time></trkpt>
        <trkpt lat="29.569619" lon="103.403612"><ele>746.7516</ele><time>2026-08-12T01:23:29.000Z</time></trkpt>
        <trkpt lat="29.569626" lon="103.403595"><ele>746.6128</ele><time>2026-08-12T01:23:30.000Z</time></trkpt>
        <trkpt lat="29.569645" lon="103.403575"><ele>746.3822</ele><time>2026-08-12T01:23:32.000Z</time></trkpt>
        <trkpt lat="29.569657" lon="103.403562"><ele>746.0044</ele><time>2026-08-12T01:23:33.000Z</time></trkpt>
        <trkpt lat="29.569668" lon="103.403549"><ele>745.7311</ele><time>2026-08-12T01:23:34.000Z</time></trkpt>
        <trkpt lat="29.569681" lon="103.403541"><ele>745.4732</ele><time>2026-08-12T01:23:35.000Z</time></trkpt>
        <trkpt lat="29.569696" lon="103.403524"><ele>745.0682</ele><time>2026-08-12T01:23:37.000Z</time></trkpt>
        <trkpt lat="29.569703" lon="103.403515"><ele>744.92706</ele><time>2026-08-12T01:23:38.000Z</time></trkpt>
        <trkpt lat="29.569718" lon="103.403495"><ele>744.6138</ele><time>2026-08-12T01:23:40.000Z</time></trkpt>
        <trkpt lat="29.569726" lon="103.403485"><ele>744.47485</ele><time>2026-08-12T01:23:41.000Z</time></trkpt>
        <trkpt lat="29.569733" lon="103.403475"><ele>744.39526</ele><time>2026-08-12T01:23:42.000Z</time></trkpt>
        <trkpt lat="29.56975" lon="103.403453"><ele>744.3553</ele><time>2026-08-12T01:23:44.000Z</time></trkpt>
        <trkpt lat="29.56976" lon="103.403442"><ele>744.4014</ele><time>2026-08-12T01:23:45.000Z</time></trkpt>
        <trkpt lat="29.569769" lon="103.40343"><ele>744.4227</ele><time>2026-08-12T01:23:46.000Z</time></trkpt>
        <trkpt lat="29.569788" lon="103.403406"><ele>744.31903</ele><time>2026-08-12T01:23:48.000Z</time></trkpt>
        <trkpt lat="29.569796" lon="103.403394"><ele>744.4073</ele><time>2026-08-12T01:23:49.000Z</time></trkpt>
        <trkpt lat="29.569806" lon="103.403381"><ele>744.5224</ele><time>2026-08-12T01:23:50.000Z</time></trkpt>
        <trkpt lat="29.569824" lon="103.403352"><ele>744.90564</ele><time>2026-08-12T01:23:52.000Z</time></trkpt>
        <trkpt lat="29.569833" lon="103.403338"><ele>744.91034</ele><time>2026-08-12T01:23:53.000Z</time></trkpt>
        <trkpt lat="29.569842" lon="103.403324"><ele>744.9732</ele><time>2026-08-12T01:23:54.000Z</time></trkpt>
        <trkpt lat="29.569851" lon="103.40331"><ele>744.91394</ele><time>2026-08-12T01:23:55.000Z</time></trkpt>
        <trkpt lat="29.569867" lon="103.403282"><ele>744.7862</ele><time>2026-08-12T01:23:57.000Z</time></trkpt>
        <trkpt lat="29.569876" lon="103.403268"><ele>744.5783</ele><time>2026-08-12T01:23:58.000Z</time></trkpt>
        <trkpt lat="29.569883" lon="103.403256"><ele>744.67163</ele><time>2026-08-12T01:23:59.000Z</time></trkpt>
        <trkpt lat="29.569898" lon="103.403237"><ele>744.6944</ele><time>2026-08-12T01:24:01.000Z</time></trkpt>
        <trkpt lat="29.569914" lon="103.403222"><ele>744.78217</ele><time>2026-08-12T01:24:03.000Z</time></trkpt>
        <trkpt lat="29.569921" lon="103.403214"><ele>744.8811</ele><time>2026-08-12T01:24:04.000Z</time></trkpt>
        <trkpt lat="29.569938" lon="103.403196"><ele>745.073</ele><time>2026-08-12T01:24:06.000Z</time></trkpt>
        <trkpt lat="29.569952" lon="103.403178"><ele>744.9161</ele><time>2026-08-12T01:24:08.000Z</time></trkpt>
        <trkpt lat="29.569958" lon="103.403169"><ele>744.9843</ele><time>2026-08-12T01:24:09.000Z</time></trkpt>
        <trkpt lat="29.569972" lon="103.403145"><ele>744.8378</ele><time>2026-08-12T01:24:11.000Z</time></trkpt>
        <trkpt lat="29.569978" lon="103.403133"><ele>744.56177</ele><time>2026-08-12T01:24:12.000Z</time></trkpt>
        <trkpt lat="29.569985" lon="103.40312"><ele>744.4699</ele><time>2026-08-12T01:24:13.000Z</time></trkpt>
        <trkpt lat="29.569997" lon="103.403095"><ele>744.1738</ele><time>2026-08-12T01:24:15.000Z</time></trkpt>
        <trkpt lat="29.570003" lon="103.403081"><ele>744.1304</ele><time>2026-08-12T01:24:16.000Z</time></trkpt>
        <trkpt lat="29.570008" lon="103.403066"><ele>744.119</ele><time>2026-08-12T01:24:17.000Z</time></trkpt>
        <trkpt lat="29.570017" lon="103.403039"><ele>744.10925</ele><time>2026-08-12T01:24:19.000Z</time></trkpt>
        <trkpt lat="29.570021" lon="103.403026"><ele>744.18494</ele><time>2026-08-12T01:24:20.000Z</time></trkpt>
        <trkpt lat="29.570024" lon="103.403007"><ele>744.1178</ele><time>2026-08-12T01:24:21.000Z</time></trkpt>
        <trkpt lat="29.570029" lon="103.402986"><ele>744.0099</ele><time>2026-08-12T01:24:22.000Z</time></trkpt>
        <trkpt lat="29.570034" lon="103.402967"><ele>743.8449</ele><time>2026-08-12T01:24:23.000Z</time></trkpt>
        <trkpt lat="29.57004" lon="103.402945"><ele>743.6336</ele><time>2026-08-12T01:24:24.000Z</time></trkpt>
        <trkpt lat="29.570047" lon="103.402924"><ele>743.48724</ele><time>2026-08-12T01:24:25.000Z</time></trkpt>
        <trkpt lat="29.570056" lon="103.402904"><ele>743.4154</ele><time>2026-08-12T01:24:26.000Z</time></trkpt>
        <trkpt lat="29.570068" lon="103.402884"><ele>743.0168</ele><time>2026-08-12T01:24:27.000Z</time></trkpt>
        <trkpt lat="29.570084" lon="103.402864"><ele>742.85516</ele><time>2026-08-12T01:24:28.000Z</time></trkpt>
        <trkpt lat="29.570101" lon="103.402846"><ele>742.7856</ele><time>2026-08-12T01:24:29.000Z</time></trkpt>
        <trkpt lat="29.570119" lon="103.402832"><ele>742.89734</ele><time>2026-08-12T01:24:30.000Z</time></trkpt>
        <trkpt lat="29.570137" lon="103.402819"><ele>742.7327</ele><time>2026-08-12T01:24:31.000Z</time></trkpt>
        <trkpt lat="29.570154" lon="103.402808"><ele>742.45734</ele><time>2026-08-12T01:24:32.000Z</time></trkpt>
        <trkpt lat="29.570172" lon="103.402798"><ele>742.43005</ele><time>2026-08-12T01:24:33.000Z</time></trkpt>
        <trkpt lat="29.57019" lon="103.40279"><ele>742.31024</ele><time>2026-08-12T01:24:34.000Z</time></trkpt>
        <trkpt lat="29.570207" lon="103.402783"><ele>742.2841</ele><time>2026-08-12T01:24:35.000Z</time></trkpt>
        <trkpt lat="29.570224" lon="103.402777"><ele>742.1925</ele><time>2026-08-12T01:24:36.000Z</time></trkpt>
        <trkpt lat="29.570241" lon="103.402771"><ele>742.2632</ele><time>2026-08-12T01:24:37.000Z</time></trkpt>
        <trkpt lat="29.570256" lon="103.402768"><ele>742.21497</ele><time>2026-08-12T01:24:38.000Z</time></trkpt>
        <trkpt lat="29.570268" lon="103.402766"><ele>742.38214</ele><time>2026-08-12T01:24:39.000Z</time></trkpt>
        <trkpt lat="29.570293" lon="103.402764"><ele>742.30896</ele><time>2026-08-12T01:24:41.000Z</time></trkpt>
        <trkpt lat="29.570307" lon="103.402763"><ele>742.55865</ele><time>2026-08-12T01:24:42.000Z</time></trkpt>
        <trkpt lat="29.570319" lon="103.40276"><ele>742.69</ele><time>2026-08-12T01:24:43.000Z</time></trkpt>
        <trkpt lat="29.57034" lon="103.402752"><ele>742.5974</ele><time>2026-08-12T01:24:45.000Z</time></trkpt>
        <trkpt lat="29.570352" lon="103.40275"><ele>742.60693</ele><time>2026-08-12T01:24:46.000Z</time></trkpt>
        <trkpt lat="29.570364" lon="103.402748"><ele>742.75885</ele><time>2026-08-12T01:24:47.000Z</time></trkpt>
        <trkpt lat="29.570393" lon="103.402747"><ele>743.07965</ele><time>2026-08-12T01:24:49.000Z</time></trkpt>
        <trkpt lat="29.570408" lon="103.402745"><ele>743.1504</ele><time>2026-08-12T01:24:50.000Z</time></trkpt>
        <trkpt lat="29.570424" lon="103.402744"><ele>743.31586</ele><time>2026-08-12T01:24:51.000Z</time></trkpt>
        <trkpt lat="29.570439" lon="103.402743"><ele>743.30066</ele><time>2026-08-12T01:24:52.000Z</time></trkpt>
        <trkpt lat="29.570454" lon="103.402743"><ele>743.2912</ele><time>2026-08-12T01:24:53.000Z</time></trkpt>
        <trkpt lat="29.570469" lon="103.402743"><ele>743.34033</ele><time>2026-08-12T01:24:54.000Z</time></trkpt>
        <trkpt lat="29.570485" lon="103.402743"><ele>743.32227</ele><time>2026-08-12T01:24:55.000Z</time></trkpt>
        <trkpt lat="29.570501" lon="103.402743"><ele>743.2025</ele><time>2026-08-12T01:24:56.000Z</time></trkpt>
        <trkpt lat="29.570517" lon="103.402745"><ele>743.2374</ele><time>2026-08-12T01:24:57.000Z</time></trkpt>
        <trkpt lat="29.570532" lon="103.402746"><ele>743.2639</ele><time>2026-08-12T01:24:58.000Z</time></trkpt>
        <trkpt lat="29.57056" lon="103.402744"><ele>743.48114</ele><time>2026-08-12T01:25:00.000Z</time></trkpt>
        <trkpt lat="29.570574" lon="103.402742"><ele>743.6781</ele><time>2026-08-12T01:25:01.000Z</time></trkpt>
        <trkpt lat="29.570588" lon="103.402739"><ele>743.7136</ele><time>2026-08-12T01:25:02.000Z</time></trkpt>
        <trkpt lat="29.570614" lon="103.402732"><ele>743.5922</ele><time>2026-08-12T01:25:04.000Z</time></trkpt>
        <trkpt lat="29.570626" lon="103.402729"><ele>743.465</ele><time>2026-08-12T01:25:05.000Z</time></trkpt>
        <trkpt lat="29.570638" lon="103.402725"><ele>743.454</ele><time>2026-08-12T01:25:06.000Z</time></trkpt>
        <trkpt lat="29.570664" lon="103.402717"><ele>743.2886</ele><time>2026-08-12T01:25:08.000Z</time></trkpt>
        <trkpt lat="29.570677" lon="103.402713"><ele>743.18787</ele><time>2026-08-12T01:25:09.000Z</time></trkpt>
        <trkpt lat="29.570691" lon="103.402708"><ele>742.3919</ele><time>2026-08-12T01:25:10.000Z</time></trkpt>
        <trkpt lat="29.570706" lon="103.402704"><ele>742.0149</ele><time>2026-08-12T01:25:11.000Z</time></trkpt>
        <trkpt lat="29.57072" lon="103.4027"><ele>741.8975</ele><time>2026-08-12T01:25:12.000Z</time></trkpt>
        <trkpt lat="29.570747" lon="103.40269"><ele>741.1002</ele><time>2026-08-12T01:25:14.000Z</time></trkpt>
        <trkpt lat="29.570759" lon="103.402684"><ele>740.75995</ele><time>2026-08-12T01:25:15.000Z</time></trkpt>
        <trkpt lat="29.570772" lon="103.402678"><ele>740.44464</ele><time>2026-08-12T01:25:16.000Z</time></trkpt>
        <trkpt lat="29.570801" lon="103.402666"><ele>739.65594</ele><time>2026-08-12T01:25:18.000Z</time></trkpt>
        <trkpt lat="29.570815" lon="103.402658"><ele>739.0857</ele><time>2026-08-12T01:25:19.000Z</time></trkpt>
        <trkpt lat="29.570829" lon="103.402648"><ele>738.36285</ele><time>2026-08-12T01:25:20.000Z</time></trkpt>
        <trkpt lat="29.570844" lon="103.402639"><ele>737.7794</ele><time>2026-08-12T01:25:21.000Z</time></trkpt>
        <trkpt lat="29.570859" lon="103.402629"><ele>737.32605</ele><time>2026-08-12T01:25:22.000Z</time></trkpt>
        <trkpt lat="29.570874" lon="103.402621"><ele>736.9492</ele><time>2026-08-12T01:25:23.000Z</time></trkpt>
        <trkpt lat="29.570888" lon="103.402613"><ele>736.59106</ele><time>2026-08-12T01:25:24.000Z</time></trkpt>
        <trkpt lat="29.570902" lon="103.402605"><ele>736.3763</ele><time>2026-08-12T01:25:25.000Z</time></trkpt>
        <trkpt lat="29.570916" lon="103.402597"><ele>736.4045</ele><time>2026-08-12T01:25:26.000Z</time></trkpt>
        <trkpt lat="29.570931" lon="103.40259"><ele>736.446</ele><time>2026-08-12T01:25:27.000Z</time></trkpt>
        <trkpt lat="29.570945" lon="103.402582"><ele>736.46484</ele><time>2026-08-12T01:25:28.000Z</time></trkpt>
        <trkpt lat="29.57096" lon="103.402575"><ele>736.4597</ele><time>2026-08-12T01:25:29.000Z</time></trkpt>
        <trkpt lat="29.570974" lon="103.402566"><ele>736.41296</ele><time>2026-08-12T01:25:30.000Z</time></trkpt>
        <trkpt lat="29.570987" lon="103.402557"><ele>736.3463</ele><time>2026-08-12T01:25:31.000Z</time></trkpt>
        <trkpt lat="29.570999" lon="103.402548"><ele>736.0507</ele><time>2026-08-12T01:25:32.000Z</time></trkpt>
        <trkpt lat="29.571021" lon="103.402528"><ele>735.6807</ele><time>2026-08-12T01:25:34.000Z</time></trkpt>
        <trkpt lat="29.571031" lon="103.402517"><ele>735.50775</ele><time>2026-08-12T01:25:35.000Z</time></trkpt>
        <trkpt lat="29.571041" lon="103.402508"><ele>735.2948</ele><time>2026-08-12T01:25:36.000Z</time></trkpt>
        <trkpt lat="29.57106" lon="103.402485"><ele>735.1042</ele><time>2026-08-12T01:25:38.000Z</time></trkpt>
        <trkpt lat="29.571071" lon="103.402475"><ele>735.21466</ele><time>2026-08-12T01:25:39.000Z</time></trkpt>
        <trkpt lat="29.571082" lon="103.402464"><ele>735.26447</ele><time>2026-08-12T01:25:40.000Z</time></trkpt>
        <trkpt lat="29.571105" lon="103.402445"><ele>735.0338</ele><time>2026-08-12T01:25:42.000Z</time></trkpt>
        <trkpt lat="29.571117" lon="103.402439"><ele>734.93756</ele><time>2026-08-12T01:25:43.000Z</time></trkpt>
        <trkpt lat="29.571129" lon="103.402433"><ele>734.9939</ele><time>2026-08-12T01:25:44.000Z</time></trkpt>
        <trkpt lat="29.57115" lon="103.402418"><ele>735.2911</ele><time>2026-08-12T01:25:46.000Z</time></trkpt>
        <trkpt lat="29.57116" lon="103.402409"><ele>735.36053</ele><time>2026-08-12T01:25:47.000Z</time></trkpt>
        <trkpt lat="29.571169" lon="103.402399"><ele>735.4298</ele><time>2026-08-12T01:25:48.000Z</time></trkpt>
        <trkpt lat="29.571184" lon="103.402379"><ele>734.9262</ele><time>2026-08-12T01:25:50.000Z</time></trkpt>
        <trkpt lat="29.571191" lon="103.402369"><ele>734.89795</ele><time>2026-08-12T01:25:51.000Z</time></trkpt>
        <trkpt lat="29.571196" lon="103.402358"><ele>734.9041</ele><time>2026-08-12T01:25:52.000Z</time></trkpt>
        <trkpt lat="29.571209" lon="103.402324"><ele>734.23584</ele><time>2026-08-12T01:25:55.000Z</time></trkpt>
        <trkpt lat="29.571214" lon="103.402312"><ele>733.9882</ele><time>2026-08-12T01:25:56.000Z</time></trkpt>
        <trkpt lat="29.571219" lon="103.402298"><ele>733.67346</ele><time>2026-08-12T01:25:57.000Z</time></trkpt>
        <trkpt lat="29.571228" lon="103.402272"><ele>733.1887</ele><time>2026-08-12T01:25:59.000Z</time></trkpt>
        <trkpt lat="29.571235" lon="103.402258"><ele>733.2808</ele><time>2026-08-12T01:26:00.000Z</time></trkpt>
        <trkpt lat="29.571243" lon="103.402249"><ele>733.3615</ele><time>2026-08-12T01:26:01.000Z</time></trkpt>
        <trkpt lat="29.57124" lon="103.402213"><ele>733.7851</ele><time>2026-08-12T01:26:10.000Z</time></trkpt>
        <trkpt lat="29.571246" lon="103.402202"><ele>733.6324</ele><time>2026-08-12T01:26:11.000Z</time></trkpt>
        <trkpt lat="29.571252" lon="103.40219"><ele>733.55756</ele><time>2026-08-12T01:26:12.000Z</time></trkpt>
        <trkpt lat="29.571271" lon="103.402169"><ele>732.6309</ele><time>2026-08-12T01:26:14.000Z</time></trkpt>
        <trkpt lat="29.57128" lon="103.402161"><ele>732.56635</ele><time>2026-08-12T01:26:15.000Z</time></trkpt>
        <trkpt lat="29.571288" lon="103.402155"><ele>732.2317</ele><time>2026-08-12T01:26:16.000Z</time></trkpt>
        <trkpt lat="29.571327" lon="103.402138"><ele>730.9812</ele><time>2026-08-12T01:26:20.000Z</time></trkpt>
        <trkpt lat="29.571337" lon="103.402129"><ele>730.7459</ele><time>2026-08-12T01:26:21.000Z</time></trkpt>
        <trkpt lat="29.57135" lon="103.402118"><ele>730.65204</ele><time>2026-08-12T01:26:22.000Z</time></trkpt>
        <trkpt lat="29.571362" lon="103.402103"><ele>730.6904</ele><time>2026-08-12T01:26:23.000Z</time></trkpt>
        <trkpt lat="29.571375" lon="103.402088"><ele>730.6924</ele><time>2026-08-12T01:26:24.000Z</time></trkpt>
        <trkpt lat="29.571387" lon="103.402072"><ele>730.6435</ele><time>2026-08-12T01:26:25.000Z</time></trkpt>
        <trkpt lat="29.571398" lon="103.402056"><ele>730.6502</ele><time>2026-08-12T01:26:26.000Z</time></trkpt>
        <trkpt lat="29.571409" lon="103.40204"><ele>730.7419</ele><time>2026-08-12T01:26:27.000Z</time></trkpt>
        <trkpt lat="29.571418" lon="103.402025"><ele>730.65326</ele><time>2026-08-12T01:26:28.000Z</time></trkpt>
        <trkpt lat="29.571429" lon="103.402011"><ele>730.60785</ele><time>2026-08-12T01:26:29.000Z</time></trkpt>
        <trkpt lat="29.571439" lon="103.401997"><ele>730.7154</ele><time>2026-08-12T01:26:30.000Z</time></trkpt>
        <trkpt lat="29.571448" lon="103.401984"><ele>730.9714</ele><time>2026-08-12T01:26:31.000Z</time></trkpt>
        <trkpt lat="29.571466" lon="103.401959"><ele>731.3119</ele><time>2026-08-12T01:26:33.000Z</time></trkpt>
        <trkpt lat="29.571478" lon="103.401948"><ele>731.39294</ele><time>2026-08-12T01:26:34.000Z</time></trkpt>
        <trkpt lat="29.57149" lon="103.401938"><ele>731.5121</ele><time>2026-08-12T01:26:35.000Z</time></trkpt>
        <trkpt lat="29.571515" lon="103.401919"><ele>731.4323</ele><time>2026-08-12T01:26:37.000Z</time></trkpt>
        <trkpt lat="29.571526" lon="103.40191"><ele>731.2677</ele><time>2026-08-12T01:26:38.000Z</time></trkpt>
        <trkpt lat="29.571535" lon="103.401901"><ele>731.11676</ele><time>2026-08-12T01:26:39.000Z</time></trkpt>
        <trkpt lat="29.571553" lon="103.401884"><ele>731.05475</ele><time>2026-08-12T01:26:41.000Z</time></trkpt>
        <trkpt lat="29.571564" lon="103.401876"><ele>730.9773</ele><time>2026-08-12T01:26:42.000Z</time></trkpt>
        <trkpt lat="29.571575" lon="103.40187"><ele>730.8629</ele><time>2026-08-12T01:26:43.000Z</time></trkpt>
        <trkpt lat="29.571596" lon="103.401858"><ele>730.68005</ele><time>2026-08-12T01:26:45.000Z</time></trkpt>
        <trkpt lat="29.571609" lon="103.401852"><ele>730.6042</ele><time>2026-08-12T01:26:46.000Z</time></trkpt>
        <trkpt lat="29.571622" lon="103.401848"><ele>730.6363</ele><time>2026-08-12T01:26:47.000Z</time></trkpt>
        <trkpt lat="29.571647" lon="103.401842"><ele>730.87714</ele><time>2026-08-12T01:26:49.000Z</time></trkpt>
        <trkpt lat="29.571659" lon="103.401841"><ele>730.8701</ele><time>2026-08-12T01:26:50.000Z</time></trkpt>
        <trkpt lat="29.57167" lon="103.40184"><ele>731.04614</ele><time>2026-08-12T01:26:51.000Z</time></trkpt>
        <trkpt lat="29.571693" lon="103.401839"><ele>731.2688</ele><time>2026-08-12T01:26:53.000Z</time></trkpt>
        <trkpt lat="29.571704" lon="103.401839"><ele>731.1955</ele><time>2026-08-12T01:26:54.000Z</time></trkpt>
        <trkpt lat="29.571715" lon="103.401842"><ele>731.3715</ele><time>2026-08-12T01:26:55.000Z</time></trkpt>
        <trkpt lat="29.571745" lon="103.401852"><ele>731.1653</ele><time>2026-08-12T01:26:58.000Z</time></trkpt>
        <trkpt lat="29.571759" lon="103.401855"><ele>731.0603</ele><time>2026-08-12T01:26:59.000Z</time></trkpt>
        <trkpt lat="29.571778" lon="103.401856"><ele>731.20593</ele><time>2026-08-12T01:27:00.000Z</time></trkpt>
        <trkpt lat="29.571791" lon="103.401858"><ele>731.2807</ele><time>2026-08-12T01:27:01.000Z</time></trkpt>
        <trkpt lat="29.571808" lon="103.401855"><ele>731.224</ele><time>2026-08-12T01:27:03.000Z</time></trkpt>
        <trkpt lat="29.571757" lon="103.401813"><ele>732.8824</ele><time>2026-08-12T01:27:13.000Z</time></trkpt>
        <trkpt lat="29.571756" lon="103.401814"><ele>732.8853</ele><time>2026-08-12T01:27:14.000Z</time></trkpt>
        <trkpt lat="29.571756" lon="103.401814"><ele>732.8853</ele><time>2026-08-12T01:27:15.000Z</time></trkpt>
        <trkpt lat="29.571766" lon="103.401763"><ele>731.0066</ele><time>2026-08-12T01:27:29.000Z</time></trkpt>
        <trkpt lat="29.571768" lon="103.401755"><ele>730.8397</ele><time>2026-08-12T01:27:30.000Z</time></trkpt>
        <trkpt lat="29.571772" lon="103.40175"><ele>730.8738</ele><time>2026-08-12T01:27:31.000Z</time></trkpt>
        <trkpt lat="29.571798" lon="103.401716"><ele>730.8918</ele><time>2026-08-12T01:27:35.000Z</time></trkpt>
        <trkpt lat="29.571802" lon="103.401705"><ele>730.78296</ele><time>2026-08-12T01:27:36.000Z</time></trkpt>
        <trkpt lat="29.571809" lon="103.401693"><ele>730.8126</ele><time>2026-08-12T01:27:37.000Z</time></trkpt>
        <trkpt lat="29.571823" lon="103.401668"><ele>730.92816</ele><time>2026-08-12T01:27:39.000Z</time></trkpt>
        <trkpt lat="29.57183" lon="103.401656"><ele>730.8537</ele><time>2026-08-12T01:27:40.000Z</time></trkpt>
        <trkpt lat="29.571838" lon="103.401645"><ele>731.0077</ele><time>2026-08-12T01:27:41.000Z</time></trkpt>
        <trkpt lat="29.571852" lon="103.401626"><ele>730.9044</ele><time>2026-08-12T01:27:43.000Z</time></trkpt>
        <trkpt lat="29.57186" lon="103.401617"><ele>730.7325</ele><time>2026-08-12T01:27:44.000Z</time></trkpt>
        <trkpt lat="29.571877" lon="103.4016"><ele>730.47034</ele><time>2026-08-12T01:27:46.000Z</time></trkpt>
        <trkpt lat="29.571887" lon="103.401592"><ele>730.4175</ele><time>2026-08-12T01:27:47.000Z</time></trkpt>
        <trkpt lat="29.571898" lon="103.401584"><ele>730.3181</ele><time>2026-08-12T01:27:48.000Z</time></trkpt>
        <trkpt lat="29.571919" lon="103.401569"><ele>730.14185</ele><time>2026-08-12T01:27:50.000Z</time></trkpt>
        <trkpt lat="29.57193" lon="103.401561"><ele>730.3138</ele><time>2026-08-12T01:27:51.000Z</time></trkpt>
        <trkpt lat="29.571942" lon="103.401554"><ele>730.3507</ele><time>2026-08-12T01:27:52.000Z</time></trkpt>
        <trkpt lat="29.571966" lon="103.40154"><ele>730.50903</ele><time>2026-08-12T01:27:54.000Z</time></trkpt>
        <trkpt lat="29.571978" lon="103.401532"><ele>730.7479</ele><time>2026-08-12T01:27:55.000Z</time></trkpt>
        <trkpt lat="29.571988" lon="103.401523"><ele>730.8046</ele><time>2026-08-12T01:27:56.000Z</time></trkpt>
        <trkpt lat="29.572009" lon="103.401503"><ele>731.21606</ele><time>2026-08-12T01:27:58.000Z</time></trkpt>
        <trkpt lat="29.572019" lon="103.401492"><ele>731.419</ele><time>2026-08-12T01:27:59.000Z</time></trkpt>
        <trkpt lat="29.572024" lon="103.401482"><ele>731.4615</ele><time>2026-08-12T01:28:00.000Z</time></trkpt>
        <trkpt lat="29.572029" lon="103.401454"><ele>732.60876</ele><time>2026-08-12T01:28:03.000Z</time></trkpt>
        <trkpt lat="29.572028" lon="103.401442"><ele>733.2966</ele><time>2026-08-12T01:28:05.000Z</time></trkpt>
        <trkpt lat="29.572025" lon="103.401434"><ele>733.67303</ele><time>2026-08-12T01:28:11.000Z</time></trkpt>
        <trkpt lat="29.572019" lon="103.4014"><ele>733.96466</ele><time>2026-08-12T01:28:15.000Z</time></trkpt>
        <trkpt lat="29.572018" lon="103.401389"><ele>733.9848</ele><time>2026-08-12T01:28:16.000Z</time></trkpt>
        <trkpt lat="29.572017" lon="103.401377"><ele>734.0326</ele><time>2026-08-12T01:28:17.000Z</time></trkpt>
        <trkpt lat="29.572014" lon="103.401339"><ele>733.8857</ele><time>2026-08-12T01:28:20.000Z</time></trkpt>
        <trkpt lat="29.572013" lon="103.401327"><ele>733.90216</ele><time>2026-08-12T01:28:21.000Z</time></trkpt>
        <trkpt lat="29.572012" lon="103.401315"><ele>734.01526</ele><time>2026-08-12T01:28:22.000Z</time></trkpt>
        <trkpt lat="29.57201" lon="103.401286"><ele>734.1971</ele><time>2026-08-12T01:28:25.000Z</time></trkpt>
        <trkpt lat="29.572007" lon="103.40127"><ele>734.17236</ele><time>2026-08-12T01:28:27.000Z</time></trkpt>
        <trkpt lat="29.572006" lon="103.401261"><ele>734.4971</ele><time>2026-08-12T01:28:28.000Z</time></trkpt>
        <trkpt lat="29.572" lon="103.401236"><ele>734.79224</ele><time>2026-08-12T01:28:36.000Z</time></trkpt>
        <trkpt lat="29.571999" lon="103.40122"><ele>735.53455</ele><time>2026-08-12T01:28:38.000Z</time></trkpt>
        <trkpt lat="29.571999" lon="103.40121"><ele>735.8682</ele><time>2026-08-12T01:28:39.000Z</time></trkpt>
        <trkpt lat="29.571992" lon="103.40119"><ele>737.47205</ele><time>2026-08-12T01:29:16.000Z</time></trkpt>
        <trkpt lat="29.571979" lon="103.401171"><ele>737.5969</ele><time>2026-08-12T01:29:21.000Z</time></trkpt>
        <trkpt lat="29.571977" lon="103.401163"><ele>737.5833</ele><time>2026-08-12T01:29:22.000Z</time></trkpt>
        <trkpt lat="29.571975" lon="103.401137"><ele>737.713</ele><time>2026-08-12T01:29:27.000Z</time></trkpt>
        <trkpt lat="29.571968" lon="103.401108"><ele>737.523</ele><time>2026-08-12T01:29:34.000Z</time></trkpt>
        <trkpt lat="29.571966" lon="103.401106"><ele>737.523</ele><time>2026-08-12T01:29:35.000Z</time></trkpt>
        <trkpt lat="29.571961" lon="103.401087"><ele>737.22345</ele><time>2026-08-12T01:29:38.000Z</time></trkpt>
        <trkpt lat="29.571961" lon="103.401024"><ele>737.147</ele><time>2026-08-12T01:29:47.000Z</time></trkpt>
        <trkpt lat="29.571961" lon="103.40102"><ele>737.14484</ele><time>2026-08-12T01:29:48.000Z</time></trkpt>
        <trkpt lat="29.57196" lon="103.401011"><ele>737.02716</ele><time>2026-08-12T01:29:49.000Z</time></trkpt>
        <trkpt lat="29.571949" lon="103.40097"><ele>737.48047</ele><time>2026-08-12T01:29:54.000Z</time></trkpt>
        <trkpt lat="29.571948" lon="103.400963"><ele>737.64343</ele><time>2026-08-12T01:29:55.000Z</time></trkpt>
        <trkpt lat="29.571949" lon="103.400954"><ele>738.4121</ele><time>2026-08-12T01:29:56.000Z</time></trkpt>
        <trkpt lat="29.571952" lon="103.400925"><ele>740.32153</ele><time>2026-08-12T01:30:04.000Z</time></trkpt>
        <trkpt lat="29.571949" lon="103.400912"><ele>740.31274</ele><time>2026-08-12T01:30:06.000Z</time></trkpt>
        <trkpt lat="29.571948" lon="103.400906"><ele>740.537</ele><time>2026-08-12T01:30:07.000Z</time></trkpt>
        <trkpt lat="29.571943" lon="103.400871"><ele>741.66846</ele><time>2026-08-12T01:30:12.000Z</time></trkpt>
        <trkpt lat="29.571941" lon="103.400856"><ele>741.8953</ele><time>2026-08-12T01:30:14.000Z</time></trkpt>
        <trkpt lat="29.57194" lon="103.400847"><ele>742.0234</ele><time>2026-08-12T01:30:15.000Z</time></trkpt>
        <trkpt lat="29.571941" lon="103.400819"><ele>742.5102</ele><time>2026-08-12T01:30:19.000Z</time></trkpt>
        <trkpt lat="29.57194" lon="103.400803"><ele>742.9408</ele><time>2026-08-12T01:30:22.000Z</time></trkpt>
        <trkpt lat="29.571939" lon="103.400793"><ele>743.2573</ele><time>2026-08-12T01:30:24.000Z</time></trkpt>
        <trkpt lat="29.571929" lon="103.400766"><ele>743.7526</ele><time>2026-08-12T01:30:30.000Z</time></trkpt>
        <trkpt lat="29.571924" lon="103.400754"><ele>743.95776</ele><time>2026-08-12T01:30:32.000Z</time></trkpt>
        <trkpt lat="29.571921" lon="103.400743"><ele>744.1011</ele><time>2026-08-12T01:30:34.000Z</time></trkpt>
        <trkpt lat="29.571914" lon="103.400711"><ele>744.79846</ele><time>2026-08-12T01:30:39.000Z</time></trkpt>
        <trkpt lat="29.571913" lon="103.400704"><ele>744.93646</ele><time>2026-08-12T01:30:40.000Z</time></trkpt>
        <trkpt lat="29.571911" lon="103.40069"><ele>745.18243</ele><time>2026-08-12T01:30:42.000Z</time></trkpt>
        <trkpt lat="29.571899" lon="103.400662"><ele>746.2374</ele><time>2026-08-12T01:30:54.000Z</time></trkpt>
        <trkpt lat="29.571894" lon="103.400659"><ele>746.6617</ele><time>2026-08-12T01:30:56.000Z</time></trkpt>
        <trkpt lat="29.571885" lon="103.400649"><ele>746.618</ele><time>2026-08-12T01:31:03.000Z</time></trkpt>
        <trkpt lat="29.571881" lon="103.400614"><ele>747.2211</ele><time>2026-08-12T01:31:10.000Z</time></trkpt>
        <trkpt lat="29.571881" lon="103.400608"><ele>747.1537</ele><time>2026-08-12T01:31:11.000Z</time></trkpt>
        <trkpt lat="29.571882" lon="103.400594"><ele>747.1864</ele><time>2026-08-12T01:31:13.000Z</time></trkpt>
        <trkpt lat="29.571885" lon="103.400556"><ele>747.82886</ele><time>2026-08-12T01:31:18.000Z</time></trkpt>
        <trkpt lat="29.571886" lon="103.400547"><ele>747.95844</ele><time>2026-08-12T01:31:19.000Z</time></trkpt>
        <trkpt lat="29.571885" lon="103.400538"><ele>748.16</ele><time>2026-08-12T01:31:20.000Z</time></trkpt>
        <trkpt lat="29.571886" lon="103.400505"><ele>749.39996</ele><time>2026-08-12T01:31:51.000Z</time></trkpt>
        <trkpt lat="29.571886" lon="103.4005"><ele>750.19714</ele><time>2026-08-12T01:31:53.000Z</time></trkpt>
        <trkpt lat="29.571885" lon="103.400494"><ele>752.0031</ele><time>2026-08-12T01:31:59.000Z</time></trkpt>
        <trkpt lat="29.571882" lon="103.400462"><ele>752.3337</ele><time>2026-08-12T01:32:53.000Z</time></trkpt>
        <trkpt lat="29.571881" lon="103.400453"><ele>752.4873</ele><time>2026-08-12T01:32:55.000Z</time></trkpt>
        <trkpt lat="29.571879" lon="103.400442"><ele>752.6172</ele><time>2026-08-12T01:32:57.000Z</time></trkpt>
        <trkpt lat="29.571873" lon="103.40041"><ele>753.2052</ele><time>2026-08-12T01:33:02.000Z</time></trkpt>
        <trkpt lat="29.571872" lon="103.400396"><ele>753.5174</ele><time>2026-08-12T01:33:04.000Z</time></trkpt>
        <trkpt lat="29.571871" lon="103.400389"><ele>753.73773</ele><time>2026-08-12T01:33:05.000Z</time></trkpt>
        <trkpt lat="29.571867" lon="103.400358"><ele>754.40564</ele><time>2026-08-12T01:33:09.000Z</time></trkpt>
        <trkpt lat="29.571867" lon="103.400343"><ele>754.9674</ele><time>2026-08-12T01:33:11.000Z</time></trkpt>
        <trkpt lat="29.571866" lon="103.400335"><ele>755.1512</ele><time>2026-08-12T01:33:12.000Z</time></trkpt>
        <trkpt lat="29.571867" lon="103.400308"><ele>755.8262</ele><time>2026-08-12T01:33:16.000Z</time></trkpt>
        <trkpt lat="29.571864" lon="103.400288"><ele>756.06604</ele><time>2026-08-12T01:33:19.000Z</time></trkpt>
        <trkpt lat="29.571863" lon="103.400282"><ele>756.1713</ele><time>2026-08-12T01:33:20.000Z</time></trkpt>
        <trkpt lat="29.571859" lon="103.400255"><ele>756.4272</ele><time>2026-08-12T01:33:24.000Z</time></trkpt>
        <trkpt lat="29.571854" lon="103.400235"><ele>756.8114</ele><time>2026-08-12T01:33:27.000Z</time></trkpt>
        <trkpt lat="29.571852" lon="103.400229"><ele>756.94666</ele><time>2026-08-12T01:33:28.000Z</time></trkpt>
        <trkpt lat="29.571847" lon="103.400206"><ele>757.54596</ele><time>2026-08-12T01:33:32.000Z</time></trkpt>
        <trkpt lat="29.571843" lon="103.400186"><ele>758.1545</ele><time>2026-08-12T01:33:37.000Z</time></trkpt>
        <trkpt lat="29.571842" lon="103.40018"><ele>758.7481</ele><time>2026-08-12T01:33:39.000Z</time></trkpt>
        <trkpt lat="29.571832" lon="103.400143"><ele>760.6148</ele><time>2026-08-12T01:33:45.000Z</time></trkpt>
        <trkpt lat="29.571831" lon="103.40014"><ele>760.6148</ele><time>2026-08-12T01:33:51.000Z</time></trkpt>
        <trkpt lat="29.571826" lon="103.400133"><ele>761.07605</ele><time>2026-08-12T01:33:55.000Z</time></trkpt>
        <trkpt lat="29.571824" lon="103.400123"><ele>761.41296</ele><time>2026-08-12T01:33:58.000Z</time></trkpt>
        <trkpt lat="29.571819" lon="103.400093"><ele>762.3871</ele><time>2026-08-12T01:34:04.000Z</time></trkpt>
        <trkpt lat="29.571818" lon="103.400083"><ele>762.65967</ele><time>2026-08-12T01:34:06.000Z</time></trkpt>
        <trkpt lat="29.571816" lon="103.400074"><ele>763.0857</ele><time>2026-08-12T01:34:08.000Z</time></trkpt>
        <trkpt lat="29.571811" lon="103.400046"><ele>764.45026</ele><time>2026-08-12T01:34:15.000Z</time></trkpt>
        <trkpt lat="29.571811" lon="103.400036"><ele>764.5412</ele><time>2026-08-12T01:34:20.000Z</time></trkpt>
        <trkpt lat="29.57181" lon="103.400022"><ele>764.71625</ele><time>2026-08-12T01:34:23.000Z</time></trkpt>
        <trkpt lat="29.571809" lon="103.399995"><ele>765.1397</ele><time>2026-08-12T01:34:28.000Z</time></trkpt>
        <trkpt lat="29.571808" lon="103.399984"><ele>765.45355</ele><time>2026-08-12T01:34:30.000Z</time></trkpt>
        <trkpt lat="29.571807" lon="103.399967"><ele>765.95154</ele><time>2026-08-12T01:34:33.000Z</time></trkpt>
        <trkpt lat="29.571809" lon="103.399946"><ele>766.7464</ele><time>2026-08-12T01:34:38.000Z</time></trkpt>
        <trkpt lat="29.571809" lon="103.399935"><ele>767.4913</ele><time>2026-08-12T01:34:41.000Z</time></trkpt>
        <trkpt lat="29.571807" lon="103.399917"><ele>768.59424</ele><time>2026-08-12T01:34:45.000Z</time></trkpt>
        <trkpt lat="29.571811" lon="103.399896"><ele>769.46716</ele><time>2026-08-12T01:34:49.000Z</time></trkpt>
        <trkpt lat="29.571814" lon="103.399886"><ele>769.89856</ele><time>2026-08-12T01:34:51.000Z</time></trkpt>
        <trkpt lat="29.57182" lon="103.39987"><ele>770.5508</ele><time>2026-08-12T01:34:54.000Z</time></trkpt>
        <trkpt lat="29.571827" lon="103.399849"><ele>770.9798</ele><time>2026-08-12T01:34:58.000Z</time></trkpt>
        <trkpt lat="29.571829" lon="103.399838"><ele>771.0379</ele><time>2026-08-12T01:35:00.000Z</time></trkpt>
        <trkpt lat="29.571828" lon="103.399815"><ele>771.4811</ele><time>2026-08-12T01:35:04.000Z</time></trkpt>
        <trkpt lat="29.571822" lon="103.399795"><ele>772.3778</ele><time>2026-08-12T01:35:08.000Z</time></trkpt>
        <trkpt lat="29.571819" lon="103.399788"><ele>773.1413</ele><time>2026-08-12T01:35:10.000Z</time></trkpt>
        <trkpt lat="29.571817" lon="103.399773"><ele>774.40674</ele><time>2026-08-12T01:35:16.000Z</time></trkpt>
        <trkpt lat="29.571819" lon="103.39976"><ele>776.5927</ele><time>2026-08-12T01:35:19.000Z</time></trkpt>
        <trkpt lat="29.571819" lon="103.399755"><ele>777.31775</ele><time>2026-08-12T01:35:20.000Z</time></trkpt>
        <trkpt lat="29.571821" lon="103.399746"><ele>778.65155</ele><time>2026-08-12T01:35:24.000Z</time></trkpt>
        <trkpt lat="29.571839" lon="103.399721"><ele>779.1868</ele><time>2026-08-12T01:35:37.000Z</time></trkpt>
        <trkpt lat="29.571843" lon="103.399716"><ele>779.95087</ele><time>2026-08-12T01:35:39.000Z</time></trkpt>
        <trkpt lat="29.571852" lon="103.399711"><ele>780.19556</ele><time>2026-08-12T01:35:44.000Z</time></trkpt>
        <trkpt lat="29.571847" lon="103.399668"><ele>781.1316</ele><time>2026-08-12T01:38:20.000Z</time></trkpt>
        <trkpt lat="29.571846" lon="103.399663"><ele>781.3648</ele><time>2026-08-12T01:38:21.000Z</time></trkpt>
        <trkpt lat="29.571845" lon="103.399657"><ele>781.5794</ele><time>2026-08-12T01:38:22.000Z</time></trkpt>
        <trkpt lat="29.571838" lon="103.399613"><ele>782.66736</ele><time>2026-08-12T01:38:28.000Z</time></trkpt>
        <trkpt lat="29.571837" lon="103.399609"><ele>782.95374</ele><time>2026-08-12T01:38:29.000Z</time></trkpt>
        <trkpt lat="29.571831" lon="103.399601"><ele>783.15924</ele><time>2026-08-12T01:38:30.000Z</time></trkpt>
        <trkpt lat="29.571817" lon="103.399566"><ele>784.25195</ele><time>2026-08-12T01:38:35.000Z</time></trkpt>
        <trkpt lat="29.571814" lon="103.399559"><ele>784.3682</ele><time>2026-08-12T01:38:36.000Z</time></trkpt>
        <trkpt lat="29.571813" lon="103.399552"><ele>784.6554</ele><time>2026-08-12T01:38:37.000Z</time></trkpt>
        <trkpt lat="29.571815" lon="103.399511"><ele>785.3793</ele><time>2026-08-12T01:38:42.000Z</time></trkpt>
        <trkpt lat="29.571816" lon="103.399504"><ele>785.57245</ele><time>2026-08-12T01:38:43.000Z</time></trkpt>
        <trkpt lat="29.571817" lon="103.399497"><ele>785.6197</ele><time>2026-08-12T01:38:44.000Z</time></trkpt>
        <trkpt lat="29.57182" lon="103.399452"><ele>786.438</ele><time>2026-08-12T01:38:51.000Z</time></trkpt>
        <trkpt lat="29.57182" lon="103.399444"><ele>786.5171</ele><time>2026-08-12T01:38:52.000Z</time></trkpt>
        <trkpt lat="29.57182" lon="103.399436"><ele>786.68475</ele><time>2026-08-12T01:38:53.000Z</time></trkpt>
        <trkpt lat="29.571817" lon="103.399394"><ele>787.55804</ele><time>2026-08-12T01:38:58.000Z</time></trkpt>
        <trkpt lat="29.571815" lon="103.399386"><ele>787.66376</ele><time>2026-08-12T01:38:59.000Z</time></trkpt>
        <trkpt lat="29.571814" lon="103.399378"><ele>787.8121</ele><time>2026-08-12T01:39:00.000Z</time></trkpt>
        <trkpt lat="29.571805" lon="103.399343"><ele>788.49854</ele><time>2026-08-12T01:39:05.000Z</time></trkpt>
        <trkpt lat="29.571803" lon="103.399337"><ele>788.61884</ele><time>2026-08-12T01:39:06.000Z</time></trkpt>
        <trkpt lat="29.571797" lon="103.399326"><ele>789.1</ele><time>2026-08-12T01:39:08.000Z</time></trkpt>
        <trkpt lat="29.571782" lon="103.399297"><ele>789.8739</ele><time>2026-08-12T01:39:13.000Z</time></trkpt>
        <trkpt lat="29.571778" lon="103.399292"><ele>789.9456</ele><time>2026-08-12T01:39:14.000Z</time></trkpt>
        <trkpt lat="29.571769" lon="103.399282"><ele>790.1517</ele><time>2026-08-12T01:39:16.000Z</time></trkpt>
        <trkpt lat="29.57175" lon="103.399256"><ele>790.6153</ele><time>2026-08-12T01:39:21.000Z</time></trkpt>
        <trkpt lat="29.571747" lon="103.399251"><ele>790.76</ele><time>2026-08-12T01:39:22.000Z</time></trkpt>
        <trkpt lat="29.57174" lon="103.399241"><ele>790.8676</ele><time>2026-08-12T01:39:24.000Z</time></trkpt>
        <trkpt lat="29.571722" lon="103.399216"><ele>791.44617</ele><time>2026-08-12T01:39:30.000Z</time></trkpt>
        <trkpt lat="29.571719" lon="103.39921"><ele>791.5441</ele><time>2026-08-12T01:39:31.000Z</time></trkpt>
        <trkpt lat="29.57171" lon="103.399197"><ele>792.0941</ele><time>2026-08-12T01:39:35.000Z</time></trkpt>
        <trkpt lat="29.571693" lon="103.399172"><ele>792.8368</ele><time>2026-08-12T01:39:40.000Z</time></trkpt>
        <trkpt lat="29.571691" lon="103.399168"><ele>792.82837</ele><time>2026-08-12T01:39:41.000Z</time></trkpt>
        <trkpt lat="29.571685" lon="103.399151"><ele>793.1367</ele><time>2026-08-12T01:39:45.000Z</time></trkpt>
        <trkpt lat="29.571679" lon="103.399122"><ele>794.1048</ele><time>2026-08-12T01:39:51.000Z</time></trkpt>
        <trkpt lat="29.571678" lon="103.399116"><ele>794.252</ele><time>2026-08-12T01:39:52.000Z</time></trkpt>
        <trkpt lat="29.571676" lon="103.399101"><ele>794.28705</ele><time>2026-08-12T01:39:54.000Z</time></trkpt>
        <trkpt lat="29.571674" lon="103.399071"><ele>794.3619</ele><time>2026-08-12T01:39:58.000Z</time></trkpt>
        <trkpt lat="29.571674" lon="103.399059"><ele>794.46606</ele><time>2026-08-12T01:40:00.000Z</time></trkpt>
        <trkpt lat="29.571671" lon="103.399048"><ele>794.64667</ele><time>2026-08-12T01:40:02.000Z</time></trkpt>
        <trkpt lat="29.571659" lon="103.399022"><ele>795.53876</ele><time>2026-08-12T01:40:09.000Z</time></trkpt>
        <trkpt lat="29.571653" lon="103.399012"><ele>795.67316</ele><time>2026-08-12T01:40:11.000Z</time></trkpt>
        <trkpt lat="29.571649" lon="103.399005"><ele>796.11334</ele><time>2026-08-12T01:40:12.000Z</time></trkpt>
        <trkpt lat="29.571636" lon="103.398978"><ele>797.1314</ele><time>2026-08-12T01:40:16.000Z</time></trkpt>
        <trkpt lat="29.57163" lon="103.398963"><ele>797.55975</ele><time>2026-08-12T01:40:18.000Z</time></trkpt>
        <trkpt lat="29.571626" lon="103.398955"><ele>797.63153</ele><time>2026-08-12T01:40:19.000Z</time></trkpt>
        <trkpt lat="29.571621" lon="103.398925"><ele>797.9046</ele><time>2026-08-12T01:40:23.000Z</time></trkpt>
        <trkpt lat="29.571616" lon="103.398876"><ele>798.43384</ele><time>2026-08-12T01:40:29.000Z</time></trkpt>
        <trkpt lat="29.571621" lon="103.398874"><ele>798.53485</ele><time>2026-08-12T01:40:30.000Z</time></trkpt>
        <trkpt lat="29.571627" lon="103.398872"><ele>798.6525</ele><time>2026-08-12T01:40:31.000Z</time></trkpt>
        <trkpt lat="29.571601" lon="103.398791"><ele>799.64825</ele><time>2026-08-12T01:40:37.000Z</time></trkpt>
        <trkpt lat="29.57159" lon="103.39874"><ele>800.4384</ele><time>2026-08-12T01:40:42.000Z</time></trkpt>
        <trkpt lat="29.571586" lon="103.398688"><ele>801.38196</ele><time>2026-08-12T01:40:47.000Z</time></trkpt>
        <trkpt lat="29.571581" lon="103.39863"><ele>802.52924</ele><time>2026-08-12T01:40:52.000Z</time></trkpt>
        <trkpt lat="29.571582" lon="103.398573"><ele>803.25885</ele><time>2026-08-12T01:40:57.000Z</time></trkpt>
        <trkpt lat="29.571568" lon="103.398517"><ele>804.19025</ele><time>2026-08-12T01:41:02.000Z</time></trkpt>
        <trkpt lat="29.571562" lon="103.398464"><ele>804.3691</ele><time>2026-08-12T01:41:07.000Z</time></trkpt>
        <trkpt lat="29.571566" lon="103.398409"><ele>803.4098</ele><time>2026-08-12T01:41:13.000Z</time></trkpt>
        <trkpt lat="29.571571" lon="103.398354"><ele>803.4529</ele><time>2026-08-12T01:41:18.000Z</time></trkpt>
        <trkpt lat="29.571581" lon="103.398298"><ele>803.60895</ele><time>2026-08-12T01:41:23.000Z</time></trkpt>
        <trkpt lat="29.571582" lon="103.398246"><ele>803.23987</ele><time>2026-08-12T01:41:28.000Z</time></trkpt>
        <trkpt lat="29.571587" lon="103.398193"><ele>802.82947</ele><time>2026-08-12T01:41:32.000Z</time></trkpt>
        <trkpt lat="29.571598" lon="103.398138"><ele>801.9791</ele><time>2026-08-12T01:41:37.000Z</time></trkpt>
        <trkpt lat="29.571606" lon="103.398072"><ele>801.3593</ele><time>2026-08-12T01:41:41.000Z</time></trkpt>
        <trkpt lat="29.571599" lon="103.398006"><ele>800.18243</ele><time>2026-08-12T01:41:45.000Z</time></trkpt>
        <trkpt lat="29.571587" lon="103.397956"><ele>799.7095</ele><time>2026-08-12T01:41:48.000Z</time></trkpt>
        <trkpt lat="29.571557" lon="103.397917"><ele>798.79095</ele><time>2026-08-12T01:41:52.000Z</time></trkpt>
        <trkpt lat="29.571524" lon="103.397876"><ele>797.2567</ele><time>2026-08-12T01:41:58.000Z</time></trkpt>
        <trkpt lat="29.571512" lon="103.397824"><ele>795.75085</ele><time>2026-08-12T01:42:05.000Z</time></trkpt>
        <trkpt lat="29.571512" lon="103.397764"><ele>794.1333</ele><time>2026-08-12T01:42:12.000Z</time></trkpt>
        <trkpt lat="29.571505" lon="103.397703"><ele>791.9752</ele><time>2026-08-12T01:42:16.000Z</time></trkpt>
        <trkpt lat="29.571487" lon="103.397652"><ele>790.10547</ele><time>2026-08-12T01:42:20.000Z</time></trkpt>
        <trkpt lat="29.571467" lon="103.397591"><ele>788.8198</ele><time>2026-08-12T01:42:27.000Z</time></trkpt>
        <trkpt lat="29.571458" lon="103.39754"><ele>788.3704</ele><time>2026-08-12T01:42:31.000Z</time></trkpt>
        <trkpt lat="29.571472" lon="103.397489"><ele>787.5846</ele><time>2026-08-12T01:42:36.000Z</time></trkpt>
        <trkpt lat="29.571485" lon="103.397433"><ele>787.1618</ele><time>2026-08-12T01:42:41.000Z</time></trkpt>
        <trkpt lat="29.571502" lon="103.397382"><ele>786.52185</ele><time>2026-08-12T01:42:46.000Z</time></trkpt>
        <trkpt lat="29.571508" lon="103.397328"><ele>785.88135</ele><time>2026-08-12T01:42:50.000Z</time></trkpt>
        <trkpt lat="29.571521" lon="103.397277"><ele>785.33344</ele><time>2026-08-12T01:42:54.000Z</time></trkpt>
        <trkpt lat="29.571541" lon="103.397228"><ele>784.8102</ele><time>2026-08-12T01:42:58.000Z</time></trkpt>
        <trkpt lat="29.571558" lon="103.397172"><ele>784.3739</ele><time>2026-08-12T01:43:03.000Z</time></trkpt>
        <trkpt lat="29.571565" lon="103.397116"><ele>784.2556</ele><time>2026-08-12T01:43:07.000Z</time></trkpt>
        <trkpt lat="29.571615" lon="103.397067"><ele>783.48834</ele><time>2026-08-12T01:43:12.000Z</time></trkpt>
        <trkpt lat="29.571652" lon="103.397033"><ele>782.782</ele><time>2026-08-12T01:43:17.000Z</time></trkpt>
        <trkpt lat="29.57168" lon="103.396971"><ele>781.2189</ele><time>2026-08-12T01:43:24.000Z</time></trkpt>
        <trkpt lat="29.571692" lon="103.396916"><ele>779.8144</ele><time>2026-08-12T01:43:28.000Z</time></trkpt>
        <trkpt lat="29.571723" lon="103.396894"><ele>775.85693</ele><time>2026-08-12T01:43:37.000Z</time></trkpt>
        <trkpt lat="29.571739" lon="103.396849"><ele>772.70215</ele><time>2026-08-12T01:43:45.000Z</time></trkpt>
        <trkpt lat="29.571759" lon="103.396814"><ele>768.759</ele><time>2026-08-12T01:43:52.000Z</time></trkpt>
        <trkpt lat="29.571798" lon="103.39678"><ele>766.0536</ele><time>2026-08-12T01:43:59.000Z</time></trkpt>
        <trkpt lat="29.571842" lon="103.396757"><ele>764.4076</ele><time>2026-08-12T01:44:03.000Z</time></trkpt>
        <trkpt lat="29.571886" lon="103.396746"><ele>763.22644</ele><time>2026-08-12T01:44:07.000Z</time></trkpt>
        <trkpt lat="29.57193" lon="103.39673"><ele>762.155</ele><time>2026-08-12T01:44:11.000Z</time></trkpt>
        <trkpt lat="29.571977" lon="103.396714"><ele>760.7732</ele><time>2026-08-12T01:44:15.000Z</time></trkpt>
        <trkpt lat="29.572031" lon="103.396706"><ele>759.3313</ele><time>2026-08-12T01:44:20.000Z</time></trkpt>
        <trkpt lat="29.572075" lon="103.3967"><ele>757.82623</ele><time>2026-08-12T01:44:25.000Z</time></trkpt>
        <trkpt lat="29.572121" lon="103.396688"><ele>755.0682</ele><time>2026-08-12T01:44:30.000Z</time></trkpt>
        <trkpt lat="29.572171" lon="103.396682"><ele>752.96783</ele><time>2026-08-12T01:44:35.000Z</time></trkpt>
        <trkpt lat="29.572216" lon="103.396671"><ele>752.09265</ele><time>2026-08-12T01:44:41.000Z</time></trkpt>
        <trkpt lat="29.572259" lon="103.396664"><ele>750.6418</ele><time>2026-08-12T01:44:47.000Z</time></trkpt>
        <trkpt lat="29.572307" lon="103.396652"><ele>749.5969</ele><time>2026-08-12T01:44:52.000Z</time></trkpt>
        <trkpt lat="29.572342" lon="103.396614"><ele>748.6661</ele><time>2026-08-12T01:44:57.000Z</time></trkpt>
        <trkpt lat="29.572359" lon="103.396562"><ele>747.87384</ele><time>2026-08-12T01:45:02.000Z</time></trkpt>
        <trkpt lat="29.572365" lon="103.396501"><ele>746.88043</ele><time>2026-08-12T01:45:07.000Z</time></trkpt>
        <trkpt lat="29.572342" lon="103.396437"><ele>746.2512</ele><time>2026-08-12T01:45:12.000Z</time></trkpt>
        <trkpt lat="29.572328" lon="103.39638"><ele>745.7707</ele><time>2026-08-12T01:45:15.000Z</time></trkpt>
        <trkpt lat="29.572325" lon="103.396323"><ele>744.9027</ele><time>2026-08-12T01:45:18.000Z</time></trkpt>
        <trkpt lat="29.572343" lon="103.396266"><ele>744.05774</ele><time>2026-08-12T01:45:22.000Z</time></trkpt>
        <trkpt lat="29.572358" lon="103.396216"><ele>741.7587</ele><time>2026-08-12T01:45:27.000Z</time></trkpt>
        <trkpt lat="29.572365" lon="103.396159"><ele>740.9884</ele><time>2026-08-12T01:45:31.000Z</time></trkpt>
        <trkpt lat="29.572383" lon="103.396102"><ele>739.81726</ele><time>2026-08-12T01:45:36.000Z</time></trkpt>
        <trkpt lat="29.572409" lon="103.396055"><ele>737.672</ele><time>2026-08-12T01:45:40.000Z</time></trkpt>
        <trkpt lat="29.572438" lon="103.395997"><ele>736.8912</ele><time>2026-08-12T01:45:45.000Z</time></trkpt>
        <trkpt lat="29.572482" lon="103.39596"><ele>736.6704</ele><time>2026-08-12T01:45:49.000Z</time></trkpt>
        <trkpt lat="29.572529" lon="103.395948"><ele>736.3012</ele><time>2026-08-12T01:45:53.000Z</time></trkpt>
        <trkpt lat="29.572574" lon="103.395918"><ele>735.06635</ele><time>2026-08-12T01:45:58.000Z</time></trkpt>
        <trkpt lat="29.572611" lon="103.39589"><ele>733.2248</ele><time>2026-08-12T01:46:03.000Z</time></trkpt>
        <trkpt lat="29.572644" lon="103.395851"><ele>731.64825</ele><time>2026-08-12T01:46:07.000Z</time></trkpt>
        <trkpt lat="29.572681" lon="103.395818"><ele>729.7388</ele><time>2026-08-12T01:46:12.000Z</time></trkpt>
        <trkpt lat="29.572728" lon="103.395786"><ele>728.85443</ele><time>2026-08-12T01:46:17.000Z</time></trkpt>
        <trkpt lat="29.572768" lon="103.395752"><ele>728.06134</ele><time>2026-08-12T01:46:21.000Z</time></trkpt>
        <trkpt lat="29.572798" lon="103.395708"><ele>727.50354</ele><time>2026-08-12T01:46:24.000Z</time></trkpt>
        <trkpt lat="29.572831" lon="103.395666"><ele>727.2945</ele><time>2026-08-12T01:46:28.000Z</time></trkpt>
        <trkpt lat="29.572847" lon="103.395618"><ele>726.695</ele><time>2026-08-12T01:46:33.000Z</time></trkpt>
        <trkpt lat="29.572868" lon="103.395554"><ele>725.95166</ele><time>2026-08-12T01:46:37.000Z</time></trkpt>
        <trkpt lat="29.572891" lon="103.395488"><ele>725.7691</ele><time>2026-08-12T01:46:41.000Z</time></trkpt>
        <trkpt lat="29.572912" lon="103.395426"><ele>724.9104</ele><time>2026-08-12T01:46:45.000Z</time></trkpt>
        <trkpt lat="29.572936" lon="103.395371"><ele>723.8756</ele><time>2026-08-12T01:46:49.000Z</time></trkpt>
        <trkpt lat="29.572962" lon="103.395319"><ele>722.6094</ele><time>2026-08-12T01:46:53.000Z</time></trkpt>
        <trkpt lat="29.572981" lon="103.395266"><ele>721.42255</ele><time>2026-08-12T01:46:56.000Z</time></trkpt>
        <trkpt lat="29.572972" lon="103.395193"><ele>720.3382</ele><time>2026-08-12T01:47:04.000Z</time></trkpt>
        <trkpt lat="29.572952" lon="103.395148"><ele>718.7102</ele><time>2026-08-12T01:47:08.000Z</time></trkpt>
        <trkpt lat="29.572925" lon="103.395095"><ele>717.0495</ele><time>2026-08-12T01:47:12.000Z</time></trkpt>
        <trkpt lat="29.572914" lon="103.395045"><ele>715.567</ele><time>2026-08-12T01:47:16.000Z</time></trkpt>
        <trkpt lat="29.572919" lon="103.394984"><ele>715.05835</ele><time>2026-08-12T01:47:21.000Z</time></trkpt>
        <trkpt lat="29.57292" lon="103.394917"><ele>714.90625</ele><time>2026-08-12T01:47:26.000Z</time></trkpt>
        <trkpt lat="29.572921" lon="103.394862"><ele>714.79456</ele><time>2026-08-12T01:47:30.000Z</time></trkpt>
        <trkpt lat="29.572918" lon="103.394807"><ele>715.0298</ele><time>2026-08-12T01:47:34.000Z</time></trkpt>
        <trkpt lat="29.572896" lon="103.394763"><ele>713.6432</ele><time>2026-08-12T01:47:37.000Z</time></trkpt>
        <trkpt lat="29.572873" lon="103.394716"><ele>712.21063</ele><time>2026-08-12T01:47:42.000Z</time></trkpt>
        <trkpt lat="29.572833" lon="103.394686"><ele>710.7733</ele><time>2026-08-12T01:47:48.000Z</time></trkpt>
        <trkpt lat="29.572802" lon="103.394641"><ele>708.41345</ele><time>2026-08-12T01:47:54.000Z</time></trkpt>
        <trkpt lat="29.572769" lon="103.394602"><ele>706.593</ele><time>2026-08-12T01:47:58.000Z</time></trkpt>
        <trkpt lat="29.57274" lon="103.394549"><ele>705.3594</ele><time>2026-08-12T01:48:03.000Z</time></trkpt>
        <trkpt lat="29.572725" lon="103.394496"><ele>704.26245</ele><time>2026-08-12T01:48:06.000Z</time></trkpt>
        <trkpt lat="29.572737" lon="103.394447"><ele>703.0689</ele><time>2026-08-12T01:48:11.000Z</time></trkpt>
        <trkpt lat="29.572757" lon="103.394397"><ele>701.17065</ele><time>2026-08-12T01:48:16.000Z</time></trkpt>
        <trkpt lat="29.572783" lon="103.394356"><ele>700.0497</ele><time>2026-08-12T01:48:20.000Z</time></trkpt>
        <trkpt lat="29.572801" lon="103.394302"><ele>699.88947</ele><time>2026-08-12T01:48:24.000Z</time></trkpt>
        <trkpt lat="29.57281" lon="103.394253"><ele>697.94855</ele><time>2026-08-12T01:48:30.000Z</time></trkpt>
        <trkpt lat="29.57284" lon="103.394212"><ele>695.9458</ele><time>2026-08-12T01:48:35.000Z</time></trkpt>
        <trkpt lat="29.572873" lon="103.394168"><ele>694.9698</ele><time>2026-08-12T01:48:40.000Z</time></trkpt>
        <trkpt lat="29.572892" lon="103.394122"><ele>694.3752</ele><time>2026-08-12T01:48:44.000Z</time></trkpt>
        <trkpt lat="29.572909" lon="103.39407"><ele>693.81024</ele><time>2026-08-12T01:48:48.000Z</time></trkpt>
        <trkpt lat="29.572929" lon="103.394023"><ele>692.8878</ele><time>2026-08-12T01:48:51.000Z</time></trkpt>
        <trkpt lat="29.572949" lon="103.393976"><ele>692.1584</ele><time>2026-08-12T01:48:54.000Z</time></trkpt>
        <trkpt lat="29.572973" lon="103.393921"><ele>691.0816</ele><time>2026-08-12T01:48:58.000Z</time></trkpt>
        <trkpt lat="29.573002" lon="103.393865"><ele>690.53375</ele><time>2026-08-12T01:49:02.000Z</time></trkpt>
        <trkpt lat="29.573025" lon="103.393812"><ele>690.0463</ele><time>2026-08-12T01:49:06.000Z</time></trkpt>
        <trkpt lat="29.57304" lon="103.393756"><ele>689.63245</ele><time>2026-08-12T01:49:10.000Z</time></trkpt>
        <trkpt lat="29.573063" lon="103.393707"><ele>689.2337</ele><time>2026-08-12T01:49:14.000Z</time></trkpt>
        <trkpt lat="29.573106" lon="103.39368"><ele>688.8321</ele><time>2026-08-12T01:49:18.000Z</time></trkpt>
        <trkpt lat="29.573151" lon="103.393686"><ele>688.4313</ele><time>2026-08-12T01:49:23.000Z</time></trkpt>
        <trkpt lat="29.573201" lon="103.393696"><ele>687.9409</ele><time>2026-08-12T01:49:29.000Z</time></trkpt>
        <trkpt lat="29.573254" lon="103.393704"><ele>686.787</ele><time>2026-08-12T01:49:34.000Z</time></trkpt>
        <trkpt lat="29.573306" lon="103.393711"><ele>686.1733</ele><time>2026-08-12T01:49:39.000Z</time></trkpt>
        <trkpt lat="29.573352" lon="103.393686"><ele>685.16266</ele><time>2026-08-12T01:49:43.000Z</time></trkpt>
        <trkpt lat="29.573392" lon="103.393643"><ele>684.43713</ele><time>2026-08-12T01:49:47.000Z</time></trkpt>
        <trkpt lat="29.573426" lon="103.393598"><ele>683.94055</ele><time>2026-08-12T01:49:51.000Z</time></trkpt>
        <trkpt lat="29.573468" lon="103.393557"><ele>683.6291</ele><time>2026-08-12T01:49:56.000Z</time></trkpt>
        <trkpt lat="29.573518" lon="103.393535"><ele>683.05255</ele><time>2026-08-12T01:50:01.000Z</time></trkpt>
        <trkpt lat="29.573566" lon="103.393518"><ele>682.50055</ele><time>2026-08-12T01:50:05.000Z</time></trkpt>
        <trkpt lat="29.57361" lon="103.393494"><ele>682.4246</ele><time>2026-08-12T01:50:09.000Z</time></trkpt>
        <trkpt lat="29.573643" lon="103.393453"><ele>681.3716</ele><time>2026-08-12T01:50:32.000Z</time></trkpt>
        <trkpt lat="29.573677" lon="103.393417"><ele>681.21564</ele><time>2026-08-12T01:50:37.000Z</time></trkpt>
        <trkpt lat="29.573719" lon="103.393395"><ele>680.2274</ele><time>2026-08-12T01:50:45.000Z</time></trkpt>
        <trkpt lat="29.57377" lon="103.393385"><ele>680.11005</ele><time>2026-08-12T01:50:50.000Z</time></trkpt>
        <trkpt lat="29.573819" lon="103.393374"><ele>679.89136</ele><time>2026-08-12T01:50:54.000Z</time></trkpt>
        <trkpt lat="29.573862" lon="103.393349"><ele>679.8037</ele><time>2026-08-12T01:50:58.000Z</time></trkpt>
        <trkpt lat="29.573899" lon="103.393314"><ele>679.805</ele><time>2026-08-12T01:51:02.000Z</time></trkpt>
        <trkpt lat="29.573936" lon="103.393276"><ele>679.84344</ele><time>2026-08-12T01:51:07.000Z</time></trkpt>
        <trkpt lat="29.573952" lon="103.393224"><ele>680.05194</ele><time>2026-08-12T01:51:13.000Z</time></trkpt>
        <trkpt lat="29.573969" lon="103.393169"><ele>679.4448</ele><time>2026-08-12T01:51:20.000Z</time></trkpt>
        <trkpt lat="29.573999" lon="103.393124"><ele>678.4575</ele><time>2026-08-12T01:51:25.000Z</time></trkpt>
        <trkpt lat="29.574025" lon="103.393072"><ele>677.5867</ele><time>2026-08-12T01:51:32.000Z</time></trkpt>
        <trkpt lat="29.574042" lon="103.39302"><ele>676.5498</ele><time>2026-08-12T01:51:36.000Z</time></trkpt>
        <trkpt lat="29.574066" lon="103.392966"><ele>676.14185</ele><time>2026-08-12T01:51:40.000Z</time></trkpt>
        <trkpt lat="29.574065" lon="103.392915"><ele>675.7042</ele><time>2026-08-12T01:51:43.000Z</time></trkpt>
        <trkpt lat="29.574085" lon="103.392864"><ele>674.30615</ele><time>2026-08-12T01:51:48.000Z</time></trkpt>
        <trkpt lat="29.574103" lon="103.392804"><ele>673.23</ele><time>2026-08-12T01:51:54.000Z</time></trkpt>
        <trkpt lat="29.574136" lon="103.392766"><ele>672.2038</ele><time>2026-08-12T01:52:01.000Z</time></trkpt>
        <trkpt lat="29.57414" lon="103.392715"><ele>669.8842</ele><time>2026-08-12T01:52:11.000Z</time></trkpt>
        <trkpt lat="29.574122" lon="103.392658"><ele>667.9476</ele><time>2026-08-12T01:52:16.000Z</time></trkpt>
        <trkpt lat="29.574102" lon="103.392592"><ele>667.7193</ele><time>2026-08-12T01:52:21.000Z</time></trkpt>
        <trkpt lat="29.574081" lon="103.392541"><ele>666.9391</ele><time>2026-08-12T01:52:26.000Z</time></trkpt>
        <trkpt lat="29.574061" lon="103.392491"><ele>666.49994</ele><time>2026-08-12T01:52:31.000Z</time></trkpt>
        <trkpt lat="29.574051" lon="103.392435"><ele>665.93524</ele><time>2026-08-12T01:52:37.000Z</time></trkpt>
        <trkpt lat="29.574109" lon="103.392436"><ele>664.58875</ele><time>2026-08-12T01:52:46.000Z</time></trkpt>
        <trkpt lat="29.574139" lon="103.392396"><ele>662.8949</ele><time>2026-08-12T01:52:55.000Z</time></trkpt>
        <trkpt lat="29.574182" lon="103.392366"><ele>660.9893</ele><time>2026-08-12T01:53:19.000Z</time></trkpt>
        <trkpt lat="29.574192" lon="103.392314"><ele>660.0123</ele><time>2026-08-12T01:53:26.000Z</time></trkpt>
        <trkpt lat="29.57418" lon="103.392292"><ele>657.3443</ele><time>2026-08-12T01:53:38.000Z</time></trkpt>
        <trkpt lat="29.574176" lon="103.39229"><ele>657.3443</ele><time>2026-08-12T01:53:49.000Z</time></trkpt>
        <trkpt lat="29.57416" lon="103.392219"><ele>656.70435</ele><time>2026-08-12T01:53:55.000Z</time></trkpt>
        <trkpt lat="29.574166" lon="103.392159"><ele>656.5029</ele><time>2026-08-12T01:53:59.000Z</time></trkpt>
        <trkpt lat="29.574137" lon="103.39212"><ele>657.6472</ele><time>2026-08-12T01:54:07.000Z</time></trkpt>
        <trkpt lat="29.574098" lon="103.392087"><ele>657.4685</ele><time>2026-08-12T01:54:13.000Z</time></trkpt>
        <trkpt lat="29.574066" lon="103.392048"><ele>657.7737</ele><time>2026-08-12T01:54:38.000Z</time></trkpt>
        <trkpt lat="29.574015" lon="103.392044"><ele>657.43176</ele><time>2026-08-12T01:54:43.000Z</time></trkpt>
        <trkpt lat="29.57397" lon="103.392056"><ele>657.5465</ele><time>2026-08-12T01:54:49.000Z</time></trkpt>
        <trkpt lat="29.573925" lon="103.392065"><ele>656.7719</ele><time>2026-08-12T01:55:20.000Z</time></trkpt>
        <trkpt lat="29.573878" lon="103.392075"><ele>655.61755</ele><time>2026-08-12T01:55:27.000Z</time></trkpt>
        <trkpt lat="29.573827" lon="103.392072"><ele>654.69507</ele><time>2026-08-12T01:55:35.000Z</time></trkpt>
        <trkpt lat="29.573776" lon="103.392047"><ele>654.51733</ele><time>2026-08-12T01:55:40.000Z</time></trkpt>
        <trkpt lat="29.573737" lon="103.392021"><ele>654.61707</ele><time>2026-08-12T01:55:46.000Z</time></trkpt>
        <trkpt lat="29.573692" lon="103.391999"><ele>655.2478</ele><time>2026-08-12T01:55:53.000Z</time></trkpt>
        <trkpt lat="29.573649" lon="103.391969"><ele>654.55054</ele><time>2026-08-12T01:55:58.000Z</time></trkpt>
        <trkpt lat="29.573612" lon="103.391924"><ele>654.4617</ele><time>2026-08-12T01:56:04.000Z</time></trkpt>
        <trkpt lat="29.573594" lon="103.391871"><ele>654.33374</ele><time>2026-08-12T01:56:09.000Z</time></trkpt>
        <trkpt lat="29.573577" lon="103.391823"><ele>655.00024</ele><time>2026-08-12T01:56:21.000Z</time></trkpt>
        <trkpt lat="29.573532" lon="103.391808"><ele>655.748</ele><time>2026-08-12T01:56:25.000Z</time></trkpt>
        <trkpt lat="29.573529" lon="103.391861"><ele>655.3627</ele><time>2026-08-12T01:57:00.000Z</time></trkpt>
        <trkpt lat="29.573497" lon="103.391829"><ele>653.06964</ele><time>2026-08-12T02:00:25.000Z</time></trkpt>
        <trkpt lat="29.573464" lon="103.391792"><ele>653.00665</ele><time>2026-08-12T02:00:33.000Z</time></trkpt>
        <trkpt lat="29.573418" lon="103.391758"><ele>652.9288</ele><time>2026-08-12T02:00:38.000Z</time></trkpt>
        <trkpt lat="29.573379" lon="103.391726"><ele>652.4892</ele><time>2026-08-12T02:00:45.000Z</time></trkpt>
        <trkpt lat="29.573338" lon="103.391693"><ele>652.93445</ele><time>2026-08-12T02:00:51.000Z</time></trkpt>
        <trkpt lat="29.573296" lon="103.391661"><ele>653.16077</ele><time>2026-08-12T02:00:57.000Z</time></trkpt>
        <trkpt lat="29.573254" lon="103.391633"><ele>652.00055</ele><time>2026-08-12T02:01:03.000Z</time></trkpt>
        <trkpt lat="29.573208" lon="103.391627"><ele>651.6316</ele><time>2026-08-12T02:01:13.000Z</time></trkpt>
        <trkpt lat="29.57316" lon="103.39165"><ele>651.9182</ele><time>2026-08-12T02:01:22.000Z</time></trkpt>
        <trkpt lat="29.573119" lon="103.39168"><ele>652.6575</ele><time>2026-08-12T02:01:28.000Z</time></trkpt>
        <trkpt lat="29.573074" lon="103.391667"><ele>653.3641</ele><time>2026-08-12T02:01:33.000Z</time></trkpt>
        <trkpt lat="29.573027" lon="103.391693"><ele>653.7273</ele><time>2026-08-12T02:01:50.000Z</time></trkpt>
        <trkpt lat="29.572987" lon="103.391728"><ele>654.1584</ele><time>2026-08-12T02:01:54.000Z</time></trkpt>
        <trkpt lat="29.572945" lon="103.39176"><ele>655.18835</ele><time>2026-08-12T02:01:58.000Z</time></trkpt>
        <trkpt lat="29.572906" lon="103.391785"><ele>656.11554</ele><time>2026-08-12T02:02:02.000Z</time></trkpt>
        <trkpt lat="29.572853" lon="103.391802"><ele>655.9101</ele><time>2026-08-12T02:02:07.000Z</time></trkpt>
        <trkpt lat="29.572811" lon="103.391821"><ele>655.78815</ele><time>2026-08-12T02:02:11.000Z</time></trkpt>
        <trkpt lat="29.572771" lon="103.391852"><ele>655.8659</ele><time>2026-08-12T02:02:17.000Z</time></trkpt>
        <trkpt lat="29.572726" lon="103.391868"><ele>655.85077</ele><time>2026-08-12T02:02:23.000Z</time></trkpt>
        <trkpt lat="29.572683" lon="103.391839"><ele>656.3461</ele><time>2026-08-12T02:02:28.000Z</time></trkpt>
        <trkpt lat="29.572727" lon="103.391828"><ele>657.5178</ele><time>2026-08-12T02:03:23.000Z</time></trkpt>
        <trkpt lat="29.572774" lon="103.391816"><ele>657.9574</ele><time>2026-08-12T02:03:39.000Z</time></trkpt>
        <trkpt lat="29.572825" lon="103.391802"><ele>657.859</ele><time>2026-08-12T02:03:44.000Z</time></trkpt>
        <trkpt lat="29.572866" lon="103.391781"><ele>657.582</ele><time>2026-08-12T02:03:47.000Z</time></trkpt>
        <trkpt lat="29.572908" lon="103.391766"><ele>656.74524</ele><time>2026-08-12T02:03:57.000Z</time></trkpt>
        <trkpt lat="29.57296" lon="103.391745"><ele>656.8501</ele><time>2026-08-12T02:04:04.000Z</time></trkpt>
        <trkpt lat="29.573004" lon="103.391723"><ele>657.16895</ele><time>2026-08-12T02:04:08.000Z</time></trkpt>
        <trkpt lat="29.573042" lon="103.39169"><ele>657.9336</ele><time>2026-08-12T02:04:12.000Z</time></trkpt>
        <trkpt lat="29.573084" lon="103.391664"><ele>658.6223</ele><time>2026-08-12T02:04:16.000Z</time></trkpt>
        <trkpt lat="29.573135" lon="103.391672"><ele>659.17694</ele><time>2026-08-12T02:04:21.000Z</time></trkpt>
        <trkpt lat="29.57318" lon="103.391681"><ele>659.9577</ele><time>2026-08-12T02:04:29.000Z</time></trkpt>
        <trkpt lat="29.573227" lon="103.39169"><ele>659.9004</ele><time>2026-08-12T02:04:39.000Z</time></trkpt>
        <trkpt lat="29.573278" lon="103.391697"><ele>659.925</ele><time>2026-08-12T02:04:49.000Z</time></trkpt>
        <trkpt lat="29.573326" lon="103.391703"><ele>659.7791</ele><time>2026-08-12T02:04:55.000Z</time></trkpt>
        <trkpt lat="29.573381" lon="103.391699"><ele>659.5368</ele><time>2026-08-12T02:05:01.000Z</time></trkpt>
        <trkpt lat="29.573429" lon="103.391709"><ele>659.6093</ele><time>2026-08-12T02:05:05.000Z</time></trkpt>
        <trkpt lat="29.573473" lon="103.391737"><ele>658.8929</ele><time>2026-08-12T02:05:10.000Z</time></trkpt>
        <trkpt lat="29.573513" lon="103.391774"><ele>658.4037</ele><time>2026-08-12T02:05:16.000Z</time></trkpt>
        <trkpt lat="29.573551" lon="103.391821"><ele>657.84607</ele><time>2026-08-12T02:05:21.000Z</time></trkpt>
        <trkpt lat="29.573583" lon="103.391865"><ele>657.0976</ele><time>2026-08-12T02:05:26.000Z</time></trkpt>
        <trkpt lat="29.57362" lon="103.391906"><ele>656.5192</ele><time>2026-08-12T02:05:31.000Z</time></trkpt>
        <trkpt lat="29.573657" lon="103.391939"><ele>656.0466</ele><time>2026-08-12T02:05:36.000Z</time></trkpt>
        <trkpt lat="29.573697" lon="103.391981"><ele>655.8328</ele><time>2026-08-12T02:05:42.000Z</time></trkpt>
        <trkpt lat="29.57374" lon="103.39202"><ele>654.95874</ele><time>2026-08-12T02:05:47.000Z</time></trkpt>
        <trkpt lat="29.57378" lon="103.392051"><ele>654.8195</ele><time>2026-08-12T02:05:51.000Z</time></trkpt>
        <trkpt lat="29.573823" lon="103.392074"><ele>654.01556</ele><time>2026-08-12T02:05:56.000Z</time></trkpt>
        <trkpt lat="29.57387" lon="103.392085"><ele>653.4176</ele><time>2026-08-12T02:06:01.000Z</time></trkpt>
        <trkpt lat="29.573905" lon="103.392049"><ele>652.84564</ele><time>2026-08-12T02:06:17.000Z</time></trkpt>
        <trkpt lat="29.573954" lon="103.392029"><ele>652.0734</ele><time>2026-08-12T02:06:29.000Z</time></trkpt>
        <trkpt lat="29.573996" lon="103.391997"><ele>652.73566</ele><time>2026-08-12T02:06:34.000Z</time></trkpt>
        <trkpt lat="29.574047" lon="103.392002"><ele>654.2598</ele><time>2026-08-12T02:07:33.000Z</time></trkpt>
        <trkpt lat="29.57409" lon="103.392025"><ele>654.14014</ele><time>2026-08-12T02:07:39.000Z</time></trkpt>
        <trkpt lat="29.574119" lon="103.392064"><ele>653.4699</ele><time>2026-08-12T02:07:47.000Z</time></trkpt>
        <trkpt lat="29.574145" lon="103.392112"><ele>652.61</ele><time>2026-08-12T02:07:54.000Z</time></trkpt>
        <trkpt lat="29.574173" lon="103.392157"><ele>652.814</ele><time>2026-08-12T02:08:00.000Z</time></trkpt>
        <trkpt lat="29.574194" lon="103.392205"><ele>652.7675</ele><time>2026-08-12T02:08:20.000Z</time></trkpt>
        <trkpt lat="29.574241" lon="103.392184"><ele>652.3202</ele><time>2026-08-12T02:08:37.000Z</time></trkpt>
        <trkpt lat="29.57429" lon="103.392178"><ele>652.6259</ele><time>2026-08-12T02:08:44.000Z</time></trkpt>
        <trkpt lat="29.574328" lon="103.39215"><ele>653.14386</ele><time>2026-08-12T02:08:48.000Z</time></trkpt>
        <trkpt lat="29.574365" lon="103.392176"><ele>651.7148</ele><time>2026-08-12T02:10:43.000Z</time></trkpt>
        <trkpt lat="29.574378" lon="103.392126"><ele>652.66034</ele><time>2026-08-12T02:15:32.000Z</time></trkpt>
        <trkpt lat="29.574431" lon="103.392112"><ele>653.1416</ele><time>2026-08-12T02:15:47.000Z</time></trkpt>
        <trkpt lat="29.574476" lon="103.392102"><ele>654.3292</ele><time>2026-08-12T02:15:51.000Z</time></trkpt>
        <trkpt lat="29.57452" lon="103.392097"><ele>655.2375</ele><time>2026-08-12T02:18:09.000Z</time></trkpt>
        <trkpt lat="29.574569" lon="103.392102"><ele>655.06573</ele><time>2026-08-12T02:18:16.000Z</time></trkpt>
        <trkpt lat="29.574618" lon="103.392105"><ele>655.43854</ele><time>2026-08-12T02:18:29.000Z</time></trkpt>
        <trkpt lat="29.574665" lon="103.392095"><ele>655.9963</ele><time>2026-08-12T02:18:38.000Z</time></trkpt>
        <trkpt lat="29.574711" lon="103.3921"><ele>656.66705</ele><time>2026-08-12T02:18:52.000Z</time></trkpt>
        <trkpt lat="29.574754" lon="103.392099"><ele>658.2198</ele><time>2026-08-12T02:19:14.000Z</time></trkpt>
        <trkpt lat="29.574801" lon="103.392083"><ele>659.07</ele><time>2026-08-12T02:19:32.000Z</time></trkpt>
        <trkpt lat="29.574847" lon="103.392071"><ele>659.60425</ele><time>2026-08-12T02:19:39.000Z</time></trkpt>
        <trkpt lat="29.574889" lon="103.392056"><ele>661.43445</ele><time>2026-08-12T02:19:46.000Z</time></trkpt>
        <trkpt lat="29.574929" lon="103.392029"><ele>663.22546</ele><time>2026-08-12T02:19:54.000Z</time></trkpt>
        <trkpt lat="29.574974" lon="103.392007"><ele>664.0726</ele><time>2026-08-12T02:20:04.000Z</time></trkpt>
        <trkpt lat="29.57502" lon="103.391991"><ele>665.0188</ele><time>2026-08-12T02:20:13.000Z</time></trkpt>
        <trkpt lat="29.575062" lon="103.39197"><ele>665.717</ele><time>2026-08-12T02:20:23.000Z</time></trkpt>
        <trkpt lat="29.575109" lon="103.391953"><ele>666.4839</ele><time>2026-08-12T02:20:32.000Z</time></trkpt>
        <trkpt lat="29.575151" lon="103.391934"><ele>667.4032</ele><time>2026-08-12T02:20:40.000Z</time></trkpt>
        <trkpt lat="29.575188" lon="103.391913"><ele>669.6832</ele><time>2026-08-12T02:20:51.000Z</time></trkpt>
        <trkpt lat="29.57523" lon="103.391906"><ele>672.0137</ele><time>2026-08-12T02:20:58.000Z</time></trkpt>
        <trkpt lat="29.57527" lon="103.391891"><ele>673.9444</ele><time>2026-08-12T02:21:07.000Z</time></trkpt>
        <trkpt lat="29.575314" lon="103.391871"><ele>675.7917</ele><time>2026-08-12T02:21:30.000Z</time></trkpt>
        <trkpt lat="29.575356" lon="103.391856"><ele>677.25793</ele><time>2026-08-12T02:21:41.000Z</time></trkpt>
        <trkpt lat="29.575393" lon="103.391836"><ele>679.57855</ele><time>2026-08-12T02:22:07.000Z</time></trkpt>
        <trkpt lat="29.575439" lon="103.391834"><ele>680.4802</ele><time>2026-08-12T02:23:16.000Z</time></trkpt>
        <trkpt lat="29.575486" lon="103.391847"><ele>681.80054</ele><time>2026-08-12T02:23:31.000Z</time></trkpt>
        <trkpt lat="29.57553" lon="103.39186"><ele>683.07385</ele><time>2026-08-12T02:23:46.000Z</time></trkpt>
        <trkpt lat="29.575577" lon="103.391869"><ele>683.14795</ele><time>2026-08-12T02:24:28.000Z</time></trkpt>
        <trkpt lat="29.575621" lon="103.391885"><ele>684.05457</ele><time>2026-08-12T02:24:41.000Z</time></trkpt>
        <trkpt lat="29.57567" lon="103.391894"><ele>685.01624</ele><time>2026-08-12T02:24:52.000Z</time></trkpt>
        <trkpt lat="29.575717" lon="103.391885"><ele>686.06793</ele><time>2026-08-12T02:24:58.000Z</time></trkpt>
        <trkpt lat="29.575764" lon="103.391871"><ele>687.8297</ele><time>2026-08-12T02:25:05.000Z</time></trkpt>
        <trkpt lat="29.575808" lon="103.391863"><ele>689.9189</ele><time>2026-08-12T02:25:13.000Z</time></trkpt>
        <trkpt lat="29.575846" lon="103.39186"><ele>692.7172</ele><time>2026-08-12T02:25:20.000Z</time></trkpt>
        <trkpt lat="29.575884" lon="103.39186"><ele>696.0821</ele><time>2026-08-12T02:25:28.000Z</time></trkpt>
        <trkpt lat="29.575919" lon="103.391854"><ele>699.68</ele><time>2026-08-12T02:25:36.000Z</time></trkpt>
        <trkpt lat="29.575959" lon="103.391874"><ele>701.76154</ele><time>2026-08-12T02:25:42.000Z</time></trkpt>
        <trkpt lat="29.576" lon="103.391896"><ele>703.67993</ele><time>2026-08-12T02:25:48.000Z</time></trkpt>
        <trkpt lat="29.576049" lon="103.391911"><ele>705.4922</ele><time>2026-08-12T02:25:54.000Z</time></trkpt>
        <trkpt lat="29.576097" lon="103.391912"><ele>706.3478</ele><time>2026-08-12T02:26:18.000Z</time></trkpt>
        <trkpt lat="29.576144" lon="103.39192"><ele>706.6864</ele><time>2026-08-12T02:26:27.000Z</time></trkpt>
        <trkpt lat="29.576188" lon="103.391926"><ele>707.7726</ele><time>2026-08-12T02:26:36.000Z</time></trkpt>
        <trkpt lat="29.576234" lon="103.391929"><ele>709.29</ele><time>2026-08-12T02:26:43.000Z</time></trkpt>
        <trkpt lat="29.57628" lon="103.391944"><ele>711.1485</ele><time>2026-08-12T02:26:55.000Z</time></trkpt>
        <trkpt lat="29.576324" lon="103.391955"><ele>711.8982</ele><time>2026-08-12T02:27:06.000Z</time></trkpt>
        <trkpt lat="29.576366" lon="103.391948"><ele>713.9272</ele><time>2026-08-12T02:27:21.000Z</time></trkpt>
        <trkpt lat="29.57641" lon="103.391942"><ele>715.38776</ele><time>2026-08-12T02:27:31.000Z</time></trkpt>
        <trkpt lat="29.576457" lon="103.391938"><ele>715.91864</ele><time>2026-08-12T02:27:37.000Z</time></trkpt>
        <trkpt lat="29.576502" lon="103.391937"><ele>716.3969</ele><time>2026-08-12T02:27:44.000Z</time></trkpt>
        <trkpt lat="29.576548" lon="103.391937"><ele>717.48425</ele><time>2026-08-12T02:27:51.000Z</time></trkpt>
        <trkpt lat="29.576586" lon="103.391913"><ele>718.8547</ele><time>2026-08-12T02:28:06.000Z</time></trkpt>
        <trkpt lat="29.576631" lon="103.391901"><ele>719.22455</ele><time>2026-08-12T02:28:12.000Z</time></trkpt>
        <trkpt lat="29.57668" lon="103.391881"><ele>720.1195</ele><time>2026-08-12T02:28:19.000Z</time></trkpt>
        <trkpt lat="29.576718" lon="103.391843"><ele>721.2086</ele><time>2026-08-12T02:28:26.000Z</time></trkpt>
        <trkpt lat="29.576746" lon="103.391801"><ele>722.68835</ele><time>2026-08-12T02:28:33.000Z</time></trkpt>
        <trkpt lat="29.576767" lon="103.391753"><ele>724.5737</ele><time>2026-08-12T02:28:44.000Z</time></trkpt>
        <trkpt lat="29.576785" lon="103.391706"><ele>725.79205</ele><time>2026-08-12T02:29:56.000Z</time></trkpt>
        <trkpt lat="29.576798" lon="103.391661"><ele>727.9543</ele><time>2026-08-12T02:30:02.000Z</time></trkpt>
        <trkpt lat="29.576811" lon="103.391604"><ele>727.9379</ele><time>2026-08-12T02:30:09.000Z</time></trkpt>
        <trkpt lat="29.576829" lon="103.391549"><ele>728.7952</ele><time>2026-08-12T02:30:16.000Z</time></trkpt>
        <trkpt lat="29.576843" lon="103.3915"><ele>729.4594</ele><time>2026-08-12T02:30:24.000Z</time></trkpt>
        <trkpt lat="29.576873" lon="103.391459"><ele>730.848</ele><time>2026-08-12T02:30:29.000Z</time></trkpt>
        <trkpt lat="29.576896" lon="103.391416"><ele>731.9578</ele><time>2026-08-12T02:30:35.000Z</time></trkpt>
        <trkpt lat="29.576914" lon="103.39137"><ele>733.81445</ele><time>2026-08-12T02:30:42.000Z</time></trkpt>
        <trkpt lat="29.576939" lon="103.391329"><ele>735.2103</ele><time>2026-08-12T02:30:53.000Z</time></trkpt>
        <trkpt lat="29.576959" lon="103.391279"><ele>736.45996</ele><time>2026-08-12T02:31:01.000Z</time></trkpt>
        <trkpt lat="29.576987" lon="103.391229"><ele>737.232</ele><time>2026-08-12T02:31:08.000Z</time></trkpt>
        <trkpt lat="29.577016" lon="103.391186"><ele>737.71576</ele><time>2026-08-12T02:31:13.000Z</time></trkpt>
        <trkpt lat="29.577046" lon="103.391143"><ele>738.9942</ele><time>2026-08-12T02:31:19.000Z</time></trkpt>
        <trkpt lat="29.577074" lon="103.391094"><ele>739.81244</ele><time>2026-08-12T02:31:27.000Z</time></trkpt>
        <trkpt lat="29.577094" lon="103.391045"><ele>740.22064</ele><time>2026-08-12T02:31:36.000Z</time></trkpt>
        <trkpt lat="29.577124" lon="103.391005"><ele>740.16156</ele><time>2026-08-12T02:31:46.000Z</time></trkpt>
        <trkpt lat="29.57716" lon="103.390965"><ele>740.4605</ele><time>2026-08-12T02:31:55.000Z</time></trkpt>
        <trkpt lat="29.577202" lon="103.390941"><ele>741.2649</ele><time>2026-08-12T02:32:02.000Z</time></trkpt>
        <trkpt lat="29.577252" lon="103.390923"><ele>743.0918</ele><time>2026-08-12T02:32:09.000Z</time></trkpt>
        <trkpt lat="29.577298" lon="103.390921"><ele>743.2541</ele><time>2026-08-12T02:32:15.000Z</time></trkpt>
        <trkpt lat="29.577345" lon="103.390921"><ele>743.31555</ele><time>2026-08-12T02:32:25.000Z</time></trkpt>
        <trkpt lat="29.577397" lon="103.390929"><ele>743.48987</ele><time>2026-08-12T02:32:37.000Z</time></trkpt>
        <trkpt lat="29.577443" lon="103.39095"><ele>743.3411</ele><time>2026-08-12T02:32:44.000Z</time></trkpt>
        <trkpt lat="29.577488" lon="103.390966"><ele>743.25684</ele><time>2026-08-12T02:32:51.000Z</time></trkpt>
        <trkpt lat="29.577533" lon="103.390976"><ele>744.3922</ele><time>2026-08-12T02:33:02.000Z</time></trkpt>
        <trkpt lat="29.57758" lon="103.390987"><ele>744.3618</ele><time>2026-08-12T02:33:42.000Z</time></trkpt>
        <trkpt lat="29.577623" lon="103.391001"><ele>745.34656</ele><time>2026-08-12T02:33:50.000Z</time></trkpt>
        <trkpt lat="29.577667" lon="103.391014"><ele>746.13043</ele><time>2026-08-12T02:34:00.000Z</time></trkpt>
        <trkpt lat="29.57771" lon="103.391039"><ele>746.3943</ele><time>2026-08-12T02:34:11.000Z</time></trkpt>
        <trkpt lat="29.577756" lon="103.391046"><ele>746.38947</ele><time>2026-08-12T02:34:23.000Z</time></trkpt>
        <trkpt lat="29.577799" lon="103.391069"><ele>748.2916</ele><time>2026-08-12T02:34:33.000Z</time></trkpt>
        <trkpt lat="29.577837" lon="103.391081"><ele>750.9323</ele><time>2026-08-12T02:34:58.000Z</time></trkpt>
        <trkpt lat="29.577872" lon="103.391072"><ele>754.08636</ele><time>2026-08-12T02:36:08.000Z</time></trkpt>
        <trkpt lat="29.577892" lon="103.391026"><ele>754.9562</ele><time>2026-08-12T02:36:26.000Z</time></trkpt>
        <trkpt lat="29.57791" lon="103.390974"><ele>755.84076</ele><time>2026-08-12T02:36:33.000Z</time></trkpt>
        <trkpt lat="29.577946" lon="103.390937"><ele>756.0452</ele><time>2026-08-12T02:36:40.000Z</time></trkpt>
        <trkpt lat="29.577969" lon="103.390893"><ele>756.9385</ele><time>2026-08-12T02:36:48.000Z</time></trkpt>
        <trkpt lat="29.578" lon="103.390845"><ele>756.1629</ele><time>2026-08-12T02:36:55.000Z</time></trkpt>
        <trkpt lat="29.578017" lon="103.390795"><ele>755.99536</ele><time>2026-08-12T02:37:04.000Z</time></trkpt>
        <trkpt lat="29.578038" lon="103.390748"><ele>755.9037</ele><time>2026-08-12T02:37:23.000Z</time></trkpt>
        <trkpt lat="29.578065" lon="103.390706"><ele>756.2433</ele><time>2026-08-12T02:37:28.000Z</time></trkpt>
        <trkpt lat="29.57808" lon="103.390655"><ele>755.8191</ele><time>2026-08-12T02:37:44.000Z</time></trkpt>
        <trkpt lat="29.578122" lon="103.390619"><ele>756.1294</ele><time>2026-08-12T02:37:51.000Z</time></trkpt>
        <trkpt lat="29.578152" lon="103.390571"><ele>756.5172</ele><time>2026-08-12T02:37:57.000Z</time></trkpt>
        <trkpt lat="29.578167" lon="103.390522"><ele>756.2866</ele><time>2026-08-12T02:38:02.000Z</time></trkpt>
        <trkpt lat="29.578182" lon="103.390465"><ele>756.33374</ele><time>2026-08-12T02:38:09.000Z</time></trkpt>
        <trkpt lat="29.5782" lon="103.390416"><ele>756.4702</ele><time>2026-08-12T02:38:16.000Z</time></trkpt>
        <trkpt lat="29.578221" lon="103.39037"><ele>757.45044</ele><time>2026-08-12T02:38:22.000Z</time></trkpt>
        <trkpt lat="29.578253" lon="103.390328"><ele>757.5627</ele><time>2026-08-12T02:38:30.000Z</time></trkpt>
        <trkpt lat="29.578278" lon="103.390285"><ele>757.67303</ele><time>2026-08-12T02:38:41.000Z</time></trkpt>
        <trkpt lat="29.578299" lon="103.390235"><ele>758.22485</ele><time>2026-08-12T02:38:48.000Z</time></trkpt>
        <trkpt lat="29.578311" lon="103.390184"><ele>758.35504</ele><time>2026-08-12T02:38:54.000Z</time></trkpt>
        <trkpt lat="29.578336" lon="103.390137"><ele>759.0881</ele><time>2026-08-12T02:39:02.000Z</time></trkpt>
        <trkpt lat="29.578367" lon="103.39009"><ele>759.1905</ele><time>2026-08-12T02:39:09.000Z</time></trkpt>
        <trkpt lat="29.578392" lon="103.390038"><ele>759.2698</ele><time>2026-08-12T02:39:16.000Z</time></trkpt>
        <trkpt lat="29.578412" lon="103.389988"><ele>759.1608</ele><time>2026-08-12T02:39:23.000Z</time></trkpt>
        <trkpt lat="29.578432" lon="103.389941"><ele>759.9378</ele><time>2026-08-12T02:39:30.000Z</time></trkpt>
        <trkpt lat="29.578443" lon="103.389891"><ele>760.5383</ele><time>2026-08-12T02:39:36.000Z</time></trkpt>
        <trkpt lat="29.578409" lon="103.389854"><ele>762.43896</ele><time>2026-08-12T02:39:45.000Z</time></trkpt>
        <trkpt lat="29.578427" lon="103.389804"><ele>762.6045</ele><time>2026-08-12T02:40:08.000Z</time></trkpt>
        <trkpt lat="29.578463" lon="103.389767"><ele>762.50574</ele><time>2026-08-12T02:40:14.000Z</time></trkpt>
        <trkpt lat="29.578481" lon="103.389722"><ele>763.98944</ele><time>2026-08-12T02:40:20.000Z</time></trkpt>
        <trkpt lat="29.578494" lon="103.389672"><ele>763.663</ele><time>2026-08-12T02:40:26.000Z</time></trkpt>
        <trkpt lat="29.578468" lon="103.38963"><ele>764.6357</ele><time>2026-08-12T02:40:55.000Z</time></trkpt>
        <trkpt lat="29.578475" lon="103.389573"><ele>765.925</ele><time>2026-08-12T02:41:12.000Z</time></trkpt>
        <trkpt lat="29.578476" lon="103.38952"><ele>765.15454</ele><time>2026-08-12T02:41:16.000Z</time></trkpt>
        <trkpt lat="29.57847" lon="103.389465"><ele>765.1988</ele><time>2026-08-12T02:41:22.000Z</time></trkpt>
        <trkpt lat="29.578467" lon="103.389413"><ele>765.06415</ele><time>2026-08-12T02:41:40.000Z</time></trkpt>
        <trkpt lat="29.578443" lon="103.389358"><ele>765.82635</ele><time>2026-08-12T02:41:46.000Z</time></trkpt>
        <trkpt lat="29.578411" lon="103.389307"><ele>765.96576</ele><time>2026-08-12T02:41:51.000Z</time></trkpt>
        <trkpt lat="29.578369" lon="103.389273"><ele>766.56793</ele><time>2026-08-12T02:41:56.000Z</time></trkpt>
        <trkpt lat="29.578331" lon="103.38923"><ele>766.1213</ele><time>2026-08-12T02:42:01.000Z</time></trkpt>
        <trkpt lat="29.578309" lon="103.389178"><ele>765.4377</ele><time>2026-08-12T02:42:07.000Z</time></trkpt>
        <trkpt lat="29.5783" lon="103.389123"><ele>764.199</ele><time>2026-08-12T02:42:14.000Z</time></trkpt>
        <trkpt lat="29.578304" lon="103.38907"><ele>762.8703</ele><time>2026-08-12T02:42:19.000Z</time></trkpt>
        <trkpt lat="29.578336" lon="103.389026"><ele>761.7998</ele><time>2026-08-12T02:42:25.000Z</time></trkpt>
        <trkpt lat="29.578369" lon="103.388986"><ele>761.7114</ele><time>2026-08-12T02:42:32.000Z</time></trkpt>
        <trkpt lat="29.578399" lon="103.38901"><ele>764.9087</ele><time>2026-08-12T02:43:00.000Z</time></trkpt>
        <trkpt lat="29.578427" lon="103.389052"><ele>765.3937</ele><time>2026-08-12T02:43:08.000Z</time></trkpt>
        <trkpt lat="29.578452" lon="103.389103"><ele>765.58307</ele><time>2026-08-12T02:43:16.000Z</time></trkpt>
        <trkpt lat="29.578454" lon="103.389158"><ele>765.9998</ele><time>2026-08-12T02:43:23.000Z</time></trkpt>
        <trkpt lat="29.578469" lon="103.389106"><ele>766.2913</ele><time>2026-08-12T02:44:12.000Z</time></trkpt>
        <trkpt lat="29.578488" lon="103.389059"><ele>766.6223</ele><time>2026-08-12T02:44:18.000Z</time></trkpt>
        <trkpt lat="29.578468" lon="103.389015"><ele>768.29895</ele><time>2026-08-12T02:44:28.000Z</time></trkpt>
        <trkpt lat="29.578444" lon="103.38906"><ele>768.8746</ele><time>2026-08-12T02:44:43.000Z</time></trkpt>
        <trkpt lat="29.578441" lon="103.389118"><ele>768.58466</ele><time>2026-08-12T02:44:48.000Z</time></trkpt>
        <trkpt lat="29.578441" lon="103.38917"><ele>768.22565</ele><time>2026-08-12T02:44:55.000Z</time></trkpt>
        <trkpt lat="29.578456" lon="103.389194"><ele>768.12756</ele><time>2026-08-12T02:45:28.000Z</time></trkpt>
        <trkpt lat="29.578456" lon="103.389194"><ele>768.12756</ele><time>2026-08-12T02:45:41.000Z</time></trkpt>
        <trkpt lat="29.578435" lon="103.389143"><ele>769.0351</ele><time>2026-08-12T02:46:21.000Z</time></trkpt>
        <trkpt lat="29.578428" lon="103.389089"><ele>767.87384</ele><time>2026-08-12T02:46:27.000Z</time></trkpt>
        <trkpt lat="29.5784" lon="103.389041"><ele>767.28595</ele><time>2026-08-12T02:46:34.000Z</time></trkpt>
        <trkpt lat="29.578363" lon="103.389006"><ele>766.5072</ele><time>2026-08-12T02:46:42.000Z</time></trkpt>
        <trkpt lat="29.578362" lon="103.388952"><ele>766.25806</ele><time>2026-08-12T02:46:49.000Z</time></trkpt>
        <trkpt lat="29.578388" lon="103.388899"><ele>766.4006</ele><time>2026-08-12T02:46:55.000Z</time></trkpt>
        <trkpt lat="29.578409" lon="103.388851"><ele>766.7976</ele><time>2026-08-12T02:47:00.000Z</time></trkpt>
        <trkpt lat="29.578441" lon="103.388807"><ele>767.162</ele><time>2026-08-12T02:47:07.000Z</time></trkpt>
        <trkpt lat="29.578487" lon="103.388798"><ele>767.5703</ele><time>2026-08-12T02:47:12.000Z</time></trkpt>
        <trkpt lat="29.578538" lon="103.3888"><ele>767.4874</ele><time>2026-08-12T02:47:17.000Z</time></trkpt>
        <trkpt lat="29.578587" lon="103.388807"><ele>767.39453</ele><time>2026-08-12T02:47:23.000Z</time></trkpt>
        <trkpt lat="29.578636" lon="103.388818"><ele>767.62604</ele><time>2026-08-12T02:47:29.000Z</time></trkpt>
        <trkpt lat="29.578681" lon="103.388819"><ele>767.97766</ele><time>2026-08-12T02:47:36.000Z</time></trkpt>
        <trkpt lat="29.57873" lon="103.388811"><ele>768.0081</ele><time>2026-08-12T02:47:43.000Z</time></trkpt>
        <trkpt lat="29.578777" lon="103.38879"><ele>768.53577</ele><time>2026-08-12T02:47:48.000Z</time></trkpt>
        <trkpt lat="29.578811" lon="103.388754"><ele>767.7279</ele><time>2026-08-12T02:47:53.000Z</time></trkpt>
        <trkpt lat="29.578838" lon="103.388709"><ele>767.0685</ele><time>2026-08-12T02:47:59.000Z</time></trkpt>
        <trkpt lat="29.578862" lon="103.388665"><ele>767.7386</ele><time>2026-08-12T02:48:06.000Z</time></trkpt>
        <trkpt lat="29.578904" lon="103.388646"><ele>768.482</ele><time>2026-08-12T02:48:14.000Z</time></trkpt>
        <trkpt lat="29.578945" lon="103.388624"><ele>769.54083</ele><time>2026-08-12T02:48:25.000Z</time></trkpt>
        <trkpt lat="29.578968" lon="103.38858"><ele>770.6761</ele><time>2026-08-12T02:48:45.000Z</time></trkpt>
        <trkpt lat="29.578973" lon="103.388549"><ele>770.6761</ele><time>2026-08-12T02:48:58.000Z</time></trkpt>
        <trkpt lat="29.579009" lon="103.388518"><ele>770.7148</ele><time>2026-08-12T02:49:06.000Z</time></trkpt>
        <trkpt lat="29.57904" lon="103.388482"><ele>772.0546</ele><time>2026-08-12T02:49:36.000Z</time></trkpt>
        <trkpt lat="29.579028" lon="103.388423"><ele>773.2088</ele><time>2026-08-12T02:49:44.000Z</time></trkpt>
        <trkpt lat="29.579013" lon="103.388364"><ele>773.23364</ele><time>2026-08-12T02:49:49.000Z</time></trkpt>
        <trkpt lat="29.578991" lon="103.388319"><ele>773.8323</ele><time>2026-08-12T02:49:54.000Z</time></trkpt>
        <trkpt lat="29.578954" lon="103.38829"><ele>774.56525</ele><time>2026-08-12T02:50:01.000Z</time></trkpt>
        <trkpt lat="29.578971" lon="103.388241"><ele>775.4666</ele><time>2026-08-12T02:50:11.000Z</time></trkpt>
        <trkpt lat="29.578989" lon="103.388195"><ele>776.8415</ele><time>2026-08-12T02:50:39.000Z</time></trkpt>
        <trkpt lat="29.578991" lon="103.388143"><ele>777.12885</ele><time>2026-08-12T02:50:46.000Z</time></trkpt>
        <trkpt lat="29.578994" lon="103.388087"><ele>776.9041</ele><time>2026-08-12T02:50:55.000Z</time></trkpt>
        <trkpt lat="29.578972" lon="103.388039"><ele>777.33356</ele><time>2026-08-12T02:51:05.000Z</time></trkpt>
        <trkpt lat="29.578956" lon="103.38799"><ele>776.9084</ele><time>2026-08-12T02:51:14.000Z</time></trkpt>
        <trkpt lat="29.578945" lon="103.387937"><ele>777.3782</ele><time>2026-08-12T02:51:29.000Z</time></trkpt>
        <trkpt lat="29.578952" lon="103.387883"><ele>777.963</ele><time>2026-08-12T02:51:42.000Z</time></trkpt>
        <trkpt lat="29.578959" lon="103.38783"><ele>777.99365</ele><time>2026-08-12T02:51:55.000Z</time></trkpt>
        <trkpt lat="29.578963" lon="103.387779"><ele>778.67975</ele><time>2026-08-12T02:52:04.000Z</time></trkpt>
        <trkpt lat="29.578953" lon="103.387728"><ele>780.34467</ele><time>2026-08-12T02:52:12.000Z</time></trkpt>
        <trkpt lat="29.578954" lon="103.387677"><ele>781.3339</ele><time>2026-08-12T02:52:18.000Z</time></trkpt>
        <trkpt lat="29.578952" lon="103.387623"><ele>781.862</ele><time>2026-08-12T02:52:23.000Z</time></trkpt>
        <trkpt lat="29.578954" lon="103.38757"><ele>782.78174</ele><time>2026-08-12T02:52:28.000Z</time></trkpt>
        <trkpt lat="29.578986" lon="103.387531"><ele>783.03296</ele><time>2026-08-12T02:52:35.000Z</time></trkpt>
        <trkpt lat="29.579007" lon="103.387483"><ele>783.5184</ele><time>2026-08-12T02:52:41.000Z</time></trkpt>
        <trkpt lat="29.579009" lon="103.38743"><ele>784.5109</ele><time>2026-08-12T02:52:46.000Z</time></trkpt>
        <trkpt lat="29.579023" lon="103.387375"><ele>785.16125</ele><time>2026-08-12T02:52:52.000Z</time></trkpt>
        <trkpt lat="29.579063" lon="103.387344"><ele>785.99036</ele><time>2026-08-12T02:53:02.000Z</time></trkpt>
        <trkpt lat="29.578946" lon="103.387339"><ele>790.10785</ele><time>2026-08-12T02:54:09.000Z</time></trkpt>
        <trkpt lat="29.578973" lon="103.387361"><ele>793.69824</ele><time>2026-08-12T02:54:12.000Z</time></trkpt>
        <trkpt lat="29.578995" lon="103.387402"><ele>791.8475</ele><time>2026-08-12T02:54:16.000Z</time></trkpt>
        <trkpt lat="29.578967" lon="103.387358"><ele>790.5212</ele><time>2026-08-12T02:54:36.000Z</time></trkpt>
        <trkpt lat="29.578925" lon="103.387336"><ele>789.6586</ele><time>2026-08-12T02:58:45.000Z</time></trkpt>
        <trkpt lat="29.578917" lon="103.38729"><ele>791.6858</ele><time>2026-08-12T02:59:08.000Z</time></trkpt>
        <trkpt lat="29.578942" lon="103.387239"><ele>791.9435</ele><time>2026-08-12T02:59:47.000Z</time></trkpt>
        <trkpt lat="29.578949" lon="103.387185"><ele>790.7554</ele><time>2026-08-12T02:59:52.000Z</time></trkpt>
        <trkpt lat="29.578945" lon="103.387131"><ele>790.9482</ele><time>2026-08-12T02:59:58.000Z</time></trkpt>
        <trkpt lat="29.578949" lon="103.387081"><ele>792.86804</ele><time>2026-08-12T03:00:04.000Z</time></trkpt>
        <trkpt lat="29.57892" lon="103.387042"><ele>794.1938</ele><time>2026-08-12T03:00:09.000Z</time></trkpt>
        <trkpt lat="29.578924" lon="103.38699"><ele>793.9642</ele><time>2026-08-12T03:00:17.000Z</time></trkpt>
        <trkpt lat="29.578965" lon="103.387009"><ele>792.7195</ele><time>2026-08-12T03:06:33.000Z</time></trkpt>
        <trkpt lat="29.578974" lon="103.38706"><ele>794.05194</ele><time>2026-08-12T03:37:23.000Z</time></trkpt>
        <trkpt lat="29.578996" lon="103.38711"><ele>794.624</ele><time>2026-08-12T03:39:46.000Z</time></trkpt>
        <trkpt lat="29.579034" lon="103.387075"><ele>794.31995</ele><time>2026-08-12T03:40:00.000Z</time></trkpt>
        <trkpt lat="29.579058" lon="103.387032"><ele>796.0198</ele><time>2026-08-12T03:40:29.000Z</time></trkpt>
        <trkpt lat="29.579089" lon="103.386992"><ele>795.7741</ele><time>2026-08-12T03:41:03.000Z</time></trkpt>
        <trkpt lat="29.579113" lon="103.386944"><ele>795.90076</ele><time>2026-08-12T03:41:20.000Z</time></trkpt>
        <trkpt lat="29.579141" lon="103.3869"><ele>796.63416</ele><time>2026-08-12T03:41:29.000Z</time></trkpt>
        <trkpt lat="29.579175" lon="103.386865"><ele>798.00574</ele><time>2026-08-12T03:41:39.000Z</time></trkpt>
        <trkpt lat="29.57921" lon="103.38683"><ele>798.0653</ele><time>2026-08-12T03:42:05.000Z</time></trkpt>
        <trkpt lat="29.579237" lon="103.386784"><ele>798.567</ele><time>2026-08-12T03:42:18.000Z</time></trkpt>
        <trkpt lat="29.579256" lon="103.386737"><ele>799.6022</ele><time>2026-08-12T03:42:31.000Z</time></trkpt>
        <trkpt lat="29.579292" lon="103.386706"><ele>801.059</ele><time>2026-08-12T03:42:43.000Z</time></trkpt>
        <trkpt lat="29.579315" lon="103.386662"><ele>802.63763</ele><time>2026-08-12T03:42:54.000Z</time></trkpt>
        <trkpt lat="29.579324" lon="103.386609"><ele>803.566</ele><time>2026-08-12T03:43:10.000Z</time></trkpt>
        <trkpt lat="29.579339" lon="103.386557"><ele>804.6426</ele><time>2026-08-12T03:43:28.000Z</time></trkpt>
        <trkpt lat="29.579351" lon="103.386507"><ele>804.80524</ele><time>2026-08-12T03:43:35.000Z</time></trkpt>
        <trkpt lat="29.579374" lon="103.386462"><ele>806.1553</ele><time>2026-08-12T03:43:51.000Z</time></trkpt>
        <trkpt lat="29.57937" lon="103.386405"><ele>807.8727</ele><time>2026-08-12T03:44:50.000Z</time></trkpt>
        <trkpt lat="29.579375" lon="103.386348"><ele>807.7259</ele><time>2026-08-12T03:45:01.000Z</time></trkpt>
        <trkpt lat="29.579381" lon="103.386297"><ele>808.3103</ele><time>2026-08-12T03:45:07.000Z</time></trkpt>
        <trkpt lat="29.579381" lon="103.386242"><ele>809.4424</ele><time>2026-08-12T03:45:15.000Z</time></trkpt>
        <trkpt lat="29.57941" lon="103.386194"><ele>810.2699</ele><time>2026-08-12T03:45:22.000Z</time></trkpt>
        <trkpt lat="29.579427" lon="103.38615"><ele>812.13055</ele><time>2026-08-12T03:45:33.000Z</time></trkpt>
        <trkpt lat="29.579435" lon="103.386101"><ele>814.49225</ele><time>2026-08-12T03:45:45.000Z</time></trkpt>
        <trkpt lat="29.57945" lon="103.386051"><ele>816.4048</ele><time>2026-08-12T03:45:58.000Z</time></trkpt>
        <trkpt lat="29.579444" lon="103.386008"><ele>820.2166</ele><time>2026-08-12T03:46:12.000Z</time></trkpt>
        <trkpt lat="29.57944" lon="103.385954"><ele>822.42914</ele><time>2026-08-12T03:46:20.000Z</time></trkpt>
        <trkpt lat="29.579461" lon="103.385908"><ele>823.4618</ele><time>2026-08-12T03:46:30.000Z</time></trkpt>
        <trkpt lat="29.579486" lon="103.385873"><ele>826.40753</ele><time>2026-08-12T03:46:45.000Z</time></trkpt>
        <trkpt lat="29.579505" lon="103.38583"><ele>828.85565</ele><time>2026-08-12T03:46:57.000Z</time></trkpt>
        <trkpt lat="29.579518" lon="103.385793"><ele>829.66675</ele><time>2026-08-12T03:47:14.000Z</time></trkpt>
        <trkpt lat="29.579518" lon="103.385794"><ele>829.66675</ele><time>2026-08-12T03:47:28.000Z</time></trkpt>
        <trkpt lat="29.579531" lon="103.385743"><ele>830.3383</ele><time>2026-08-12T03:47:40.000Z</time></trkpt>
        <trkpt lat="29.579553" lon="103.385699"><ele>832.08044</ele><time>2026-08-12T03:47:55.000Z</time></trkpt>
        <trkpt lat="29.579589" lon="103.385666"><ele>832.6804</ele><time>2026-08-12T03:48:07.000Z</time></trkpt>
        <trkpt lat="29.579606" lon="103.385617"><ele>833.88586</ele><time>2026-08-12T03:48:17.000Z</time></trkpt>
        <trkpt lat="29.579626" lon="103.385568"><ele>834.6381</ele><time>2026-08-12T03:48:29.000Z</time></trkpt>
        <trkpt lat="29.579654" lon="103.385527"><ele>836.4631</ele><time>2026-08-12T03:48:40.000Z</time></trkpt>
        <trkpt lat="29.579699" lon="103.385517"><ele>837.1782</ele><time>2026-08-12T03:48:52.000Z</time></trkpt>
        <trkpt lat="29.579744" lon="103.385508"><ele>837.5522</ele><time>2026-08-12T03:49:00.000Z</time></trkpt>
        <trkpt lat="29.579776" lon="103.385493"><ele>840.8992</ele><time>2026-08-12T03:49:13.000Z</time></trkpt>
        <trkpt lat="29.579807" lon="103.385458"><ele>843.22644</ele><time>2026-08-12T03:49:27.000Z</time></trkpt>
        <trkpt lat="29.579835" lon="103.385419"><ele>844.105</ele><time>2026-08-12T03:49:38.000Z</time></trkpt>
        <trkpt lat="29.579866" lon="103.385379"><ele>844.90204</ele><time>2026-08-12T03:49:53.000Z</time></trkpt>
        <trkpt lat="29.579902" lon="103.385345"><ele>846.37103</ele><time>2026-08-12T03:50:05.000Z</time></trkpt>
        <trkpt lat="29.579944" lon="103.385329"><ele>847.57806</ele><time>2026-08-12T03:50:48.000Z</time></trkpt>
        <trkpt lat="29.579994" lon="103.385305"><ele>847.9714</ele><time>2026-08-12T03:50:55.000Z</time></trkpt>
        <trkpt lat="29.580044" lon="103.385282"><ele>848.8054</ele><time>2026-08-12T03:51:01.000Z</time></trkpt>
        <trkpt lat="29.580081" lon="103.38525"><ele>850.30536</ele><time>2026-08-12T03:51:07.000Z</time></trkpt>
        <trkpt lat="29.580113" lon="103.385206"><ele>851.6532</ele><time>2026-08-12T03:51:14.000Z</time></trkpt>
        <trkpt lat="29.58014" lon="103.385162"><ele>852.0819</ele><time>2026-08-12T03:51:20.000Z</time></trkpt>
        <trkpt lat="29.580165" lon="103.385118"><ele>852.85547</ele><time>2026-08-12T03:51:26.000Z</time></trkpt>
        <trkpt lat="29.580192" lon="103.385077"><ele>853.434</ele><time>2026-08-12T03:51:32.000Z</time></trkpt>
        <trkpt lat="29.580225" lon="103.385037"><ele>853.9407</ele><time>2026-08-12T03:51:38.000Z</time></trkpt>
        <trkpt lat="29.580257" lon="103.384999"><ele>854.33875</ele><time>2026-08-12T03:51:45.000Z</time></trkpt>
        <trkpt lat="29.580285" lon="103.384958"><ele>856.24854</ele><time>2026-08-12T03:51:52.000Z</time></trkpt>
        <trkpt lat="29.580309" lon="103.384914"><ele>856.96246</ele><time>2026-08-12T03:51:59.000Z</time></trkpt>
        <trkpt lat="29.58034" lon="103.384873"><ele>857.7806</ele><time>2026-08-12T03:52:10.000Z</time></trkpt>
        <trkpt lat="29.580365" lon="103.384828"><ele>859.1521</ele><time>2026-08-12T03:52:20.000Z</time></trkpt>
        <trkpt lat="29.580396" lon="103.384785"><ele>860.0739</ele><time>2026-08-12T03:52:31.000Z</time></trkpt>
        <trkpt lat="29.580426" lon="103.384744"><ele>861.64514</ele><time>2026-08-12T03:52:41.000Z</time></trkpt>
        <trkpt lat="29.580456" lon="103.384702"><ele>861.98456</ele><time>2026-08-12T03:52:50.000Z</time></trkpt>
        <trkpt lat="29.58048" lon="103.384654"><ele>862.43317</ele><time>2026-08-12T03:52:58.000Z</time></trkpt>
        <trkpt lat="29.580506" lon="103.384607"><ele>863.65454</ele><time>2026-08-12T03:53:10.000Z</time></trkpt>
        <trkpt lat="29.580537" lon="103.384567"><ele>865.0158</ele><time>2026-08-12T03:53:20.000Z</time></trkpt>
        <trkpt lat="29.580574" lon="103.384536"><ele>866.53186</ele><time>2026-08-12T03:53:33.000Z</time></trkpt>
        <trkpt lat="29.580599" lon="103.384493"><ele>867.7072</ele><time>2026-08-12T03:53:43.000Z</time></trkpt>
        <trkpt lat="29.580623" lon="103.38445"><ele>869.4993</ele><time>2026-08-12T03:53:55.000Z</time></trkpt>
        <trkpt lat="29.580647" lon="103.384404"><ele>870.4383</ele><time>2026-08-12T03:54:08.000Z</time></trkpt>
        <trkpt lat="29.580684" lon="103.384377"><ele>871.94</ele><time>2026-08-12T03:54:26.000Z</time></trkpt>
        <trkpt lat="29.580723" lon="103.384348"><ele>873.3494</ele><time>2026-08-12T03:54:43.000Z</time></trkpt>
        <trkpt lat="29.580755" lon="103.384325"><ele>874.8638</ele><time>2026-08-12T03:55:04.000Z</time></trkpt>
        <trkpt lat="29.580785" lon="103.384294"><ele>874.8638</ele><time>2026-08-12T03:55:19.000Z</time></trkpt>
        <trkpt lat="29.580814" lon="103.384255"><ele>877.27344</ele><time>2026-08-12T03:55:26.000Z</time></trkpt>
        <trkpt lat="29.580846" lon="103.38423"><ele>880.1233</ele><time>2026-08-12T03:55:34.000Z</time></trkpt>
        <trkpt lat="29.580877" lon="103.384206"><ele>883.0314</ele><time>2026-08-12T03:55:43.000Z</time></trkpt>
        <trkpt lat="29.580911" lon="103.384185"><ele>885.7896</ele><time>2026-08-12T03:55:54.000Z</time></trkpt>
        <trkpt lat="29.580946" lon="103.384182"><ele>889.3731</ele><time>2026-08-12T03:56:23.000Z</time></trkpt>
        <trkpt lat="29.580989" lon="103.384191"><ele>891.205</ele><time>2026-08-12T03:56:33.000Z</time></trkpt>
        <trkpt lat="29.581027" lon="103.384207"><ele>894.10474</ele><time>2026-08-12T03:56:48.000Z</time></trkpt>
        <trkpt lat="29.581071" lon="103.384217"><ele>896.7181</ele><time>2026-08-12T03:57:01.000Z</time></trkpt>
        <trkpt lat="29.581108" lon="103.384222"><ele>899.9462</ele><time>2026-08-12T03:57:12.000Z</time></trkpt>
        <trkpt lat="29.581137" lon="103.384246"><ele>903.0116</ele><time>2026-08-12T03:57:32.000Z</time></trkpt>
        <trkpt lat="29.581168" lon="103.384285"><ele>904.28076</ele><time>2026-08-12T03:57:44.000Z</time></trkpt>
        <trkpt lat="29.581208" lon="103.384316"><ele>904.6006</ele><time>2026-08-12T03:57:56.000Z</time></trkpt>
        <trkpt lat="29.58125" lon="103.384337"><ele>905.4727</ele><time>2026-08-12T03:58:11.000Z</time></trkpt>
        <trkpt lat="29.581294" lon="103.384352"><ele>906.7776</ele><time>2026-08-12T03:58:25.000Z</time></trkpt>
        <trkpt lat="29.581333" lon="103.384353"><ele>909.4845</ele><time>2026-08-12T03:58:37.000Z</time></trkpt>
        <trkpt lat="29.581333" lon="103.384345"><ele>915.281</ele><time>2026-08-12T03:58:57.000Z</time></trkpt>
        <trkpt lat="29.581324" lon="103.384318"><ele>919.409</ele><time>2026-08-12T04:00:02.000Z</time></trkpt>
        <trkpt lat="29.581373" lon="103.384344"><ele>919.01764</ele><time>2026-08-12T04:00:25.000Z</time></trkpt>
        <trkpt lat="29.58142" lon="103.384367"><ele>919.0951</ele><time>2026-08-12T04:00:29.000Z</time></trkpt>
        <trkpt lat="29.581463" lon="103.384372"><ele>920.90027</ele><time>2026-08-12T04:00:42.000Z</time></trkpt>
        <trkpt lat="29.581507" lon="103.384368"><ele>919.78613</ele><time>2026-08-12T04:01:06.000Z</time></trkpt>
        <trkpt lat="29.58154" lon="103.384333"><ele>920.04736</ele><time>2026-08-12T04:01:20.000Z</time></trkpt>
        <trkpt lat="29.581578" lon="103.384373"><ele>919.9238</ele><time>2026-08-12T04:01:30.000Z</time></trkpt>
        <trkpt lat="29.581625" lon="103.384368"><ele>921.7768</ele><time>2026-08-12T04:02:02.000Z</time></trkpt>
        <trkpt lat="29.58164" lon="103.384311"><ele>921.97363</ele><time>2026-08-12T04:02:10.000Z</time></trkpt>
        <trkpt lat="29.581608" lon="103.384274"><ele>922.00775</ele><time>2026-08-12T04:02:20.000Z</time></trkpt>
        <trkpt lat="29.581579" lon="103.384233"><ele>922.40753</ele><time>2026-08-12T04:02:52.000Z</time></trkpt>
        <trkpt lat="29.581543" lon="103.384193"><ele>923.48505</ele><time>2026-08-12T04:03:12.000Z</time></trkpt>
        <trkpt lat="29.581512" lon="103.38415"><ele>923.80554</ele><time>2026-08-12T04:03:20.000Z</time></trkpt>
        <trkpt lat="29.581492" lon="103.384104"><ele>925.62726</ele><time>2026-08-12T04:03:30.000Z</time></trkpt>
        <trkpt lat="29.581484" lon="103.38406"><ele>928.4849</ele><time>2026-08-12T04:03:37.000Z</time></trkpt>
        <trkpt lat="29.581469" lon="103.384012"><ele>929.694</ele><time>2026-08-12T04:03:48.000Z</time></trkpt>
        <trkpt lat="29.581451" lon="103.38396"><ele>930.5163</ele><time>2026-08-12T04:04:01.000Z</time></trkpt>
        <trkpt lat="29.581443" lon="103.383908"><ele>932.3546</ele><time>2026-08-12T04:04:15.000Z</time></trkpt>
        <trkpt lat="29.581433" lon="103.383856"><ele>932.99054</ele><time>2026-08-12T04:04:31.000Z</time></trkpt>
        <trkpt lat="29.581425" lon="103.383806"><ele>935.447</ele><time>2026-08-12T04:05:33.000Z</time></trkpt>
        <trkpt lat="29.581442" lon="103.383758"><ele>935.82263</ele><time>2026-08-12T04:05:39.000Z</time></trkpt>
        <trkpt lat="29.581474" lon="103.383713"><ele>935.62384</ele><time>2026-08-12T04:05:48.000Z</time></trkpt>
        <trkpt lat="29.581516" lon="103.383685"><ele>935.507</ele><time>2026-08-12T04:05:56.000Z</time></trkpt>
        <trkpt lat="29.58156" lon="103.383668"><ele>935.5483</ele><time>2026-08-12T04:06:02.000Z</time></trkpt>
        <trkpt lat="29.581594" lon="103.383633"><ele>935.773</ele><time>2026-08-12T04:06:08.000Z</time></trkpt>
        <trkpt lat="29.581624" lon="103.383587"><ele>934.7454</ele><time>2026-08-12T04:06:13.000Z</time></trkpt>
        <trkpt lat="29.581651" lon="103.383545"><ele>933.9825</ele><time>2026-08-12T04:06:17.000Z</time></trkpt>
        <trkpt lat="29.581677" lon="103.3835"><ele>933.01855</ele><time>2026-08-12T04:06:22.000Z</time></trkpt>
        <trkpt lat="29.581718" lon="103.383459"><ele>933.0539</ele><time>2026-08-12T04:06:28.000Z</time></trkpt>
        <trkpt lat="29.581753" lon="103.38342"><ele>932.59296</ele><time>2026-08-12T04:06:33.000Z</time></trkpt>
        <trkpt lat="29.581785" lon="103.383379"><ele>931.8657</ele><time>2026-08-12T04:06:38.000Z</time></trkpt>
        <trkpt lat="29.581819" lon="103.383334"><ele>932.5873</ele><time>2026-08-12T04:06:43.000Z</time></trkpt>
        <trkpt lat="29.581847" lon="103.383291"><ele>932.9286</ele><time>2026-08-12T04:06:47.000Z</time></trkpt>
        <trkpt lat="29.581873" lon="103.383247"><ele>932.98553</ele><time>2026-08-12T04:06:51.000Z</time></trkpt>
        <trkpt lat="29.581891" lon="103.383197"><ele>933.59595</ele><time>2026-08-12T04:06:57.000Z</time></trkpt>
        <trkpt lat="29.581873" lon="103.383145"><ele>936.0162</ele><time>2026-08-12T04:07:06.000Z</time></trkpt>
        <trkpt lat="29.581863" lon="103.383096"><ele>937.6397</ele><time>2026-08-12T04:07:13.000Z</time></trkpt>
        <trkpt lat="29.581846" lon="103.383043"><ele>938.7624</ele><time>2026-08-12T04:07:24.000Z</time></trkpt>
        <trkpt lat="29.581832" lon="103.382987"><ele>938.4774</ele><time>2026-08-12T04:07:33.000Z</time></trkpt>
        <trkpt lat="29.581835" lon="103.382935"><ele>939.6074</ele><time>2026-08-12T04:07:44.000Z</time></trkpt>
        <trkpt lat="29.581848" lon="103.382884"><ele>940.9706</ele><time>2026-08-12T04:07:57.000Z</time></trkpt>
        <trkpt lat="29.581852" lon="103.382828"><ele>941.4323</ele><time>2026-08-12T04:08:09.000Z</time></trkpt>
        <trkpt lat="29.581854" lon="103.382776"><ele>942.1461</ele><time>2026-08-12T04:08:17.000Z</time></trkpt>
        <trkpt lat="29.581864" lon="103.382717"><ele>942.6395</ele><time>2026-08-12T04:08:23.000Z</time></trkpt>
        <trkpt lat="29.581879" lon="103.382667"><ele>942.3449</ele><time>2026-08-12T04:08:29.000Z</time></trkpt>
        <trkpt lat="29.581904" lon="103.382623"><ele>942.7644</ele><time>2026-08-12T04:08:37.000Z</time></trkpt>
        <trkpt lat="29.581924" lon="103.382571"><ele>943.1476</ele><time>2026-08-12T04:08:46.000Z</time></trkpt>
        <trkpt lat="29.581949" lon="103.382524"><ele>943.82886</ele><time>2026-08-12T04:08:50.000Z</time></trkpt>
        <trkpt lat="29.581975" lon="103.382473"><ele>944.41327</ele><time>2026-08-12T04:08:55.000Z</time></trkpt>
        <trkpt lat="29.581989" lon="103.382418"><ele>945.3801</ele><time>2026-08-12T04:09:00.000Z</time></trkpt>
        <trkpt lat="29.581991" lon="103.382367"><ele>947.3924</ele><time>2026-08-12T04:09:16.000Z</time></trkpt>
        <trkpt lat="29.582001" lon="103.382309"><ele>948.15393</ele><time>2026-08-12T04:09:23.000Z</time></trkpt>
        <trkpt lat="29.582014" lon="103.382255"><ele>948.5128</ele><time>2026-08-12T04:09:28.000Z</time></trkpt>
        <trkpt lat="29.582038" lon="103.38221"><ele>948.32184</ele><time>2026-08-12T04:09:33.000Z</time></trkpt>
        <trkpt lat="29.58207" lon="103.382163"><ele>948.8569</ele><time>2026-08-12T04:09:40.000Z</time></trkpt>
        <trkpt lat="29.582091" lon="103.382107"><ele>948.8203</ele><time>2026-08-12T04:09:48.000Z</time></trkpt>
        <trkpt lat="29.582112" lon="103.38206"><ele>949.3513</ele><time>2026-08-12T04:09:58.000Z</time></trkpt>
        <trkpt lat="29.582124" lon="103.382005"><ele>949.67163</ele><time>2026-08-12T04:10:06.000Z</time></trkpt>
        <trkpt lat="29.58214" lon="103.381952"><ele>949.7261</ele><time>2026-08-12T04:10:12.000Z</time></trkpt>
        <trkpt lat="29.582178" lon="103.381918"><ele>950.24036</ele><time>2026-08-12T04:10:18.000Z</time></trkpt>
        <trkpt lat="29.582217" lon="103.381885"><ele>950.2156</ele><time>2026-08-12T04:10:23.000Z</time></trkpt>
        <trkpt lat="29.582255" lon="103.38185"><ele>951.3404</ele><time>2026-08-12T04:10:35.000Z</time></trkpt>
        <trkpt lat="29.582295" lon="103.381826"><ele>951.6224</ele><time>2026-08-12T04:10:40.000Z</time></trkpt>
        <trkpt lat="29.58233" lon="103.381781"><ele>951.8755</ele><time>2026-08-12T04:10:46.000Z</time></trkpt>
        <trkpt lat="29.582367" lon="103.381742"><ele>952.8788</ele><time>2026-08-12T04:10:51.000Z</time></trkpt>
        <trkpt lat="29.582398" lon="103.381698"><ele>952.7578</ele><time>2026-08-12T04:10:56.000Z</time></trkpt>
        <trkpt lat="29.5824" lon="103.381642"><ele>953.13</ele><time>2026-08-12T04:11:08.000Z</time></trkpt>
        <trkpt lat="29.58242" lon="103.381593"><ele>952.80817</ele><time>2026-08-12T04:11:15.000Z</time></trkpt>
        <trkpt lat="29.582436" lon="103.381539"><ele>952.8523</ele><time>2026-08-12T04:11:21.000Z</time></trkpt>
        <trkpt lat="29.582449" lon="103.381487"><ele>952.54095</ele><time>2026-08-12T04:11:27.000Z</time></trkpt>
        <trkpt lat="29.582472" lon="103.381442"><ele>951.9752</ele><time>2026-08-12T04:11:33.000Z</time></trkpt>
        <trkpt lat="29.5825" lon="103.381398"><ele>951.35254</ele><time>2026-08-12T04:11:38.000Z</time></trkpt>
        <trkpt lat="29.582534" lon="103.38135"><ele>950.9109</ele><time>2026-08-12T04:11:44.000Z</time></trkpt>
        <trkpt lat="29.582573" lon="103.381305"><ele>951.1012</ele><time>2026-08-12T04:11:49.000Z</time></trkpt>
        <trkpt lat="29.582606" lon="103.381261"><ele>951.4891</ele><time>2026-08-12T04:11:54.000Z</time></trkpt>
        <trkpt lat="29.582643" lon="103.381215"><ele>952.1981</ele><time>2026-08-12T04:11:59.000Z</time></trkpt>
        <trkpt lat="29.582674" lon="103.381172"><ele>952.3534</ele><time>2026-08-12T04:12:04.000Z</time></trkpt>
        <trkpt lat="29.582701" lon="103.381126"><ele>952.56433</ele><time>2026-08-12T04:12:10.000Z</time></trkpt>
        <trkpt lat="29.58273" lon="103.381083"><ele>952.7563</ele><time>2026-08-12T04:12:15.000Z</time></trkpt>
        <trkpt lat="29.582747" lon="103.381036"><ele>953.0584</ele><time>2026-08-12T04:12:20.000Z</time></trkpt>
        <trkpt lat="29.582742" lon="103.380984"><ele>953.14655</ele><time>2026-08-12T04:12:26.000Z</time></trkpt>
        <trkpt lat="29.582729" lon="103.38093"><ele>953.3901</ele><time>2026-08-12T04:12:33.000Z</time></trkpt>
        <trkpt lat="29.58272" lon="103.380875"><ele>953.85</ele><time>2026-08-12T04:12:39.000Z</time></trkpt>
        <trkpt lat="29.582721" lon="103.380823"><ele>953.6497</ele><time>2026-08-12T04:12:44.000Z</time></trkpt>
        <trkpt lat="29.582732" lon="103.380769"><ele>953.723</ele><time>2026-08-12T04:12:49.000Z</time></trkpt>
        <trkpt lat="29.582748" lon="103.380716"><ele>953.4077</ele><time>2026-08-12T04:12:54.000Z</time></trkpt>
        <trkpt lat="29.582758" lon="103.380664"><ele>953.385</ele><time>2026-08-12T04:12:59.000Z</time></trkpt>
        <trkpt lat="29.582764" lon="103.380606"><ele>953.6958</ele><time>2026-08-12T04:13:05.000Z</time></trkpt>
        <trkpt lat="29.582772" lon="103.380547"><ele>953.54126</ele><time>2026-08-12T04:13:11.000Z</time></trkpt>
        <trkpt lat="29.582789" lon="103.380494"><ele>953.7996</ele><time>2026-08-12T04:13:16.000Z</time></trkpt>
        <trkpt lat="29.582813" lon="103.38044"><ele>953.7815</ele><time>2026-08-12T04:13:21.000Z</time></trkpt>
        <trkpt lat="29.582835" lon="103.38039"><ele>953.4341</ele><time>2026-08-12T04:13:26.000Z</time></trkpt>
        <trkpt lat="29.582856" lon="103.380331"><ele>953.83636</ele><time>2026-08-12T04:15:14.000Z</time></trkpt>
        <trkpt lat="29.582873" lon="103.380282"><ele>953.76373</ele><time>2026-08-12T04:15:18.000Z</time></trkpt>
        <trkpt lat="29.582885" lon="103.38023"><ele>953.7376</ele><time>2026-08-12T04:15:24.000Z</time></trkpt>
        <trkpt lat="29.582901" lon="103.380178"><ele>953.2409</ele><time>2026-08-12T04:15:30.000Z</time></trkpt>
        <trkpt lat="29.582922" lon="103.380132"><ele>952.9415</ele><time>2026-08-12T04:15:36.000Z</time></trkpt>
        <trkpt lat="29.582952" lon="103.380088"><ele>953.0889</ele><time>2026-08-12T04:15:44.000Z</time></trkpt>
        <trkpt lat="29.582981" lon="103.38004"><ele>953.82825</ele><time>2026-08-12T04:15:51.000Z</time></trkpt>
        <trkpt lat="29.583008" lon="103.379992"><ele>954.3425</ele><time>2026-08-12T04:15:58.000Z</time></trkpt>
        <trkpt lat="29.583026" lon="103.379945"><ele>954.4084</ele><time>2026-08-12T04:16:04.000Z</time></trkpt>
        <trkpt lat="29.583031" lon="103.379893"><ele>954.62213</ele><time>2026-08-12T04:16:12.000Z</time></trkpt>
        <trkpt lat="29.583001" lon="103.379851"><ele>955.15497</ele><time>2026-08-12T04:16:19.000Z</time></trkpt>
        <trkpt lat="29.582984" lon="103.379802"><ele>955.6005</ele><time>2026-08-12T04:16:27.000Z</time></trkpt>
        <trkpt lat="29.582972" lon="103.379752"><ele>956.2442</ele><time>2026-08-12T04:16:35.000Z</time></trkpt>
        <trkpt lat="29.582941" lon="103.379708"><ele>956.90967</ele><time>2026-08-12T04:16:43.000Z</time></trkpt>
        <trkpt lat="29.582909" lon="103.379665"><ele>957.43396</ele><time>2026-08-12T04:16:50.000Z</time></trkpt>
        <trkpt lat="29.582882" lon="103.379624"><ele>958.1106</ele><time>2026-08-12T04:16:57.000Z</time></trkpt>
        <trkpt lat="29.582891" lon="103.379576"><ele>960.6368</ele><time>2026-08-12T04:17:24.000Z</time></trkpt>
        <trkpt lat="29.582925" lon="103.379535"><ele>961.85504</ele><time>2026-08-12T04:17:32.000Z</time></trkpt>
        <trkpt lat="29.582957" lon="103.379506"><ele>964.7776</ele><time>2026-08-12T04:17:43.000Z</time></trkpt>
        <trkpt lat="29.582988" lon="103.379471"><ele>966.68085</ele><time>2026-08-12T04:17:59.000Z</time></trkpt>
        <trkpt lat="29.582954" lon="103.379439"><ele>967.9062</ele><time>2026-08-12T04:18:19.000Z</time></trkpt>
        <trkpt lat="29.582905" lon="103.379464"><ele>969.25336</ele><time>2026-08-12T04:18:24.000Z</time></trkpt>
        <trkpt lat="29.582863" lon="103.379496"><ele>970.2345</ele><time>2026-08-12T04:18:29.000Z</time></trkpt>
        <trkpt lat="29.582825" lon="103.379531"><ele>971.17706</ele><time>2026-08-12T04:18:36.000Z</time></trkpt>
        <trkpt lat="29.582786" lon="103.37957"><ele>971.3102</ele><time>2026-08-12T04:18:43.000Z</time></trkpt>
        <trkpt lat="29.582744" lon="103.379604"><ele>971.59784</ele><time>2026-08-12T04:18:49.000Z</time></trkpt>
        <trkpt lat="29.582697" lon="103.379628"><ele>971.88654</ele><time>2026-08-12T04:18:55.000Z</time></trkpt>
        <trkpt lat="29.582654" lon="103.379596"><ele>972.105</ele><time>2026-08-12T04:19:01.000Z</time></trkpt>
        <trkpt lat="29.582638" lon="103.379539"><ele>972.1724</ele><time>2026-08-12T04:19:07.000Z</time></trkpt>
        <trkpt lat="29.582636" lon="103.37948"><ele>972.01666</ele><time>2026-08-12T04:19:14.000Z</time></trkpt>
        <trkpt lat="29.582631" lon="103.379428"><ele>972.08167</ele><time>2026-08-12T04:19:23.000Z</time></trkpt>
        <trkpt lat="29.582655" lon="103.37938"><ele>971.406</ele><time>2026-08-12T04:19:27.000Z</time></trkpt>
        <trkpt lat="29.582695" lon="103.379338"><ele>971.30225</ele><time>2026-08-12T04:19:32.000Z</time></trkpt>
        <trkpt lat="29.582739" lon="103.379319"><ele>971.5555</ele><time>2026-08-12T04:19:38.000Z</time></trkpt>
        <trkpt lat="29.582781" lon="103.379289"><ele>972.35345</ele><time>2026-08-12T04:19:49.000Z</time></trkpt>
        <trkpt lat="29.582826" lon="103.379278"><ele>973.5585</ele><time>2026-08-12T04:19:58.000Z</time></trkpt>
        <trkpt lat="29.582854" lon="103.379233"><ele>975.04285</ele><time>2026-08-12T04:20:07.000Z</time></trkpt>
        <trkpt lat="29.58288" lon="103.379192"><ele>976.5124</ele><time>2026-08-12T04:20:16.000Z</time></trkpt>
        <trkpt lat="29.582911" lon="103.379154"><ele>977.7172</ele><time>2026-08-12T04:20:34.000Z</time></trkpt>
        <trkpt lat="29.582935" lon="103.379105"><ele>978.0633</ele><time>2026-08-12T04:20:48.000Z</time></trkpt>
        <trkpt lat="29.582959" lon="103.379061"><ele>978.472</ele><time>2026-08-12T04:20:54.000Z</time></trkpt>
        <trkpt lat="29.58297" lon="103.379007"><ele>978.67017</ele><time>2026-08-12T04:20:59.000Z</time></trkpt>
        <trkpt lat="29.582964" lon="103.378955"><ele>979.2954</ele><time>2026-08-12T04:21:05.000Z</time></trkpt>
        <trkpt lat="29.582963" lon="103.378903"><ele>980.70355</ele><time>2026-08-12T04:21:13.000Z</time></trkpt>
        <trkpt lat="29.582954" lon="103.378851"><ele>982.7279</ele><time>2026-08-12T04:21:21.000Z</time></trkpt>
        <trkpt lat="29.582944" lon="103.378798"><ele>983.0166</ele><time>2026-08-12T04:21:30.000Z</time></trkpt>
        <trkpt lat="29.582949" lon="103.378745"><ele>984.7039</ele><time>2026-08-12T04:21:43.000Z</time></trkpt>
        <trkpt lat="29.582931" lon="103.378709"><ele>987.90027</ele><time>2026-08-12T04:21:59.000Z</time></trkpt>
        <trkpt lat="29.582909" lon="103.378667"><ele>989.8851</ele><time>2026-08-12T04:22:09.000Z</time></trkpt>
        <trkpt lat="29.582886" lon="103.378625"><ele>991.5137</ele><time>2026-08-12T04:22:19.000Z</time></trkpt>
        <trkpt lat="29.582886" lon="103.378627"><ele>991.55383</ele><time>2026-08-12T04:22:52.000Z</time></trkpt>
        <trkpt lat="29.582886" lon="103.378629"><ele>991.55383</ele><time>2026-08-12T04:23:09.000Z</time></trkpt>
        <trkpt lat="29.582845" lon="103.378607"><ele>993.617</ele><time>2026-08-12T04:23:36.000Z</time></trkpt>
        <trkpt lat="29.582805" lon="103.378588"><ele>995.3025</ele><time>2026-08-12T04:23:45.000Z</time></trkpt>
        <trkpt lat="29.582757" lon="103.378582"><ele>995.32623</ele><time>2026-08-12T04:23:52.000Z</time></trkpt>
        <trkpt lat="29.582726" lon="103.378541"><ele>995.9482</ele><time>2026-08-12T04:24:03.000Z</time></trkpt>
        <trkpt lat="29.582698" lon="103.378495"><ele>997.2656</ele><time>2026-08-12T04:24:14.000Z</time></trkpt>
        <trkpt lat="29.582668" lon="103.378451"><ele>999.06775</ele><time>2026-08-12T04:24:22.000Z</time></trkpt>
        <trkpt lat="29.582641" lon="103.378412"><ele>1001.4829</ele><time>2026-08-12T04:24:29.000Z</time></trkpt>
        <trkpt lat="29.582614" lon="103.37837"><ele>1003.9427</ele><time>2026-08-12T04:24:37.000Z</time></trkpt>
        <trkpt lat="29.582575" lon="103.378342"><ele>1005.32477</ele><time>2026-08-12T04:24:46.000Z</time></trkpt>
        <trkpt lat="29.582526" lon="103.378331"><ele>1006.3629</ele><time>2026-08-12T04:24:56.000Z</time></trkpt>
        <trkpt lat="29.582493" lon="103.378309"><ele>1009.3746</ele><time>2026-08-12T04:25:04.000Z</time></trkpt>
        <trkpt lat="29.582453" lon="103.378293"><ele>1012.18225</ele><time>2026-08-12T04:25:16.000Z</time></trkpt>
        <trkpt lat="29.582424" lon="103.378274"><ele>1015.8514</ele><time>2026-08-12T04:25:31.000Z</time></trkpt>
        <trkpt lat="29.58241" lon="103.378223"><ele>1016.8066</ele><time>2026-08-12T04:25:42.000Z</time></trkpt>
        <trkpt lat="29.5824" lon="103.378176"><ele>1019.19305</ele><time>2026-08-12T04:25:51.000Z</time></trkpt>
        <trkpt lat="29.582392" lon="103.378128"><ele>1021.07605</ele><time>2026-08-12T04:25:59.000Z</time></trkpt>
        <trkpt lat="29.582378" lon="103.378076"><ele>1021.2806</ele><time>2026-08-12T04:26:12.000Z</time></trkpt>
        <trkpt lat="29.582373" lon="103.378024"><ele>1020.3788</ele><time>2026-08-12T04:26:21.000Z</time></trkpt>
        <trkpt lat="29.582374" lon="103.377986"><ele>1024.3492</ele><time>2026-08-12T04:26:32.000Z</time></trkpt>
        <trkpt lat="29.582364" lon="103.377934"><ele>1026.65</ele><time>2026-08-12T04:26:42.000Z</time></trkpt>
        <trkpt lat="29.582353" lon="103.377886"><ele>1028.9905</ele><time>2026-08-12T04:26:48.000Z</time></trkpt>
        <trkpt lat="29.582348" lon="103.377834"><ele>1030.8643</ele><time>2026-08-12T04:26:55.000Z</time></trkpt>
        <trkpt lat="29.582345" lon="103.377776"><ele>1031.8816</ele><time>2026-08-12T04:27:03.000Z</time></trkpt>
        <trkpt lat="29.582335" lon="103.377734"><ele>1034.5361</ele><time>2026-08-12T04:27:11.000Z</time></trkpt>
        <trkpt lat="29.582324" lon="103.377682"><ele>1034.6836</ele><time>2026-08-12T04:27:24.000Z</time></trkpt>
        <trkpt lat="29.582331" lon="103.377631"><ele>1035.1462</ele><time>2026-08-12T04:27:46.000Z</time></trkpt>
        <trkpt lat="29.582335" lon="103.377573"><ele>1034.868</ele><time>2026-08-12T04:28:23.000Z</time></trkpt>
        <trkpt lat="29.582345" lon="103.37752"><ele>1035.63</ele><time>2026-08-12T04:28:33.000Z</time></trkpt>
        <trkpt lat="29.582362" lon="103.377468"><ele>1036.1206</ele><time>2026-08-12T04:28:45.000Z</time></trkpt>
        <trkpt lat="29.58237" lon="103.377414"><ele>1036.8213</ele><time>2026-08-12T04:28:55.000Z</time></trkpt>
        <trkpt lat="29.582369" lon="103.377398"><ele>1041.867</ele><time>2026-08-12T04:31:01.000Z</time></trkpt>
        <trkpt lat="29.582336" lon="103.377362"><ele>1043.0074</ele><time>2026-08-12T04:31:10.000Z</time></trkpt>
        <trkpt lat="29.582298" lon="103.377333"><ele>1044.0552</ele><time>2026-08-12T04:31:20.000Z</time></trkpt>
        <trkpt lat="29.582266" lon="103.377294"><ele>1044.5936</ele><time>2026-08-12T04:31:29.000Z</time></trkpt>
        <trkpt lat="29.582236" lon="103.377255"><ele>1045.194</ele><time>2026-08-12T04:31:37.000Z</time></trkpt>
        <trkpt lat="29.582212" lon="103.377211"><ele>1046.3907</ele><time>2026-08-12T04:31:48.000Z</time></trkpt>
        <trkpt lat="29.582202" lon="103.377163"><ele>1048.2966</ele><time>2026-08-12T04:32:03.000Z</time></trkpt>
        <trkpt lat="29.582174" lon="103.377133"><ele>1051.2603</ele><time>2026-08-12T04:32:25.000Z</time></trkpt>
        <trkpt lat="29.582134" lon="103.377136"><ele>1053.7676</ele><time>2026-08-12T04:32:40.000Z</time></trkpt>
        <trkpt lat="29.582102" lon="103.377101"><ele>1055.276</ele><time>2026-08-12T04:32:49.000Z</time></trkpt>
        <trkpt lat="29.582083" lon="103.377054"><ele>1055.3857</ele><time>2026-08-12T04:33:01.000Z</time></trkpt>
        <trkpt lat="29.582062" lon="103.377007"><ele>1056.6627</ele><time>2026-08-12T04:33:21.000Z</time></trkpt>
        <trkpt lat="29.582068" lon="103.376955"><ele>1057.2781</ele><time>2026-08-12T04:33:34.000Z</time></trkpt>
        <trkpt lat="29.582049" lon="103.376905"><ele>1058.1333</ele><time>2026-08-12T04:33:43.000Z</time></trkpt>
        <trkpt lat="29.58205" lon="103.376856"><ele>1059.7158</ele><time>2026-08-12T04:33:53.000Z</time></trkpt>
        <trkpt lat="29.582065" lon="103.376813"><ele>1062.0367</ele><time>2026-08-12T04:34:06.000Z</time></trkpt>
        <trkpt lat="29.582067" lon="103.376761"><ele>1063.6699</ele><time>2026-08-12T04:34:21.000Z</time></trkpt>
        <trkpt lat="29.58203" lon="103.376734"><ele>1065.356</ele><time>2026-08-12T04:34:42.000Z</time></trkpt>
        <trkpt lat="29.581989" lon="103.376744"><ele>1067.1476</ele><time>2026-08-12T04:34:55.000Z</time></trkpt>
        <trkpt lat="29.581969" lon="103.376685"><ele>1069.8098</ele><time>2026-08-12T04:35:11.000Z</time></trkpt>
        <trkpt lat="29.581962" lon="103.376635"><ele>1072.0895</ele><time>2026-08-12T04:35:26.000Z</time></trkpt>
        <trkpt lat="29.581952" lon="103.376586"><ele>1073.5101</ele><time>2026-08-12T04:35:36.000Z</time></trkpt>
        <trkpt lat="29.581963" lon="103.376534"><ele>1074.8608</ele><time>2026-08-12T04:35:52.000Z</time></trkpt>
        <trkpt lat="29.581963" lon="103.376524"><ele>1077.0347</ele><time>2026-08-12T04:36:10.000Z</time></trkpt>
        <trkpt lat="29.581965" lon="103.376526"><ele>1077.0347</ele><time>2026-08-12T04:36:28.000Z</time></trkpt>
        <trkpt lat="29.581938" lon="103.376508"><ele>1080.8141</ele><time>2026-08-12T04:37:44.000Z</time></trkpt>
        <trkpt lat="29.581917" lon="103.37651"><ele>1085.3412</ele><time>2026-08-12T04:37:50.000Z</time></trkpt>
        <trkpt lat="29.581893" lon="103.376516"><ele>1089.6354</ele><time>2026-08-12T04:37:59.000Z</time></trkpt>
        <trkpt lat="29.581852" lon="103.376502"><ele>1092.0455</ele><time>2026-08-12T04:38:08.000Z</time></trkpt>
        <trkpt lat="29.581812" lon="103.376515"><ele>1094.2643</ele><time>2026-08-12T04:38:19.000Z</time></trkpt>
        <trkpt lat="29.581767" lon="103.376499"><ele>1095.4215</ele><time>2026-08-12T04:38:28.000Z</time></trkpt>
        <trkpt lat="29.581721" lon="103.376494"><ele>1097.0734</ele><time>2026-08-12T04:38:37.000Z</time></trkpt>
        <trkpt lat="29.581686" lon="103.376496"><ele>1100.3245</ele><time>2026-08-12T04:38:51.000Z</time></trkpt>
        <trkpt lat="29.581678" lon="103.376458"><ele>1103.606</ele><time>2026-08-12T04:40:15.000Z</time></trkpt>
        <trkpt lat="29.581695" lon="103.376408"><ele>1104.7991</ele><time>2026-08-12T04:40:27.000Z</time></trkpt>
        <trkpt lat="29.58171" lon="103.376356"><ele>1105.9834</ele><time>2026-08-12T04:40:38.000Z</time></trkpt>
        <trkpt lat="29.581719" lon="103.376305"><ele>1107.4716</ele><time>2026-08-12T04:40:49.000Z</time></trkpt>
        <trkpt lat="29.581726" lon="103.376259"><ele>1109.7728</ele><time>2026-08-12T04:41:01.000Z</time></trkpt>
        <trkpt lat="29.581719" lon="103.376208"><ele>1111.5474</ele><time>2026-08-12T04:41:16.000Z</time></trkpt>
        <trkpt lat="29.581678" lon="103.37623"><ele>1113.427</ele><time>2026-08-12T04:41:32.000Z</time></trkpt>
        <trkpt lat="29.581641" lon="103.376254"><ele>1116.182</ele><time>2026-08-12T04:41:43.000Z</time></trkpt>
        <trkpt lat="29.581612" lon="103.376271"><ele>1119.7141</ele><time>2026-08-12T04:42:06.000Z</time></trkpt>
        <trkpt lat="29.58159" lon="103.376282"><ele>1124.1205</ele><time>2026-08-12T04:42:21.000Z</time></trkpt>
        <trkpt lat="29.581544" lon="103.37628"><ele>1125.2728</ele><time>2026-08-12T04:42:47.000Z</time></trkpt>
        <trkpt lat="29.5815" lon="103.376294"><ele>1126.9485</ele><time>2026-08-12T04:42:58.000Z</time></trkpt>
        <trkpt lat="29.581456" lon="103.376304"><ele>1128.8856</ele><time>2026-08-12T04:43:09.000Z</time></trkpt>
        <trkpt lat="29.581422" lon="103.376321"><ele>1132.3145</ele><time>2026-08-12T04:43:26.000Z</time></trkpt>
        <trkpt lat="29.581429" lon="103.376347"><ele>1135.6028</ele><time>2026-08-12T04:44:14.000Z</time></trkpt>
        <trkpt lat="29.581429" lon="103.376347"><ele>1135.6028</ele><time>2026-08-12T04:44:33.000Z</time></trkpt>
        <trkpt lat="29.581426" lon="103.376348"><ele>1136.92</ele><time>2026-08-12T04:45:34.000Z</time></trkpt>
        <trkpt lat="29.581334" lon="103.376319"><ele>1136.92</ele><time>2026-08-12T04:45:53.000Z</time></trkpt>
        <trkpt lat="29.58129" lon="103.376335"><ele>1138.2808</ele><time>2026-08-12T04:46:06.000Z</time></trkpt>
        <trkpt lat="29.58125" lon="103.376342"><ele>1140.6704</ele><time>2026-08-12T04:46:20.000Z</time></trkpt>
        <trkpt lat="29.58121" lon="103.376365"><ele>1142.0209</ele><time>2026-08-12T04:46:31.000Z</time></trkpt>
        <trkpt lat="29.58118" lon="103.376399"><ele>1143.8375</ele><time>2026-08-12T04:46:43.000Z</time></trkpt>
        <trkpt lat="29.581158" lon="103.376435"><ele>1146.5702</ele><time>2026-08-12T04:47:02.000Z</time></trkpt>
        <trkpt lat="29.581119" lon="103.376411"><ele>1148.7953</ele><time>2026-08-12T04:47:18.000Z</time></trkpt>
        <trkpt lat="29.581111" lon="103.376403"><ele>1153.8</ele><time>2026-08-12T04:47:42.000Z</time></trkpt>
        <trkpt lat="29.581096" lon="103.376455"><ele>1156.7344</ele><time>2026-08-12T04:48:16.000Z</time></trkpt>
        <trkpt lat="29.581075" lon="103.376493"><ele>1159.1221</ele><time>2026-08-12T04:49:01.000Z</time></trkpt>
        <trkpt lat="29.581035" lon="103.376466"><ele>1159.974</ele><time>2026-08-12T04:49:12.000Z</time></trkpt>
        <trkpt lat="29.580995" lon="103.376444"><ele>1160.45</ele><time>2026-08-12T04:49:20.000Z</time></trkpt>
        <trkpt lat="29.580959" lon="103.376411"><ele>1161.883</ele><time>2026-08-12T04:49:34.000Z</time></trkpt>
        <trkpt lat="29.580923" lon="103.37639"><ele>1164.1687</ele><time>2026-08-12T04:49:48.000Z</time></trkpt>
        <trkpt lat="29.58088" lon="103.376383"><ele>1166.4774</ele><time>2026-08-12T04:50:04.000Z</time></trkpt>
        <trkpt lat="29.580888" lon="103.37634"><ele>1169.8652</ele><time>2026-08-12T04:51:14.000Z</time></trkpt>
        <trkpt lat="29.580892" lon="103.376303"><ele>1173.5005</ele><time>2026-08-12T04:51:38.000Z</time></trkpt>
        <trkpt lat="29.580907" lon="103.376266"><ele>1176.9214</ele><time>2026-08-12T04:52:09.000Z</time></trkpt>
        <trkpt lat="29.58091" lon="103.376218"><ele>1178.8992</ele><time>2026-08-12T04:52:25.000Z</time></trkpt>
        <trkpt lat="29.580916" lon="103.376165"><ele>1179.3289</ele><time>2026-08-12T04:52:35.000Z</time></trkpt>
        <trkpt lat="29.580926" lon="103.376117"><ele>1180.809</ele><time>2026-08-12T04:52:47.000Z</time></trkpt>
        <trkpt lat="29.580893" lon="103.376149"><ele>1182.8405</ele><time>2026-08-12T04:53:06.000Z</time></trkpt>
        <trkpt lat="29.580849" lon="103.376156"><ele>1185.0839</ele><time>2026-08-12T04:53:16.000Z</time></trkpt>
        <trkpt lat="29.580804" lon="103.376163"><ele>1186.3293</ele><time>2026-08-12T04:53:24.000Z</time></trkpt>
        <trkpt lat="29.580766" lon="103.376175"><ele>1189.0688</ele><time>2026-08-12T04:53:31.000Z</time></trkpt>
        <trkpt lat="29.580731" lon="103.376177"><ele>1192.3993</ele><time>2026-08-12T04:53:44.000Z</time></trkpt>
        <trkpt lat="29.580688" lon="103.376195"><ele>1193.8767</ele><time>2026-08-12T04:54:07.000Z</time></trkpt>
        <trkpt lat="29.580656" lon="103.376222"><ele>1196.1646</ele><time>2026-08-12T04:54:42.000Z</time></trkpt>
        <trkpt lat="29.580614" lon="103.376242"><ele>1198.8873</ele><time>2026-08-12T04:54:50.000Z</time></trkpt>
        <trkpt lat="29.58057" lon="103.376253"><ele>1199.6727</ele><time>2026-08-12T04:54:55.000Z</time></trkpt>
        <trkpt lat="29.580525" lon="103.376259"><ele>1199.9205</ele><time>2026-08-12T04:55:00.000Z</time></trkpt>
        <trkpt lat="29.580478" lon="103.376261"><ele>1199.8851</ele><time>2026-08-12T04:55:06.000Z</time></trkpt>
        <trkpt lat="29.580427" lon="103.376265"><ele>1199.2898</ele><time>2026-08-12T04:55:12.000Z</time></trkpt>
        <trkpt lat="29.580379" lon="103.376273"><ele>1199.273</ele><time>2026-08-12T04:55:18.000Z</time></trkpt>
        <trkpt lat="29.58033" lon="103.37628"><ele>1199.8768</ele><time>2026-08-12T04:55:25.000Z</time></trkpt>
        <trkpt lat="29.58028" lon="103.376281"><ele>1198.7523</ele><time>2026-08-12T04:55:31.000Z</time></trkpt>
        <trkpt lat="29.58023" lon="103.376274"><ele>1198.4174</ele><time>2026-08-12T04:55:37.000Z</time></trkpt>
        <trkpt lat="29.580177" lon="103.376269"><ele>1198.2484</ele><time>2026-08-12T04:55:44.000Z</time></trkpt>
        <trkpt lat="29.580129" lon="103.376266"><ele>1198.3353</ele><time>2026-08-12T04:55:50.000Z</time></trkpt>
        <trkpt lat="29.580085" lon="103.37625"><ele>1198.4078</ele><time>2026-08-12T04:55:55.000Z</time></trkpt>
        <trkpt lat="29.580037" lon="103.376242"><ele>1198.986</ele><time>2026-08-12T04:56:01.000Z</time></trkpt>
        <trkpt lat="29.580009" lon="103.376202"><ele>1199.646</ele><time>2026-08-12T04:56:42.000Z</time></trkpt>
        <trkpt lat="29.579988" lon="103.376153"><ele>1200.5105</ele><time>2026-08-12T04:56:48.000Z</time></trkpt>
        <trkpt lat="29.579965" lon="103.376099"><ele>1200.337</ele><time>2026-08-12T04:56:54.000Z</time></trkpt>
        <trkpt lat="29.579941" lon="103.376048"><ele>1199.8873</ele><time>2026-08-12T04:57:00.000Z</time></trkpt>
        <trkpt lat="29.579916" lon="103.376001"><ele>1200.3655</ele><time>2026-08-12T04:57:06.000Z</time></trkpt>
        <trkpt lat="29.579894" lon="103.375947"><ele>1200.8984</ele><time>2026-08-12T04:57:13.000Z</time></trkpt>
        <trkpt lat="29.579872" lon="103.375897"><ele>1199.5408</ele><time>2026-08-12T04:57:19.000Z</time></trkpt>
        <trkpt lat="29.579849" lon="103.375847"><ele>1199.3489</ele><time>2026-08-12T04:57:26.000Z</time></trkpt>
        <trkpt lat="29.579821" lon="103.375795"><ele>1199.0326</ele><time>2026-08-12T04:57:32.000Z</time></trkpt>
        <trkpt lat="29.579804" lon="103.375745"><ele>1198.3993</ele><time>2026-08-12T04:57:37.000Z</time></trkpt>
        <trkpt lat="29.579802" lon="103.37569"><ele>1198.2069</ele><time>2026-08-12T04:57:44.000Z</time></trkpt>
        <trkpt lat="29.579824" lon="103.375643"><ele>1199.5223</ele><time>2026-08-12T04:57:52.000Z</time></trkpt>
        <trkpt lat="29.579842" lon="103.3756"><ele>1201.4398</ele><time>2026-08-12T04:58:00.000Z</time></trkpt>
        <trkpt lat="29.579882" lon="103.375567"><ele>1201.5518</ele><time>2026-08-12T04:58:10.000Z</time></trkpt>
        <trkpt lat="29.579927" lon="103.375551"><ele>1202.1449</ele><time>2026-08-12T04:58:21.000Z</time></trkpt>
        <trkpt lat="29.579963" lon="103.375524"><ele>1203.8256</ele><time>2026-08-12T04:58:32.000Z</time></trkpt>
        <trkpt lat="29.579999" lon="103.375501"><ele>1206.4047</ele><time>2026-08-12T04:58:46.000Z</time></trkpt>
        <trkpt lat="29.580031" lon="103.375482"><ele>1209.7355</ele><time>2026-08-12T05:00:17.000Z</time></trkpt>
        <trkpt lat="29.580079" lon="103.37547"><ele>1211.3083</ele><time>2026-08-12T05:00:26.000Z</time></trkpt>
        <trkpt lat="29.580124" lon="103.375463"><ele>1213.1827</ele><time>2026-08-12T05:00:34.000Z</time></trkpt>
        <trkpt lat="29.580167" lon="103.375471"><ele>1214.3674</ele><time>2026-08-12T05:00:42.000Z</time></trkpt>
        <trkpt lat="29.580207" lon="103.375467"><ele>1217.2186</ele><time>2026-08-12T05:00:54.000Z</time></trkpt>
        <trkpt lat="29.580255" lon="103.375485"><ele>1219.0269</ele><time>2026-08-12T05:01:10.000Z</time></trkpt>
        <trkpt lat="29.580298" lon="103.375477"><ele>1221.1328</ele><time>2026-08-12T05:01:25.000Z</time></trkpt>
        <trkpt lat="29.580336" lon="103.375452"><ele>1223.2809</ele><time>2026-08-12T05:01:34.000Z</time></trkpt>
        <trkpt lat="29.580358" lon="103.375433"><ele>1224.053</ele><time>2026-08-12T05:02:33.000Z</time></trkpt>
        <trkpt lat="29.580358" lon="103.375439"><ele>1224.053</ele><time>2026-08-12T05:02:54.000Z</time></trkpt>
        <trkpt lat="29.5804" lon="103.375415"><ele>1224.332</ele><time>2026-08-12T05:05:07.000Z</time></trkpt>
        <trkpt lat="29.580436" lon="103.375384"><ele>1225.2683</ele><time>2026-08-12T05:05:15.000Z</time></trkpt>
        <trkpt lat="29.580469" lon="103.375347"><ele>1225.8405</ele><time>2026-08-12T05:05:22.000Z</time></trkpt>
        <trkpt lat="29.580514" lon="103.375333"><ele>1226.2231</ele><time>2026-08-12T05:05:30.000Z</time></trkpt>
        <trkpt lat="29.580559" lon="103.375332"><ele>1227.789</ele><time>2026-08-12T05:05:41.000Z</time></trkpt>
        <trkpt lat="29.580605" lon="103.375316"><ele>1229.9474</ele><time>2026-08-12T05:05:50.000Z</time></trkpt>
        <trkpt lat="29.580641" lon="103.37529"><ele>1231.7211</ele><time>2026-08-12T05:06:06.000Z</time></trkpt>
        <trkpt lat="29.580661" lon="103.375247"><ele>1233.6842</ele><time>2026-08-12T05:06:19.000Z</time></trkpt>
        <trkpt lat="29.580665" lon="103.375202"><ele>1236.7474</ele><time>2026-08-12T05:06:38.000Z</time></trkpt>
        <trkpt lat="29.580672" lon="103.375156"><ele>1239.7448</ele><time>2026-08-12T05:06:46.000Z</time></trkpt>
        <trkpt lat="29.580676" lon="103.37511"><ele>1242.0571</ele><time>2026-08-12T05:06:59.000Z</time></trkpt>
        <trkpt lat="29.580693" lon="103.375077"><ele>1245.4321</ele><time>2026-08-12T05:07:13.000Z</time></trkpt>
        <trkpt lat="29.580687" lon="103.375033"><ele>1249.1276</ele><time>2026-08-12T05:07:24.000Z</time></trkpt>
        <trkpt lat="29.580698" lon="103.375008"><ele>1253.9264</ele><time>2026-08-12T05:08:58.000Z</time></trkpt>
        <trkpt lat="29.580698" lon="103.374969"><ele>1257.32</ele><time>2026-08-12T05:09:06.000Z</time></trkpt>
        <trkpt lat="29.580694" lon="103.374912"><ele>1260.1237</ele><time>2026-08-12T05:09:17.000Z</time></trkpt>
        <trkpt lat="29.580693" lon="103.374858"><ele>1260.8318</ele><time>2026-08-12T05:09:21.000Z</time></trkpt>
        <trkpt lat="29.580678" lon="103.374812"><ele>1263.6644</ele><time>2026-08-12T05:09:30.000Z</time></trkpt>
        <trkpt lat="29.580662" lon="103.374769"><ele>1266.8763</ele><time>2026-08-12T05:09:40.000Z</time></trkpt>
        <trkpt lat="29.580641" lon="103.374729"><ele>1269.6267</ele><time>2026-08-12T05:09:49.000Z</time></trkpt>
        <trkpt lat="29.580623" lon="103.374688"><ele>1272.0626</ele><time>2026-08-12T05:10:13.000Z</time></trkpt>
        <trkpt lat="29.580621" lon="103.374636"><ele>1273.242</ele><time>2026-08-12T05:12:05.000Z</time></trkpt>
        <trkpt lat="29.580648" lon="103.374595"><ele>1274.6288</ele><time>2026-08-12T05:12:14.000Z</time></trkpt>
        <trkpt lat="29.580656" lon="103.374547"><ele>1276.8198</ele><time>2026-08-12T05:12:20.000Z</time></trkpt>
        <trkpt lat="29.580665" lon="103.374501"><ele>1279.1215</ele><time>2026-08-12T05:12:29.000Z</time></trkpt>
        <trkpt lat="29.580662" lon="103.374455"><ele>1282.1001</ele><time>2026-08-12T05:12:37.000Z</time></trkpt>
        <trkpt lat="29.580669" lon="103.374405"><ele>1284.0916</ele><time>2026-08-12T05:12:50.000Z</time></trkpt>
        <trkpt lat="29.58067" lon="103.374351"><ele>1285.5331</ele><time>2026-08-12T05:13:01.000Z</time></trkpt>
        <trkpt lat="29.580673" lon="103.374302"><ele>1287.5017</ele><time>2026-08-12T05:13:11.000Z</time></trkpt>
        <trkpt lat="29.580685" lon="103.374249"><ele>1288.9471</ele><time>2026-08-12T05:13:21.000Z</time></trkpt>
        <trkpt lat="29.580688" lon="103.374208"><ele>1292.0569</ele><time>2026-08-12T05:13:33.000Z</time></trkpt>
        <trkpt lat="29.580686" lon="103.374155"><ele>1293.6913</ele><time>2026-08-12T05:13:45.000Z</time></trkpt>
        <trkpt lat="29.580671" lon="103.374111"><ele>1296.5349</ele><time>2026-08-12T05:13:58.000Z</time></trkpt>
        <trkpt lat="29.580672" lon="103.374057"><ele>1298.1261</ele><time>2026-08-12T05:14:13.000Z</time></trkpt>
        <trkpt lat="29.58066" lon="103.374011"><ele>1299.8673</ele><time>2026-08-12T05:15:35.000Z</time></trkpt>
        <trkpt lat="29.580643" lon="103.373962"><ele>1301.8981</ele><time>2026-08-12T05:15:44.000Z</time></trkpt>
        <trkpt lat="29.580618" lon="103.373913"><ele>1303.3848</ele><time>2026-08-12T05:15:51.000Z</time></trkpt>
        <trkpt lat="29.580589" lon="103.37387"><ele>1303.8972</ele><time>2026-08-12T05:15:59.000Z</time></trkpt>
        <trkpt lat="29.580564" lon="103.373832"><ele>1306.369</ele><time>2026-08-12T05:16:09.000Z</time></trkpt>
        <trkpt lat="29.580522" lon="103.373809"><ele>1307.4397</ele><time>2026-08-12T05:16:19.000Z</time></trkpt>
        <trkpt lat="29.580476" lon="103.373794"><ele>1308.2948</ele><time>2026-08-12T05:16:32.000Z</time></trkpt>
        <trkpt lat="29.580445" lon="103.373761"><ele>1310.0778</ele><time>2026-08-12T05:16:39.000Z</time></trkpt>
        <trkpt lat="29.580413" lon="103.373719"><ele>1310.2329</ele><time>2026-08-12T05:16:45.000Z</time></trkpt>
        <trkpt lat="29.580381" lon="103.373677"><ele>1310.0859</ele><time>2026-08-12T05:16:50.000Z</time></trkpt>
        <trkpt lat="29.580345" lon="103.373637"><ele>1310.4033</ele><time>2026-08-12T05:16:55.000Z</time></trkpt>
        <trkpt lat="29.580304" lon="103.373604"><ele>1310.6626</ele><time>2026-08-12T05:17:01.000Z</time></trkpt>
        <trkpt lat="29.580261" lon="103.373573"><ele>1311.1041</ele><time>2026-08-12T05:17:08.000Z</time></trkpt>
        <trkpt lat="29.580223" lon="103.373537"><ele>1311.202</ele><time>2026-08-12T05:17:16.000Z</time></trkpt>
        <trkpt lat="29.580201" lon="103.373491"><ele>1311.7054</ele><time>2026-08-12T05:17:23.000Z</time></trkpt>
        <trkpt lat="29.580166" lon="103.37345"><ele>1312.247</ele><time>2026-08-12T05:17:31.000Z</time></trkpt>
        <trkpt lat="29.580135" lon="103.373414"><ele>1312.8944</ele><time>2026-08-12T05:17:38.000Z</time></trkpt>
        <trkpt lat="29.580097" lon="103.373377"><ele>1313.7451</ele><time>2026-08-12T05:17:47.000Z</time></trkpt>
        <trkpt lat="29.580063" lon="103.373335"><ele>1314.346</ele><time>2026-08-12T05:17:55.000Z</time></trkpt>
        <trkpt lat="29.580033" lon="103.373295"><ele>1314.8801</ele><time>2026-08-12T05:18:20.000Z</time></trkpt>
        <trkpt lat="29.580003" lon="103.373256"><ele>1315.4856</ele><time>2026-08-12T05:18:28.000Z</time></trkpt>
        <trkpt lat="29.579984" lon="103.373211"><ele>1317.628</ele><time>2026-08-12T05:18:37.000Z</time></trkpt>
        <trkpt lat="29.579954" lon="103.373177"><ele>1319.9489</ele><time>2026-08-12T05:18:49.000Z</time></trkpt>
        <trkpt lat="29.579921" lon="103.373145"><ele>1321.8191</ele><time>2026-08-12T05:20:50.000Z</time></trkpt>
        <trkpt lat="29.579876" lon="103.373125"><ele>1322.5214</ele><time>2026-08-12T05:21:09.000Z</time></trkpt>
        <trkpt lat="29.579843" lon="103.373088"><ele>1322.8799</ele><time>2026-08-12T05:21:20.000Z</time></trkpt>
        <trkpt lat="29.579805" lon="103.373059"><ele>1324.1058</ele><time>2026-08-12T05:21:29.000Z</time></trkpt>
        <trkpt lat="29.579781" lon="103.373017"><ele>1326.134</ele><time>2026-08-12T05:21:39.000Z</time></trkpt>
        <trkpt lat="29.579765" lon="103.372974"><ele>1328.8727</ele><time>2026-08-12T05:21:49.000Z</time></trkpt>
        <trkpt lat="29.57975" lon="103.37295"><ele>1333.167</ele><time>2026-08-12T05:22:56.000Z</time></trkpt>
        <trkpt lat="29.579708" lon="103.372929"><ele>1334.6185</ele><time>2026-08-12T05:23:05.000Z</time></trkpt>
        <trkpt lat="29.579678" lon="103.372891"><ele>1335.8718</ele><time>2026-08-12T05:23:16.000Z</time></trkpt>
        <trkpt lat="29.579648" lon="103.372856"><ele>1337.4275</ele><time>2026-08-12T05:23:25.000Z</time></trkpt>
        <trkpt lat="29.579616" lon="103.37282"><ele>1339.1028</ele><time>2026-08-12T05:23:35.000Z</time></trkpt>
        <trkpt lat="29.579582" lon="103.372791"><ele>1341.1564</ele><time>2026-08-12T05:23:47.000Z</time></trkpt>
        <trkpt lat="29.57954" lon="103.372785"><ele>1343.3921</ele><time>2026-08-12T05:24:01.000Z</time></trkpt>
        <trkpt lat="29.579494" lon="103.372773"><ele>1344.8566</ele><time>2026-08-12T05:24:10.000Z</time></trkpt>
        <trkpt lat="29.579455" lon="103.372752"><ele>1347.4117</ele><time>2026-08-12T05:24:21.000Z</time></trkpt>
        <trkpt lat="29.579421" lon="103.372721"><ele>1349.7017</ele><time>2026-08-12T05:24:37.000Z</time></trkpt>
        <trkpt lat="29.579389" lon="103.372685"><ele>1350.5267</ele><time>2026-08-12T05:24:45.000Z</time></trkpt>
        <trkpt lat="29.579355" lon="103.372648"><ele>1351.1426</ele><time>2026-08-12T05:24:56.000Z</time></trkpt>
        <trkpt lat="29.579322" lon="103.372614"><ele>1352.6345</ele><time>2026-08-12T05:25:04.000Z</time></trkpt>
        <trkpt lat="29.579287" lon="103.372582"><ele>1353.7427</ele><time>2026-08-12T05:25:13.000Z</time></trkpt>
        <trkpt lat="29.579253" lon="103.372551"><ele>1355.7428</ele><time>2026-08-12T05:25:26.000Z</time></trkpt>
        <trkpt lat="29.57921" lon="103.372527"><ele>1355.7496</ele><time>2026-08-12T05:25:37.000Z</time></trkpt>
        <trkpt lat="29.579169" lon="103.372495"><ele>1357.7284</ele><time>2026-08-12T05:25:46.000Z</time></trkpt>
        <trkpt lat="29.579121" lon="103.372475"><ele>1358.3022</ele><time>2026-08-12T05:25:53.000Z</time></trkpt>
        <trkpt lat="29.579072" lon="103.372472"><ele>1359.37</ele><time>2026-08-12T05:26:00.000Z</time></trkpt>
        <trkpt lat="29.579028" lon="103.372467"><ele>1361.0763</ele><time>2026-08-12T05:26:07.000Z</time></trkpt>
        <trkpt lat="29.578984" lon="103.372444"><ele>1362.359</ele><time>2026-08-12T05:26:16.000Z</time></trkpt>
        <trkpt lat="29.578954" lon="103.372406"><ele>1363.0989</ele><time>2026-08-12T05:26:22.000Z</time></trkpt>
        <trkpt lat="29.578925" lon="103.372364"><ele>1363.5583</ele><time>2026-08-12T05:26:30.000Z</time></trkpt>
        <trkpt lat="29.578901" lon="103.372322"><ele>1364.8461</ele><time>2026-08-12T05:26:41.000Z</time></trkpt>
        <trkpt lat="29.578862" lon="103.372294"><ele>1366.6973</ele><time>2026-08-12T05:26:55.000Z</time></trkpt>
        <trkpt lat="29.578821" lon="103.372259"><ele>1367.2053</ele><time>2026-08-12T05:27:03.000Z</time></trkpt>
        <trkpt lat="29.578782" lon="103.372235"><ele>1368.192</ele><time>2026-08-12T05:27:09.000Z</time></trkpt>
        <trkpt lat="29.578741" lon="103.372215"><ele>1369.469</ele><time>2026-08-12T05:27:15.000Z</time></trkpt>
        <trkpt lat="29.5787" lon="103.372185"><ele>1369.6133</ele><time>2026-08-12T05:27:22.000Z</time></trkpt>
        <trkpt lat="29.578667" lon="103.372139"><ele>1370.0377</ele><time>2026-08-12T05:27:29.000Z</time></trkpt>
        <trkpt lat="29.578632" lon="103.372094"><ele>1370.3619</ele><time>2026-08-12T05:27:36.000Z</time></trkpt>
        <trkpt lat="29.578602" lon="103.372053"><ele>1370.5159</ele><time>2026-08-12T05:27:43.000Z</time></trkpt>
        <trkpt lat="29.578562" lon="103.372024"><ele>1371.4784</ele><time>2026-08-12T05:27:52.000Z</time></trkpt>
        <trkpt lat="29.578525" lon="103.371996"><ele>1373.5646</ele><time>2026-08-12T05:28:04.000Z</time></trkpt>
        <trkpt lat="29.578489" lon="103.371966"><ele>1374.6654</ele><time>2026-08-12T05:28:16.000Z</time></trkpt>
        <trkpt lat="29.57846" lon="103.371924"><ele>1375.449</ele><time>2026-08-12T05:28:27.000Z</time></trkpt>
        <trkpt lat="29.578432" lon="103.371885"><ele>1376.9891</ele><time>2026-08-12T05:28:39.000Z</time></trkpt>
        <trkpt lat="29.578408" lon="103.37184"><ele>1377.8807</ele><time>2026-08-12T05:28:52.000Z</time></trkpt>
        <trkpt lat="29.578383" lon="103.371795"><ele>1378.6339</ele><time>2026-08-12T05:29:05.000Z</time></trkpt>
        <trkpt lat="29.57836" lon="103.371749"><ele>1379.5142</ele><time>2026-08-12T05:29:16.000Z</time></trkpt>
        <trkpt lat="29.578338" lon="103.371704"><ele>1380.7838</ele><time>2026-08-12T05:29:23.000Z</time></trkpt>
        <trkpt lat="29.578313" lon="103.37166"><ele>1381.6248</ele><time>2026-08-12T05:29:31.000Z</time></trkpt>
        <trkpt lat="29.578285" lon="103.371616"><ele>1382.1605</ele><time>2026-08-12T05:29:39.000Z</time></trkpt>
        <trkpt lat="29.578248" lon="103.371583"><ele>1383.4194</ele><time>2026-08-12T05:29:48.000Z</time></trkpt>
        <trkpt lat="29.578204" lon="103.371569"><ele>1384.8706</ele><time>2026-08-12T05:30:01.000Z</time></trkpt>
        <trkpt lat="29.578165" lon="103.371544"><ele>1386.6295</ele><time>2026-08-12T05:30:14.000Z</time></trkpt>
        <trkpt lat="29.578141" lon="103.371503"><ele>1388.3398</ele><time>2026-08-12T05:30:26.000Z</time></trkpt>
        <trkpt lat="29.578108" lon="103.371469"><ele>1390.4182</ele><time>2026-08-12T05:30:39.000Z</time></trkpt>
        <trkpt lat="29.578081" lon="103.371435"><ele>1393.0577</ele><time>2026-08-12T05:30:50.000Z</time></trkpt>
        <trkpt lat="29.578054" lon="103.371416"><ele>1396.7291</ele><time>2026-08-12T05:32:44.000Z</time></trkpt>
        <trkpt lat="29.57802" lon="103.371387"><ele>1399.5875</ele><time>2026-08-12T05:32:50.000Z</time></trkpt>
        <trkpt lat="29.577976" lon="103.371367"><ele>1400.5546</ele><time>2026-08-12T05:33:01.000Z</time></trkpt>
        <trkpt lat="29.577934" lon="103.371347"><ele>1402.604</ele><time>2026-08-12T05:33:12.000Z</time></trkpt>
        <trkpt lat="29.577902" lon="103.371341"><ele>1406.4274</ele><time>2026-08-12T05:34:25.000Z</time></trkpt>
        <trkpt lat="29.577874" lon="103.371307"><ele>1408.9688</ele><time>2026-08-12T05:34:34.000Z</time></trkpt>
        <trkpt lat="29.577836" lon="103.37128"><ele>1410.7413</ele><time>2026-08-12T05:34:42.000Z</time></trkpt>
        <trkpt lat="29.577796" lon="103.371253"><ele>1412.4722</ele><time>2026-08-12T05:34:51.000Z</time></trkpt>
        <trkpt lat="29.577761" lon="103.37122"><ele>1414.2726</ele><time>2026-08-12T05:35:03.000Z</time></trkpt>
        <trkpt lat="29.577727" lon="103.371187"><ele>1415.9929</ele><time>2026-08-12T05:35:12.000Z</time></trkpt>
        <trkpt lat="29.577698" lon="103.371152"><ele>1418.0221</ele><time>2026-08-12T05:35:39.000Z</time></trkpt>
        <trkpt lat="29.577678" lon="103.371108"><ele>1420.4395</ele><time>2026-08-12T05:36:22.000Z</time></trkpt>
        <trkpt lat="29.577667" lon="103.371054"><ele>1419.8566</ele><time>2026-08-12T05:36:33.000Z</time></trkpt>
        <trkpt lat="29.577668" lon="103.371109"><ele>1420.161</ele><time>2026-08-12T05:37:02.000Z</time></trkpt>
        <trkpt lat="29.577622" lon="103.371099"><ele>1421.5013</ele><time>2026-08-12T05:37:20.000Z</time></trkpt>
        <trkpt lat="29.577578" lon="103.371087"><ele>1423.4949</ele><time>2026-08-12T05:37:28.000Z</time></trkpt>
        <trkpt lat="29.577553" lon="103.37104"><ele>1424.4869</ele><time>2026-08-12T05:37:36.000Z</time></trkpt>
        <trkpt lat="29.57755" lon="103.370986"><ele>1425.004</ele><time>2026-08-12T05:37:41.000Z</time></trkpt>
        <trkpt lat="29.577553" lon="103.371039"><ele>1426.158</ele><time>2026-08-12T05:41:44.000Z</time></trkpt>
        <trkpt lat="29.577584" lon="103.371076"><ele>1425.3208</ele><time>2026-08-12T05:41:53.000Z</time></trkpt>
        <trkpt lat="29.577616" lon="103.371113"><ele>1424.4717</ele><time>2026-08-12T05:42:03.000Z</time></trkpt>
        <trkpt lat="29.577654" lon="103.371133"><ele>1422.3798</ele><time>2026-08-12T05:42:13.000Z</time></trkpt>
        <trkpt lat="29.57765" lon="103.371076"><ele>1420.8015</ele><time>2026-08-12T05:42:24.000Z</time></trkpt>
        <trkpt lat="29.577654" lon="103.371026"><ele>1419.2888</ele><time>2026-08-12T05:42:32.000Z</time></trkpt>
        <trkpt lat="29.577634" lon="103.370972"><ele>1417.856</ele><time>2026-08-12T05:42:38.000Z</time></trkpt>
        <trkpt lat="29.577608" lon="103.370923"><ele>1417.7216</ele><time>2026-08-12T05:42:44.000Z</time></trkpt>
        <trkpt lat="29.577589" lon="103.370868"><ele>1418.4188</ele><time>2026-08-12T05:42:51.000Z</time></trkpt>
        <trkpt lat="29.577573" lon="103.370819"><ele>1418.856</ele><time>2026-08-12T05:42:57.000Z</time></trkpt>
        <trkpt lat="29.577547" lon="103.37077"><ele>1418.7515</ele><time>2026-08-12T05:43:03.000Z</time></trkpt>
        <trkpt lat="29.577511" lon="103.370727"><ele>1418.1105</ele><time>2026-08-12T05:43:09.000Z</time></trkpt>
        <trkpt lat="29.577474" lon="103.370691"><ele>1417.4758</ele><time>2026-08-12T05:43:16.000Z</time></trkpt>
        <trkpt lat="29.577434" lon="103.370663"><ele>1417.7157</ele><time>2026-08-12T05:43:25.000Z</time></trkpt>
        <trkpt lat="29.577402" lon="103.370627"><ele>1418.4427</ele><time>2026-08-12T05:43:31.000Z</time></trkpt>
        <trkpt lat="29.577371" lon="103.370586"><ele>1418.8044</ele><time>2026-08-12T05:43:37.000Z</time></trkpt>
        <trkpt lat="29.577334" lon="103.370548"><ele>1419.3231</ele><time>2026-08-12T05:43:43.000Z</time></trkpt>
        <trkpt lat="29.577299" lon="103.370511"><ele>1419.5194</ele><time>2026-08-12T05:43:48.000Z</time></trkpt>
        <trkpt lat="29.577268" lon="103.370469"><ele>1419.1449</ele><time>2026-08-12T05:43:53.000Z</time></trkpt>
        <trkpt lat="29.577236" lon="103.370426"><ele>1418.9421</ele><time>2026-08-12T05:43:58.000Z</time></trkpt>
        <trkpt lat="29.577202" lon="103.370385"><ele>1418.8376</ele><time>2026-08-12T05:44:03.000Z</time></trkpt>
        <trkpt lat="29.577163" lon="103.370352"><ele>1420.7944</ele><time>2026-08-12T05:44:09.000Z</time></trkpt>
        <trkpt lat="29.577124" lon="103.370329"><ele>1422.8673</ele><time>2026-08-12T05:44:20.000Z</time></trkpt>
        <trkpt lat="29.577083" lon="103.370299"><ele>1423.2385</ele><time>2026-08-12T05:44:26.000Z</time></trkpt>
        <trkpt lat="29.577056" lon="103.370255"><ele>1423.9154</ele><time>2026-08-12T05:44:32.000Z</time></trkpt>
        <trkpt lat="29.577024" lon="103.370207"><ele>1423.4844</ele><time>2026-08-12T05:44:38.000Z</time></trkpt>
        <trkpt lat="29.577002" lon="103.370159"><ele>1423.765</ele><time>2026-08-12T05:44:44.000Z</time></trkpt>
        <trkpt lat="29.576975" lon="103.370112"><ele>1424.3445</ele><time>2026-08-12T05:44:50.000Z</time></trkpt>
        <trkpt lat="29.57696" lon="103.370051"><ele>1424.2272</ele><time>2026-08-12T05:44:56.000Z</time></trkpt>
        <trkpt lat="29.57696" lon="103.369992"><ele>1424.0443</ele><time>2026-08-12T05:45:01.000Z</time></trkpt>
        <trkpt lat="29.576955" lon="103.369931"><ele>1424.9542</ele><time>2026-08-12T05:45:08.000Z</time></trkpt>
        <trkpt lat="29.576947" lon="103.369881"><ele>1425.6759</ele><time>2026-08-12T05:45:14.000Z</time></trkpt>
        <trkpt lat="29.576945" lon="103.369827"><ele>1425.5537</ele><time>2026-08-12T05:45:20.000Z</time></trkpt>
        <trkpt lat="29.576931" lon="103.369774"><ele>1426.1605</ele><time>2026-08-12T05:45:27.000Z</time></trkpt>
        <trkpt lat="29.576918" lon="103.369723"><ele>1426.6544</ele><time>2026-08-12T05:45:35.000Z</time></trkpt>
        <trkpt lat="29.576932" lon="103.369673"><ele>1426.4113</ele><time>2026-08-12T05:45:41.000Z</time></trkpt>
        <trkpt lat="29.576947" lon="103.369617"><ele>1425.9786</ele><time>2026-08-12T05:45:47.000Z</time></trkpt>
        <trkpt lat="29.576943" lon="103.369563"><ele>1426.0356</ele><time>2026-08-12T05:45:53.000Z</time></trkpt>
        <trkpt lat="29.576928" lon="103.36951"><ele>1426.0042</ele><time>2026-08-12T05:46:00.000Z</time></trkpt>
        <trkpt lat="29.57692" lon="103.369452"><ele>1426.3286</ele><time>2026-08-12T05:46:07.000Z</time></trkpt>
        <trkpt lat="29.576908" lon="103.369399"><ele>1426.9008</ele><time>2026-08-12T05:46:14.000Z</time></trkpt>
        <trkpt lat="29.576903" lon="103.369347"><ele>1427.6885</ele><time>2026-08-12T05:46:21.000Z</time></trkpt>
        <trkpt lat="29.576906" lon="103.369292"><ele>1428.4644</ele><time>2026-08-12T05:46:30.000Z</time></trkpt>
        <trkpt lat="29.576906" lon="103.36924"><ele>1429.5992</ele><time>2026-08-12T05:46:39.000Z</time></trkpt>
        <trkpt lat="29.576906" lon="103.369185"><ele>1430.8245</ele><time>2026-08-12T05:46:47.000Z</time></trkpt>
        <trkpt lat="29.576909" lon="103.369131"><ele>1431.3337</ele><time>2026-08-12T05:46:56.000Z</time></trkpt>
        <trkpt lat="29.576917" lon="103.369076"><ele>1431.8751</ele><time>2026-08-12T05:47:05.000Z</time></trkpt>
        <trkpt lat="29.576925" lon="103.369023"><ele>1432.844</ele><time>2026-08-12T05:47:12.000Z</time></trkpt>
        <trkpt lat="29.576941" lon="103.368969"><ele>1433.1776</ele><time>2026-08-12T05:47:19.000Z</time></trkpt>
        <trkpt lat="29.576945" lon="103.368911"><ele>1432.8699</ele><time>2026-08-12T05:47:26.000Z</time></trkpt>
        <trkpt lat="29.576947" lon="103.368851"><ele>1432.7317</ele><time>2026-08-12T05:47:32.000Z</time></trkpt>
        <trkpt lat="29.576946" lon="103.368799"><ele>1432.6293</ele><time>2026-08-12T05:47:37.000Z</time></trkpt>
        <trkpt lat="29.576948" lon="103.368744"><ele>1432.3705</ele><time>2026-08-12T05:47:42.000Z</time></trkpt>
        <trkpt lat="29.576951" lon="103.368684"><ele>1432.3501</ele><time>2026-08-12T05:47:48.000Z</time></trkpt>
        <trkpt lat="29.576961" lon="103.368626"><ele>1432.326</ele><time>2026-08-12T05:47:55.000Z</time></trkpt>
        <trkpt lat="29.576973" lon="103.368573"><ele>1433.1451</ele><time>2026-08-12T05:48:01.000Z</time></trkpt>
        <trkpt lat="29.576977" lon="103.368517"><ele>1432.9565</ele><time>2026-08-12T05:48:08.000Z</time></trkpt>
        <trkpt lat="29.576985" lon="103.368457"><ele>1433.1746</ele><time>2026-08-12T05:48:15.000Z</time></trkpt>
        <trkpt lat="29.576994" lon="103.368401"><ele>1433.5203</ele><time>2026-08-12T05:48:21.000Z</time></trkpt>
        <trkpt lat="29.577003" lon="103.368345"><ele>1433.7706</ele><time>2026-08-12T05:48:29.000Z</time></trkpt>
        <trkpt lat="29.577003" lon="103.368292"><ele>1434.289</ele><time>2026-08-12T05:48:37.000Z</time></trkpt>
        <trkpt lat="29.577007" lon="103.36824"><ele>1435.4186</ele><time>2026-08-12T05:48:45.000Z</time></trkpt>
        <trkpt lat="29.577017" lon="103.368187"><ele>1436.6061</ele><time>2026-08-12T05:48:59.000Z</time></trkpt>
        <trkpt lat="29.577012" lon="103.368138"><ele>1438.0594</ele><time>2026-08-12T05:49:16.000Z</time></trkpt>
        <trkpt lat="29.577022" lon="103.368086"><ele>1438.3187</ele><time>2026-08-12T05:49:27.000Z</time></trkpt>
        <trkpt lat="29.577023" lon="103.36806"><ele>1442.2168</ele><time>2026-08-12T05:52:34.000Z</time></trkpt>
        <trkpt lat="29.577099" lon="103.367972"><ele>1442.2168</ele><time>2026-08-12T05:52:59.000Z</time></trkpt>
        <trkpt lat="29.577123" lon="103.367934"><ele>1444.1893</ele><time>2026-08-12T05:53:16.000Z</time></trkpt>
        <trkpt lat="29.577158" lon="103.367903"><ele>1445.3795</ele><time>2026-08-12T05:53:30.000Z</time></trkpt>
        <trkpt lat="29.57718" lon="103.367856"><ele>1446.0948</ele><time>2026-08-12T05:53:43.000Z</time></trkpt>
        <trkpt lat="29.577197" lon="103.367815"><ele>1448.7906</ele><time>2026-08-12T05:53:58.000Z</time></trkpt>
        <trkpt lat="29.577199" lon="103.367766"><ele>1451.7135</ele><time>2026-08-12T05:57:41.000Z</time></trkpt>
        <trkpt lat="29.577205" lon="103.367716"><ele>1453.2643</ele><time>2026-08-12T05:57:47.000Z</time></trkpt>
        <trkpt lat="29.577195" lon="103.367673"><ele>1455.9486</ele><time>2026-08-12T05:58:02.000Z</time></trkpt>
        <trkpt lat="29.577153" lon="103.367639"><ele>1456.5078</ele><time>2026-08-12T05:58:12.000Z</time></trkpt>
        <trkpt lat="29.577112" lon="103.367601"><ele>1456.3744</ele><time>2026-08-12T05:58:18.000Z</time></trkpt>
        <trkpt lat="29.577066" lon="103.367561"><ele>1456.11</ele><time>2026-08-12T05:58:24.000Z</time></trkpt>
        <trkpt lat="29.577038" lon="103.36752"><ele>1456.3646</ele><time>2026-08-12T05:58:29.000Z</time></trkpt>
        <trkpt lat="29.577007" lon="103.367474"><ele>1456.9744</ele><time>2026-08-12T05:58:36.000Z</time></trkpt>
        <trkpt lat="29.576977" lon="103.367421"><ele>1457.2648</ele><time>2026-08-12T05:58:42.000Z</time></trkpt>
        <trkpt lat="29.576942" lon="103.367378"><ele>1456.6049</ele><time>2026-08-12T05:58:47.000Z</time></trkpt>
        <trkpt lat="29.576908" lon="103.367338"><ele>1456.2352</ele><time>2026-08-12T05:58:53.000Z</time></trkpt>
        <trkpt lat="29.576871" lon="103.367308"><ele>1455.696</ele><time>2026-08-12T05:58:58.000Z</time></trkpt>
        <trkpt lat="29.576824" lon="103.367284"><ele>1455.3</ele><time>2026-08-12T05:59:03.000Z</time></trkpt>
        <trkpt lat="29.57678" lon="103.367251"><ele>1454.5381</ele><time>2026-08-12T05:59:08.000Z</time></trkpt>
        <trkpt lat="29.576747" lon="103.367207"><ele>1454.1952</ele><time>2026-08-12T05:59:13.000Z</time></trkpt>
        <trkpt lat="29.57672" lon="103.367158"><ele>1454.0596</ele><time>2026-08-12T05:59:18.000Z</time></trkpt>
        <trkpt lat="29.576694" lon="103.367109"><ele>1454.7228</ele><time>2026-08-12T05:59:23.000Z</time></trkpt>
        <trkpt lat="29.576666" lon="103.36706"><ele>1454.9133</ele><time>2026-08-12T05:59:28.000Z</time></trkpt>
        <trkpt lat="29.576638" lon="103.36702"><ele>1454.1271</ele><time>2026-08-12T05:59:33.000Z</time></trkpt>
        <trkpt lat="29.576613" lon="103.366971"><ele>1454.5662</ele><time>2026-08-12T05:59:40.000Z</time></trkpt>
        <trkpt lat="29.576591" lon="103.366923"><ele>1454.7537</ele><time>2026-08-12T05:59:45.000Z</time></trkpt>
        <trkpt lat="29.576551" lon="103.366883"><ele>1454.4017</ele><time>2026-08-12T05:59:50.000Z</time></trkpt>
        <trkpt lat="29.576514" lon="103.366849"><ele>1453.8239</ele><time>2026-08-12T05:59:54.000Z</time></trkpt>
        <trkpt lat="29.576473" lon="103.366824"><ele>1453.2974</ele><time>2026-08-12T05:59:59.000Z</time></trkpt>
        <trkpt lat="29.576435" lon="103.366792"><ele>1453.4747</ele><time>2026-08-12T06:00:05.000Z</time></trkpt>
        <trkpt lat="29.576396" lon="103.366756"><ele>1453.4916</ele><time>2026-08-12T06:00:11.000Z</time></trkpt>
        <trkpt lat="29.57637" lon="103.366713"><ele>1453.8005</ele><time>2026-08-12T06:00:16.000Z</time></trkpt>
        <trkpt lat="29.57635" lon="103.366657"><ele>1454.0948</ele><time>2026-08-12T06:00:22.000Z</time></trkpt>
        <trkpt lat="29.57633" lon="103.366608"><ele>1454.8463</ele><time>2026-08-12T06:00:27.000Z</time></trkpt>
        <trkpt lat="29.576308" lon="103.366561"><ele>1454.9404</ele><time>2026-08-12T06:00:32.000Z</time></trkpt>
        <trkpt lat="29.576292" lon="103.366512"><ele>1455.5021</ele><time>2026-08-12T06:00:37.000Z</time></trkpt>
        <trkpt lat="29.576272" lon="103.366465"><ele>1455.8021</ele><time>2026-08-12T06:00:42.000Z</time></trkpt>
        <trkpt lat="29.576255" lon="103.366413"><ele>1455.3494</ele><time>2026-08-12T06:00:49.000Z</time></trkpt>
        <trkpt lat="29.576245" lon="103.36636"><ele>1455.5474</ele><time>2026-08-12T06:00:55.000Z</time></trkpt>
        <trkpt lat="29.576232" lon="103.366304"><ele>1455.3916</ele><time>2026-08-12T06:01:01.000Z</time></trkpt>
        <trkpt lat="29.576227" lon="103.366251"><ele>1454.6971</ele><time>2026-08-12T06:01:07.000Z</time></trkpt>
        <trkpt lat="29.576238" lon="103.3662"><ele>1454.1512</ele><time>2026-08-12T06:01:14.000Z</time></trkpt>
        <trkpt lat="29.576242" lon="103.366146"><ele>1453.444</ele><time>2026-08-12T06:01:22.000Z</time></trkpt>
        <trkpt lat="29.576217" lon="103.36611"><ele>1450.9968</ele><time>2026-08-12T06:01:33.000Z</time></trkpt>
        <trkpt lat="29.57618" lon="103.366087"><ele>1449.0674</ele><time>2026-08-12T06:01:41.000Z</time></trkpt>
        <trkpt lat="29.576152" lon="103.366044"><ele>1447.9537</ele><time>2026-08-12T06:01:56.000Z</time></trkpt>
        <trkpt lat="29.57612" lon="103.366003"><ele>1446.2164</ele><time>2026-08-12T06:02:04.000Z</time></trkpt>
        <trkpt lat="29.576093" lon="103.365961"><ele>1443.9784</ele><time>2026-08-12T06:02:11.000Z</time></trkpt>
        <trkpt lat="29.576067" lon="103.365934"><ele>1440.3855</ele><time>2026-08-12T06:02:18.000Z</time></trkpt>
        <trkpt lat="29.576033" lon="103.365902"><ele>1438.5981</ele><time>2026-08-12T06:02:35.000Z</time></trkpt>
        <trkpt lat="29.575991" lon="103.365881"><ele>1437.6841</ele><time>2026-08-12T06:02:42.000Z</time></trkpt>
        <trkpt lat="29.57595" lon="103.365865"><ele>1436.0059</ele><time>2026-08-12T06:02:50.000Z</time></trkpt>
        <trkpt lat="29.57591" lon="103.365841"><ele>1434.7454</ele><time>2026-08-12T06:02:56.000Z</time></trkpt>
        <trkpt lat="29.57587" lon="103.365818"><ele>1433.8517</ele><time>2026-08-12T06:03:03.000Z</time></trkpt>
        <trkpt lat="29.575828" lon="103.3658"><ele>1431.8494</ele><time>2026-08-12T06:03:12.000Z</time></trkpt>
        <trkpt lat="29.575793" lon="103.365771"><ele>1430.4211</ele><time>2026-08-12T06:03:18.000Z</time></trkpt>
        <trkpt lat="29.57576" lon="103.365736"><ele>1430.3649</ele><time>2026-08-12T06:03:22.000Z</time></trkpt>
        <trkpt lat="29.575723" lon="103.365705"><ele>1429.6254</ele><time>2026-08-12T06:03:26.000Z</time></trkpt>
        <trkpt lat="29.57568" lon="103.365687"><ele>1428.8723</ele><time>2026-08-12T06:03:32.000Z</time></trkpt>
        <trkpt lat="29.575637" lon="103.365663"><ele>1427.0613</ele><time>2026-08-12T06:03:47.000Z</time></trkpt>
        <trkpt lat="29.575601" lon="103.365623"><ele>1426.532</ele><time>2026-08-12T06:03:54.000Z</time></trkpt>
        <trkpt lat="29.575578" lon="103.365578"><ele>1425.3136</ele><time>2026-08-12T06:04:03.000Z</time></trkpt>
        <trkpt lat="29.575551" lon="103.365537"><ele>1425.437</ele><time>2026-08-12T06:04:16.000Z</time></trkpt>
        <trkpt lat="29.575505" lon="103.365528"><ele>1425.5175</ele><time>2026-08-12T06:04:35.000Z</time></trkpt>
        <trkpt lat="29.575464" lon="103.365509"><ele>1426.26</ele><time>2026-08-12T06:04:48.000Z</time></trkpt>
        <trkpt lat="29.575427" lon="103.365486"><ele>1428.1898</ele><time>2026-08-12T06:05:03.000Z</time></trkpt>
        <trkpt lat="29.57541" lon="103.365512"><ele>1432.0887</ele><time>2026-08-12T06:05:26.000Z</time></trkpt>
        <trkpt lat="29.575395" lon="103.365518"><ele>1432.5453</ele><time>2026-08-12T06:09:22.000Z</time></trkpt>
        <trkpt lat="29.575395" lon="103.365518"><ele>1432.5453</ele><time>2026-08-12T06:09:46.000Z</time></trkpt>
        <trkpt lat="29.575379" lon="103.365469"><ele>1434.2113</ele><time>2026-08-12T06:11:15.000Z</time></trkpt>
        <trkpt lat="29.575344" lon="103.365434"><ele>1435.1025</ele><time>2026-08-12T06:11:40.000Z</time></trkpt>
        <trkpt lat="29.575301" lon="103.365408"><ele>1435.9174</ele><time>2026-08-12T06:11:50.000Z</time></trkpt>
        <trkpt lat="29.575259" lon="103.365381"><ele>1436.9344</ele><time>2026-08-12T06:12:01.000Z</time></trkpt>
        <trkpt lat="29.575221" lon="103.36535"><ele>1438.4952</ele><time>2026-08-12T06:12:18.000Z</time></trkpt>
        <trkpt lat="29.575187" lon="103.365312"><ele>1439.3309</ele><time>2026-08-12T06:12:32.000Z</time></trkpt>
        <trkpt lat="29.575144" lon="103.365294"><ele>1441.2397</ele><time>2026-08-12T06:12:56.000Z</time></trkpt>
        <trkpt lat="29.575133" lon="103.365247"><ele>1443.804</ele><time>2026-08-12T06:14:06.000Z</time></trkpt>
        <trkpt lat="29.575098" lon="103.365222"><ele>1446.1442</ele><time>2026-08-12T06:14:13.000Z</time></trkpt>
        <trkpt lat="29.575057" lon="103.365194"><ele>1447.5466</ele><time>2026-08-12T06:14:22.000Z</time></trkpt>
        <trkpt lat="29.575021" lon="103.365155"><ele>1448.5353</ele><time>2026-08-12T06:14:29.000Z</time></trkpt>
        <trkpt lat="29.574993" lon="103.36511"><ele>1448.6014</ele><time>2026-08-12T06:14:35.000Z</time></trkpt>
        <trkpt lat="29.574971" lon="103.365062"><ele>1449.1771</ele><time>2026-08-12T06:14:41.000Z</time></trkpt>
        <trkpt lat="29.574964" lon="103.365012"><ele>1451.2118</ele><time>2026-08-12T06:14:47.000Z</time></trkpt>
        <trkpt lat="29.57496" lon="103.364964"><ele>1453.771</ele><time>2026-08-12T06:16:00.000Z</time></trkpt>
        <trkpt lat="29.57495" lon="103.364914"><ele>1454.7712</ele><time>2026-08-12T06:16:16.000Z</time></trkpt>
        <trkpt lat="29.574927" lon="103.364864"><ele>1455.1815</ele><time>2026-08-12T06:16:24.000Z</time></trkpt>
        <trkpt lat="29.574906" lon="103.364819"><ele>1456.9941</ele><time>2026-08-12T06:16:33.000Z</time></trkpt>
        <trkpt lat="29.574881" lon="103.36478"><ele>1459.0283</ele><time>2026-08-12T06:16:44.000Z</time></trkpt>
        <trkpt lat="29.574853" lon="103.364747"><ele>1461.4027</ele><time>2026-08-12T06:16:56.000Z</time></trkpt>
        <trkpt lat="29.574833" lon="103.364736"><ele>1466.0781</ele><time>2026-08-12T06:17:18.000Z</time></trkpt>
        <trkpt lat="29.574814" lon="103.364718"><ele>1470.3167</ele><time>2026-08-12T06:17:37.000Z</time></trkpt>
        <trkpt lat="29.574784" lon="103.364684"><ele>1473.0022</ele><time>2026-08-12T06:17:46.000Z</time></trkpt>
        <trkpt lat="29.574778" lon="103.364638"><ele>1476.5144</ele><time>2026-08-12T06:17:54.000Z</time></trkpt>
        <trkpt lat="29.574778" lon="103.364587"><ele>1477.9939</ele><time>2026-08-12T06:22:01.000Z</time></trkpt>
        <trkpt lat="29.574736" lon="103.364562"><ele>1479.5759</ele><time>2026-08-12T06:22:11.000Z</time></trkpt>
        <trkpt lat="29.574704" lon="103.364529"><ele>1480.9183</ele><time>2026-08-12T06:22:17.000Z</time></trkpt>
        <trkpt lat="29.574671" lon="103.364494"><ele>1482.6238</ele><time>2026-08-12T06:22:25.000Z</time></trkpt>
        <trkpt lat="29.574654" lon="103.364447"><ele>1483.9681</ele><time>2026-08-12T06:22:32.000Z</time></trkpt>
        <trkpt lat="29.574659" lon="103.364392"><ele>1484.5261</ele><time>2026-08-12T06:22:40.000Z</time></trkpt>
        <trkpt lat="29.574651" lon="103.364336"><ele>1485.6875</ele><time>2026-08-12T06:22:48.000Z</time></trkpt>
        <trkpt lat="29.574629" lon="103.364292"><ele>1487.108</ele><time>2026-08-12T06:22:54.000Z</time></trkpt>
        <trkpt lat="29.574595" lon="103.364259"><ele>1488.3468</ele><time>2026-08-12T06:22:59.000Z</time></trkpt>
        <trkpt lat="29.574554" lon="103.364228"><ele>1489.4647</ele><time>2026-08-12T06:23:06.000Z</time></trkpt>
        <trkpt lat="29.574519" lon="103.364198"><ele>1491.1494</ele><time>2026-08-12T06:23:13.000Z</time></trkpt>
        <trkpt lat="29.574489" lon="103.36416"><ele>1492.3989</ele><time>2026-08-12T06:23:21.000Z</time></trkpt>
        <trkpt lat="29.574457" lon="103.364127"><ele>1494.5476</ele><time>2026-08-12T06:23:30.000Z</time></trkpt>
        <trkpt lat="29.574431" lon="103.364078"><ele>1495.1632</ele><time>2026-08-12T06:23:38.000Z</time></trkpt>
        <trkpt lat="29.574416" lon="103.364029"><ele>1494.9829</ele><time>2026-08-12T06:23:45.000Z</time></trkpt>
        <trkpt lat="29.574412" lon="103.363977"><ele>1496.1361</ele><time>2026-08-12T06:23:52.000Z</time></trkpt>
        <trkpt lat="29.574413" lon="103.363922"><ele>1496.8204</ele><time>2026-08-12T06:24:02.000Z</time></trkpt>
        <trkpt lat="29.574396" lon="103.363878"><ele>1499.547</ele><time>2026-08-12T06:24:09.000Z</time></trkpt>
        <trkpt lat="29.574376" lon="103.363842"><ele>1502.5974</ele><time>2026-08-12T06:24:19.000Z</time></trkpt>
        <trkpt lat="29.574359" lon="103.363794"><ele>1503.2988</ele><time>2026-08-12T06:24:32.000Z</time></trkpt>
        <trkpt lat="29.57438" lon="103.363755"><ele>1505.6161</ele><time>2026-08-12T06:25:49.000Z</time></trkpt>
        <trkpt lat="29.574467" lon="103.363678"><ele>1505.6161</ele><time>2026-08-12T06:26:15.000Z</time></trkpt>
        <trkpt lat="29.574513" lon="103.363669"><ele>1507.0753</ele><time>2026-08-12T06:26:33.000Z</time></trkpt>
        <trkpt lat="29.574549" lon="103.363685"><ele>1509.8362</ele><time>2026-08-12T06:27:51.000Z</time></trkpt>
        <trkpt lat="29.574587" lon="103.363684"><ele>1513.6624</ele><time>2026-08-12T06:28:01.000Z</time></trkpt>
        <trkpt lat="29.574597" lon="103.363639"><ele>1516.3016</ele><time>2026-08-12T06:28:16.000Z</time></trkpt>
        <trkpt lat="29.574601" lon="103.363613"><ele>1521.2328</ele><time>2026-08-12T06:28:22.000Z</time></trkpt>
        <trkpt lat="29.574605" lon="103.363554"><ele>1523.0275</ele><time>2026-08-12T06:32:30.000Z</time></trkpt>
        <trkpt lat="29.574587" lon="103.3635"><ele>1523.1292</ele><time>2026-08-12T06:32:38.000Z</time></trkpt>
        <trkpt lat="29.574575" lon="103.363443"><ele>1523.5986</ele><time>2026-08-12T06:32:45.000Z</time></trkpt>
        <trkpt lat="29.574591" lon="103.363391"><ele>1524.5099</ele><time>2026-08-12T06:33:15.000Z</time></trkpt>
        <trkpt lat="29.574583" lon="103.363336"><ele>1525.3379</ele><time>2026-08-12T06:33:22.000Z</time></trkpt>
        <trkpt lat="29.574585" lon="103.363289"><ele>1528.255</ele><time>2026-08-12T06:33:43.000Z</time></trkpt>
        <trkpt lat="29.574559" lon="103.363248"><ele>1530.1139</ele><time>2026-08-12T06:33:57.000Z</time></trkpt>
        <trkpt lat="29.574538" lon="103.3632"><ele>1530.9122</ele><time>2026-08-12T06:34:08.000Z</time></trkpt>
        <trkpt lat="29.57453" lon="103.363149"><ele>1531.6078</ele><time>2026-08-12T06:34:20.000Z</time></trkpt>
        <trkpt lat="29.574546" lon="103.3631"><ele>1531.6782</ele><time>2026-08-12T06:34:32.000Z</time></trkpt>
        <trkpt lat="29.574537" lon="103.363069"><ele>1532.8225</ele><time>2026-08-12T06:35:59.000Z</time></trkpt>
        <trkpt lat="29.574564" lon="103.362887"><ele>1532.8225</ele><time>2026-08-12T06:36:25.000Z</time></trkpt>
        <trkpt lat="29.57459" lon="103.362845"><ele>1533.9537</ele><time>2026-08-12T06:36:35.000Z</time></trkpt>
        <trkpt lat="29.574634" lon="103.362823"><ele>1535.3071</ele><time>2026-08-12T06:36:44.000Z</time></trkpt>
        <trkpt lat="29.574675" lon="103.362796"><ele>1536.4403</ele><time>2026-08-12T06:36:50.000Z</time></trkpt>
        <trkpt lat="29.574718" lon="103.362789"><ele>1538.0452</ele><time>2026-08-12T06:37:03.000Z</time></trkpt>
        <trkpt lat="29.574752" lon="103.3628"><ele>1541.335</ele><time>2026-08-12T06:37:24.000Z</time></trkpt>
        <trkpt lat="29.574794" lon="103.362778"><ele>1541.8972</ele><time>2026-08-12T06:39:23.000Z</time></trkpt>
        <trkpt lat="29.574821" lon="103.362737"><ele>1542.9738</ele><time>2026-08-12T06:39:34.000Z</time></trkpt>
        <trkpt lat="29.574853" lon="103.362694"><ele>1543.7578</ele><time>2026-08-12T06:39:42.000Z</time></trkpt>
        <trkpt lat="29.574869" lon="103.362643"><ele>1544.969</ele><time>2026-08-12T06:40:04.000Z</time></trkpt>
        <trkpt lat="29.574858" lon="103.362595"><ele>1547.2705</ele><time>2026-08-12T06:40:41.000Z</time></trkpt>
        <trkpt lat="29.574831" lon="103.362555"><ele>1548.6597</ele><time>2026-08-12T06:40:48.000Z</time></trkpt>
        <trkpt lat="29.574796" lon="103.362519"><ele>1549.743</ele><time>2026-08-12T06:40:54.000Z</time></trkpt>
        <trkpt lat="29.574774" lon="103.362467"><ele>1552.0116</ele><time>2026-08-12T06:41:03.000Z</time></trkpt>
        <trkpt lat="29.574758" lon="103.362425"><ele>1554.7527</ele><time>2026-08-12T06:41:12.000Z</time></trkpt>
        <trkpt lat="29.574712" lon="103.362414"><ele>1557.0082</ele><time>2026-08-12T06:41:23.000Z</time></trkpt>
        <trkpt lat="29.574669" lon="103.362415"><ele>1558.9495</ele><time>2026-08-12T06:41:31.000Z</time></trkpt>
        <trkpt lat="29.574622" lon="103.362413"><ele>1561.4379</ele><time>2026-08-12T06:41:39.000Z</time></trkpt>
        <trkpt lat="29.574586" lon="103.362434"><ele>1564.1149</ele><time>2026-08-12T06:42:16.000Z</time></trkpt>
        <trkpt lat="29.574538" lon="103.362449"><ele>1564.4761</ele><time>2026-08-12T06:42:23.000Z</time></trkpt>
        <trkpt lat="29.574491" lon="103.36247"><ele>1564.7855</ele><time>2026-08-12T06:42:30.000Z</time></trkpt>
        <trkpt lat="29.574441" lon="103.362496"><ele>1564.8927</ele><time>2026-08-12T06:42:36.000Z</time></trkpt>
        <trkpt lat="29.574394" lon="103.362515"><ele>1565.0737</ele><time>2026-08-12T06:42:42.000Z</time></trkpt>
        <trkpt lat="29.574348" lon="103.362517"><ele>1565.3473</ele><time>2026-08-12T06:42:47.000Z</time></trkpt>
        <trkpt lat="29.574302" lon="103.362515"><ele>1565.4451</ele><time>2026-08-12T06:42:52.000Z</time></trkpt>
        <trkpt lat="29.574251" lon="103.362512"><ele>1565.2979</ele><time>2026-08-12T06:42:58.000Z</time></trkpt>
        <trkpt lat="29.574201" lon="103.362516"><ele>1564.795</ele><time>2026-08-12T06:43:03.000Z</time></trkpt>
        <trkpt lat="29.574153" lon="103.362524"><ele>1564.4364</ele><time>2026-08-12T06:43:08.000Z</time></trkpt>
        <trkpt lat="29.574107" lon="103.36253"><ele>1564.3983</ele><time>2026-08-12T06:43:14.000Z</time></trkpt>
        <trkpt lat="29.574058" lon="103.362533"><ele>1564.4653</ele><time>2026-08-12T06:43:21.000Z</time></trkpt>
        <trkpt lat="29.574006" lon="103.362531"><ele>1564.7104</ele><time>2026-08-12T06:43:28.000Z</time></trkpt>
        <trkpt lat="29.573961" lon="103.362524"><ele>1564.7734</ele><time>2026-08-12T06:43:36.000Z</time></trkpt>
        <trkpt lat="29.573924" lon="103.362491"><ele>1565.6498</ele><time>2026-08-12T06:43:44.000Z</time></trkpt>
        <trkpt lat="29.573891" lon="103.362455"><ele>1567.0176</ele><time>2026-08-12T06:43:52.000Z</time></trkpt>
        <trkpt lat="29.573852" lon="103.362423"><ele>1566.3881</ele><time>2026-08-12T06:44:00.000Z</time></trkpt>
        <trkpt lat="29.573814" lon="103.362388"><ele>1566.6788</ele><time>2026-08-12T06:44:08.000Z</time></trkpt>
        <trkpt lat="29.573777" lon="103.362351"><ele>1567.0366</ele><time>2026-08-12T06:44:17.000Z</time></trkpt>
        <trkpt lat="29.573744" lon="103.362317"><ele>1567.4662</ele><time>2026-08-12T06:44:27.000Z</time></trkpt>
        <trkpt lat="29.573707" lon="103.362284"><ele>1567.7422</ele><time>2026-08-12T06:44:37.000Z</time></trkpt>
        <trkpt lat="29.573672" lon="103.362248"><ele>1568.7617</ele><time>2026-08-12T06:44:47.000Z</time></trkpt>
        <trkpt lat="29.573636" lon="103.362218"><ele>1570.1682</ele><time>2026-08-12T06:45:10.000Z</time></trkpt>
        <trkpt lat="29.573594" lon="103.362188"><ele>1571.3452</ele><time>2026-08-12T06:45:20.000Z</time></trkpt>
        <trkpt lat="29.573559" lon="103.362163"><ele>1573.5879</ele><time>2026-08-12T06:45:29.000Z</time></trkpt>
        <trkpt lat="29.573531" lon="103.362122"><ele>1574.9653</ele><time>2026-08-12T06:46:53.000Z</time></trkpt>
        <trkpt lat="29.573498" lon="103.362083"><ele>1576.2595</ele><time>2026-08-12T06:47:02.000Z</time></trkpt>
        <trkpt lat="29.573463" lon="103.362048"><ele>1577.5043</ele><time>2026-08-12T06:47:16.000Z</time></trkpt>
        <trkpt lat="29.57343" lon="103.362009"><ele>1578.9735</ele><time>2026-08-12T06:47:41.000Z</time></trkpt>
        <trkpt lat="29.573392" lon="103.36198"><ele>1580.229</ele><time>2026-08-12T06:47:51.000Z</time></trkpt>
        <trkpt lat="29.573359" lon="103.361951"><ele>1582.352</ele><time>2026-08-12T06:48:08.000Z</time></trkpt>
        <trkpt lat="29.573339" lon="103.361913"><ele>1585.0819</ele><time>2026-08-12T06:51:34.000Z</time></trkpt>
        <trkpt lat="29.573293" lon="103.361896"><ele>1586.0803</ele><time>2026-08-12T06:51:48.000Z</time></trkpt>
        <trkpt lat="29.57325" lon="103.36188"><ele>1586.6534</ele><time>2026-08-12T06:51:54.000Z</time></trkpt>
        <trkpt lat="29.573217" lon="103.361841"><ele>1588.7417</ele><time>2026-08-12T06:52:02.000Z</time></trkpt>
        <trkpt lat="29.573179" lon="103.361812"><ele>1589.3965</ele><time>2026-08-12T06:52:09.000Z</time></trkpt>
        <trkpt lat="29.573144" lon="103.361783"><ele>1591.0381</ele><time>2026-08-12T06:52:16.000Z</time></trkpt>
        <trkpt lat="29.573105" lon="103.361751"><ele>1593.1079</ele><time>2026-08-12T06:52:24.000Z</time></trkpt>
        <trkpt lat="29.573057" lon="103.361727"><ele>1594.3572</ele><time>2026-08-12T06:52:30.000Z</time></trkpt>
        <trkpt lat="29.573021" lon="103.361694"><ele>1596.1344</ele><time>2026-08-12T06:52:36.000Z</time></trkpt>
        <trkpt lat="29.572973" lon="103.361667"><ele>1597.445</ele><time>2026-08-12T06:52:45.000Z</time></trkpt>
        <trkpt lat="29.572928" lon="103.361648"><ele>1598.0057</ele><time>2026-08-12T06:52:50.000Z</time></trkpt>
        <trkpt lat="29.572887" lon="103.361633"><ele>1599.3763</ele><time>2026-08-12T06:52:55.000Z</time></trkpt>
        <trkpt lat="29.572843" lon="103.361617"><ele>1600.3247</ele><time>2026-08-12T06:53:02.000Z</time></trkpt>
        <trkpt lat="29.572798" lon="103.361614"><ele>1600.6992</ele><time>2026-08-12T06:53:10.000Z</time></trkpt>
        <trkpt lat="29.572752" lon="103.361611"><ele>1601.3474</ele><time>2026-08-12T06:53:15.000Z</time></trkpt>
        <trkpt lat="29.572707" lon="103.361617"><ele>1602.1427</ele><time>2026-08-12T06:53:21.000Z</time></trkpt>
        <trkpt lat="29.572665" lon="103.361639"><ele>1602.4762</ele><time>2026-08-12T06:53:28.000Z</time></trkpt>
        <trkpt lat="29.57262" lon="103.361675"><ele>1602.6552</ele><time>2026-08-12T06:53:35.000Z</time></trkpt>
        <trkpt lat="29.572574" lon="103.361666"><ele>1604.4832</ele><time>2026-08-12T06:53:45.000Z</time></trkpt>
        <trkpt lat="29.572554" lon="103.361668"><ele>1606.7499</ele><time>2026-08-12T06:55:03.000Z</time></trkpt>
        <trkpt lat="29.572424" lon="103.361728"><ele>1606.7499</ele><time>2026-08-12T06:55:30.000Z</time></trkpt>
        <trkpt lat="29.572378" lon="103.361739"><ele>1607.7157</ele><time>2026-08-12T06:55:40.000Z</time></trkpt>
        <trkpt lat="29.572368" lon="103.361715"><ele>1613.09</ele><time>2026-08-12T06:56:40.000Z</time></trkpt>
        <trkpt lat="29.572275" lon="103.361747"><ele>1613.09</ele><time>2026-08-12T06:57:07.000Z</time></trkpt>
        <trkpt lat="29.572237" lon="103.361756"><ele>1615.982</ele><time>2026-08-12T06:57:16.000Z</time></trkpt>
        <trkpt lat="29.572197" lon="103.361768"><ele>1618.4119</ele><time>2026-08-12T06:57:33.000Z</time></trkpt>
        <trkpt lat="29.572156" lon="103.361792"><ele>1619.0255</ele><time>2026-08-12T06:57:41.000Z</time></trkpt>
        <trkpt lat="29.572115" lon="103.361814"><ele>1620.9913</ele><time>2026-08-12T06:59:38.000Z</time></trkpt>
        <trkpt lat="29.572068" lon="103.361819"><ele>1622.7684</ele><time>2026-08-12T06:59:51.000Z</time></trkpt>
        <trkpt lat="29.572023" lon="103.36181"><ele>1624.3639</ele><time>2026-08-12T07:00:01.000Z</time></trkpt>
        <trkpt lat="29.571978" lon="103.361811"><ele>1625.7242</ele><time>2026-08-12T07:00:10.000Z</time></trkpt>
        <trkpt lat="29.571933" lon="103.361805"><ele>1627.3351</ele><time>2026-08-12T07:00:20.000Z</time></trkpt>
        <trkpt lat="29.571916" lon="103.36181"><ele>1632.0908</ele><time>2026-08-12T07:05:53.000Z</time></trkpt>
        <trkpt lat="29.571882" lon="103.36179"><ele>1635.6473</ele><time>2026-08-12T07:06:05.000Z</time></trkpt>
        <trkpt lat="29.571856" lon="103.361783"><ele>1639.7003</ele><time>2026-08-12T07:06:10.000Z</time></trkpt>
        <trkpt lat="29.571817" lon="103.361766"><ele>1642.9652</ele><time>2026-08-12T07:06:19.000Z</time></trkpt>
        <trkpt lat="29.571768" lon="103.361768"><ele>1644.5334</ele><time>2026-08-12T07:06:27.000Z</time></trkpt>
        <trkpt lat="29.571735" lon="103.361776"><ele>1648.2648</ele><time>2026-08-12T07:06:33.000Z</time></trkpt>
        <trkpt lat="29.571715" lon="103.361788"><ele>1652.7273</ele><time>2026-08-12T07:06:42.000Z</time></trkpt>
        <trkpt lat="29.571678" lon="103.36182"><ele>1654.3383</ele><time>2026-08-12T07:06:52.000Z</time></trkpt>
        <trkpt lat="29.571628" lon="103.361819"><ele>1655.0967</ele><time>2026-08-12T07:06:58.000Z</time></trkpt>
        <trkpt lat="29.57158" lon="103.361802"><ele>1655.3987</ele><time>2026-08-12T07:07:05.000Z</time></trkpt>
        <trkpt lat="29.571535" lon="103.361788"><ele>1656.5758</ele><time>2026-08-12T07:07:11.000Z</time></trkpt>
        <trkpt lat="29.571494" lon="103.361764"><ele>1656.8088</ele><time>2026-08-12T07:07:19.000Z</time></trkpt>
        <trkpt lat="29.571447" lon="103.361722"><ele>1655.4167</ele><time>2026-08-12T07:07:25.000Z</time></trkpt>
        <trkpt lat="29.571404" lon="103.361696"><ele>1654.8702</ele><time>2026-08-12T07:07:29.000Z</time></trkpt>
        <trkpt lat="29.57136" lon="103.361677"><ele>1654.4646</ele><time>2026-08-12T07:07:33.000Z</time></trkpt>
        <trkpt lat="29.57131" lon="103.361677"><ele>1654.5764</ele><time>2026-08-12T07:07:37.000Z</time></trkpt>
        <trkpt lat="29.571261" lon="103.361679"><ele>1654.4698</ele><time>2026-08-12T07:07:43.000Z</time></trkpt>
        <trkpt lat="29.571216" lon="103.361683"><ele>1654.6173</ele><time>2026-08-12T07:07:50.000Z</time></trkpt>
        <trkpt lat="29.571172" lon="103.36167"><ele>1654.5232</ele><time>2026-08-12T07:07:57.000Z</time></trkpt>
        <trkpt lat="29.571134" lon="103.361635"><ele>1655.5403</ele><time>2026-08-12T07:08:07.000Z</time></trkpt>
        <trkpt lat="29.571095" lon="103.361606"><ele>1655.8921</ele><time>2026-08-12T07:08:15.000Z</time></trkpt>
        <trkpt lat="29.571051" lon="103.361586"><ele>1656.0223</ele><time>2026-08-12T07:08:22.000Z</time></trkpt>
        <trkpt lat="29.571011" lon="103.361562"><ele>1656.3824</ele><time>2026-08-12T07:08:30.000Z</time></trkpt>
        <trkpt lat="29.570972" lon="103.361525"><ele>1656.8853</ele><time>2026-08-12T07:08:40.000Z</time></trkpt>
        <trkpt lat="29.57093" lon="103.3615"><ele>1658.1233</ele><time>2026-08-12T07:08:47.000Z</time></trkpt>
        <trkpt lat="29.570885" lon="103.361471"><ele>1658.469</ele><time>2026-08-12T07:08:55.000Z</time></trkpt>
        <trkpt lat="29.570842" lon="103.36145"><ele>1660.4506</ele><time>2026-08-12T07:09:02.000Z</time></trkpt>
        <trkpt lat="29.570799" lon="103.361429"><ele>1661.4722</ele><time>2026-08-12T07:09:09.000Z</time></trkpt>
        <trkpt lat="29.570751" lon="103.361411"><ele>1662.1051</ele><time>2026-08-12T07:09:17.000Z</time></trkpt>
        <trkpt lat="29.570701" lon="103.361396"><ele>1662.7861</ele><time>2026-08-12T07:09:24.000Z</time></trkpt>
        <trkpt lat="29.570655" lon="103.361381"><ele>1662.6969</ele><time>2026-08-12T07:09:30.000Z</time></trkpt>
        <trkpt lat="29.570608" lon="103.361361"><ele>1662.9689</ele><time>2026-08-12T07:09:36.000Z</time></trkpt>
        <trkpt lat="29.570562" lon="103.361339"><ele>1663.5355</ele><time>2026-08-12T07:09:42.000Z</time></trkpt>
        <trkpt lat="29.570518" lon="103.361325"><ele>1664.1727</ele><time>2026-08-12T07:09:47.000Z</time></trkpt>
        <trkpt lat="29.570472" lon="103.361309"><ele>1664.7124</ele><time>2026-08-12T07:09:53.000Z</time></trkpt>
        <trkpt lat="29.570427" lon="103.361295"><ele>1665.0358</ele><time>2026-08-12T07:09:58.000Z</time></trkpt>
        <trkpt lat="29.570384" lon="103.361278"><ele>1664.8572</ele><time>2026-08-12T07:10:03.000Z</time></trkpt>
        <trkpt lat="29.570338" lon="103.361252"><ele>1665.0354</ele><time>2026-08-12T07:10:08.000Z</time></trkpt>
        <trkpt lat="29.570296" lon="103.361226"><ele>1664.9745</ele><time>2026-08-12T07:10:13.000Z</time></trkpt>
        <trkpt lat="29.570251" lon="103.361206"><ele>1664.4617</ele><time>2026-08-12T07:10:19.000Z</time></trkpt>
        <trkpt lat="29.570206" lon="103.361193"><ele>1664.0596</ele><time>2026-08-12T07:10:25.000Z</time></trkpt>
        <trkpt lat="29.570158" lon="103.361186"><ele>1664.3396</ele><time>2026-08-12T07:10:30.000Z</time></trkpt>
        <trkpt lat="29.570112" lon="103.361175"><ele>1664.6447</ele><time>2026-08-12T07:10:36.000Z</time></trkpt>
        <trkpt lat="29.570063" lon="103.361159"><ele>1664.7234</ele><time>2026-08-12T07:10:42.000Z</time></trkpt>
        <trkpt lat="29.570015" lon="103.361149"><ele>1664.7496</ele><time>2026-08-12T07:10:50.000Z</time></trkpt>
        <trkpt lat="29.569979" lon="103.361112"><ele>1664.1813</ele><time>2026-08-12T07:11:03.000Z</time></trkpt>
        <trkpt lat="29.56995" lon="103.36107"><ele>1664.4065</ele><time>2026-08-12T07:11:15.000Z</time></trkpt>
        <trkpt lat="29.569926" lon="103.361028"><ele>1666.5883</ele><time>2026-08-12T07:11:23.000Z</time></trkpt>
        <trkpt lat="29.569887" lon="103.361002"><ele>1668.5303</ele><time>2026-08-12T07:11:31.000Z</time></trkpt>
        <trkpt lat="29.569841" lon="103.36099"><ele>1669.8792</ele><time>2026-08-12T07:11:39.000Z</time></trkpt>
        <trkpt lat="29.569794" lon="103.360982"><ele>1671.3224</ele><time>2026-08-12T07:11:47.000Z</time></trkpt>
        <trkpt lat="29.56975" lon="103.360969"><ele>1672.6831</ele><time>2026-08-12T07:11:58.000Z</time></trkpt>
        <trkpt lat="29.569707" lon="103.360939"><ele>1672.1002</ele><time>2026-08-12T07:12:06.000Z</time></trkpt>
        <trkpt lat="29.569666" lon="103.36091"><ele>1672.0669</ele><time>2026-08-12T07:12:12.000Z</time></trkpt>
        <trkpt lat="29.569632" lon="103.360876"><ele>1672.6633</ele><time>2026-08-12T07:12:18.000Z</time></trkpt>
        <trkpt lat="29.569601" lon="103.360835"><ele>1673.5348</ele><time>2026-08-12T07:12:24.000Z</time></trkpt>
        <trkpt lat="29.569567" lon="103.360794"><ele>1673.7946</ele><time>2026-08-12T07:12:30.000Z</time></trkpt>
        <trkpt lat="29.569527" lon="103.360766"><ele>1674.4974</ele><time>2026-08-12T07:12:38.000Z</time></trkpt>
        <trkpt lat="29.569478" lon="103.360743"><ele>1674.4512</ele><time>2026-08-12T07:12:44.000Z</time></trkpt>
        <trkpt lat="29.569435" lon="103.360722"><ele>1674.563</ele><time>2026-08-12T07:12:50.000Z</time></trkpt>
        <trkpt lat="29.569397" lon="103.360693"><ele>1675.0632</ele><time>2026-08-12T07:13:00.000Z</time></trkpt>
        <trkpt lat="29.569363" lon="103.360654"><ele>1675.5852</ele><time>2026-08-12T07:13:09.000Z</time></trkpt>
        <trkpt lat="29.569326" lon="103.360619"><ele>1676.9532</ele><time>2026-08-12T07:13:17.000Z</time></trkpt>
        <trkpt lat="29.569284" lon="103.360592"><ele>1676.7383</ele><time>2026-08-12T07:13:25.000Z</time></trkpt>
        <trkpt lat="29.569236" lon="103.360564"><ele>1677.0715</ele><time>2026-08-12T07:13:32.000Z</time></trkpt>
        <trkpt lat="29.569204" lon="103.360522"><ele>1677.8031</ele><time>2026-08-12T07:13:38.000Z</time></trkpt>
        <trkpt lat="29.569177" lon="103.360485"><ele>1679.9232</ele><time>2026-08-12T07:13:48.000Z</time></trkpt>
        <trkpt lat="29.56915" lon="103.360441"><ele>1680.3605</ele><time>2026-08-12T07:13:55.000Z</time></trkpt>
        <trkpt lat="29.569116" lon="103.3604"><ele>1681.3055</ele><time>2026-08-12T07:14:01.000Z</time></trkpt>
        <trkpt lat="29.569079" lon="103.360372"><ele>1681.9906</ele><time>2026-08-12T07:14:06.000Z</time></trkpt>
        <trkpt lat="29.569038" lon="103.360345"><ele>1682.5441</ele><time>2026-08-12T07:14:11.000Z</time></trkpt>
        <trkpt lat="29.568992" lon="103.360318"><ele>1683.5621</ele><time>2026-08-12T07:14:18.000Z</time></trkpt>
        <trkpt lat="29.568947" lon="103.360294"><ele>1684.3488</ele><time>2026-08-12T07:14:24.000Z</time></trkpt>
        <trkpt lat="29.568909" lon="103.360263"><ele>1685.5082</ele><time>2026-08-12T07:14:30.000Z</time></trkpt>
        <trkpt lat="29.568878" lon="103.360226"><ele>1686.7156</ele><time>2026-08-12T07:14:46.000Z</time></trkpt>
        <trkpt lat="29.568837" lon="103.360198"><ele>1687.5537</ele><time>2026-08-12T07:14:56.000Z</time></trkpt>
        <trkpt lat="29.56881" lon="103.36015"><ele>1687.531</ele><time>2026-08-12T07:15:05.000Z</time></trkpt>
        <trkpt lat="29.568793" lon="103.360098"><ele>1688.2064</ele><time>2026-08-12T07:15:15.000Z</time></trkpt>
        <trkpt lat="29.568778" lon="103.360044"><ele>1688.9097</ele><time>2026-08-12T07:15:22.000Z</time></trkpt>
        <trkpt lat="29.568768" lon="103.359995"><ele>1690.5206</ele><time>2026-08-12T07:15:28.000Z</time></trkpt>
        <trkpt lat="29.568776" lon="103.359937"><ele>1691.7423</ele><time>2026-08-12T07:15:35.000Z</time></trkpt>
        <trkpt lat="29.568772" lon="103.359882"><ele>1692.8479</ele><time>2026-08-12T07:15:41.000Z</time></trkpt>
        <trkpt lat="29.568766" lon="103.359831"><ele>1693.167</ele><time>2026-08-12T07:15:48.000Z</time></trkpt>
        <trkpt lat="29.568753" lon="103.359776"><ele>1693.0265</ele><time>2026-08-12T07:15:55.000Z</time></trkpt>
        <trkpt lat="29.568744" lon="103.359715"><ele>1693.3192</ele><time>2026-08-12T07:16:01.000Z</time></trkpt>
        <trkpt lat="29.568716" lon="103.359668"><ele>1694.6167</ele><time>2026-08-12T07:16:08.000Z</time></trkpt>
        <trkpt lat="29.568675" lon="103.359657"><ele>1696.0658</ele><time>2026-08-12T07:16:15.000Z</time></trkpt>
        <trkpt lat="29.568622" lon="103.359652"><ele>1696.5725</ele><time>2026-08-12T07:16:56.000Z</time></trkpt>
        <trkpt lat="29.56857" lon="103.359652"><ele>1696.4668</ele><time>2026-08-12T07:17:52.000Z</time></trkpt>
        <trkpt lat="29.56852" lon="103.359666"><ele>1696.7272</ele><time>2026-08-12T07:17:57.000Z</time></trkpt>
        <trkpt lat="29.568469" lon="103.359655"><ele>1697.1727</ele><time>2026-08-12T07:18:23.000Z</time></trkpt>
        <trkpt lat="29.568419" lon="103.359652"><ele>1696.9781</ele><time>2026-08-12T07:18:31.000Z</time></trkpt>
        <trkpt lat="29.568375" lon="103.359663"><ele>1697.0796</ele><time>2026-08-12T07:18:37.000Z</time></trkpt>
        <trkpt lat="29.568325" lon="103.359667"><ele>1696.8141</ele><time>2026-08-12T07:18:45.000Z</time></trkpt>
        <trkpt lat="29.568272" lon="103.359675"><ele>1696.6017</ele><time>2026-08-12T07:19:10.000Z</time></trkpt>
        <trkpt lat="29.568245" lon="103.359724"><ele>1696.4788</ele><time>2026-08-12T07:19:34.000Z</time></trkpt>
        <trkpt lat="29.568255" lon="103.35978"><ele>1696.3735</ele><time>2026-08-12T07:25:03.000Z</time></trkpt>
        <trkpt lat="29.568265" lon="103.359729"><ele>1697.2905</ele><time>2026-08-12T07:25:05.000Z</time></trkpt>
        <trkpt lat="29.568241" lon="103.359763"><ele>1702.6772</ele><time>2026-08-12T07:25:11.000Z</time></trkpt>
        <trkpt lat="29.568232" lon="103.359717"><ele>1699.1726</ele><time>2026-08-12T07:30:47.000Z</time></trkpt>
        <trkpt lat="29.568206" lon="103.359671"><ele>1699.1141</ele><time>2026-08-12T07:30:53.000Z</time></trkpt>
        <trkpt lat="29.568187" lon="103.359624"><ele>1698.3527</ele><time>2026-08-12T07:30:59.000Z</time></trkpt>
        <trkpt lat="29.56817" lon="103.35957"><ele>1698.6351</ele><time>2026-08-12T07:31:06.000Z</time></trkpt>
        <trkpt lat="29.568156" lon="103.359517"><ele>1698.3041</ele><time>2026-08-12T07:31:13.000Z</time></trkpt>
        <trkpt lat="29.568108" lon="103.359506"><ele>1697.814</ele><time>2026-08-12T07:31:20.000Z</time></trkpt>
        <trkpt lat="29.568063" lon="103.359517"><ele>1697.3976</ele><time>2026-08-12T07:31:26.000Z</time></trkpt>
        <trkpt lat="29.568017" lon="103.35953"><ele>1697.8469</ele><time>2026-08-12T07:31:31.000Z</time></trkpt>
        <trkpt lat="29.56797" lon="103.35955"><ele>1698.1147</ele><time>2026-08-12T07:31:37.000Z</time></trkpt>
        <trkpt lat="29.567923" lon="103.359566"><ele>1698.1927</ele><time>2026-08-12T07:31:43.000Z</time></trkpt>
        <trkpt lat="29.567879" lon="103.359575"><ele>1699.1893</ele><time>2026-08-12T07:31:48.000Z</time></trkpt>
        <trkpt lat="29.567824" lon="103.359577"><ele>1699.2882</ele><time>2026-08-12T07:31:54.000Z</time></trkpt>
        <trkpt lat="29.56778" lon="103.359559"><ele>1699.5493</ele><time>2026-08-12T07:31:59.000Z</time></trkpt>
        <trkpt lat="29.567735" lon="103.359531"><ele>1699.0326</ele><time>2026-08-12T07:32:06.000Z</time></trkpt>
        <trkpt lat="29.567698" lon="103.3595"><ele>1698.5944</ele><time>2026-08-12T07:32:12.000Z</time></trkpt>
        <trkpt lat="29.567658" lon="103.359467"><ele>1698.7024</ele><time>2026-08-12T07:32:21.000Z</time></trkpt>
        <trkpt lat="29.567616" lon="103.359443"><ele>1699.8661</ele><time>2026-08-12T07:32:31.000Z</time></trkpt>
        <trkpt lat="29.567576" lon="103.359419"><ele>1701.3287</ele><time>2026-08-12T07:32:44.000Z</time></trkpt>
        <trkpt lat="29.567534" lon="103.359405"><ele>1703.0219</ele><time>2026-08-12T07:32:52.000Z</time></trkpt>
        <trkpt lat="29.567497" lon="103.359382"><ele>1705.0148</ele><time>2026-08-12T07:33:00.000Z</time></trkpt>
        <trkpt lat="29.567454" lon="103.359389"><ele>1706.5095</ele><time>2026-08-12T07:33:11.000Z</time></trkpt>
        <trkpt lat="29.567418" lon="103.359416"><ele>1708.6445</ele><time>2026-08-12T07:33:25.000Z</time></trkpt>
        <trkpt lat="29.567374" lon="103.359427"><ele>1710.3433</ele><time>2026-08-12T07:33:41.000Z</time></trkpt>
        <trkpt lat="29.56733" lon="103.359435"><ele>1711.4264</ele><time>2026-08-12T07:33:50.000Z</time></trkpt>
        <trkpt lat="29.567283" lon="103.359431"><ele>1713.003</ele><time>2026-08-12T07:34:00.000Z</time></trkpt>
        <trkpt lat="29.56724" lon="103.359443"><ele>1715.1023</ele><time>2026-08-12T07:34:17.000Z</time></trkpt>
        <trkpt lat="29.567199" lon="103.359426"><ele>1716.8773</ele><time>2026-08-12T07:35:49.000Z</time></trkpt>
        <trkpt lat="29.567155" lon="103.359411"><ele>1717.7131</ele><time>2026-08-12T07:35:56.000Z</time></trkpt>
        <trkpt lat="29.567109" lon="103.359395"><ele>1717.9628</ele><time>2026-08-12T07:36:03.000Z</time></trkpt>
        <trkpt lat="29.567065" lon="103.359377"><ele>1719.956</ele><time>2026-08-12T07:36:11.000Z</time></trkpt>
        <trkpt lat="29.56702" lon="103.359362"><ele>1721.0079</ele><time>2026-08-12T07:36:21.000Z</time></trkpt>
        <trkpt lat="29.566974" lon="103.35935"><ele>1722.8699</ele><time>2026-08-12T07:36:31.000Z</time></trkpt>
        <trkpt lat="29.566931" lon="103.359329"><ele>1724.5936</ele><time>2026-08-12T07:36:39.000Z</time></trkpt>
        <trkpt lat="29.566884" lon="103.359312"><ele>1724.9656</ele><time>2026-08-12T07:36:47.000Z</time></trkpt>
        <trkpt lat="29.566842" lon="103.359279"><ele>1725.7042</ele><time>2026-08-12T07:36:55.000Z</time></trkpt>
        <trkpt lat="29.566801" lon="103.359245"><ele>1725.919</ele><time>2026-08-12T07:37:01.000Z</time></trkpt>
        <trkpt lat="29.566758" lon="103.35921"><ele>1726.6753</ele><time>2026-08-12T07:37:07.000Z</time></trkpt>
        <trkpt lat="29.566726" lon="103.359175"><ele>1727.3978</ele><time>2026-08-12T07:37:14.000Z</time></trkpt>
        <trkpt lat="29.566683" lon="103.359147"><ele>1728.5739</ele><time>2026-08-12T07:37:34.000Z</time></trkpt>
        <trkpt lat="29.566647" lon="103.359115"><ele>1728.688</ele><time>2026-08-12T07:37:43.000Z</time></trkpt>
        <trkpt lat="29.566607" lon="103.359088"><ele>1728.841</ele><time>2026-08-12T07:37:51.000Z</time></trkpt>
        <trkpt lat="29.566564" lon="103.359064"><ele>1729.0573</ele><time>2026-08-12T07:38:00.000Z</time></trkpt>
        <trkpt lat="29.566525" lon="103.359037"><ele>1729.7816</ele><time>2026-08-12T07:38:11.000Z</time></trkpt>
        <trkpt lat="29.566497" lon="103.358993"><ele>1730.2379</ele><time>2026-08-12T07:38:23.000Z</time></trkpt>
        <trkpt lat="29.566477" lon="103.358954"><ele>1732.5894</ele><time>2026-08-12T07:38:37.000Z</time></trkpt>
        <trkpt lat="29.566434" lon="103.35893"><ele>1734.0093</ele><time>2026-08-12T07:38:46.000Z</time></trkpt>
        <trkpt lat="29.5664" lon="103.358899"><ele>1736.327</ele><time>2026-08-12T07:38:52.000Z</time></trkpt>
        <trkpt lat="29.566379" lon="103.358859"><ele>1738.5333</ele><time>2026-08-12T07:39:00.000Z</time></trkpt>
        <trkpt lat="29.566347" lon="103.35882"><ele>1740.7828</ele><time>2026-08-12T07:40:31.000Z</time></trkpt>
        <trkpt lat="29.566316" lon="103.358779"><ele>1741.0751</ele><time>2026-08-12T07:40:38.000Z</time></trkpt>
        <trkpt lat="29.56628" lon="103.358746"><ele>1741.0237</ele><time>2026-08-12T07:40:45.000Z</time></trkpt>
        <trkpt lat="29.566244" lon="103.358713"><ele>1740.205</ele><time>2026-08-12T07:40:53.000Z</time></trkpt>
        <trkpt lat="29.566215" lon="103.358671"><ele>1741.131</ele><time>2026-08-12T07:41:03.000Z</time></trkpt>
        <trkpt lat="29.566195" lon="103.358623"><ele>1741.9911</ele><time>2026-08-12T07:41:15.000Z</time></trkpt>
        <trkpt lat="29.566185" lon="103.358572"><ele>1744.2054</ele><time>2026-08-12T07:41:27.000Z</time></trkpt>
        <trkpt lat="29.56618" lon="103.358523"><ele>1745.8525</ele><time>2026-08-12T07:41:36.000Z</time></trkpt>
        <trkpt lat="29.56619" lon="103.358474"><ele>1747.0964</ele><time>2026-08-12T07:41:48.000Z</time></trkpt>
        <trkpt lat="29.566202" lon="103.358422"><ele>1747.695</ele><time>2026-08-12T07:42:00.000Z</time></trkpt>
        <trkpt lat="29.566212" lon="103.358373"><ele>1749.601</ele><time>2026-08-12T07:42:13.000Z</time></trkpt>
        <trkpt lat="29.566215" lon="103.358327"><ele>1751.9612</ele><time>2026-08-12T07:42:33.000Z</time></trkpt>
        <trkpt lat="29.56621" lon="103.358275"><ele>1752.6882</ele><time>2026-08-12T07:43:46.000Z</time></trkpt>
        <trkpt lat="29.566197" lon="103.35822"><ele>1753.7448</ele><time>2026-08-12T07:44:01.000Z</time></trkpt>
        <trkpt lat="29.566166" lon="103.358175"><ele>1754.3752</ele><time>2026-08-12T07:44:09.000Z</time></trkpt>
        <trkpt lat="29.566147" lon="103.358128"><ele>1756.1385</ele><time>2026-08-12T07:45:16.000Z</time></trkpt>
        <trkpt lat="29.56612" lon="103.358079"><ele>1757.4924</ele><time>2026-08-12T07:45:25.000Z</time></trkpt>
        <trkpt lat="29.566104" lon="103.35803"><ele>1758.6318</ele><time>2026-08-12T07:45:32.000Z</time></trkpt>
        <trkpt lat="29.566078" lon="103.357985"><ele>1760.0981</ele><time>2026-08-12T07:45:40.000Z</time></trkpt>
        <trkpt lat="29.566053" lon="103.357939"><ele>1761.0496</ele><time>2026-08-12T07:45:47.000Z</time></trkpt>
        <trkpt lat="29.56603" lon="103.357896"><ele>1762.6414</ele><time>2026-08-12T07:45:59.000Z</time></trkpt>
        <trkpt lat="29.566027" lon="103.35785"><ele>1765.2971</ele><time>2026-08-12T07:46:09.000Z</time></trkpt>
        <trkpt lat="29.566017" lon="103.3578"><ele>1767.2279</ele><time>2026-08-12T07:46:22.000Z</time></trkpt>
        <trkpt lat="29.566001" lon="103.35775"><ele>1769.4172</ele><time>2026-08-12T07:46:33.000Z</time></trkpt>
        <trkpt lat="29.56598" lon="103.357703"><ele>1770.924</ele><time>2026-08-12T07:49:59.000Z</time></trkpt>
        <trkpt lat="29.565963" lon="103.35765"><ele>1772.9712</ele><time>2026-08-12T07:50:10.000Z</time></trkpt>
        <trkpt lat="29.565951" lon="103.3576"><ele>1774.2251</ele><time>2026-08-12T07:50:14.000Z</time></trkpt>
        <trkpt lat="29.565907" lon="103.357579"><ele>1775.38</ele><time>2026-08-12T07:50:20.000Z</time></trkpt>
        <trkpt lat="29.56588" lon="103.357538"><ele>1777.4672</ele><time>2026-08-12T07:50:33.000Z</time></trkpt>
        <trkpt lat="29.565849" lon="103.357497"><ele>1780.0822</ele><time>2026-08-12T07:50:39.000Z</time></trkpt>
        <trkpt lat="29.565808" lon="103.357472"><ele>1782.0841</ele><time>2026-08-12T07:50:48.000Z</time></trkpt>
        <trkpt lat="29.565768" lon="103.357453"><ele>1784.1046</ele><time>2026-08-12T07:50:59.000Z</time></trkpt>
        <trkpt lat="29.565729" lon="103.357424"><ele>1785.7157</ele><time>2026-08-12T07:51:11.000Z</time></trkpt>
        <trkpt lat="29.56569" lon="103.357391"><ele>1787.3224</ele><time>2026-08-12T07:51:19.000Z</time></trkpt>
        <trkpt lat="29.565657" lon="103.357355"><ele>1787.7566</ele><time>2026-08-12T07:51:27.000Z</time></trkpt>
        <trkpt lat="29.565627" lon="103.357317"><ele>1789.2075</ele><time>2026-08-12T07:51:34.000Z</time></trkpt>
        <trkpt lat="29.565596" lon="103.357279"><ele>1790.1757</ele><time>2026-08-12T07:51:42.000Z</time></trkpt>
        <trkpt lat="29.565561" lon="103.357245"><ele>1791.1946</ele><time>2026-08-12T07:51:52.000Z</time></trkpt>
        <trkpt lat="29.565534" lon="103.357204"><ele>1791.8802</ele><time>2026-08-12T07:52:13.000Z</time></trkpt>
        <trkpt lat="29.565515" lon="103.35716"><ele>1793.9318</ele><time>2026-08-12T07:52:51.000Z</time></trkpt>
        <trkpt lat="29.565486" lon="103.357119"><ele>1795.3484</ele><time>2026-08-12T07:53:00.000Z</time></trkpt>
        <trkpt lat="29.565468" lon="103.357064"><ele>1795.958</ele><time>2026-08-12T07:53:09.000Z</time></trkpt>
        <trkpt lat="29.565443" lon="103.35702"><ele>1796.9327</ele><time>2026-08-12T07:53:18.000Z</time></trkpt>
        <trkpt lat="29.56543" lon="103.356967"><ele>1799.0598</ele><time>2026-08-12T07:54:31.000Z</time></trkpt>
        <trkpt lat="29.565414" lon="103.356917"><ele>1800.4213</ele><time>2026-08-12T07:54:38.000Z</time></trkpt>
        <trkpt lat="29.565385" lon="103.356879"><ele>1802.9415</ele><time>2026-08-12T07:54:47.000Z</time></trkpt>
        <trkpt lat="29.56535" lon="103.356849"><ele>1804.0676</ele><time>2026-08-12T07:54:52.000Z</time></trkpt>
        <trkpt lat="29.565314" lon="103.356826"><ele>1806.7927</ele><time>2026-08-12T07:55:49.000Z</time></trkpt>
        <trkpt lat="29.565271" lon="103.356806"><ele>1807.9326</ele><time>2026-08-12T07:55:54.000Z</time></trkpt>
        <trkpt lat="29.565224" lon="103.356781"><ele>1809.3824</ele><time>2026-08-12T07:56:01.000Z</time></trkpt>
        <trkpt lat="29.565183" lon="103.356746"><ele>1810.1254</ele><time>2026-08-12T07:56:08.000Z</time></trkpt>
        <trkpt lat="29.565147" lon="103.356709"><ele>1811.8712</ele><time>2026-08-12T07:56:15.000Z</time></trkpt>
        <trkpt lat="29.565105" lon="103.35668"><ele>1813.4011</ele><time>2026-08-12T07:56:23.000Z</time></trkpt>
        <trkpt lat="29.565066" lon="103.356655"><ele>1814.0243</ele><time>2026-08-12T07:56:32.000Z</time></trkpt>
        <trkpt lat="29.56503" lon="103.356635"><ele>1816.5293</ele><time>2026-08-12T07:56:39.000Z</time></trkpt>
        <trkpt lat="29.564986" lon="103.356613"><ele>1817.9386</ele><time>2026-08-12T07:57:48.000Z</time></trkpt>
        <trkpt lat="29.564939" lon="103.356599"><ele>1818.4326</ele><time>2026-08-12T07:57:56.000Z</time></trkpt>
        <trkpt lat="29.564894" lon="103.356598"><ele>1818.7139</ele><time>2026-08-12T07:58:05.000Z</time></trkpt>
        <trkpt lat="29.564864" lon="103.356555"><ele>1818.7024</ele><time>2026-08-12T07:58:10.000Z</time></trkpt>
        <trkpt lat="29.564824" lon="103.356516"><ele>1819.4946</ele><time>2026-08-12T07:58:15.000Z</time></trkpt>
        <trkpt lat="29.564784" lon="103.356493"><ele>1819.9675</ele><time>2026-08-12T07:58:22.000Z</time></trkpt>
        <trkpt lat="29.564768" lon="103.356445"><ele>1821.5094</ele><time>2026-08-12T07:58:41.000Z</time></trkpt>
        <trkpt lat="29.564728" lon="103.356407"><ele>1822.859</ele><time>2026-08-12T07:58:47.000Z</time></trkpt>
        <trkpt lat="29.564681" lon="103.356382"><ele>1823.1854</ele><time>2026-08-12T07:58:53.000Z</time></trkpt>
        <trkpt lat="29.564652" lon="103.356341"><ele>1823.1437</ele><time>2026-08-12T07:59:01.000Z</time></trkpt>
        <trkpt lat="29.564634" lon="103.356291"><ele>1824.62</ele><time>2026-08-12T07:59:05.000Z</time></trkpt>
        <trkpt lat="29.564609" lon="103.356238"><ele>1825.8015</ele><time>2026-08-12T07:59:12.000Z</time></trkpt>
        <trkpt lat="29.564578" lon="103.356189"><ele>1826.4657</ele><time>2026-08-12T07:59:21.000Z</time></trkpt>
        <trkpt lat="29.564568" lon="103.356126"><ele>1828.2313</ele><time>2026-08-12T07:59:32.000Z</time></trkpt>
        <trkpt lat="29.564574" lon="103.356072"><ele>1829.234</ele><time>2026-08-12T07:59:43.000Z</time></trkpt>
        <trkpt lat="29.564529" lon="103.35605"><ele>1829.972</ele><time>2026-08-12T07:59:51.000Z</time></trkpt>
        <trkpt lat="29.564498" lon="103.356043"><ele>1834.0192</ele><time>2026-08-12T08:02:17.000Z</time></trkpt>
        <trkpt lat="29.564461" lon="103.35608"><ele>1835.3713</ele><time>2026-08-12T08:02:26.000Z</time></trkpt>
        <trkpt lat="29.564437" lon="103.356123"><ele>1836.5427</ele><time>2026-08-12T08:02:37.000Z</time></trkpt>
        <trkpt lat="29.564422" lon="103.356166"><ele>1839.1855</ele><time>2026-08-12T08:02:47.000Z</time></trkpt>
        <trkpt lat="29.564379" lon="103.35616"><ele>1840.7859</ele><time>2026-08-12T08:03:03.000Z</time></trkpt>
        <trkpt lat="29.564341" lon="103.356144"><ele>1844.2225</ele><time>2026-08-12T08:03:14.000Z</time></trkpt>
        <trkpt lat="29.564319" lon="103.356167"><ele>1848.1504</ele><time>2026-08-12T08:04:35.000Z</time></trkpt>
        <trkpt lat="29.564338" lon="103.356217"><ele>1849.7527</ele><time>2026-08-12T08:04:43.000Z</time></trkpt>
        <trkpt lat="29.564362" lon="103.356262"><ele>1850.5468</ele><time>2026-08-12T08:04:47.000Z</time></trkpt>
        <trkpt lat="29.564341" lon="103.356308"><ele>1852.1619</ele><time>2026-08-12T08:04:59.000Z</time></trkpt>
        <trkpt lat="29.564305" lon="103.356341"><ele>1853.3617</ele><time>2026-08-12T08:05:09.000Z</time></trkpt>
        <trkpt lat="29.564272" lon="103.356369"><ele>1855.5109</ele><time>2026-08-12T08:05:21.000Z</time></trkpt>
        <trkpt lat="29.564246" lon="103.356403"><ele>1858.3893</ele><time>2026-08-12T08:05:32.000Z</time></trkpt>
        <trkpt lat="29.564212" lon="103.356431"><ele>1861.031</ele><time>2026-08-12T08:08:22.000Z</time></trkpt>
        <trkpt lat="29.564168" lon="103.356448"><ele>1863.3103</ele><time>2026-08-12T08:11:45.000Z</time></trkpt>
        <trkpt lat="29.564131" lon="103.356431"><ele>1865.6605</ele><time>2026-08-12T08:13:15.000Z</time></trkpt>
        <trkpt lat="29.56412" lon="103.356376"><ele>1864.4982</ele><time>2026-08-12T08:13:25.000Z</time></trkpt>
        <trkpt lat="29.564104" lon="103.356324"><ele>1863.7175</ele><time>2026-08-12T08:13:32.000Z</time></trkpt>
        <trkpt lat="29.564106" lon="103.356268"><ele>1863.3822</ele><time>2026-08-12T08:13:41.000Z</time></trkpt>
        <trkpt lat="29.564087" lon="103.356211"><ele>1862.9976</ele><time>2026-08-12T08:14:00.000Z</time></trkpt>
        <trkpt lat="29.564076" lon="103.356161"><ele>1862.9414</ele><time>2026-08-12T08:14:05.000Z</time></trkpt>
        <trkpt lat="29.564066" lon="103.35611"><ele>1862.6971</ele><time>2026-08-12T08:14:11.000Z</time></trkpt>
        <trkpt lat="29.564053" lon="103.356057"><ele>1861.8354</ele><time>2026-08-12T08:14:20.000Z</time></trkpt>
        <trkpt lat="29.564036" lon="103.356007"><ele>1860.8921</ele><time>2026-08-12T08:14:28.000Z</time></trkpt>
        <trkpt lat="29.564028" lon="103.35595"><ele>1860.2997</ele><time>2026-08-12T08:14:35.000Z</time></trkpt>
        <trkpt lat="29.564021" lon="103.355898"><ele>1859.6006</ele><time>2026-08-12T08:14:41.000Z</time></trkpt>
        <trkpt lat="29.564009" lon="103.355848"><ele>1858.8328</ele><time>2026-08-12T08:14:48.000Z</time></trkpt>
        <trkpt lat="29.564006" lon="103.355803"><ele>1856.1295</ele><time>2026-08-12T08:14:55.000Z</time></trkpt>
        <trkpt lat="29.564001" lon="103.355751"><ele>1855.6991</ele><time>2026-08-12T08:15:03.000Z</time></trkpt>
        <trkpt lat="29.563993" lon="103.355698"><ele>1855.0266</ele><time>2026-08-12T08:15:32.000Z</time></trkpt>
        <trkpt lat="29.563975" lon="103.355643"><ele>1854.5532</ele><time>2026-08-12T08:15:37.000Z</time></trkpt>
        <trkpt lat="29.56396" lon="103.35559"><ele>1853.8492</ele><time>2026-08-12T08:15:44.000Z</time></trkpt>
        <trkpt lat="29.563954" lon="103.355535"><ele>1852.2759</ele><time>2026-08-12T08:15:52.000Z</time></trkpt>
        <trkpt lat="29.56396" lon="103.355481"><ele>1850.804</ele><time>2026-08-12T08:16:00.000Z</time></trkpt>
        <trkpt lat="29.563952" lon="103.355431"><ele>1849.587</ele><time>2026-08-12T08:16:09.000Z</time></trkpt>
        <trkpt lat="29.563934" lon="103.355381"><ele>1848.367</ele><time>2026-08-12T08:16:16.000Z</time></trkpt>
        <trkpt lat="29.563926" lon="103.35533"><ele>1846.3694</ele><time>2026-08-12T08:16:23.000Z</time></trkpt>
        <trkpt lat="29.563917" lon="103.355276"><ele>1844.5557</ele><time>2026-08-12T08:16:29.000Z</time></trkpt>
        <trkpt lat="29.563901" lon="103.355223"><ele>1842.987</ele><time>2026-08-12T08:16:37.000Z</time></trkpt>
        <trkpt lat="29.563876" lon="103.355173"><ele>1841.582</ele><time>2026-08-12T08:16:43.000Z</time></trkpt>
        <trkpt lat="29.563848" lon="103.355131"><ele>1840.3398</ele><time>2026-08-12T08:16:49.000Z</time></trkpt>
        <trkpt lat="29.563812" lon="103.355095"><ele>1839.481</ele><time>2026-08-12T08:16:56.000Z</time></trkpt>
        <trkpt lat="29.563776" lon="103.355065"><ele>1838.228</ele><time>2026-08-12T08:17:02.000Z</time></trkpt>
        <trkpt lat="29.563746" lon="103.355021"><ele>1837.6094</ele><time>2026-08-12T08:17:08.000Z</time></trkpt>
        <trkpt lat="29.56371" lon="103.354978"><ele>1836.955</ele><time>2026-08-12T08:17:16.000Z</time></trkpt>
        <trkpt lat="29.563674" lon="103.35494"><ele>1837.3586</ele><time>2026-08-12T08:17:22.000Z</time></trkpt>
        <trkpt lat="29.563641" lon="103.354906"><ele>1837.7429</ele><time>2026-08-12T08:17:28.000Z</time></trkpt>
        <trkpt lat="29.563605" lon="103.354874"><ele>1837.8508</ele><time>2026-08-12T08:17:46.000Z</time></trkpt>
        <trkpt lat="29.563571" lon="103.354836"><ele>1837.5823</ele><time>2026-08-12T08:17:52.000Z</time></trkpt>
        <trkpt lat="29.563539" lon="103.354789"><ele>1838.0896</ele><time>2026-08-12T08:17:58.000Z</time></trkpt>
        <trkpt lat="29.56351" lon="103.354744"><ele>1838.4946</ele><time>2026-08-12T08:18:04.000Z</time></trkpt>
        <trkpt lat="29.563501" lon="103.354686"><ele>1838.4202</ele><time>2026-08-12T08:18:10.000Z</time></trkpt>
        <trkpt lat="29.563488" lon="103.354634"><ele>1839.0459</ele><time>2026-08-12T08:18:15.000Z</time></trkpt>
        <trkpt lat="29.563452" lon="103.354595"><ele>1839.7217</ele><time>2026-08-12T08:18:20.000Z</time></trkpt>
        <trkpt lat="29.563412" lon="103.354571"><ele>1839.6675</ele><time>2026-08-12T08:18:25.000Z</time></trkpt>
        <trkpt lat="29.563371" lon="103.354544"><ele>1838.9854</ele><time>2026-08-12T08:18:31.000Z</time></trkpt>
        <trkpt lat="29.563338" lon="103.354506"><ele>1839.1683</ele><time>2026-08-12T08:18:37.000Z</time></trkpt>
        <trkpt lat="29.563306" lon="103.354461"><ele>1839.007</ele><time>2026-08-12T08:18:44.000Z</time></trkpt>
        <trkpt lat="29.563289" lon="103.354412"><ele>1839.6188</ele><time>2026-08-12T08:18:51.000Z</time></trkpt>
        <trkpt lat="29.563282" lon="103.35436"><ele>1838.6897</ele><time>2026-08-12T08:18:57.000Z</time></trkpt>
        <trkpt lat="29.563281" lon="103.354308"><ele>1838.497</ele><time>2026-08-12T08:19:03.000Z</time></trkpt>
        <trkpt lat="29.563272" lon="103.354257"><ele>1836.7555</ele><time>2026-08-12T08:19:11.000Z</time></trkpt>
        <trkpt lat="29.563258" lon="103.354202"><ele>1836.5884</ele><time>2026-08-12T08:19:18.000Z</time></trkpt>
        <trkpt lat="29.563236" lon="103.354146"><ele>1836.1292</ele><time>2026-08-12T08:19:25.000Z</time></trkpt>
        <trkpt lat="29.563221" lon="103.354094"><ele>1836.4983</ele><time>2026-08-12T08:19:30.000Z</time></trkpt>
        <trkpt lat="29.563198" lon="103.354044"><ele>1836.3464</ele><time>2026-08-12T08:19:35.000Z</time></trkpt>
        <trkpt lat="29.563167" lon="103.353994"><ele>1836.5985</ele><time>2026-08-12T08:19:41.000Z</time></trkpt>
        <trkpt lat="29.563144" lon="103.353948"><ele>1837.8899</ele><time>2026-08-12T08:19:46.000Z</time></trkpt>
        <trkpt lat="29.56313" lon="103.353889"><ele>1838.664</ele><time>2026-08-12T08:19:52.000Z</time></trkpt>
        <trkpt lat="29.563132" lon="103.353827"><ele>1838.4568</ele><time>2026-08-12T08:19:57.000Z</time></trkpt>
        <trkpt lat="29.563132" lon="103.353775"><ele>1837.5955</ele><time>2026-08-12T08:20:02.000Z</time></trkpt>
        <trkpt lat="29.563117" lon="103.353724"><ele>1836.6896</ele><time>2026-08-12T08:20:08.000Z</time></trkpt>
        <trkpt lat="29.563088" lon="103.35368"><ele>1836.5951</ele><time>2026-08-12T08:20:14.000Z</time></trkpt>
        <trkpt lat="29.56306" lon="103.35363"><ele>1836.9879</ele><time>2026-08-12T08:20:22.000Z</time></trkpt>
        <trkpt lat="29.563056" lon="103.353578"><ele>1837.5889</ele><time>2026-08-12T08:20:27.000Z</time></trkpt>
        <trkpt lat="29.563061" lon="103.353518"><ele>1838.0494</ele><time>2026-08-12T08:20:33.000Z</time></trkpt>
        <trkpt lat="29.56309" lon="103.353472"><ele>1837.5214</ele><time>2026-08-12T08:20:40.000Z</time></trkpt>
        <trkpt lat="29.563112" lon="103.353425"><ele>1837.0088</ele><time>2026-08-12T08:20:48.000Z</time></trkpt>
        <trkpt lat="29.563091" lon="103.353377"><ele>1836.3586</ele><time>2026-08-12T08:20:55.000Z</time></trkpt>
        <trkpt lat="29.563068" lon="103.353328"><ele>1834.7609</ele><time>2026-08-12T08:21:05.000Z</time></trkpt>
        <trkpt lat="29.563059" lon="103.353276"><ele>1834.3022</ele><time>2026-08-12T08:21:13.000Z</time></trkpt>
        <trkpt lat="29.563046" lon="103.353221"><ele>1833.8358</ele><time>2026-08-12T08:21:19.000Z</time></trkpt>
        <trkpt lat="29.563031" lon="103.353168"><ele>1833.7007</ele><time>2026-08-12T08:21:26.000Z</time></trkpt>
        <trkpt lat="29.563014" lon="103.353109"><ele>1833.2802</ele><time>2026-08-12T08:21:32.000Z</time></trkpt>
        <trkpt lat="29.562994" lon="103.353056"><ele>1833.1853</ele><time>2026-08-12T08:21:37.000Z</time></trkpt>
        <trkpt lat="29.562975" lon="103.353005"><ele>1832.5093</ele><time>2026-08-12T08:21:42.000Z</time></trkpt>
        <trkpt lat="29.562956" lon="103.352954"><ele>1832.1407</ele><time>2026-08-12T08:21:47.000Z</time></trkpt>
        <trkpt lat="29.562938" lon="103.352895"><ele>1832.4042</ele><time>2026-08-12T08:21:52.000Z</time></trkpt>
        <trkpt lat="29.56293" lon="103.35284"><ele>1832.127</ele><time>2026-08-12T08:21:57.000Z</time></trkpt>
        <trkpt lat="29.562914" lon="103.352787"><ele>1831.0972</ele><time>2026-08-12T08:22:06.000Z</time></trkpt>
        <trkpt lat="29.562905" lon="103.352739"><ele>1828.7048</ele><time>2026-08-12T08:22:17.000Z</time></trkpt>
        <trkpt lat="29.562921" lon="103.352694"><ele>1825.9719</ele><time>2026-08-12T08:22:27.000Z</time></trkpt>
        <trkpt lat="29.562947" lon="103.352657"><ele>1823.72</ele><time>2026-08-12T08:22:36.000Z</time></trkpt>
        <trkpt lat="29.562977" lon="103.352627"><ele>1820.913</ele><time>2026-08-12T08:22:47.000Z</time></trkpt>
        <trkpt lat="29.563008" lon="103.352596"><ele>1818.9838</ele><time>2026-08-12T08:22:55.000Z</time></trkpt>
        <trkpt lat="29.563025" lon="103.352545"><ele>1817.3619</ele><time>2026-08-12T08:23:13.000Z</time></trkpt>
        <trkpt lat="29.563045" lon="103.3525"><ele>1816.0394</ele><time>2026-08-12T08:23:21.000Z</time></trkpt>
        <trkpt lat="29.563074" lon="103.352455"><ele>1814.7333</ele><time>2026-08-12T08:23:29.000Z</time></trkpt>
        <trkpt lat="29.563105" lon="103.352414"><ele>1812.7352</ele><time>2026-08-12T08:23:37.000Z</time></trkpt>
        <trkpt lat="29.563134" lon="103.352371"><ele>1812.2645</ele><time>2026-08-12T08:23:42.000Z</time></trkpt>
        <trkpt lat="29.563148" lon="103.352321"><ele>1811.4808</ele><time>2026-08-12T08:23:47.000Z</time></trkpt>
        <trkpt lat="29.563139" lon="103.352261"><ele>1810.9724</ele><time>2026-08-12T08:23:53.000Z</time></trkpt>
        <trkpt lat="29.563115" lon="103.352208"><ele>1810.894</ele><time>2026-08-12T08:23:58.000Z</time></trkpt>
        <trkpt lat="29.563094" lon="103.352157"><ele>1810.5322</ele><time>2026-08-12T08:24:03.000Z</time></trkpt>
        <trkpt lat="29.563075" lon="103.35211"><ele>1810.0173</ele><time>2026-08-12T08:24:08.000Z</time></trkpt>
        <trkpt lat="29.563055" lon="103.352057"><ele>1809.4579</ele><time>2026-08-12T08:24:14.000Z</time></trkpt>
        <trkpt lat="29.563042" lon="103.352003"><ele>1809.2231</ele><time>2026-08-12T08:24:20.000Z</time></trkpt>
        <trkpt lat="29.563035" lon="103.351949"><ele>1809.6422</ele><time>2026-08-12T08:24:25.000Z</time></trkpt>
        <trkpt lat="29.563023" lon="103.351893"><ele>1810.1107</ele><time>2026-08-12T08:24:31.000Z</time></trkpt>
        <trkpt lat="29.563006" lon="103.35184"><ele>1810.5128</ele><time>2026-08-12T08:24:36.000Z</time></trkpt>
        <trkpt lat="29.562998" lon="103.351781"><ele>1810.7852</ele><time>2026-08-12T08:24:42.000Z</time></trkpt>
        <trkpt lat="29.562996" lon="103.351727"><ele>1810.676</ele><time>2026-08-12T08:24:48.000Z</time></trkpt>
        <trkpt lat="29.562994" lon="103.351673"><ele>1809.893</ele><time>2026-08-12T08:24:55.000Z</time></trkpt>
        <trkpt lat="29.562997" lon="103.351617"><ele>1809.8903</ele><time>2026-08-12T08:25:02.000Z</time></trkpt>
        <trkpt lat="29.562972" lon="103.351571"><ele>1809.1631</ele><time>2026-08-12T08:25:09.000Z</time></trkpt>
        <trkpt lat="29.56296" lon="103.351521"><ele>1807.6195</ele><time>2026-08-12T08:25:16.000Z</time></trkpt>
        <trkpt lat="29.562931" lon="103.351475"><ele>1807.128</ele><time>2026-08-12T08:25:24.000Z</time></trkpt>
        <trkpt lat="29.562918" lon="103.351424"><ele>1805.8868</ele><time>2026-08-12T08:25:32.000Z</time></trkpt>
        <trkpt lat="29.562938" lon="103.351375"><ele>1804.0917</ele><time>2026-08-12T08:25:39.000Z</time></trkpt>
        <trkpt lat="29.562967" lon="103.351335"><ele>1802.076</ele><time>2026-08-12T08:25:44.000Z</time></trkpt>
        <trkpt lat="29.563003" lon="103.351306"><ele>1800.3252</ele><time>2026-08-12T08:25:49.000Z</time></trkpt>
        <trkpt lat="29.563019" lon="103.351258"><ele>1798.1671</ele><time>2026-08-12T08:25:57.000Z</time></trkpt>
        <trkpt lat="29.563017" lon="103.351206"><ele>1796.8353</ele><time>2026-08-12T08:26:05.000Z</time></trkpt>
        <trkpt lat="29.563004" lon="103.351152"><ele>1795.3043</ele><time>2026-08-12T08:26:14.000Z</time></trkpt>
        <trkpt lat="29.562986" lon="103.351102"><ele>1795.0352</ele><time>2026-08-12T08:26:27.000Z</time></trkpt>
        <trkpt lat="29.562972" lon="103.351047"><ele>1795.0796</ele><time>2026-08-12T08:26:33.000Z</time></trkpt>
        <trkpt lat="29.56296" lon="103.350988"><ele>1794.6074</ele><time>2026-08-12T08:26:38.000Z</time></trkpt>
        <trkpt lat="29.562942" lon="103.350935"><ele>1793.8735</ele><time>2026-08-12T08:26:43.000Z</time></trkpt>
        <trkpt lat="29.562924" lon="103.350887"><ele>1793.3141</ele><time>2026-08-12T08:26:48.000Z</time></trkpt>
        <trkpt lat="29.56291" lon="103.350833"><ele>1792.6239</ele><time>2026-08-12T08:26:54.000Z</time></trkpt>
        <trkpt lat="29.562894" lon="103.350784"><ele>1791.8875</ele><time>2026-08-12T08:27:00.000Z</time></trkpt>
        <trkpt lat="29.562853" lon="103.35076"><ele>1791.8564</ele><time>2026-08-12T08:27:59.000Z</time></trkpt>
        <trkpt lat="29.562807" lon="103.350757"><ele>1791.668</ele><time>2026-08-12T08:28:06.000Z</time></trkpt>
        <trkpt lat="29.562852" lon="103.350756"><ele>1792.1735</ele><time>2026-08-12T08:30:45.000Z</time></trkpt>
        <trkpt lat="29.562809" lon="103.35074"><ele>1791.4786</ele><time>2026-08-12T08:31:19.000Z</time></trkpt>
        <trkpt lat="29.562809" lon="103.350683"><ele>1791.629</ele><time>2026-08-12T08:43:39.000Z</time></trkpt>
        <trkpt lat="29.562797" lon="103.350631"><ele>1791.2164</ele><time>2026-08-12T08:43:45.000Z</time></trkpt>
        <trkpt lat="29.562782" lon="103.350576"><ele>1789.8418</ele><time>2026-08-12T08:43:50.000Z</time></trkpt>
        <trkpt lat="29.562795" lon="103.350523"><ele>1788.787</ele><time>2026-08-12T08:43:59.000Z</time></trkpt>
        <trkpt lat="29.562803" lon="103.350467"><ele>1789.9111</ele><time>2026-08-12T08:44:07.000Z</time></trkpt>
        <trkpt lat="29.562804" lon="103.35041"><ele>1789.0441</ele><time>2026-08-12T08:44:14.000Z</time></trkpt>
        <trkpt lat="29.562815" lon="103.350354"><ele>1787.7566</ele><time>2026-08-12T08:44:22.000Z</time></trkpt>
        <trkpt lat="29.562811" lon="103.350303"><ele>1786.037</ele><time>2026-08-12T08:44:29.000Z</time></trkpt>
        <trkpt lat="29.562818" lon="103.350247"><ele>1784.8712</ele><time>2026-08-12T08:44:35.000Z</time></trkpt>
        <trkpt lat="29.562831" lon="103.350198"><ele>1783.4812</ele><time>2026-08-12T08:44:40.000Z</time></trkpt>
        <trkpt lat="29.562842" lon="103.350141"><ele>1782.596</ele><time>2026-08-12T08:44:47.000Z</time></trkpt>
        <trkpt lat="29.562846" lon="103.350087"><ele>1782.6642</ele><time>2026-08-12T08:44:53.000Z</time></trkpt>
        <trkpt lat="29.562845" lon="103.350035"><ele>1782.0366</ele><time>2026-08-12T08:45:00.000Z</time></trkpt>
        <trkpt lat="29.562852" lon="103.349983"><ele>1779.3829</ele><time>2026-08-12T08:45:08.000Z</time></trkpt>
        <trkpt lat="29.562856" lon="103.349922"><ele>1778.4819</ele><time>2026-08-12T08:45:15.000Z</time></trkpt>
        <trkpt lat="29.562859" lon="103.34987"><ele>1777.8229</ele><time>2026-08-12T08:45:20.000Z</time></trkpt>
        <trkpt lat="29.562886" lon="103.349828"><ele>1778.0984</ele><time>2026-08-12T08:45:24.000Z</time></trkpt>
        <trkpt lat="29.562914" lon="103.349779"><ele>1778.2573</ele><time>2026-08-12T08:45:30.000Z</time></trkpt>
        <trkpt lat="29.562934" lon="103.349732"><ele>1778.1772</ele><time>2026-08-12T08:45:37.000Z</time></trkpt>
        <trkpt lat="29.56295" lon="103.349679"><ele>1779.2</ele><time>2026-08-12T08:45:43.000Z</time></trkpt>
        <trkpt lat="29.56297" lon="103.349625"><ele>1779.65</ele><time>2026-08-12T08:45:49.000Z</time></trkpt>
        <trkpt lat="29.563001" lon="103.349578"><ele>1780.302</ele><time>2026-08-12T08:45:55.000Z</time></trkpt>
        <trkpt lat="29.563022" lon="103.349528"><ele>1780.0812</ele><time>2026-08-12T08:46:01.000Z</time></trkpt>
        <trkpt lat="29.563053" lon="103.349486"><ele>1779.9602</ele><time>2026-08-12T08:46:07.000Z</time></trkpt>
        <trkpt lat="29.563092" lon="103.349456"><ele>1780.3004</ele><time>2026-08-12T08:46:14.000Z</time></trkpt>
        <trkpt lat="29.563111" lon="103.349399"><ele>1780.3081</ele><time>2026-08-12T08:46:22.000Z</time></trkpt>
        <trkpt lat="29.563122" lon="103.349345"><ele>1780.1481</ele><time>2026-08-12T08:46:28.000Z</time></trkpt>
        <trkpt lat="29.563143" lon="103.349299"><ele>1779.3358</ele><time>2026-08-12T08:46:34.000Z</time></trkpt>
        <trkpt lat="29.563168" lon="103.349248"><ele>1778.1687</ele><time>2026-08-12T08:46:39.000Z</time></trkpt>
        <trkpt lat="29.563193" lon="103.349204"><ele>1778.2599</ele><time>2026-08-12T08:46:44.000Z</time></trkpt>
        <trkpt lat="29.563215" lon="103.349156"><ele>1778.0779</ele><time>2026-08-12T08:46:49.000Z</time></trkpt>
        <trkpt lat="29.563221" lon="103.349104"><ele>1778.4049</ele><time>2026-08-12T08:46:57.000Z</time></trkpt>
        <trkpt lat="29.563209" lon="103.349051"><ele>1778.7903</ele><time>2026-08-12T08:47:04.000Z</time></trkpt>
        <trkpt lat="29.563202" lon="103.348999"><ele>1779.6693</ele><time>2026-08-12T08:47:11.000Z</time></trkpt>
        <trkpt lat="29.563217" lon="103.348949"><ele>1780.5552</ele><time>2026-08-12T08:47:18.000Z</time></trkpt>
        <trkpt lat="29.563236" lon="103.348901"><ele>1780.2179</ele><time>2026-08-12T08:47:26.000Z</time></trkpt>
        <trkpt lat="29.563246" lon="103.348845"><ele>1779.5115</ele><time>2026-08-12T08:47:35.000Z</time></trkpt>
        <trkpt lat="29.563246" lon="103.348793"><ele>1780.6967</ele><time>2026-08-12T08:47:42.000Z</time></trkpt>
        <trkpt lat="29.563233" lon="103.348734"><ele>1781.1204</ele><time>2026-08-12T08:47:49.000Z</time></trkpt>
        <trkpt lat="29.563218" lon="103.348679"><ele>1781.5096</ele><time>2026-08-12T08:47:55.000Z</time></trkpt>
        <trkpt lat="29.563221" lon="103.348623"><ele>1781.3188</ele><time>2026-08-12T08:48:02.000Z</time></trkpt>
        <trkpt lat="29.563232" lon="103.348567"><ele>1781.1045</ele><time>2026-08-12T08:48:09.000Z</time></trkpt>
        <trkpt lat="29.563243" lon="103.348513"><ele>1782.1636</ele><time>2026-08-12T08:48:14.000Z</time></trkpt>
        <trkpt lat="29.563256" lon="103.348452"><ele>1782.2552</ele><time>2026-08-12T08:48:19.000Z</time></trkpt>
        <trkpt lat="29.563263" lon="103.348399"><ele>1782.4341</ele><time>2026-08-12T08:48:24.000Z</time></trkpt>
        <trkpt lat="29.563284" lon="103.348347"><ele>1783.1025</ele><time>2026-08-12T08:48:30.000Z</time></trkpt>
        <trkpt lat="29.56332" lon="103.348306"><ele>1784.023</ele><time>2026-08-12T08:48:36.000Z</time></trkpt>
        <trkpt lat="29.563352" lon="103.348259"><ele>1785.1093</ele><time>2026-08-12T08:48:42.000Z</time></trkpt>
        <trkpt lat="29.563389" lon="103.348221"><ele>1785.9906</ele><time>2026-08-12T08:48:50.000Z</time></trkpt>
        <trkpt lat="29.563415" lon="103.348173"><ele>1786.0396</ele><time>2026-08-12T08:48:57.000Z</time></trkpt>
        <trkpt lat="29.563433" lon="103.348124"><ele>1786.2994</ele><time>2026-08-12T08:49:02.000Z</time></trkpt>
        <trkpt lat="29.563458" lon="103.348069"><ele>1786.3234</ele><time>2026-08-12T08:49:08.000Z</time></trkpt>
        <trkpt lat="29.563491" lon="103.348024"><ele>1787.1115</ele><time>2026-08-12T08:49:13.000Z</time></trkpt>
        <trkpt lat="29.563533" lon="103.347995"><ele>1786.9517</ele><time>2026-08-12T08:49:18.000Z</time></trkpt>
        <trkpt lat="29.56356" lon="103.347945"><ele>1787.2003</ele><time>2026-08-12T08:49:23.000Z</time></trkpt>
        <trkpt lat="29.563571" lon="103.347891"><ele>1787.5258</ele><time>2026-08-12T08:49:28.000Z</time></trkpt>
        <trkpt lat="29.563585" lon="103.34784"><ele>1787.478</ele><time>2026-08-12T08:49:34.000Z</time></trkpt>
        <trkpt lat="29.563575" lon="103.347786"><ele>1786.4556</ele><time>2026-08-12T08:49:41.000Z</time></trkpt>
        <trkpt lat="29.563563" lon="103.347732"><ele>1785.5485</ele><time>2026-08-12T08:49:53.000Z</time></trkpt>
        <trkpt lat="29.563559" lon="103.347676"><ele>1785.0103</ele><time>2026-08-12T08:49:58.000Z</time></trkpt>
        <trkpt lat="29.56356" lon="103.347615"><ele>1784.4636</ele><time>2026-08-12T08:50:04.000Z</time></trkpt>
        <trkpt lat="29.56356" lon="103.347564"><ele>1782.6318</ele><time>2026-08-12T08:50:12.000Z</time></trkpt>
        <trkpt lat="29.563562" lon="103.347512"><ele>1780.7871</ele><time>2026-08-12T08:50:18.000Z</time></trkpt>
        <trkpt lat="29.56355" lon="103.347462"><ele>1780.2222</ele><time>2026-08-12T08:50:24.000Z</time></trkpt>
        <trkpt lat="29.563533" lon="103.347409"><ele>1779.8304</ele><time>2026-08-12T08:50:29.000Z</time></trkpt>
        <trkpt lat="29.563504" lon="103.347363"><ele>1779.6208</ele><time>2026-08-12T08:50:34.000Z</time></trkpt>
        <trkpt lat="29.563469" lon="103.347322"><ele>1779.13</ele><time>2026-08-12T08:50:39.000Z</time></trkpt>
        <trkpt lat="29.563441" lon="103.347277"><ele>1779.1213</ele><time>2026-08-12T08:50:45.000Z</time></trkpt>
        <trkpt lat="29.563415" lon="103.347234"><ele>1778.7592</ele><time>2026-08-12T08:50:51.000Z</time></trkpt>
        <trkpt lat="29.56338" lon="103.347197"><ele>1778.3909</ele><time>2026-08-12T08:50:57.000Z</time></trkpt>
        <trkpt lat="29.563346" lon="103.347162"><ele>1779.6257</ele><time>2026-08-12T08:51:03.000Z</time></trkpt>
        <trkpt lat="29.563307" lon="103.347131"><ele>1780.5441</ele><time>2026-08-12T08:51:10.000Z</time></trkpt>
        <trkpt lat="29.563262" lon="103.347104"><ele>1781.068</ele><time>2026-08-12T08:51:18.000Z</time></trkpt>
        <trkpt lat="29.563217" lon="103.347087"><ele>1781.5613</ele><time>2026-08-12T08:51:24.000Z</time></trkpt>
        <trkpt lat="29.563193" lon="103.347036"><ele>1781.7246</ele><time>2026-08-12T08:54:11.000Z</time></trkpt>
        <trkpt lat="29.56316" lon="103.346993"><ele>1781.1934</ele><time>2026-08-12T08:54:17.000Z</time></trkpt>
        <trkpt lat="29.563127" lon="103.346949"><ele>1781.215</ele><time>2026-08-12T08:54:23.000Z</time></trkpt>
        <trkpt lat="29.563086" lon="103.346911"><ele>1781.4147</ele><time>2026-08-12T08:54:30.000Z</time></trkpt>
        <trkpt lat="29.56306" lon="103.346867"><ele>1781.2849</ele><time>2026-08-12T08:54:37.000Z</time></trkpt>
        <trkpt lat="29.563037" lon="103.346821"><ele>1780.5126</ele><time>2026-08-12T08:54:46.000Z</time></trkpt>
        <trkpt lat="29.563005" lon="103.346779"><ele>1779.2075</ele><time>2026-08-12T08:54:57.000Z</time></trkpt>
        <trkpt lat="29.562969" lon="103.346748"><ele>1778.5231</ele><time>2026-08-12T08:55:04.000Z</time></trkpt>
        <trkpt lat="29.562923" lon="103.34672"><ele>1777.9799</ele><time>2026-08-12T08:55:11.000Z</time></trkpt>
        <trkpt lat="29.562885" lon="103.346683"><ele>1777.1027</ele><time>2026-08-12T08:55:17.000Z</time></trkpt>
        <trkpt lat="29.562869" lon="103.346634"><ele>1775.957</ele><time>2026-08-12T08:55:25.000Z</time></trkpt>
        <trkpt lat="29.562845" lon="103.34659"><ele>1774.7037</ele><time>2026-08-12T08:55:32.000Z</time></trkpt>
        <trkpt lat="29.562817" lon="103.346545"><ele>1775.094</ele><time>2026-08-12T08:55:38.000Z</time></trkpt>
        <trkpt lat="29.562777" lon="103.34651"><ele>1776.233</ele><time>2026-08-12T08:55:44.000Z</time></trkpt>
        <trkpt lat="29.562736" lon="103.346486"><ele>1775.8228</ele><time>2026-08-12T08:55:50.000Z</time></trkpt>
        <trkpt lat="29.562692" lon="103.346463"><ele>1775.1172</ele><time>2026-08-12T08:55:56.000Z</time></trkpt>
        <trkpt lat="29.562655" lon="103.346433"><ele>1775.443</ele><time>2026-08-12T08:56:01.000Z</time></trkpt>
        <trkpt lat="29.562617" lon="103.346398"><ele>1775.2954</ele><time>2026-08-12T08:56:06.000Z</time></trkpt>
        <trkpt lat="29.562578" lon="103.346358"><ele>1774.8627</ele><time>2026-08-12T08:56:12.000Z</time></trkpt>
        <trkpt lat="29.562539" lon="103.346325"><ele>1775.0151</ele><time>2026-08-12T08:56:19.000Z</time></trkpt>
        <trkpt lat="29.562495" lon="103.346303"><ele>1775.059</ele><time>2026-08-12T08:56:26.000Z</time></trkpt>
        <trkpt lat="29.562452" lon="103.346272"><ele>1774.8245</ele><time>2026-08-12T08:56:33.000Z</time></trkpt>
        <trkpt lat="29.562409" lon="103.346235"><ele>1773.7195</ele><time>2026-08-12T08:56:39.000Z</time></trkpt>
        <trkpt lat="29.562375" lon="103.346203"><ele>1772.6595</ele><time>2026-08-12T08:56:44.000Z</time></trkpt>
        <trkpt lat="29.562342" lon="103.346162"><ele>1771.7217</ele><time>2026-08-12T08:56:50.000Z</time></trkpt>
        <trkpt lat="29.562304" lon="103.346127"><ele>1771.3281</ele><time>2026-08-12T08:56:57.000Z</time></trkpt>
        <trkpt lat="29.56227" lon="103.346094"><ele>1770.349</ele><time>2026-08-12T08:57:04.000Z</time></trkpt>
        <trkpt lat="29.562241" lon="103.346041"><ele>1769.9792</ele><time>2026-08-12T08:57:10.000Z</time></trkpt>
        <trkpt lat="29.562223" lon="103.345988"><ele>1769.5554</ele><time>2026-08-12T08:57:16.000Z</time></trkpt>
        <trkpt lat="29.562213" lon="103.345931"><ele>1769.2488</ele><time>2026-08-12T08:57:23.000Z</time></trkpt>
        <trkpt lat="29.562198" lon="103.345882"><ele>1768.8862</ele><time>2026-08-12T08:57:29.000Z</time></trkpt>
        <trkpt lat="29.562182" lon="103.34583"><ele>1769.331</ele><time>2026-08-12T08:57:36.000Z</time></trkpt>
        <trkpt lat="29.562151" lon="103.345782"><ele>1769.3984</ele><time>2026-08-12T08:57:43.000Z</time></trkpt>
        <trkpt lat="29.562115" lon="103.345742"><ele>1768.8417</ele><time>2026-08-12T08:57:49.000Z</time></trkpt>
        <trkpt lat="29.562083" lon="103.345701"><ele>1769.2179</ele><time>2026-08-12T08:57:56.000Z</time></trkpt>
        <trkpt lat="29.562049" lon="103.34566"><ele>1769.4946</ele><time>2026-08-12T08:58:04.000Z</time></trkpt>
        <trkpt lat="29.562015" lon="103.345611"><ele>1769.1079</ele><time>2026-08-12T08:58:12.000Z</time></trkpt>
        <trkpt lat="29.561968" lon="103.345594"><ele>1769.0698</ele><time>2026-08-12T08:58:20.000Z</time></trkpt>
        <trkpt lat="29.561923" lon="103.345594"><ele>1769.0548</ele><time>2026-08-12T08:58:27.000Z</time></trkpt>
        <trkpt lat="29.561877" lon="103.34559"><ele>1770.2631</ele><time>2026-08-12T08:58:36.000Z</time></trkpt>
        <trkpt lat="29.561826" lon="103.345585"><ele>1770.9937</ele><time>2026-08-12T08:58:46.000Z</time></trkpt>
        <trkpt lat="29.561779" lon="103.345592"><ele>1771.7432</ele><time>2026-08-12T08:58:53.000Z</time></trkpt>
        <trkpt lat="29.561734" lon="103.3456"><ele>1772.2957</ele><time>2026-08-12T08:59:00.000Z</time></trkpt>
        <trkpt lat="29.561685" lon="103.345603"><ele>1772.5425</ele><time>2026-08-12T08:59:08.000Z</time></trkpt>
        <trkpt lat="29.561642" lon="103.34558"><ele>1773.5978</ele><time>2026-08-12T08:59:15.000Z</time></trkpt>
        <trkpt lat="29.561604" lon="103.345552"><ele>1773.834</ele><time>2026-08-12T08:59:21.000Z</time></trkpt>
        <trkpt lat="29.561566" lon="103.345523"><ele>1774.1707</ele><time>2026-08-12T08:59:27.000Z</time></trkpt>
        <trkpt lat="29.561525" lon="103.345488"><ele>1774.5094</ele><time>2026-08-12T08:59:34.000Z</time></trkpt>
        <trkpt lat="29.561486" lon="103.345455"><ele>1774.1868</ele><time>2026-08-12T08:59:52.000Z</time></trkpt>
        <trkpt lat="29.561459" lon="103.34541"><ele>1773.751</ele><time>2026-08-12T08:59:57.000Z</time></trkpt>
        <trkpt lat="29.561434" lon="103.345366"><ele>1773.3975</ele><time>2026-08-12T09:00:02.000Z</time></trkpt>
        <trkpt lat="29.5614" lon="103.345325"><ele>1773.3483</ele><time>2026-08-12T09:00:09.000Z</time></trkpt>
        <trkpt lat="29.561364" lon="103.345284"><ele>1772.9454</ele><time>2026-08-12T09:03:18.000Z</time></trkpt>
        <trkpt lat="29.561339" lon="103.345238"><ele>1773.7825</ele><time>2026-08-12T09:03:29.000Z</time></trkpt>
        <trkpt lat="29.561311" lon="103.345194"><ele>1774.3972</ele><time>2026-08-12T09:03:38.000Z</time></trkpt>
        <trkpt lat="29.561272" lon="103.345171"><ele>1775.7668</ele><time>2026-08-12T09:03:50.000Z</time></trkpt>
        <trkpt lat="29.561238" lon="103.345136"><ele>1777.5227</ele><time>2026-08-12T09:05:05.000Z</time></trkpt>
        <trkpt lat="29.561199" lon="103.345106"><ele>1778.8534</ele><time>2026-08-12T09:05:15.000Z</time></trkpt>
        <trkpt lat="29.561184" lon="103.345062"><ele>1780.8096</ele><time>2026-08-12T09:05:27.000Z</time></trkpt>
        <trkpt lat="29.561153" lon="103.345029"><ele>1782.9309</ele><time>2026-08-12T09:06:23.000Z</time></trkpt>
        <trkpt lat="29.561117" lon="103.345"><ele>1785.4005</ele><time>2026-08-12T09:06:34.000Z</time></trkpt>
        <trkpt lat="29.561103" lon="103.345022"><ele>1790.01</ele><time>2026-08-12T09:06:42.000Z</time></trkpt>
        <trkpt lat="29.56107" lon="103.345024"><ele>1793.5273</ele><time>2026-08-12T09:08:20.000Z</time></trkpt>
        <trkpt lat="29.561035" lon="103.344987"><ele>1795.5453</ele><time>2026-08-12T09:08:27.000Z</time></trkpt>
        <trkpt lat="29.561003" lon="103.344999"><ele>1798.8232</ele><time>2026-08-12T09:08:41.000Z</time></trkpt>
        <trkpt lat="29.560974" lon="103.345033"><ele>1801.6199</ele><time>2026-08-12T09:08:53.000Z</time></trkpt>
        <trkpt lat="29.560929" lon="103.34504"><ele>1803.5509</ele><time>2026-08-12T09:09:07.000Z</time></trkpt>
        <trkpt lat="29.560883" lon="103.345049"><ele>1805.8004</ele><time>2026-08-12T09:10:43.000Z</time></trkpt>
        <trkpt lat="29.560858" lon="103.345015"><ele>1809.6176</ele><time>2026-08-12T09:10:52.000Z</time></trkpt>
        <trkpt lat="29.560831" lon="103.344981"><ele>1812.4377</ele><time>2026-08-12T09:11:05.000Z</time></trkpt>
        <trkpt lat="29.560823" lon="103.344935"><ele>1815.382</ele><time>2026-08-12T09:12:02.000Z</time></trkpt>
        <trkpt lat="29.56081" lon="103.344888"><ele>1817.2024</ele><time>2026-08-12T09:12:10.000Z</time></trkpt>
        <trkpt lat="29.560782" lon="103.344918"><ele>1820.3689</ele><time>2026-08-12T09:12:25.000Z</time></trkpt>
        <trkpt lat="29.560749" lon="103.344912"><ele>1824.3901</ele><time>2026-08-12T09:13:43.000Z</time></trkpt>
        <trkpt lat="29.560713" lon="103.344885"><ele>1827.2208</ele><time>2026-08-12T09:13:55.000Z</time></trkpt>
        <trkpt lat="29.560724" lon="103.344834"><ele>1828.9719</ele><time>2026-08-12T09:14:59.000Z</time></trkpt>
        <trkpt lat="29.560709" lon="103.344783"><ele>1829.911</ele><time>2026-08-12T09:15:09.000Z</time></trkpt>
        <trkpt lat="29.560694" lon="103.344738"><ele>1831.8842</ele><time>2026-08-12T09:15:21.000Z</time></trkpt>
        <trkpt lat="29.560669" lon="103.344701"><ele>1834.5239</ele><time>2026-08-12T09:15:31.000Z</time></trkpt>
        <trkpt lat="29.560634" lon="103.344674"><ele>1837.2736</ele><time>2026-08-12T09:17:29.000Z</time></trkpt>
        <trkpt lat="29.560585" lon="103.34466"><ele>1838.3285</ele><time>2026-08-12T09:17:38.000Z</time></trkpt>
        <trkpt lat="29.560545" lon="103.34464"><ele>1840.255</ele><time>2026-08-12T09:17:54.000Z</time></trkpt>
        <trkpt lat="29.560503" lon="103.344621"><ele>1841.3551</ele><time>2026-08-12T09:18:04.000Z</time></trkpt>
        <trkpt lat="29.560462" lon="103.344606"><ele>1843.5819</ele><time>2026-08-12T09:18:50.000Z</time></trkpt>
        <trkpt lat="29.560422" lon="103.344584"><ele>1844.9418</ele><time>2026-08-12T09:18:59.000Z</time></trkpt>
        <trkpt lat="29.560381" lon="103.344562"><ele>1846.3014</ele><time>2026-08-12T09:20:20.000Z</time></trkpt>
        <trkpt lat="29.560342" lon="103.344526"><ele>1847.7656</ele><time>2026-08-12T09:20:29.000Z</time></trkpt>
        <trkpt lat="29.560308" lon="103.344498"><ele>1849.8843</ele><time>2026-08-12T09:20:38.000Z</time></trkpt>
        <trkpt lat="29.560269" lon="103.344468"><ele>1851.2748</ele><time>2026-08-12T09:20:47.000Z</time></trkpt>
        <trkpt lat="29.560241" lon="103.344434"><ele>1853.9528</ele><time>2026-08-12T09:21:58.000Z</time></trkpt>
        <trkpt lat="29.560203" lon="103.344404"><ele>1855.7551</ele><time>2026-08-12T09:22:08.000Z</time></trkpt>
        <trkpt lat="29.560171" lon="103.34438"><ele>1858.6779</ele><time>2026-08-12T09:22:16.000Z</time></trkpt>
        <trkpt lat="29.560147" lon="103.344363"><ele>1862.5469</ele><time>2026-08-12T09:22:26.000Z</time></trkpt>
        <trkpt lat="29.560156" lon="103.34431"><ele>1863.4469</ele><time>2026-08-12T09:23:31.000Z</time></trkpt>
        <trkpt lat="29.560191" lon="103.344277"><ele>1864.3018</ele><time>2026-08-12T09:23:42.000Z</time></trkpt>
        <trkpt lat="29.560166" lon="103.344246"><ele>1867.9902</ele><time>2026-08-12T09:25:27.000Z</time></trkpt>
        <trkpt lat="29.560117" lon="103.344243"><ele>1869.3611</ele><time>2026-08-12T09:25:37.000Z</time></trkpt>
        <trkpt lat="29.560082" lon="103.344216"><ele>1871.9136</ele><time>2026-08-12T09:25:49.000Z</time></trkpt>
        <trkpt lat="29.560059" lon="103.344169"><ele>1873.1927</ele><time>2026-08-12T09:26:01.000Z</time></trkpt>
        <trkpt lat="29.560069" lon="103.344125"><ele>1875.599</ele><time>2026-08-12T09:26:19.000Z</time></trkpt>
        <trkpt lat="29.560087" lon="103.344081"><ele>1877.2837</ele><time>2026-08-12T09:27:16.000Z</time></trkpt>
        <trkpt lat="29.560086" lon="103.344032"><ele>1879.554</ele><time>2026-08-12T09:27:29.000Z</time></trkpt>
        <trkpt lat="29.560063" lon="103.343991"><ele>1882.1167</ele><time>2026-08-12T09:27:41.000Z</time></trkpt>
        <trkpt lat="29.560073" lon="103.343973"><ele>1886.7827</ele><time>2026-08-12T09:29:29.000Z</time></trkpt>
        <trkpt lat="29.560108" lon="103.343955"><ele>1889.8342</ele><time>2026-08-12T09:29:33.000Z</time></trkpt>
        <trkpt lat="29.5601" lon="103.343919"><ele>1893.4933</ele><time>2026-08-12T09:30:23.000Z</time></trkpt>
        <trkpt lat="29.560078" lon="103.343886"><ele>1897.1903</ele><time>2026-08-12T09:30:37.000Z</time></trkpt>
        <trkpt lat="29.560036" lon="103.343868"><ele>1901.252</ele><time>2026-08-12T09:30:48.000Z</time></trkpt>
        <trkpt lat="29.560003" lon="103.343849"><ele>1904.0813</ele><time>2026-08-12T09:30:58.000Z</time></trkpt>
        <trkpt lat="29.559972" lon="103.343823"><ele>1907.2957</ele><time>2026-08-12T09:31:20.000Z</time></trkpt>
        <trkpt lat="29.559934" lon="103.343796"><ele>1909.1263</ele><time>2026-08-12T09:32:48.000Z</time></trkpt>
        <trkpt lat="29.559906" lon="103.343757"><ele>1911.843</ele><time>2026-08-12T09:33:02.000Z</time></trkpt>
        <trkpt lat="29.559866" lon="103.343737"><ele>1913.1385</ele><time>2026-08-12T09:33:14.000Z</time></trkpt>
        <trkpt lat="29.559833" lon="103.343705"><ele>1914.2507</ele><time>2026-08-12T09:34:19.000Z</time></trkpt>
        <trkpt lat="29.559802" lon="103.343664"><ele>1915.4374</ele><time>2026-08-12T09:34:26.000Z</time></trkpt>
        <trkpt lat="29.559771" lon="103.343631"><ele>1918.0835</ele><time>2026-08-12T09:34:32.000Z</time></trkpt>
        <trkpt lat="29.559744" lon="103.343597"><ele>1921.3116</ele><time>2026-08-12T09:34:40.000Z</time></trkpt>
        <trkpt lat="29.559718" lon="103.343567"><ele>1924.13</ele><time>2026-08-12T09:34:50.000Z</time></trkpt>
        <trkpt lat="29.559693" lon="103.343533"><ele>1926.7949</ele><time>2026-08-12T09:35:01.000Z</time></trkpt>
        <trkpt lat="29.559673" lon="103.34351"><ele>1930.877</ele><time>2026-08-12T09:36:18.000Z</time></trkpt>
        <trkpt lat="29.559642" lon="103.343554"><ele>1932.4312</ele><time>2026-08-12T09:36:37.000Z</time></trkpt>
        <trkpt lat="29.559621" lon="103.343599"><ele>1933.8333</ele><time>2026-08-12T09:36:49.000Z</time></trkpt>
        <trkpt lat="29.559582" lon="103.343575"><ele>1935.8586</ele><time>2026-08-12T09:37:01.000Z</time></trkpt>
        <trkpt lat="29.559556" lon="103.343559"><ele>1940.2216</ele><time>2026-08-12T09:38:38.000Z</time></trkpt>
        <trkpt lat="29.55952" lon="103.343531"><ele>1942.8221</ele><time>2026-08-12T09:39:05.000Z</time></trkpt>
        <trkpt lat="29.559482" lon="103.343506"><ele>1944.0002</ele><time>2026-08-12T09:39:11.000Z</time></trkpt>
        <trkpt lat="29.559454" lon="103.34354"><ele>1947.4302</ele><time>2026-08-12T09:39:20.000Z</time></trkpt>
        <trkpt lat="29.559432" lon="103.343569"><ele>1950.7798</ele><time>2026-08-12T09:39:27.000Z</time></trkpt>
        <trkpt lat="29.559421" lon="103.343611"><ele>1953.7598</ele><time>2026-08-12T09:39:39.000Z</time></trkpt>
        <trkpt lat="29.559379" lon="103.343609"><ele>1956.4507</ele><time>2026-08-12T09:41:02.000Z</time></trkpt>
        <trkpt lat="29.559337" lon="103.343606"><ele>1958.9229</ele><time>2026-08-12T09:41:14.000Z</time></trkpt>
        <trkpt lat="29.559293" lon="103.343606"><ele>1960.296</ele><time>2026-08-12T09:43:23.000Z</time></trkpt>
        <trkpt lat="29.559274" lon="103.34365"><ele>1962.4131</ele><time>2026-08-12T09:43:34.000Z</time></trkpt>
        <trkpt lat="29.559256" lon="103.343695"><ele>1964.292</ele><time>2026-08-12T09:43:47.000Z</time></trkpt>
        <trkpt lat="29.559228" lon="103.343726"><ele>1966.9117</ele><time>2026-08-12T09:45:33.000Z</time></trkpt>
        <trkpt lat="29.559217" lon="103.343774"><ele>1968.8763</ele><time>2026-08-12T09:45:41.000Z</time></trkpt>
        <trkpt lat="29.559189" lon="103.34381"><ele>1970.8154</ele><time>2026-08-12T09:45:55.000Z</time></trkpt>
        <trkpt lat="29.559161" lon="103.343776"><ele>1973.7953</ele><time>2026-08-12T09:47:16.000Z</time></trkpt>
        <trkpt lat="29.559137" lon="103.343729"><ele>1974.5004</ele><time>2026-08-12T09:47:28.000Z</time></trkpt>
        <trkpt lat="29.559108" lon="103.343695"><ele>1977.0674</ele><time>2026-08-12T09:47:41.000Z</time></trkpt>
        <trkpt lat="29.559062" lon="103.343687"><ele>1977.5042</ele><time>2026-08-12T09:49:27.000Z</time></trkpt>
        <trkpt lat="29.559019" lon="103.343665"><ele>1979.3928</ele><time>2026-08-12T09:49:39.000Z</time></trkpt>
        <trkpt lat="29.558988" lon="103.343682"><ele>1982.9138</ele><time>2026-08-12T09:51:07.000Z</time></trkpt>
        <trkpt lat="29.55897" lon="103.343728"><ele>1984.461</ele><time>2026-08-12T09:51:18.000Z</time></trkpt>
        <trkpt lat="29.558927" lon="103.34375"><ele>1985.5812</ele><time>2026-08-12T09:51:29.000Z</time></trkpt>
        <trkpt lat="29.558891" lon="103.343764"><ele>1988.3911</ele><time>2026-08-12T09:51:42.000Z</time></trkpt>
        <trkpt lat="29.558886" lon="103.343812"><ele>1991.3965</ele><time>2026-08-12T09:51:59.000Z</time></trkpt>
        <trkpt lat="29.558875" lon="103.343863"><ele>1992.3042</ele><time>2026-08-12T09:52:04.000Z</time></trkpt>
        <trkpt lat="29.558877" lon="103.343911"><ele>1994.47</ele><time>2026-08-12T09:52:10.000Z</time></trkpt>
        <trkpt lat="29.558893" lon="103.343958"><ele>1996.6016</ele><time>2026-08-12T09:52:16.000Z</time></trkpt>
        <trkpt lat="29.558904" lon="103.344011"><ele>1997.3933</ele><time>2026-08-12T09:52:22.000Z</time></trkpt>
        <trkpt lat="29.558913" lon="103.344064"><ele>1998.3512</ele><time>2026-08-12T09:52:30.000Z</time></trkpt>
        <trkpt lat="29.558923" lon="103.344118"><ele>2000.6777</ele><time>2026-08-12T09:52:37.000Z</time></trkpt>
        <trkpt lat="29.558892" lon="103.344088"><ele>2003.4401</ele><time>2026-08-12T09:53:13.000Z</time></trkpt>
        <trkpt lat="29.55885" lon="103.344103"><ele>2004.8756</ele><time>2026-08-12T09:53:29.000Z</time></trkpt>
        <trkpt lat="29.558845" lon="103.344155"><ele>2005.3325</ele><time>2026-08-12T09:54:09.000Z</time></trkpt>
        <trkpt lat="29.55886" lon="103.344202"><ele>2006.6954</ele><time>2026-08-12T09:54:30.000Z</time></trkpt>
        <trkpt lat="29.558863" lon="103.344256"><ele>2008.1173</ele><time>2026-08-12T09:54:40.000Z</time></trkpt>
        <trkpt lat="29.558866" lon="103.344311"><ele>2009.4117</ele><time>2026-08-12T09:54:48.000Z</time></trkpt>
        <trkpt lat="29.558842" lon="103.344352"><ele>2011.124</ele><time>2026-08-12T09:55:15.000Z</time></trkpt>
        <trkpt lat="29.558817" lon="103.344313"><ele>2013.1841</ele><time>2026-08-12T09:55:58.000Z</time></trkpt>
        <trkpt lat="29.55877" lon="103.34433"><ele>2014.1583</ele><time>2026-08-12T09:56:30.000Z</time></trkpt>
        <trkpt lat="29.558737" lon="103.344353"><ele>2016.7996</ele><time>2026-08-12T09:57:01.000Z</time></trkpt>
        <trkpt lat="29.558753" lon="103.344301"><ele>2016.73</ele><time>2026-08-12T09:57:48.000Z</time></trkpt>
        <trkpt lat="29.558762" lon="103.344248"><ele>2018.1072</ele><time>2026-08-12T09:57:56.000Z</time></trkpt>
        <trkpt lat="29.55872" lon="103.344234"><ele>2019.5789</ele><time>2026-08-12T09:58:31.000Z</time></trkpt>
        <trkpt lat="29.558674" lon="103.344223"><ele>2019.8796</ele><time>2026-08-12T09:59:08.000Z</time></trkpt>
        <trkpt lat="29.558625" lon="103.344207"><ele>2019.8762</ele><time>2026-08-12T09:59:57.000Z</time></trkpt>
        <trkpt lat="29.55858" lon="103.344179"><ele>2020.0812</ele><time>2026-08-12T10:01:05.000Z</time></trkpt>
        <trkpt lat="29.558538" lon="103.344155"><ele>2021.8605</ele><time>2026-08-12T10:01:13.000Z</time></trkpt>
        <trkpt lat="29.558494" lon="103.344134"><ele>2022.6757</ele><time>2026-08-12T10:01:21.000Z</time></trkpt>
        <trkpt lat="29.558449" lon="103.344116"><ele>2023.6068</ele><time>2026-08-12T10:01:35.000Z</time></trkpt>
        <trkpt lat="29.558409" lon="103.344098"><ele>2025.1935</ele><time>2026-08-12T10:02:27.000Z</time></trkpt>
        <trkpt lat="29.558365" lon="103.344096"><ele>2026.7091</ele><time>2026-08-12T10:02:39.000Z</time></trkpt>
        <trkpt lat="29.558344" lon="103.344146"><ele>2027.3607</ele><time>2026-08-12T10:03:48.000Z</time></trkpt>
        <trkpt lat="29.558382" lon="103.344181"><ele>2027.321</ele><time>2026-08-12T10:03:55.000Z</time></trkpt>
        <trkpt lat="29.558416" lon="103.344216"><ele>2027.5242</ele><time>2026-08-12T10:04:03.000Z</time></trkpt>
        <trkpt lat="29.558388" lon="103.344148"><ele>2027.8944</ele><time>2026-08-12T10:04:12.000Z</time></trkpt>
        <trkpt lat="29.558372" lon="103.3441"><ele>2027.5321</ele><time>2026-08-12T10:04:16.000Z</time></trkpt>
        <trkpt lat="29.558326" lon="103.3441"><ele>2027.1976</ele><time>2026-08-12T10:04:19.000Z</time></trkpt>
        <trkpt lat="29.558273" lon="103.344091"><ele>2026.7354</ele><time>2026-08-12T10:04:23.000Z</time></trkpt>
        <trkpt lat="29.558205" lon="103.344066"><ele>2026.5255</ele><time>2026-08-12T10:04:25.000Z</time></trkpt>
        <trkpt lat="29.558159" lon="103.344039"><ele>2027.7402</ele><time>2026-08-12T10:04:30.000Z</time></trkpt>
        <trkpt lat="29.558138" lon="103.344057"><ele>2031.8506</ele><time>2026-08-12T10:05:37.000Z</time></trkpt>
        <trkpt lat="29.558115" lon="103.344099"><ele>2033.4653</ele><time>2026-08-12T10:05:50.000Z</time></trkpt>
        <trkpt lat="29.558117" lon="103.344041"><ele>2034.3524</ele><time>2026-08-12T10:06:09.000Z</time></trkpt>
        <trkpt lat="29.5578" lon="103.343904"><ele>2040.3302</ele><time>2026-08-12T10:07:21.000Z</time></trkpt>
        <trkpt lat="29.557606" lon="103.344056"><ele>2040.3302</ele><time>2026-08-12T10:07:56.000Z</time></trkpt>
        <trkpt lat="29.557614" lon="103.344004"><ele>2038.7273</ele><time>2026-08-12T10:09:08.000Z</time></trkpt>
        <trkpt lat="29.557587" lon="103.343949"><ele>2038.3706</ele><time>2026-08-12T10:09:14.000Z</time></trkpt>
        <trkpt lat="29.557555" lon="103.343907"><ele>2038.0857</ele><time>2026-08-12T10:09:21.000Z</time></trkpt>
        <trkpt lat="29.557525" lon="103.343871"><ele>2036.4833</ele><time>2026-08-12T10:09:33.000Z</time></trkpt>
        <trkpt lat="29.557506" lon="103.343815"><ele>2034.6097</ele><time>2026-08-12T10:09:40.000Z</time></trkpt>
        <trkpt lat="29.557495" lon="103.343761"><ele>2033.961</ele><time>2026-08-12T10:09:47.000Z</time></trkpt>
        <trkpt lat="29.557458" lon="103.343729"><ele>2033.2782</ele><time>2026-08-12T10:10:37.000Z</time></trkpt>
        <trkpt lat="29.557421" lon="103.343689"><ele>2033.3273</ele><time>2026-08-12T10:10:54.000Z</time></trkpt>
        <trkpt lat="29.55738" lon="103.343667"><ele>2033</ele><time>2026-08-12T10:11:03.000Z</time></trkpt>
        <trkpt lat="29.557335" lon="103.343677"><ele>2033.1609</ele><time>2026-08-12T10:11:34.000Z</time></trkpt>
        <trkpt lat="29.55729" lon="103.343668"><ele>2034.0164</ele><time>2026-08-12T10:16:07.000Z</time></trkpt>
        <trkpt lat="29.557246" lon="103.343647"><ele>2035.5916</ele><time>2026-08-12T10:16:20.000Z</time></trkpt>
        <trkpt lat="29.557206" lon="103.343636"><ele>2038.063</ele><time>2026-08-12T10:16:36.000Z</time></trkpt>
        <trkpt lat="29.557162" lon="103.343628"><ele>2040.5648</ele><time>2026-08-12T10:17:33.000Z</time></trkpt>
        <trkpt lat="29.557135" lon="103.343592"><ele>2042.6609</ele><time>2026-08-12T10:18:09.000Z</time></trkpt>
        <trkpt lat="29.557096" lon="103.343615"><ele>2043.5913</ele><time>2026-08-12T10:19:31.000Z</time></trkpt>
        <trkpt lat="29.557054" lon="103.343639"><ele>2044.7727</ele><time>2026-08-12T10:19:41.000Z</time></trkpt>
        <trkpt lat="29.557017" lon="103.34366"><ele>2047.8368</ele><time>2026-08-12T10:19:52.000Z</time></trkpt>
        <trkpt lat="29.556987" lon="103.343692"><ele>2049.7944</ele><time>2026-08-12T10:20:03.000Z</time></trkpt>
        <trkpt lat="29.556954" lon="103.34372"><ele>2052.5105</ele><time>2026-08-12T10:20:12.000Z</time></trkpt>
        <trkpt lat="29.556911" lon="103.343733"><ele>2053.6567</ele><time>2026-08-12T10:20:21.000Z</time></trkpt>
        <trkpt lat="29.556868" lon="103.343751"><ele>2054.7678</ele><time>2026-08-12T10:21:20.000Z</time></trkpt>
        <trkpt lat="29.55682" lon="103.343756"><ele>2056.5437</ele><time>2026-08-12T10:21:27.000Z</time></trkpt>
        <trkpt lat="29.556773" lon="103.343742"><ele>2058.073</ele><time>2026-08-12T10:22:07.000Z</time></trkpt>
        <trkpt lat="29.556726" lon="103.34373"><ele>2059.5774</ele><time>2026-08-12T10:22:15.000Z</time></trkpt>
        <trkpt lat="29.556689" lon="103.343749"><ele>2062.1997</ele><time>2026-08-12T10:22:25.000Z</time></trkpt>
        <trkpt lat="29.556652" lon="103.343778"><ele>2063.5715</ele><time>2026-08-12T10:22:41.000Z</time></trkpt>
        <trkpt lat="29.556638" lon="103.343787"><ele>2065.1926</ele><time>2026-08-12T10:23:20.000Z</time></trkpt>
        <trkpt lat="29.556634" lon="103.343787"><ele>2065.1926</ele><time>2026-08-12T10:23:55.000Z</time></trkpt>
        <trkpt lat="29.556605" lon="103.343821"><ele>2067.509</ele><time>2026-08-12T10:24:45.000Z</time></trkpt>
        <trkpt lat="29.556575" lon="103.34386"><ele>2066.993</ele><time>2026-08-12T10:24:57.000Z</time></trkpt>
        <trkpt lat="29.556568" lon="103.343909"><ele>2068.692</ele><time>2026-08-12T10:26:01.000Z</time></trkpt>
        <trkpt lat="29.556565" lon="103.34396"><ele>2070.0288</ele><time>2026-08-12T10:26:18.000Z</time></trkpt>
        <trkpt lat="29.556551" lon="103.344004"><ele>2072.2974</ele><time>2026-08-12T10:26:24.000Z</time></trkpt>
        <trkpt lat="29.556532" lon="103.344053"><ele>2073.9453</ele><time>2026-08-12T10:26:33.000Z</time></trkpt>
        <trkpt lat="29.556512" lon="103.3441"><ele>2075.5232</ele><time>2026-08-12T10:27:35.000Z</time></trkpt>
        <trkpt lat="29.556478" lon="103.344134"><ele>2076.248</ele><time>2026-08-12T10:27:43.000Z</time></trkpt>
        <trkpt lat="29.556449" lon="103.344169"><ele>2079.3337</ele><time>2026-08-12T10:27:50.000Z</time></trkpt>
        <trkpt lat="29.556424" lon="103.344205"><ele>2083.1438</ele><time>2026-08-12T10:27:58.000Z</time></trkpt>
        <trkpt lat="29.556385" lon="103.344234"><ele>2084.7495</ele><time>2026-08-12T10:29:10.000Z</time></trkpt>
        <trkpt lat="29.556339" lon="103.344242"><ele>2086.0405</ele><time>2026-08-12T10:29:17.000Z</time></trkpt>
        <trkpt lat="29.556294" lon="103.344252"><ele>2088.9805</ele><time>2026-08-12T10:29:24.000Z</time></trkpt>
        <trkpt lat="29.55626" lon="103.344283"><ele>2091.0771</ele><time>2026-08-12T10:29:36.000Z</time></trkpt>
        <trkpt lat="29.55624" lon="103.344325"><ele>2093.5613</ele><time>2026-08-12T10:29:44.000Z</time></trkpt>
        <trkpt lat="29.556204" lon="103.344364"><ele>2094.2058</ele><time>2026-08-12T10:30:25.000Z</time></trkpt>
        <trkpt lat="29.556171" lon="103.344402"><ele>2096.0952</ele><time>2026-08-12T10:30:33.000Z</time></trkpt>
        <trkpt lat="29.556148" lon="103.344445"><ele>2097.492</ele><time>2026-08-12T10:30:47.000Z</time></trkpt>
        <trkpt lat="29.556145" lon="103.344492"><ele>2099.6365</ele><time>2026-08-12T10:31:22.000Z</time></trkpt>
        <trkpt lat="29.556145" lon="103.344491"><ele>2099.768</ele><time>2026-08-12T10:32:32.000Z</time></trkpt>
        <trkpt lat="29.556145" lon="103.344491"><ele>2099.768</ele><time>2026-08-12T10:33:07.000Z</time></trkpt>
        <trkpt lat="29.556145" lon="103.344491"><ele>2099.8506</ele><time>2026-08-12T10:33:44.000Z</time></trkpt>
        <trkpt lat="29.556146" lon="103.344492"><ele>2099.8506</ele><time>2026-08-12T10:34:19.000Z</time></trkpt>
        <trkpt lat="29.556146" lon="103.344491"><ele>2100.271</ele><time>2026-08-12T10:34:58.000Z</time></trkpt>
        <trkpt lat="29.556148" lon="103.344492"><ele>2100.271</ele><time>2026-08-12T10:35:34.000Z</time></trkpt>
        <trkpt lat="29.556121" lon="103.344512"><ele>2104.188</ele><time>2026-08-12T10:48:39.000Z</time></trkpt>
        <trkpt lat="29.556092" lon="103.344555"><ele>2105.79</ele><time>2026-08-12T10:48:46.000Z</time></trkpt>
        <trkpt lat="29.556056" lon="103.344591"><ele>2106.612</ele><time>2026-08-12T10:48:52.000Z</time></trkpt>
        <trkpt lat="29.556021" lon="103.344629"><ele>2107.768</ele><time>2026-08-12T10:49:03.000Z</time></trkpt>
        <trkpt lat="29.555997" lon="103.344671"><ele>2109.374</ele><time>2026-08-12T10:49:14.000Z</time></trkpt>
        <trkpt lat="29.55597" lon="103.344702"><ele>2112.1206</ele><time>2026-08-12T10:49:49.000Z</time></trkpt>
        <trkpt lat="29.555953" lon="103.344752"><ele>2113.325</ele><time>2026-08-12T10:50:00.000Z</time></trkpt>
        <trkpt lat="29.555928" lon="103.344792"><ele>2114.934</ele><time>2026-08-12T10:50:16.000Z</time></trkpt>
        <trkpt lat="29.555905" lon="103.344832"><ele>2116.842</ele><time>2026-08-12T10:50:52.000Z</time></trkpt>
        <trkpt lat="29.55589" lon="103.344883"><ele>2117.1113</ele><time>2026-08-12T10:51:05.000Z</time></trkpt>
        <trkpt lat="29.555861" lon="103.34493"><ele>2118.4875</ele><time>2026-08-12T10:51:13.000Z</time></trkpt>
        <trkpt lat="29.555827" lon="103.344962"><ele>2119.5989</ele><time>2026-08-12T10:51:21.000Z</time></trkpt>
        <trkpt lat="29.555785" lon="103.344986"><ele>2120.923</ele><time>2026-08-12T10:51:30.000Z</time></trkpt>
        <trkpt lat="29.55574" lon="103.344998"><ele>2121.8247</ele><time>2026-08-12T10:52:32.000Z</time></trkpt>
        <trkpt lat="29.555691" lon="103.344994"><ele>2122.8833</ele><time>2026-08-12T10:52:41.000Z</time></trkpt>
        <trkpt lat="29.555648" lon="103.344975"><ele>2124.0254</ele><time>2026-08-12T10:52:49.000Z</time></trkpt>
        <trkpt lat="29.555607" lon="103.344967"><ele>2126.6414</ele><time>2026-08-12T10:52:58.000Z</time></trkpt>
        <trkpt lat="29.555574" lon="103.344967"><ele>2130.1333</ele><time>2026-08-12T10:53:08.000Z</time></trkpt>
        <trkpt lat="29.555538" lon="103.344995"><ele>2131.7913</ele><time>2026-08-12T10:55:48.000Z</time></trkpt>
        <trkpt lat="29.555511" lon="103.345036"><ele>2132.8438</ele><time>2026-08-12T10:55:57.000Z</time></trkpt>
        <trkpt lat="29.555494" lon="103.345075"><ele>2135.7554</ele><time>2026-08-12T10:56:22.000Z</time></trkpt>
        <trkpt lat="29.555467" lon="103.345111"><ele>2137.6187</ele><time>2026-08-12T10:57:19.000Z</time></trkpt>
        <trkpt lat="29.555432" lon="103.34513"><ele>2140.5237</ele><time>2026-08-12T10:57:27.000Z</time></trkpt>
        <trkpt lat="29.55539" lon="103.345129"><ele>2143.3157</ele><time>2026-08-12T10:58:16.000Z</time></trkpt>
        <trkpt lat="29.55536" lon="103.345089"><ele>2144.9854</ele><time>2026-08-12T10:58:25.000Z</time></trkpt>
        <trkpt lat="29.555344" lon="103.345052"><ele>2148.72</ele><time>2026-08-12T10:58:35.000Z</time></trkpt>
        <trkpt lat="29.555313" lon="103.345016"><ele>2150.791</ele><time>2026-08-12T10:58:41.000Z</time></trkpt>
        <trkpt lat="29.55527" lon="103.345006"><ele>2152.2822</ele><time>2026-08-12T10:58:48.000Z</time></trkpt>
        <trkpt lat="29.555225" lon="103.345019"><ele>2153.4949</ele><time>2026-08-12T10:58:56.000Z</time></trkpt>
        <trkpt lat="29.555202" lon="103.345061"><ele>2156.442</ele><time>2026-08-12T10:59:27.000Z</time></trkpt>
        <trkpt lat="29.555162" lon="103.345094"><ele>2157.316</ele><time>2026-08-12T10:59:34.000Z</time></trkpt>
        <trkpt lat="29.555141" lon="103.345127"><ele>2160.6177</ele><time>2026-08-12T11:00:16.000Z</time></trkpt>
        <trkpt lat="29.555096" lon="103.345138"><ele>2161.0317</ele><time>2026-08-12T11:02:22.000Z</time></trkpt>
        <trkpt lat="29.555048" lon="103.345153"><ele>2161.327</ele><time>2026-08-12T11:02:28.000Z</time></trkpt>
        <trkpt lat="29.555003" lon="103.345165"><ele>2162.0447</ele><time>2026-08-12T11:02:33.000Z</time></trkpt>
        <trkpt lat="29.554958" lon="103.345176"><ele>2163.0598</ele><time>2026-08-12T11:02:42.000Z</time></trkpt>
        <trkpt lat="29.55491" lon="103.345178"><ele>2163.8618</ele><time>2026-08-12T11:02:53.000Z</time></trkpt>
        <trkpt lat="29.554869" lon="103.345201"><ele>2164.3838</ele><time>2026-08-12T11:03:05.000Z</time></trkpt>
        <trkpt lat="29.55483" lon="103.345229"><ele>2165.9673</ele><time>2026-08-12T11:04:43.000Z</time></trkpt>
        <trkpt lat="29.554799" lon="103.345268"><ele>2167.688</ele><time>2026-08-12T11:04:52.000Z</time></trkpt>
        <trkpt lat="29.554767" lon="103.345302"><ele>2169.2812</ele><time>2026-08-12T11:05:00.000Z</time></trkpt>
        <trkpt lat="29.554723" lon="103.345313"><ele>2171.6587</ele><time>2026-08-12T11:06:08.000Z</time></trkpt>
        <trkpt lat="29.554676" lon="103.345332"><ele>2173.1023</ele><time>2026-08-12T11:07:00.000Z</time></trkpt>
        <trkpt lat="29.554636" lon="103.345351"><ele>2174.6885</ele><time>2026-08-12T11:07:09.000Z</time></trkpt>
        <trkpt lat="29.554597" lon="103.345375"><ele>2176.182</ele><time>2026-08-12T11:07:46.000Z</time></trkpt>
        <trkpt lat="29.554554" lon="103.345382"><ele>2178.559</ele><time>2026-08-12T11:07:54.000Z</time></trkpt>
        <trkpt lat="29.554509" lon="103.345392"><ele>2179.994</ele><time>2026-08-12T11:08:03.000Z</time></trkpt>
        <trkpt lat="29.554467" lon="103.345401"><ele>2182.3103</ele><time>2026-08-12T11:08:44.000Z</time></trkpt>
        <trkpt lat="29.554424" lon="103.345408"><ele>2184.2424</ele><time>2026-08-12T11:08:55.000Z</time></trkpt>
        <trkpt lat="29.554383" lon="103.345416"><ele>2186.709</ele><time>2026-08-12T11:09:04.000Z</time></trkpt>
        <trkpt lat="29.554339" lon="103.345423"><ele>2188.5662</ele><time>2026-08-12T11:09:14.000Z</time></trkpt>
        <trkpt lat="29.554295" lon="103.345428"><ele>2190.2874</ele><time>2026-08-12T11:10:39.000Z</time></trkpt>
        <trkpt lat="29.554253" lon="103.345448"><ele>2190.7922</ele><time>2026-08-12T11:10:48.000Z</time></trkpt>
        <trkpt lat="29.554202" lon="103.345456"><ele>2191.8894</ele><time>2026-08-12T11:11:27.000Z</time></trkpt>
        <trkpt lat="29.554157" lon="103.345465"><ele>2193.7468</ele><time>2026-08-12T11:11:37.000Z</time></trkpt>
        <trkpt lat="29.554126" lon="103.345488"><ele>2196.503</ele><time>2026-08-12T11:11:43.000Z</time></trkpt>
        <trkpt lat="29.554095" lon="103.345514"><ele>2199.3682</ele><time>2026-08-12T11:11:54.000Z</time></trkpt>
        <trkpt lat="29.554051" lon="103.345521"><ele>2201.7075</ele><time>2026-08-12T11:12:51.000Z</time></trkpt>
        <trkpt lat="29.554007" lon="103.345503"><ele>2202.733</ele><time>2026-08-12T11:12:57.000Z</time></trkpt>
        <trkpt lat="29.553961" lon="103.345482"><ele>2204.5627</ele><time>2026-08-12T11:13:04.000Z</time></trkpt>
        <trkpt lat="29.553919" lon="103.345455"><ele>2206.5845</ele><time>2026-08-12T11:13:12.000Z</time></trkpt>
        <trkpt lat="29.553885" lon="103.345424"><ele>2207.7979</ele><time>2026-08-12T11:13:20.000Z</time></trkpt>
        <trkpt lat="29.553848" lon="103.345398"><ele>2209.3774</ele><time>2026-08-12T11:13:29.000Z</time></trkpt>
        <trkpt lat="29.553804" lon="103.345381"><ele>2210.5715</ele><time>2026-08-12T11:13:38.000Z</time></trkpt>
        <trkpt lat="29.553771" lon="103.345353"><ele>2213.0396</ele><time>2026-08-12T11:14:26.000Z</time></trkpt>
        <trkpt lat="29.553725" lon="103.345353"><ele>2213.4304</ele><time>2026-08-12T11:14:33.000Z</time></trkpt>
        <trkpt lat="29.553676" lon="103.345355"><ele>2213.6748</ele><time>2026-08-12T11:14:40.000Z</time></trkpt>
        <trkpt lat="29.553629" lon="103.345354"><ele>2214.423</ele><time>2026-08-12T11:14:49.000Z</time></trkpt>
        <trkpt lat="29.553582" lon="103.345367"><ele>2216.2798</ele><time>2026-08-12T11:14:58.000Z</time></trkpt>
        <trkpt lat="29.553534" lon="103.345382"><ele>2216.7573</ele><time>2026-08-12T11:15:06.000Z</time></trkpt>
        <trkpt lat="29.553491" lon="103.345374"><ele>2218.6606</ele><time>2026-08-12T11:15:48.000Z</time></trkpt>
        <trkpt lat="29.553444" lon="103.345371"><ele>2219.3147</ele><time>2026-08-12T11:15:59.000Z</time></trkpt>
        <trkpt lat="29.553399" lon="103.345388"><ele>2220.029</ele><time>2026-08-12T11:16:59.000Z</time></trkpt>
        <trkpt lat="29.553347" lon="103.345399"><ele>2220.5706</ele><time>2026-08-12T11:17:42.000Z</time></trkpt>
        <trkpt lat="29.55329" lon="103.345416"><ele>2222.5466</ele><time>2026-08-12T11:18:04.000Z</time></trkpt>
        <trkpt lat="29.553239" lon="103.345409"><ele>2223.1572</ele><time>2026-08-12T11:18:12.000Z</time></trkpt>
        <trkpt lat="29.553193" lon="103.345412"><ele>2224.164</ele><time>2026-08-12T11:18:19.000Z</time></trkpt>
        <trkpt lat="29.553145" lon="103.345413"><ele>2225.293</ele><time>2026-08-12T11:18:27.000Z</time></trkpt>
        <trkpt lat="29.553095" lon="103.34542"><ele>2225.5723</ele><time>2026-08-12T11:18:34.000Z</time></trkpt>
        <trkpt lat="29.553044" lon="103.345423"><ele>2226.1362</ele><time>2026-08-12T11:18:42.000Z</time></trkpt>
        <trkpt lat="29.552996" lon="103.345431"><ele>2226.6516</ele><time>2026-08-12T11:18:49.000Z</time></trkpt>
        <trkpt lat="29.552949" lon="103.345444"><ele>2227.4646</ele><time>2026-08-12T11:18:56.000Z</time></trkpt>
        <trkpt lat="29.5529" lon="103.345456"><ele>2228.553</ele><time>2026-08-12T11:19:04.000Z</time></trkpt>
        <trkpt lat="29.55285" lon="103.345462"><ele>2229.4436</ele><time>2026-08-12T11:19:10.000Z</time></trkpt>
        <trkpt lat="29.552802" lon="103.345462"><ele>2230.8694</ele><time>2026-08-12T11:19:15.000Z</time></trkpt>
        <trkpt lat="29.552753" lon="103.34546"><ele>2231.3018</ele><time>2026-08-12T11:19:23.000Z</time></trkpt>
        <trkpt lat="29.552702" lon="103.345455"><ele>2231.5972</ele><time>2026-08-12T11:19:30.000Z</time></trkpt>
        <trkpt lat="29.552654" lon="103.345457"><ele>2231.574</ele><time>2026-08-12T11:19:36.000Z</time></trkpt>
        <trkpt lat="29.552605" lon="103.345467"><ele>2231.3071</ele><time>2026-08-12T11:19:44.000Z</time></trkpt>
        <trkpt lat="29.552553" lon="103.345486"><ele>2232.0981</ele><time>2026-08-12T11:19:51.000Z</time></trkpt>
        <trkpt lat="29.552501" lon="103.345487"><ele>2232.655</ele><time>2026-08-12T11:19:56.000Z</time></trkpt>
        <trkpt lat="29.552451" lon="103.345482"><ele>2233.2205</ele><time>2026-08-12T11:20:02.000Z</time></trkpt>
        <trkpt lat="29.552413" lon="103.34544"><ele>2233.6553</ele><time>2026-08-12T11:20:10.000Z</time></trkpt>
        <trkpt lat="29.552412" lon="103.34537"><ele>2233.8186</ele><time>2026-08-12T11:20:18.000Z</time></trkpt>
        <trkpt lat="29.552426" lon="103.345313"><ele>2233.2793</ele><time>2026-08-12T11:20:24.000Z</time></trkpt>
        <trkpt lat="29.552407" lon="103.345263"><ele>2232.1555</ele><time>2026-08-12T11:20:33.000Z</time></trkpt>
        <trkpt lat="29.552366" lon="103.345233"><ele>2231.2122</ele><time>2026-08-12T11:20:40.000Z</time></trkpt>
        <trkpt lat="29.552325" lon="103.345211"><ele>2230.439</ele><time>2026-08-12T11:20:46.000Z</time></trkpt>
        <trkpt lat="29.552282" lon="103.345181"><ele>2230.042</ele><time>2026-08-12T11:20:52.000Z</time></trkpt>
        <trkpt lat="29.55224" lon="103.345162"><ele>2229.6584</ele><time>2026-08-12T11:20:57.000Z</time></trkpt>
        <trkpt lat="29.55219" lon="103.345148"><ele>2230.1099</ele><time>2026-08-12T11:21:03.000Z</time></trkpt>
        <trkpt lat="29.552137" lon="103.345131"><ele>2231.2134</ele><time>2026-08-12T11:21:08.000Z</time></trkpt>
        <trkpt lat="29.552088" lon="103.345111"><ele>2231.8867</ele><time>2026-08-12T11:21:13.000Z</time></trkpt>
        <trkpt lat="29.552047" lon="103.345086"><ele>2232.0698</ele><time>2026-08-12T11:21:19.000Z</time></trkpt>
        <trkpt lat="29.552004" lon="103.345066"><ele>2231.8127</ele><time>2026-08-12T11:21:25.000Z</time></trkpt>
        <trkpt lat="29.551982" lon="103.345021"><ele>2231.68</ele><time>2026-08-12T11:21:34.000Z</time></trkpt>
        <trkpt lat="29.551995" lon="103.344964"><ele>2232.0938</ele><time>2026-08-12T11:21:40.000Z</time></trkpt>
        <trkpt lat="29.551993" lon="103.344911"><ele>2231.8718</ele><time>2026-08-12T11:21:45.000Z</time></trkpt>
        <trkpt lat="29.551974" lon="103.344859"><ele>2232.1895</ele><time>2026-08-12T11:21:50.000Z</time></trkpt>
        <trkpt lat="29.551948" lon="103.344814"><ele>2232.3726</ele><time>2026-08-12T11:21:56.000Z</time></trkpt>
        <trkpt lat="29.551913" lon="103.344781"><ele>2232.1626</ele><time>2026-08-12T11:22:02.000Z</time></trkpt>
        <trkpt lat="29.551878" lon="103.344741"><ele>2231.422</ele><time>2026-08-12T11:22:08.000Z</time></trkpt>
        <trkpt lat="29.551846" lon="103.344699"><ele>2230.5686</ele><time>2026-08-12T11:22:13.000Z</time></trkpt>
        <trkpt lat="29.551819" lon="103.344651"><ele>2229.6758</ele><time>2026-08-12T11:22:18.000Z</time></trkpt>
        <trkpt lat="29.551791" lon="103.344609"><ele>2229.3115</ele><time>2026-08-12T11:22:24.000Z</time></trkpt>
        <trkpt lat="29.551761" lon="103.344571"><ele>2229.8447</ele><time>2026-08-12T11:22:30.000Z</time></trkpt>
        <trkpt lat="29.551723" lon="103.344528"><ele>2230.0315</ele><time>2026-08-12T11:22:36.000Z</time></trkpt>
        <trkpt lat="29.551685" lon="103.344497"><ele>2230.103</ele><time>2026-08-12T11:22:41.000Z</time></trkpt>
        <trkpt lat="29.551647" lon="103.344459"><ele>2230.0164</ele><time>2026-08-12T11:22:46.000Z</time></trkpt>
        <trkpt lat="29.551616" lon="103.34441"><ele>2230.0706</ele><time>2026-08-12T11:22:51.000Z</time></trkpt>
        <trkpt lat="29.551598" lon="103.34436"><ele>2230.346</ele><time>2026-08-12T11:22:56.000Z</time></trkpt>
        <trkpt lat="29.551571" lon="103.34431"><ele>2230.4023</ele><time>2026-08-12T11:23:02.000Z</time></trkpt>
        <trkpt lat="29.551532" lon="103.34428"><ele>2229.8516</ele><time>2026-08-12T11:23:08.000Z</time></trkpt>
        <trkpt lat="29.551486" lon="103.344268"><ele>2229.1624</ele><time>2026-08-12T11:23:14.000Z</time></trkpt>
        <trkpt lat="29.551445" lon="103.344244"><ele>2228.294</ele><time>2026-08-12T11:23:19.000Z</time></trkpt>
        <trkpt lat="29.551404" lon="103.34422"><ele>2227.6394</ele><time>2026-08-12T11:23:24.000Z</time></trkpt>
        <trkpt lat="29.551357" lon="103.344205"><ele>2227.376</ele><time>2026-08-12T11:23:29.000Z</time></trkpt>
        <trkpt lat="29.551313" lon="103.344195"><ele>2227.4272</ele><time>2026-08-12T11:23:33.000Z</time></trkpt>
        <trkpt lat="29.55126" lon="103.344192"><ele>2227.0713</ele><time>2026-08-12T11:23:38.000Z</time></trkpt>
        <trkpt lat="29.551214" lon="103.34419"><ele>2226.6345</ele><time>2026-08-12T11:23:43.000Z</time></trkpt>
        <trkpt lat="29.551171" lon="103.344195"><ele>2225.1018</ele><time>2026-08-12T11:24:08.000Z</time></trkpt>
        <trkpt lat="29.551125" lon="103.344194"><ele>2224.8513</ele><time>2026-08-12T11:24:14.000Z</time></trkpt>
        <trkpt lat="29.551074" lon="103.344199"><ele>2225.1174</ele><time>2026-08-12T11:24:22.000Z</time></trkpt>
        <trkpt lat="29.551026" lon="103.344179"><ele>2225.257</ele><time>2026-08-12T11:24:30.000Z</time></trkpt>
        <trkpt lat="29.550985" lon="103.344157"><ele>2226.8464</ele><time>2026-08-12T11:24:35.000Z</time></trkpt>
        <trkpt lat="29.550936" lon="103.344146"><ele>2226.7747</ele><time>2026-08-12T11:24:41.000Z</time></trkpt>
        <trkpt lat="29.55089" lon="103.344141"><ele>2226.613</ele><time>2026-08-12T11:24:48.000Z</time></trkpt>
        <trkpt lat="29.550844" lon="103.344134"><ele>2226.37</ele><time>2026-08-12T11:24:55.000Z</time></trkpt>
        <trkpt lat="29.550795" lon="103.344125"><ele>2225.6206</ele><time>2026-08-12T11:25:01.000Z</time></trkpt>
        <trkpt lat="29.550748" lon="103.344108"><ele>2226.2048</ele><time>2026-08-12T11:25:07.000Z</time></trkpt>
        <trkpt lat="29.550712" lon="103.344076"><ele>2226.3843</ele><time>2026-08-12T11:25:13.000Z</time></trkpt>
        <trkpt lat="29.550706" lon="103.344025"><ele>2226.2705</ele><time>2026-08-12T11:25:19.000Z</time></trkpt>
        <trkpt lat="29.550685" lon="103.343978"><ele>2226.0837</ele><time>2026-08-12T11:25:29.000Z</time></trkpt>
        <trkpt lat="29.550645" lon="103.343953"><ele>2226.3032</ele><time>2026-08-12T11:25:38.000Z</time></trkpt>
        <trkpt lat="29.5506" lon="103.343942"><ele>2225.7512</ele><time>2026-08-12T11:25:45.000Z</time></trkpt>
        <trkpt lat="29.550558" lon="103.343914"><ele>2225.704</ele><time>2026-08-12T11:25:52.000Z</time></trkpt>
        <trkpt lat="29.550521" lon="103.343876"><ele>2225.93</ele><time>2026-08-12T11:25:58.000Z</time></trkpt>
        <trkpt lat="29.550494" lon="103.343833"><ele>2226.331</ele><time>2026-08-12T11:26:04.000Z</time></trkpt>
        <trkpt lat="29.550464" lon="103.343788"><ele>2226.6033</ele><time>2026-08-12T11:26:11.000Z</time></trkpt>
        <trkpt lat="29.550428" lon="103.343745"><ele>2226.7854</ele><time>2026-08-12T11:26:18.000Z</time></trkpt>
        <trkpt lat="29.550392" lon="103.343707"><ele>2226.965</ele><time>2026-08-12T11:26:24.000Z</time></trkpt>
        <trkpt lat="29.550357" lon="103.343674"><ele>2227.201</ele><time>2026-08-12T11:26:30.000Z</time></trkpt>
        <trkpt lat="29.550319" lon="103.343636"><ele>2227.7559</ele><time>2026-08-12T11:26:37.000Z</time></trkpt>
        <trkpt lat="29.550286" lon="103.343594"><ele>2227.6597</ele><time>2026-08-12T11:26:44.000Z</time></trkpt>
        <trkpt lat="29.550264" lon="103.343543"><ele>2227.338</ele><time>2026-08-12T11:26:51.000Z</time></trkpt>
        <trkpt lat="29.550243" lon="103.34349"><ele>2227.3574</ele><time>2026-08-12T11:26:58.000Z</time></trkpt>
        <trkpt lat="29.550218" lon="103.343441"><ele>2227.1985</ele><time>2026-08-12T11:27:04.000Z</time></trkpt>
        <trkpt lat="29.550187" lon="103.343395"><ele>2227.5999</ele><time>2026-08-12T11:27:10.000Z</time></trkpt>
        <trkpt lat="29.550155" lon="103.343352"><ele>2227.8013</ele><time>2026-08-12T11:27:16.000Z</time></trkpt>
        <trkpt lat="29.550123" lon="103.343316"><ele>2228.1414</ele><time>2026-08-12T11:27:22.000Z</time></trkpt>
        <trkpt lat="29.550088" lon="103.343272"><ele>2228.711</ele><time>2026-08-12T11:27:29.000Z</time></trkpt>
        <trkpt lat="29.550051" lon="103.343237"><ele>2228.726</ele><time>2026-08-12T11:27:36.000Z</time></trkpt>
        <trkpt lat="29.550011" lon="103.343211"><ele>2228.6797</ele><time>2026-08-12T11:27:44.000Z</time></trkpt>
        <trkpt lat="29.549972" lon="103.343179"><ele>2228.7295</ele><time>2026-08-12T11:27:54.000Z</time></trkpt>
        <trkpt lat="29.54995" lon="103.343125"><ele>2228.4844</ele><time>2026-08-12T11:28:02.000Z</time></trkpt>
        <trkpt lat="29.549932" lon="103.343078"><ele>2228.7961</ele><time>2026-08-12T11:28:08.000Z</time></trkpt>
        <trkpt lat="29.549914" lon="103.343022"><ele>2229.0286</ele><time>2026-08-12T11:28:15.000Z</time></trkpt>
        <trkpt lat="29.549887" lon="103.342971"><ele>2229.544</ele><time>2026-08-12T11:28:22.000Z</time></trkpt>
        <trkpt lat="29.549864" lon="103.342927"><ele>2229.9976</ele><time>2026-08-12T11:28:29.000Z</time></trkpt>
        <trkpt lat="29.549847" lon="103.342874"><ele>2230.5107</ele><time>2026-08-12T11:28:36.000Z</time></trkpt>
        <trkpt lat="29.549827" lon="103.342828"><ele>2229.8848</ele><time>2026-08-12T11:28:43.000Z</time></trkpt>
        <trkpt lat="29.549803" lon="103.342776"><ele>2229.9731</ele><time>2026-08-12T11:28:50.000Z</time></trkpt>
        <trkpt lat="29.549777" lon="103.342728"><ele>2229.8992</ele><time>2026-08-12T11:28:57.000Z</time></trkpt>
        <trkpt lat="29.54975" lon="103.342683"><ele>2230.0789</ele><time>2026-08-12T11:29:04.000Z</time></trkpt>
        <trkpt lat="29.549717" lon="103.342637"><ele>2230.599</ele><time>2026-08-12T11:29:10.000Z</time></trkpt>
        <trkpt lat="29.549687" lon="103.342587"><ele>2231.337</ele><time>2026-08-12T11:29:16.000Z</time></trkpt>
        <trkpt lat="29.549658" lon="103.342547"><ele>2231.771</ele><time>2026-08-12T11:29:22.000Z</time></trkpt>
        <trkpt lat="29.549624" lon="103.342506"><ele>2232.1492</ele><time>2026-08-12T11:29:29.000Z</time></trkpt>
        <trkpt lat="29.549592" lon="103.342468"><ele>2232.5957</ele><time>2026-08-12T11:29:35.000Z</time></trkpt>
        <trkpt lat="29.549553" lon="103.34243"><ele>2233.2493</ele><time>2026-08-12T11:29:41.000Z</time></trkpt>
        <trkpt lat="29.549512" lon="103.342391"><ele>2233.334</ele><time>2026-08-12T11:29:48.000Z</time></trkpt>
        <trkpt lat="29.549475" lon="103.342362"><ele>2233.7417</ele><time>2026-08-12T11:29:54.000Z</time></trkpt>
        <trkpt lat="29.549438" lon="103.342322"><ele>2232.6494</ele><time>2026-08-12T11:30:01.000Z</time></trkpt>
        <trkpt lat="29.549403" lon="103.342284"><ele>2232.2163</ele><time>2026-08-12T11:30:07.000Z</time></trkpt>
        <trkpt lat="29.549369" lon="103.342237"><ele>2232.0173</ele><time>2026-08-12T11:30:13.000Z</time></trkpt>
        <trkpt lat="29.549347" lon="103.342189"><ele>2232.4692</ele><time>2026-08-12T11:30:19.000Z</time></trkpt>
        <trkpt lat="29.549386" lon="103.34216"><ele>2233.2888</ele><time>2026-08-12T11:30:39.000Z</time></trkpt>
        <trkpt lat="29.549434" lon="103.342142"><ele>2233.8252</ele><time>2026-08-12T11:30:45.000Z</time></trkpt>
        <trkpt lat="29.54948" lon="103.342118"><ele>2233.8289</ele><time>2026-08-12T11:30:52.000Z</time></trkpt>
        <trkpt lat="29.54953" lon="103.342126"><ele>2233.4006</ele><time>2026-08-12T11:30:59.000Z</time></trkpt>
        <trkpt lat="29.549566" lon="103.342168"><ele>2233.5632</ele><time>2026-08-12T11:31:05.000Z</time></trkpt>
        <trkpt lat="29.549517" lon="103.342079"><ele>2242.7976</ele><time>2026-08-12T11:32:30.000Z</time></trkpt>
        <trkpt lat="29.549546" lon="103.34211"><ele>2237.054</ele><time>2026-08-12T11:32:31.000Z</time></trkpt>
        <trkpt lat="29.549521" lon="103.342108"><ele>2232.9175</ele><time>2026-08-12T11:32:37.000Z</time></trkpt>
        <trkpt lat="29.549474" lon="103.342109"><ele>2233.4438</ele><time>2026-08-12T11:32:45.000Z</time></trkpt>
        <trkpt lat="29.549428" lon="103.34213"><ele>2233.67</ele><time>2026-08-12T11:32:53.000Z</time></trkpt>
        <trkpt lat="29.549388" lon="103.342153"><ele>2234.9648</ele><time>2026-08-12T11:33:01.000Z</time></trkpt>
        <trkpt lat="29.549345" lon="103.342136"><ele>2235.3606</ele><time>2026-08-12T11:33:12.000Z</time></trkpt>
        <trkpt lat="29.549338" lon="103.342085"><ele>2235.8938</ele><time>2026-08-12T11:33:18.000Z</time></trkpt>
        <trkpt lat="29.549334" lon="103.342026"><ele>2235.7048</ele><time>2026-08-12T11:33:24.000Z</time></trkpt>
        <trkpt lat="29.549316" lon="103.341975"><ele>2235.6948</ele><time>2026-08-12T11:33:31.000Z</time></trkpt>
        <trkpt lat="29.549307" lon="103.341921"><ele>2234.3855</ele><time>2026-08-12T11:34:43.000Z</time></trkpt>
        <trkpt lat="29.549307" lon="103.341862"><ele>2234.632</ele><time>2026-08-12T11:35:00.000Z</time></trkpt>
        <trkpt lat="29.54929" lon="103.341804"><ele>2234.689</ele><time>2026-08-12T11:35:06.000Z</time></trkpt>
        <trkpt lat="29.549262" lon="103.341761"><ele>2234.3918</ele><time>2026-08-12T11:35:14.000Z</time></trkpt>
        <trkpt lat="29.549241" lon="103.341715"><ele>2234.0251</ele><time>2026-08-12T11:36:29.000Z</time></trkpt>
        <trkpt lat="29.549226" lon="103.341665"><ele>2233.9646</ele><time>2026-08-12T11:36:34.000Z</time></trkpt>
        <trkpt lat="29.54922" lon="103.341611"><ele>2234.1877</ele><time>2026-08-12T11:36:40.000Z</time></trkpt>
        <trkpt lat="29.549215" lon="103.341559"><ele>2234.292</ele><time>2026-08-12T11:36:47.000Z</time></trkpt>
        <trkpt lat="29.549208" lon="103.341507"><ele>2234.2803</ele><time>2026-08-12T11:36:56.000Z</time></trkpt>
        <trkpt lat="29.549185" lon="103.341461"><ele>2234.9082</ele><time>2026-08-12T11:37:06.000Z</time></trkpt>
        <trkpt lat="29.549171" lon="103.341413"><ele>2236.028</ele><time>2026-08-12T11:37:17.000Z</time></trkpt>
        <trkpt lat="29.549138" lon="103.34138"><ele>2237.5378</ele><time>2026-08-12T11:37:37.000Z</time></trkpt>
        <trkpt lat="29.549112" lon="103.341342"><ele>2239.3047</ele><time>2026-08-12T11:38:01.000Z</time></trkpt>
        <trkpt lat="29.549082" lon="103.341303"><ele>2240.1992</ele><time>2026-08-12T11:39:28.000Z</time></trkpt>
        <trkpt lat="29.549071" lon="103.341252"><ele>2240.4045</ele><time>2026-08-12T11:39:34.000Z</time></trkpt>
        <trkpt lat="29.549043" lon="103.341212"><ele>2240.87</ele><time>2026-08-12T11:39:42.000Z</time></trkpt>
        <trkpt lat="29.548997" lon="103.341188"><ele>2241.4778</ele><time>2026-08-12T11:39:52.000Z</time></trkpt>
        <trkpt lat="29.54895" lon="103.341181"><ele>2241.9133</ele><time>2026-08-12T11:39:57.000Z</time></trkpt>
        <trkpt lat="29.548898" lon="103.341183"><ele>2241.8975</ele><time>2026-08-12T11:40:04.000Z</time></trkpt>
        <trkpt lat="29.548852" lon="103.34117"><ele>2242.9133</ele><time>2026-08-12T11:41:00.000Z</time></trkpt>
        <trkpt lat="29.548805" lon="103.341172"><ele>2244.7847</ele><time>2026-08-12T11:41:12.000Z</time></trkpt>
        <trkpt lat="29.548764" lon="103.341187"><ele>2247.5693</ele><time>2026-08-12T11:42:12.000Z</time></trkpt>
        <trkpt lat="29.548716" lon="103.34119"><ele>2248.8555</ele><time>2026-08-12T11:42:20.000Z</time></trkpt>
        <trkpt lat="29.548672" lon="103.341201"><ele>2250.689</ele><time>2026-08-12T11:42:30.000Z</time></trkpt>
        <trkpt lat="29.548626" lon="103.34119"><ele>2252.1428</ele><time>2026-08-12T11:43:27.000Z</time></trkpt>
        <trkpt lat="29.548582" lon="103.341201"><ele>2253.3665</ele><time>2026-08-12T11:43:32.000Z</time></trkpt>
        <trkpt lat="29.548543" lon="103.341224"><ele>2255.4558</ele><time>2026-08-12T11:43:42.000Z</time></trkpt>
        <trkpt lat="29.5485" lon="103.341238"><ele>2257.719</ele><time>2026-08-12T11:43:52.000Z</time></trkpt>
        <trkpt lat="29.548469" lon="103.341261"><ele>2261.7234</ele><time>2026-08-12T11:44:17.000Z</time></trkpt>
        <trkpt lat="29.548429" lon="103.341267"><ele>2264.0217</ele><time>2026-08-12T11:44:53.000Z</time></trkpt>
        <trkpt lat="29.548384" lon="103.341273"><ele>2265.127</ele><time>2026-08-12T11:45:06.000Z</time></trkpt>
        <trkpt lat="29.548337" lon="103.341265"><ele>2266.417</ele><time>2026-08-12T11:45:17.000Z</time></trkpt>
        <trkpt lat="29.548305" lon="103.341257"><ele>2269.933</ele><time>2026-08-12T11:45:36.000Z</time></trkpt>
        <trkpt lat="29.548272" lon="103.341223"><ele>2271.456</ele><time>2026-08-12T11:46:39.000Z</time></trkpt>
        <trkpt lat="29.548225" lon="103.34121"><ele>2271.8538</ele><time>2026-08-12T11:46:47.000Z</time></trkpt>
        <trkpt lat="29.548181" lon="103.341215"><ele>2272.8142</ele><time>2026-08-12T11:46:57.000Z</time></trkpt>
        <trkpt lat="29.548134" lon="103.341203"><ele>2274.1677</ele><time>2026-08-12T11:47:07.000Z</time></trkpt>
        <trkpt lat="29.548089" lon="103.341201"><ele>2275.003</ele><time>2026-08-12T11:47:15.000Z</time></trkpt>
        <trkpt lat="29.548044" lon="103.341191"><ele>2275.8242</ele><time>2026-08-12T11:47:26.000Z</time></trkpt>
        <trkpt lat="29.548028" lon="103.341226"><ele>2278.9856</ele><time>2026-08-12T11:47:50.000Z</time></trkpt>
        <trkpt lat="29.547973" lon="103.341217"><ele>2280.3748</ele><time>2026-08-12T11:51:13.000Z</time></trkpt>
        <trkpt lat="29.547925" lon="103.341213"><ele>2281.1072</ele><time>2026-08-12T11:51:20.000Z</time></trkpt>
        <trkpt lat="29.547884" lon="103.341186"><ele>2281.1443</ele><time>2026-08-12T11:51:24.000Z</time></trkpt>
        <trkpt lat="29.547846" lon="103.341155"><ele>2281.6514</ele><time>2026-08-12T11:51:28.000Z</time></trkpt>
        <trkpt lat="29.547806" lon="103.341123"><ele>2283.5776</ele><time>2026-08-12T11:54:37.000Z</time></trkpt>
        <trkpt lat="29.547759" lon="103.341112"><ele>2283.3254</ele><time>2026-08-12T11:54:47.000Z</time></trkpt>
        <trkpt lat="29.547713" lon="103.341093"><ele>2283.1038</ele><time>2026-08-12T11:54:51.000Z</time></trkpt>
        <trkpt lat="29.547669" lon="103.34107"><ele>2283.6675</ele><time>2026-08-12T11:54:57.000Z</time></trkpt>
        <trkpt lat="29.547621" lon="103.341079"><ele>2283.8477</ele><time>2026-08-12T11:59:51.000Z</time></trkpt>
        <trkpt lat="29.547573" lon="103.341092"><ele>2284.5366</ele><time>2026-08-12T11:59:59.000Z</time></trkpt>
        <trkpt lat="29.547528" lon="103.341082"><ele>2284.825</ele><time>2026-08-12T12:00:06.000Z</time></trkpt>
        <trkpt lat="29.54748" lon="103.341067"><ele>2285.5237</ele><time>2026-08-12T12:00:14.000Z</time></trkpt>
        <trkpt lat="29.547438" lon="103.341048"><ele>2287.2178</ele><time>2026-08-12T12:00:24.000Z</time></trkpt>
        <trkpt lat="29.547393" lon="103.341031"><ele>2288.2012</ele><time>2026-08-12T12:00:35.000Z</time></trkpt>
        <trkpt lat="29.547366" lon="103.340991"><ele>2290.2878</ele><time>2026-08-12T12:01:19.000Z</time></trkpt>
        <trkpt lat="29.547362" lon="103.340936"><ele>2290.763</ele><time>2026-08-12T12:01:30.000Z</time></trkpt>
        <trkpt lat="29.547341" lon="103.340884"><ele>2291.4639</ele><time>2026-08-12T12:01:37.000Z</time></trkpt>
        <trkpt lat="29.547318" lon="103.340837"><ele>2292.0232</ele><time>2026-08-12T12:01:42.000Z</time></trkpt>
        <trkpt lat="29.547285" lon="103.340798"><ele>2292.6516</ele><time>2026-08-12T12:01:49.000Z</time></trkpt>
        <trkpt lat="29.547254" lon="103.340755"><ele>2292.9053</ele><time>2026-08-12T12:01:57.000Z</time></trkpt>
        <trkpt lat="29.547231" lon="103.340706"><ele>2293.9685</ele><time>2026-08-12T12:02:06.000Z</time></trkpt>
        <trkpt lat="29.547224" lon="103.340655"><ele>2295.401</ele><time>2026-08-12T12:02:17.000Z</time></trkpt>
        <trkpt lat="29.547203" lon="103.340611"><ele>2296.7969</ele><time>2026-08-12T12:02:31.000Z</time></trkpt>
        <trkpt lat="29.547187" lon="103.340561"><ele>2297.2522</ele><time>2026-08-12T12:03:38.000Z</time></trkpt>
        <trkpt lat="29.547176" lon="103.340514"><ele>2299.002</ele><time>2026-08-12T12:03:47.000Z</time></trkpt>
        <trkpt lat="29.547173" lon="103.340463"><ele>2300.2246</ele><time>2026-08-12T12:03:59.000Z</time></trkpt>
        <trkpt lat="29.547181" lon="103.340417"><ele>2303.245</ele><time>2026-08-12T12:05:50.000Z</time></trkpt>
        <trkpt lat="29.547169" lon="103.340364"><ele>2304.6807</ele><time>2026-08-12T12:06:00.000Z</time></trkpt>
        <trkpt lat="29.547132" lon="103.340329"><ele>2306.2332</ele><time>2026-08-12T12:06:07.000Z</time></trkpt>
        <trkpt lat="29.547095" lon="103.3403"><ele>2307.4255</ele><time>2026-08-12T12:06:14.000Z</time></trkpt>
        <trkpt lat="29.547102" lon="103.340258"><ele>2310.6226</ele><time>2026-08-12T12:08:04.000Z</time></trkpt>
        <trkpt lat="29.547083" lon="103.340205"><ele>2312.3892</ele><time>2026-08-12T12:08:13.000Z</time></trkpt>
        <trkpt lat="29.547083" lon="103.340152"><ele>2314.999</ele><time>2026-08-12T12:09:47.000Z</time></trkpt>
        <trkpt lat="29.547107" lon="103.340096"><ele>2316.6152</ele><time>2026-08-12T12:09:50.000Z</time></trkpt>
        <trkpt lat="29.547091" lon="103.340048"><ele>2318.94</ele><time>2026-08-12T12:09:57.000Z</time></trkpt>
        <trkpt lat="29.547087" lon="103.34001"><ele>2322.2603</ele><time>2026-08-12T12:11:05.000Z</time></trkpt>
        <trkpt lat="29.547081" lon="103.339959"><ele>2323.635</ele><time>2026-08-12T12:11:11.000Z</time></trkpt>
        <trkpt lat="29.547073" lon="103.339909"><ele>2325.9265</ele><time>2026-08-12T12:11:21.000Z</time></trkpt>
        <trkpt lat="29.547077" lon="103.33988"><ele>2330.6108</ele><time>2026-08-12T12:12:37.000Z</time></trkpt>
        <trkpt lat="29.547063" lon="103.339831"><ele>2332.2998</ele><time>2026-08-12T12:12:45.000Z</time></trkpt>
        <trkpt lat="29.547051" lon="103.33978"><ele>2333.2336</ele><time>2026-08-12T12:12:54.000Z</time></trkpt>
        <trkpt lat="29.54705" lon="103.339728"><ele>2335.0774</ele><time>2026-08-12T12:13:04.000Z</time></trkpt>
        <trkpt lat="29.547019" lon="103.339662"><ele>2338.3823</ele><time>2026-08-12T12:13:42.000Z</time></trkpt>
        <trkpt lat="29.546976" lon="103.339655"><ele>2339.7056</ele><time>2026-08-12T12:14:36.000Z</time></trkpt>
        <trkpt lat="29.54695" lon="103.339611"><ele>2341.6074</ele><time>2026-08-12T12:14:46.000Z</time></trkpt>
        <trkpt lat="29.54692" lon="103.33957"><ele>2343.1565</ele><time>2026-08-12T12:15:21.000Z</time></trkpt>
        <trkpt lat="29.546893" lon="103.339529"><ele>2344.9465</ele><time>2026-08-12T12:15:31.000Z</time></trkpt>
        <trkpt lat="29.546871" lon="103.339482"><ele>2346.1602</ele><time>2026-08-12T12:16:31.000Z</time></trkpt>
        <trkpt lat="29.546848" lon="103.33944"><ele>2348.1484</ele><time>2026-08-12T12:16:45.000Z</time></trkpt>
        <trkpt lat="29.546839" lon="103.339396"><ele>2350.7034</ele><time>2026-08-12T12:18:04.000Z</time></trkpt>
        <trkpt lat="29.546806" lon="103.339371"><ele>2353.4211</ele><time>2026-08-12T12:18:16.000Z</time></trkpt>
        <trkpt lat="29.546781" lon="103.33934"><ele>2356.6467</ele><time>2026-08-12T12:18:27.000Z</time></trkpt>
        <trkpt lat="29.546759" lon="103.339318"><ele>2360.586</ele><time>2026-08-12T12:21:59.000Z</time></trkpt>
        <trkpt lat="29.546724" lon="103.339276"><ele>2361.1836</ele><time>2026-08-12T12:22:26.000Z</time></trkpt>
        <trkpt lat="29.546713" lon="103.339231"><ele>2363.9014</ele><time>2026-08-12T12:22:35.000Z</time></trkpt>
        <trkpt lat="29.546677" lon="103.339199"><ele>2366.4832</ele><time>2026-08-12T12:22:46.000Z</time></trkpt>
        <trkpt lat="29.546656" lon="103.339162"><ele>2369.564</ele><time>2026-08-12T12:22:59.000Z</time></trkpt>
        <trkpt lat="29.546636" lon="103.339138"><ele>2373.7395</ele><time>2026-08-12T12:23:42.000Z</time></trkpt>
        <trkpt lat="29.546596" lon="103.339104"><ele>2374.7134</ele><time>2026-08-12T12:24:46.000Z</time></trkpt>
        <trkpt lat="29.546559" lon="103.339072"><ele>2376.158</ele><time>2026-08-12T12:24:54.000Z</time></trkpt>
        <trkpt lat="29.546529" lon="103.339033"><ele>2376.8381</ele><time>2026-08-12T12:25:03.000Z</time></trkpt>
        <trkpt lat="29.546517" lon="103.338982"><ele>2378.3357</ele><time>2026-08-12T12:27:16.000Z</time></trkpt>
        <trkpt lat="29.546491" lon="103.338941"><ele>2379.7346</ele><time>2026-08-12T12:27:48.000Z</time></trkpt>
        <trkpt lat="29.546477" lon="103.338897"><ele>2382.046</ele><time>2026-08-12T12:28:47.000Z</time></trkpt>
        <trkpt lat="29.546444" lon="103.338862"><ele>2383.335</ele><time>2026-08-12T12:28:57.000Z</time></trkpt>
        <trkpt lat="29.546409" lon="103.338832"><ele>2385.361</ele><time>2026-08-12T12:29:10.000Z</time></trkpt>
        <trkpt lat="29.546381" lon="103.338805"><ele>2388.5479</ele><time>2026-08-12T12:29:28.000Z</time></trkpt>
        <trkpt lat="29.546346" lon="103.338784"><ele>2391.5698</ele><time>2026-08-12T12:29:43.000Z</time></trkpt>
        <trkpt lat="29.546316" lon="103.338749"><ele>2394.3572</ele><time>2026-08-12T12:30:54.000Z</time></trkpt>
        <trkpt lat="29.546282" lon="103.338714"><ele>2396.2444</ele><time>2026-08-12T12:31:05.000Z</time></trkpt>
        <trkpt lat="29.546254" lon="103.338669"><ele>2397.9377</ele><time>2026-08-12T12:32:02.000Z</time></trkpt>
        <trkpt lat="29.546236" lon="103.338621"><ele>2398.5083</ele><time>2026-08-12T12:32:11.000Z</time></trkpt>
        <trkpt lat="29.546212" lon="103.338573"><ele>2399.2512</ele><time>2026-08-12T12:32:21.000Z</time></trkpt>
        <trkpt lat="29.546202" lon="103.338524"><ele>2400.212</ele><time>2026-08-12T12:32:30.000Z</time></trkpt>
        <trkpt lat="29.546187" lon="103.338471"><ele>2399.8745</ele><time>2026-08-12T12:33:19.000Z</time></trkpt>
        <trkpt lat="29.546166" lon="103.338425"><ele>2401.4612</ele><time>2026-08-12T12:33:29.000Z</time></trkpt>
        <trkpt lat="29.54615" lon="103.338379"><ele>2403.1672</ele><time>2026-08-12T12:34:27.000Z</time></trkpt>
        <trkpt lat="29.546132" lon="103.338329"><ele>2404.2544</ele><time>2026-08-12T12:34:38.000Z</time></trkpt>
        <trkpt lat="29.546137" lon="103.338276"><ele>2405.3774</ele><time>2026-08-12T12:34:48.000Z</time></trkpt>
        <trkpt lat="29.546145" lon="103.338223"><ele>2407.5488</ele><time>2026-08-12T12:34:58.000Z</time></trkpt>
        <trkpt lat="29.546145" lon="103.33817"><ele>2409.3472</ele><time>2026-08-12T12:35:43.000Z</time></trkpt>
        <trkpt lat="29.546162" lon="103.33813"><ele>2412.1287</ele><time>2026-08-12T12:35:51.000Z</time></trkpt>
        <trkpt lat="29.546175" lon="103.338078"><ele>2414.0527</ele><time>2026-08-12T12:36:29.000Z</time></trkpt>
        <trkpt lat="29.54619" lon="103.338022"><ele>2414.6099</ele><time>2026-08-12T12:36:36.000Z</time></trkpt>
        <trkpt lat="29.546221" lon="103.337977"><ele>2415.6228</ele><time>2026-08-12T12:36:42.000Z</time></trkpt>
        <trkpt lat="29.546252" lon="103.337936"><ele>2416.427</ele><time>2026-08-12T12:36:51.000Z</time></trkpt>
        <trkpt lat="29.54629" lon="103.337905"><ele>2417.1836</ele><time>2026-08-12T12:36:59.000Z</time></trkpt>
        <trkpt lat="29.546314" lon="103.337852"><ele>2417.9421</ele><time>2026-08-12T12:37:04.000Z</time></trkpt>
        <trkpt lat="29.546339" lon="103.337803"><ele>2418.1733</ele><time>2026-08-12T12:37:12.000Z</time></trkpt>
        <trkpt lat="29.546354" lon="103.337749"><ele>2417.6865</ele><time>2026-08-12T12:37:19.000Z</time></trkpt>
        <trkpt lat="29.546373" lon="103.337696"><ele>2417.8296</ele><time>2026-08-12T12:37:26.000Z</time></trkpt>
        <trkpt lat="29.546384" lon="103.337644"><ele>2418.6648</ele><time>2026-08-12T12:37:34.000Z</time></trkpt>
        <trkpt lat="29.546395" lon="103.337594"><ele>2418.2927</ele><time>2026-08-12T12:37:41.000Z</time></trkpt>
        <trkpt lat="29.546415" lon="103.337548"><ele>2419.2388</ele><time>2026-08-12T12:37:46.000Z</time></trkpt>
        <trkpt lat="29.546443" lon="103.337501"><ele>2419.763</ele><time>2026-08-12T12:37:52.000Z</time></trkpt>
        <trkpt lat="29.546477" lon="103.337467"><ele>2420.2983</ele><time>2026-08-12T12:37:58.000Z</time></trkpt>
        <trkpt lat="29.546519" lon="103.337439"><ele>2420.8826</ele><time>2026-08-12T12:38:05.000Z</time></trkpt>
        <trkpt lat="29.546535" lon="103.337388"><ele>2420.8452</ele><time>2026-08-12T12:38:11.000Z</time></trkpt>
        <trkpt lat="29.546543" lon="103.337336"><ele>2420.3362</ele><time>2026-08-12T12:38:18.000Z</time></trkpt>
        <trkpt lat="29.546561" lon="103.337287"><ele>2420.4077</ele><time>2026-08-12T12:38:26.000Z</time></trkpt>
        <trkpt lat="29.546567" lon="103.337232"><ele>2420.3076</ele><time>2026-08-12T12:38:34.000Z</time></trkpt>
        <trkpt lat="29.546558" lon="103.337181"><ele>2420.872</ele><time>2026-08-12T12:38:43.000Z</time></trkpt>
        <trkpt lat="29.546557" lon="103.337125"><ele>2420.9897</ele><time>2026-08-12T12:38:51.000Z</time></trkpt>
        <trkpt lat="29.546566" lon="103.337074"><ele>2421.5876</ele><time>2026-08-12T12:39:01.000Z</time></trkpt>
        <trkpt lat="29.546529" lon="103.337043"><ele>2423.2988</ele><time>2026-08-12T12:43:13.000Z</time></trkpt>
        <trkpt lat="29.546506" lon="103.33699"><ele>2423.5173</ele><time>2026-08-12T12:44:00.000Z</time></trkpt>
        <trkpt lat="29.546482" lon="103.336939"><ele>2424.922</ele><time>2026-08-12T12:44:09.000Z</time></trkpt>
        <trkpt lat="29.546454" lon="103.336892"><ele>2424.4512</ele><time>2026-08-12T12:44:14.000Z</time></trkpt>
        <trkpt lat="29.546429" lon="103.336846"><ele>2423.9104</ele><time>2026-08-12T12:44:22.000Z</time></trkpt>
        <trkpt lat="29.546422" lon="103.336788"><ele>2422.982</ele><time>2026-08-12T12:44:29.000Z</time></trkpt>
        <trkpt lat="29.546422" lon="103.336733"><ele>2421.5583</ele><time>2026-08-12T12:44:39.000Z</time></trkpt>
        <trkpt lat="29.546435" lon="103.336682"><ele>2420.8481</ele><time>2026-08-12T12:44:47.000Z</time></trkpt>
        <trkpt lat="29.546434" lon="103.336635"><ele>2418.7253</ele><time>2026-08-12T12:44:54.000Z</time></trkpt>
        <trkpt lat="29.546443" lon="103.336581"><ele>2417.581</ele><time>2026-08-12T12:45:03.000Z</time></trkpt>
        <trkpt lat="29.546463" lon="103.336531"><ele>2417.4941</ele><time>2026-08-12T12:45:12.000Z</time></trkpt>
        <trkpt lat="29.546482" lon="103.336486"><ele>2416.1375</ele><time>2026-08-12T12:45:21.000Z</time></trkpt>
        <trkpt lat="29.546492" lon="103.336436"><ele>2414.1055</ele><time>2026-08-12T12:45:30.000Z</time></trkpt>
        <trkpt lat="29.546506" lon="103.336394"><ele>2411.5269</ele><time>2026-08-12T12:45:39.000Z</time></trkpt>
        <trkpt lat="29.546496" lon="103.336346"><ele>2409.5164</ele><time>2026-08-12T12:45:49.000Z</time></trkpt>
        <trkpt lat="29.546484" lon="103.336298"><ele>2408.0828</ele><time>2026-08-12T12:45:58.000Z</time></trkpt>
        <trkpt lat="29.546483" lon="103.336246"><ele>2407.621</ele><time>2026-08-12T12:46:06.000Z</time></trkpt>
        <trkpt lat="29.546494" lon="103.336195"><ele>2407.319</ele><time>2026-08-12T12:46:14.000Z</time></trkpt>
        <trkpt lat="29.546521" lon="103.336148"><ele>2407.1865</ele><time>2026-08-12T12:46:22.000Z</time></trkpt>
        <trkpt lat="29.546551" lon="103.336104"><ele>2406.4282</ele><time>2026-08-12T12:46:30.000Z</time></trkpt>
        <trkpt lat="29.546572" lon="103.336057"><ele>2405.8943</ele><time>2026-08-12T12:46:37.000Z</time></trkpt>
        <trkpt lat="29.546584" lon="103.336002"><ele>2404.9707</ele><time>2026-08-12T12:46:45.000Z</time></trkpt>
        <trkpt lat="29.546593" lon="103.335951"><ele>2403.88</ele><time>2026-08-12T12:46:52.000Z</time></trkpt>
        <trkpt lat="29.546602" lon="103.335901"><ele>2402.9648</ele><time>2026-08-12T12:46:58.000Z</time></trkpt>
        <trkpt lat="29.546608" lon="103.335843"><ele>2401.7012</ele><time>2026-08-12T12:47:05.000Z</time></trkpt>
        <trkpt lat="29.546621" lon="103.335787"><ele>2400.9368</ele><time>2026-08-12T12:47:12.000Z</time></trkpt>
        <trkpt lat="29.546631" lon="103.335735"><ele>2401.342</ele><time>2026-08-12T12:47:18.000Z</time></trkpt>
        <trkpt lat="29.546633" lon="103.33568"><ele>2401.6602</ele><time>2026-08-12T12:47:25.000Z</time></trkpt>
        <trkpt lat="29.546652" lon="103.335631"><ele>2401.3333</ele><time>2026-08-12T12:47:31.000Z</time></trkpt>
        <trkpt lat="29.546682" lon="103.335582"><ele>2401.1838</ele><time>2026-08-12T12:47:36.000Z</time></trkpt>
        <trkpt lat="29.546704" lon="103.335527"><ele>2401.7263</ele><time>2026-08-12T12:47:42.000Z</time></trkpt>
        <trkpt lat="29.546711" lon="103.335473"><ele>2401.528</ele><time>2026-08-12T12:47:48.000Z</time></trkpt>
        <trkpt lat="29.546725" lon="103.335422"><ele>2400.7227</ele><time>2026-08-12T12:47:54.000Z</time></trkpt>
        <trkpt lat="29.546732" lon="103.33537"><ele>2400.6187</ele><time>2026-08-12T12:48:00.000Z</time></trkpt>
        <trkpt lat="29.546744" lon="103.335316"><ele>2400.7175</ele><time>2026-08-12T12:48:09.000Z</time></trkpt>
        <trkpt lat="29.546759" lon="103.335263"><ele>2400.1375</ele><time>2026-08-12T12:48:20.000Z</time></trkpt>
        <trkpt lat="29.546762" lon="103.335209"><ele>2399.1426</ele><time>2026-08-12T12:48:28.000Z</time></trkpt>
        <trkpt lat="29.546755" lon="103.335155"><ele>2398.1348</ele><time>2026-08-12T12:48:36.000Z</time></trkpt>
        <trkpt lat="29.546741" lon="103.335106"><ele>2395.985</ele><time>2026-08-12T12:48:44.000Z</time></trkpt>
        <trkpt lat="29.546729" lon="103.335052"><ele>2395.27</ele><time>2026-08-12T12:48:54.000Z</time></trkpt>
        <trkpt lat="29.546698" lon="103.335012"><ele>2394.216</ele><time>2026-08-12T12:49:03.000Z</time></trkpt>
        <trkpt lat="29.546658" lon="103.334984"><ele>2393.3574</ele><time>2026-08-12T12:49:11.000Z</time></trkpt>
        <trkpt lat="29.546619" lon="103.334958"><ele>2393.9932</ele><time>2026-08-12T12:49:17.000Z</time></trkpt>
        <trkpt lat="29.546578" lon="103.334925"><ele>2394.3616</ele><time>2026-08-12T12:49:23.000Z</time></trkpt>
        <trkpt lat="29.546538" lon="103.334893"><ele>2394.0806</ele><time>2026-08-12T12:49:29.000Z</time></trkpt>
        <trkpt lat="29.5465" lon="103.334864"><ele>2393.7808</ele><time>2026-08-12T12:49:38.000Z</time></trkpt>
        <trkpt lat="29.546458" lon="103.334847"><ele>2393.5269</ele><time>2026-08-12T12:49:45.000Z</time></trkpt>
        <trkpt lat="29.54641" lon="103.334839"><ele>2392.8652</ele><time>2026-08-12T12:49:53.000Z</time></trkpt>
        <trkpt lat="29.546363" lon="103.334827"><ele>2393.0684</ele><time>2026-08-12T12:50:03.000Z</time></trkpt>
        <trkpt lat="29.546325" lon="103.334802"><ele>2394.3435</ele><time>2026-08-12T12:50:12.000Z</time></trkpt>
        <trkpt lat="29.546291" lon="103.334768"><ele>2395.021</ele><time>2026-08-12T12:50:26.000Z</time></trkpt>
        <trkpt lat="29.546246" lon="103.334764"><ele>2395.7368</ele><time>2026-08-12T12:50:40.000Z</time></trkpt>
        <trkpt lat="29.546201" lon="103.334781"><ele>2396.656</ele><time>2026-08-12T12:51:55.000Z</time></trkpt>
        <trkpt lat="29.546158" lon="103.334787"><ele>2397.867</ele><time>2026-08-12T12:52:18.000Z</time></trkpt>
        <trkpt lat="29.546113" lon="103.334775"><ele>2399.4592</ele><time>2026-08-12T12:52:27.000Z</time></trkpt>
        <trkpt lat="29.546066" lon="103.334764"><ele>2399.4956</ele><time>2026-08-12T12:52:41.000Z</time></trkpt>
        <trkpt lat="29.546019" lon="103.334752"><ele>2400.125</ele><time>2026-08-12T12:52:48.000Z</time></trkpt>
        <trkpt lat="29.545972" lon="103.334739"><ele>2401.223</ele><time>2026-08-12T12:52:55.000Z</time></trkpt>
        <trkpt lat="29.545928" lon="103.334725"><ele>2400.6733</ele><time>2026-08-12T12:53:02.000Z</time></trkpt>
        <trkpt lat="29.545889" lon="103.334695"><ele>2400.4636</ele><time>2026-08-12T12:53:10.000Z</time></trkpt>
        <trkpt lat="29.545862" lon="103.33465"><ele>2398.2183</ele><time>2026-08-12T12:53:19.000Z</time></trkpt>
        <trkpt lat="29.545842" lon="103.334602"><ele>2395.933</ele><time>2026-08-12T12:53:27.000Z</time></trkpt>
        <trkpt lat="29.545815" lon="103.334555"><ele>2395.3472</ele><time>2026-08-12T12:53:36.000Z</time></trkpt>
        <trkpt lat="29.545772" lon="103.334529"><ele>2395.1597</ele><time>2026-08-12T12:53:45.000Z</time></trkpt>
        <trkpt lat="29.545727" lon="103.334505"><ele>2395.1072</ele><time>2026-08-12T12:53:54.000Z</time></trkpt>
        <trkpt lat="29.545685" lon="103.334483"><ele>2393.7954</ele><time>2026-08-12T12:54:02.000Z</time></trkpt>
        <trkpt lat="29.545646" lon="103.334458"><ele>2391.23</ele><time>2026-08-12T12:54:09.000Z</time></trkpt>
        <trkpt lat="29.545602" lon="103.334443"><ele>2389.7344</ele><time>2026-08-12T12:54:16.000Z</time></trkpt>
        <trkpt lat="29.545555" lon="103.334431"><ele>2389.6501</ele><time>2026-08-12T12:54:26.000Z</time></trkpt>
        <trkpt lat="29.545513" lon="103.334405"><ele>2390.311</ele><time>2026-08-12T12:54:33.000Z</time></trkpt>
        <trkpt lat="29.545468" lon="103.334397"><ele>2391.037</ele><time>2026-08-12T12:54:48.000Z</time></trkpt>
        <trkpt lat="29.545426" lon="103.334383"><ele>2391.959</ele><time>2026-08-12T12:55:03.000Z</time></trkpt>
        <trkpt lat="29.545385" lon="103.334359"><ele>2392.896</ele><time>2026-08-12T12:55:15.000Z</time></trkpt>
        <trkpt lat="29.545346" lon="103.334333"><ele>2392.0762</ele><time>2026-08-12T12:55:41.000Z</time></trkpt>
        <trkpt lat="29.545301" lon="103.334301"><ele>2392.106</ele><time>2026-08-12T12:55:48.000Z</time></trkpt>
        <trkpt lat="29.545269" lon="103.334266"><ele>2393.3809</ele><time>2026-08-12T12:55:53.000Z</time></trkpt>
        <trkpt lat="29.545238" lon="103.334226"><ele>2393.8364</ele><time>2026-08-12T12:55:59.000Z</time></trkpt>
        <trkpt lat="29.545214" lon="103.334179"><ele>2394.6504</ele><time>2026-08-12T12:56:08.000Z</time></trkpt>
        <trkpt lat="29.545191" lon="103.334137"><ele>2396.8162</ele><time>2026-08-12T12:56:17.000Z</time></trkpt>
        <trkpt lat="29.545151" lon="103.334104"><ele>2396.7224</ele><time>2026-08-12T12:56:27.000Z</time></trkpt>
        <trkpt lat="29.545106" lon="103.334085"><ele>2396.3005</ele><time>2026-08-12T12:56:38.000Z</time></trkpt>
        <trkpt lat="29.545059" lon="103.334081"><ele>2396.3638</ele><time>2026-08-12T12:56:44.000Z</time></trkpt>
        <trkpt lat="29.545013" lon="103.33408"><ele>2395.8406</ele><time>2026-08-12T12:56:52.000Z</time></trkpt>
        <trkpt lat="29.544964" lon="103.334085"><ele>2396.6194</ele><time>2026-08-12T12:57:00.000Z</time></trkpt>
        <trkpt lat="29.544919" lon="103.334073"><ele>2396.6995</ele><time>2026-08-12T12:57:07.000Z</time></trkpt>
        <trkpt lat="29.544873" lon="103.334066"><ele>2396.3645</ele><time>2026-08-12T12:57:13.000Z</time></trkpt>
        <trkpt lat="29.544823" lon="103.334069"><ele>2395.335</ele><time>2026-08-12T12:57:20.000Z</time></trkpt>
        <trkpt lat="29.544782" lon="103.334099"><ele>2395.018</ele><time>2026-08-12T12:57:28.000Z</time></trkpt>
        <trkpt lat="29.544751" lon="103.334143"><ele>2395.3196</ele><time>2026-08-12T12:57:36.000Z</time></trkpt>
        <trkpt lat="29.544715" lon="103.334179"><ele>2394.3708</ele><time>2026-08-12T12:57:44.000Z</time></trkpt>
        <trkpt lat="29.544669" lon="103.334192"><ele>2393.2893</ele><time>2026-08-12T12:57:52.000Z</time></trkpt>
        <trkpt lat="29.54463" lon="103.334216"><ele>2391.384</ele><time>2026-08-12T12:58:00.000Z</time></trkpt>
        <trkpt lat="29.544579" lon="103.334224"><ele>2391.8535</ele><time>2026-08-12T12:58:10.000Z</time></trkpt>
        <trkpt lat="29.544537" lon="103.334212"><ele>2393.5122</ele><time>2026-08-12T12:58:15.000Z</time></trkpt>
        <trkpt lat="29.544493" lon="103.334199"><ele>2394.3074</ele><time>2026-08-12T12:58:20.000Z</time></trkpt>
        <trkpt lat="29.544445" lon="103.334187"><ele>2393.715</ele><time>2026-08-12T12:58:26.000Z</time></trkpt>
        <trkpt lat="29.544401" lon="103.334171"><ele>2394.1438</ele><time>2026-08-12T12:58:32.000Z</time></trkpt>
        <trkpt lat="29.544349" lon="103.334169"><ele>2393.7017</ele><time>2026-08-12T12:58:39.000Z</time></trkpt>
        <trkpt lat="29.544301" lon="103.334164"><ele>2393.6392</ele><time>2026-08-12T12:58:46.000Z</time></trkpt>
        <trkpt lat="29.544252" lon="103.33416"><ele>2392.5547</ele><time>2026-08-12T12:58:54.000Z</time></trkpt>
        <trkpt lat="29.544203" lon="103.334161"><ele>2392.5938</ele><time>2026-08-12T12:59:02.000Z</time></trkpt>
        <trkpt lat="29.544158" lon="103.334153"><ele>2393.1248</ele><time>2026-08-12T12:59:10.000Z</time></trkpt>
        <trkpt lat="29.54411" lon="103.334144"><ele>2393.4395</ele><time>2026-08-12T12:59:18.000Z</time></trkpt>
        <trkpt lat="29.544063" lon="103.334123"><ele>2394.0505</ele><time>2026-08-12T12:59:25.000Z</time></trkpt>
        <trkpt lat="29.544022" lon="103.334101"><ele>2394.9321</ele><time>2026-08-12T12:59:32.000Z</time></trkpt>
        <trkpt lat="29.543977" lon="103.33407"><ele>2394.791</ele><time>2026-08-12T12:59:39.000Z</time></trkpt>
        <trkpt lat="29.543938" lon="103.334035"><ele>2394.9587</ele><time>2026-08-12T12:59:47.000Z</time></trkpt>
        <trkpt lat="29.543905" lon="103.333996"><ele>2394.3865</ele><time>2026-08-12T12:59:54.000Z</time></trkpt>
        <trkpt lat="29.543874" lon="103.333957"><ele>2393.6658</ele><time>2026-08-12T13:00:03.000Z</time></trkpt>
        <trkpt lat="29.543846" lon="103.333915"><ele>2393.1235</ele><time>2026-08-12T13:00:11.000Z</time></trkpt>
        <trkpt lat="29.543803" lon="103.333906"><ele>2392.2192</ele><time>2026-08-12T13:00:18.000Z</time></trkpt>
        <trkpt lat="29.543755" lon="103.333913"><ele>2392.0205</ele><time>2026-08-12T13:00:24.000Z</time></trkpt>
        <trkpt lat="29.543707" lon="103.33393"><ele>2391.535</ele><time>2026-08-12T13:00:32.000Z</time></trkpt>
        <trkpt lat="29.543661" lon="103.333926"><ele>2390.4355</ele><time>2026-08-12T13:00:40.000Z</time></trkpt>
        <trkpt lat="29.54362" lon="103.333891"><ele>2390.1604</ele><time>2026-08-12T13:00:47.000Z</time></trkpt>
        <trkpt lat="29.543582" lon="103.333857"><ele>2389.9932</ele><time>2026-08-12T13:00:53.000Z</time></trkpt>
        <trkpt lat="29.543548" lon="103.33382"><ele>2390.8362</ele><time>2026-08-12T13:00:59.000Z</time></trkpt>
        <trkpt lat="29.543516" lon="103.33378"><ele>2390.7395</ele><time>2026-08-12T13:01:09.000Z</time></trkpt>
        <trkpt lat="29.543488" lon="103.333739"><ele>2390.7266</ele><time>2026-08-12T13:01:18.000Z</time></trkpt>
        <trkpt lat="29.543453" lon="103.333702"><ele>2389.9326</ele><time>2026-08-12T13:01:26.000Z</time></trkpt>
        <trkpt lat="29.543416" lon="103.333673"><ele>2387.7188</ele><time>2026-08-12T13:01:43.000Z</time></trkpt>
        <trkpt lat="29.54338" lon="103.333639"><ele>2387.5498</ele><time>2026-08-12T13:01:50.000Z</time></trkpt>
        <trkpt lat="29.543359" lon="103.333592"><ele>2387.6296</ele><time>2026-08-12T13:01:57.000Z</time></trkpt>
        <trkpt lat="29.543351" lon="103.333539"><ele>2387.012</ele><time>2026-08-12T13:02:04.000Z</time></trkpt>
        <trkpt lat="29.543347" lon="103.333487"><ele>2385.7886</ele><time>2026-08-12T13:02:12.000Z</time></trkpt>
        <trkpt lat="29.543339" lon="103.333434"><ele>2385.8538</ele><time>2026-08-12T13:02:20.000Z</time></trkpt>
        <trkpt lat="29.543325" lon="103.333379"><ele>2386.2534</ele><time>2026-08-12T13:02:27.000Z</time></trkpt>
        <trkpt lat="29.543299" lon="103.333334"><ele>2386.1106</ele><time>2026-08-12T13:02:33.000Z</time></trkpt>
        <trkpt lat="29.543287" lon="103.333282"><ele>2385.4631</ele><time>2026-08-12T13:02:41.000Z</time></trkpt>
        <trkpt lat="29.543271" lon="103.333229"><ele>2384.395</ele><time>2026-08-12T13:02:49.000Z</time></trkpt>
        <trkpt lat="29.543242" lon="103.333183"><ele>2383.8855</ele><time>2026-08-12T13:02:56.000Z</time></trkpt>
        <trkpt lat="29.543207" lon="103.333145"><ele>2383.9617</ele><time>2026-08-12T13:03:03.000Z</time></trkpt>
        <trkpt lat="29.543188" lon="103.333097"><ele>2383.936</ele><time>2026-08-12T13:03:12.000Z</time></trkpt>
        <trkpt lat="29.543159" lon="103.33305"><ele>2384.2559</ele><time>2026-08-12T13:03:25.000Z</time></trkpt>
        <trkpt lat="29.543127" lon="103.333011"><ele>2384.1587</ele><time>2026-08-12T13:03:31.000Z</time></trkpt>
        <trkpt lat="29.543082" lon="103.332989"><ele>2384.5679</ele><time>2026-08-12T13:03:38.000Z</time></trkpt>
        <trkpt lat="29.543034" lon="103.332986"><ele>2385.2366</ele><time>2026-08-12T13:03:44.000Z</time></trkpt>
        <trkpt lat="29.542989" lon="103.332989"><ele>2385.6077</ele><time>2026-08-12T13:03:50.000Z</time></trkpt>
        <trkpt lat="29.542944" lon="103.332991"><ele>2386.1548</ele><time>2026-08-12T13:03:58.000Z</time></trkpt>
        <trkpt lat="29.542908" lon="103.332947"><ele>2385.54</ele><time>2026-08-12T13:04:07.000Z</time></trkpt>
        <trkpt lat="29.542878" lon="103.332907"><ele>2386.119</ele><time>2026-08-12T13:04:13.000Z</time></trkpt>
        <trkpt lat="29.542842" lon="103.332872"><ele>2386.267</ele><time>2026-08-12T13:04:20.000Z</time></trkpt>
        <trkpt lat="29.54281" lon="103.332825"><ele>2386.0173</ele><time>2026-08-12T13:04:27.000Z</time></trkpt>
        <trkpt lat="29.542784" lon="103.332781"><ele>2385.046</ele><time>2026-08-12T13:04:33.000Z</time></trkpt>
        <trkpt lat="29.542758" lon="103.332736"><ele>2384.6484</ele><time>2026-08-12T13:04:40.000Z</time></trkpt>
        <trkpt lat="29.542729" lon="103.332691"><ele>2384.5728</ele><time>2026-08-12T13:04:49.000Z</time></trkpt>
        <trkpt lat="29.542703" lon="103.332645"><ele>2385.0986</ele><time>2026-08-12T13:04:56.000Z</time></trkpt>
        <trkpt lat="29.542666" lon="103.332615"><ele>2385.4907</ele><time>2026-08-12T13:05:02.000Z</time></trkpt>
        <trkpt lat="29.542621" lon="103.332616"><ele>2385.358</ele><time>2026-08-12T13:05:08.000Z</time></trkpt>
        <trkpt lat="29.542571" lon="103.332606"><ele>2385.412</ele><time>2026-08-12T13:05:16.000Z</time></trkpt>
        <trkpt lat="29.542534" lon="103.332568"><ele>2385.3008</ele><time>2026-08-12T13:05:23.000Z</time></trkpt>
        <trkpt lat="29.542508" lon="103.332522"><ele>2385.0916</ele><time>2026-08-12T13:05:30.000Z</time></trkpt>
        <trkpt lat="29.542496" lon="103.332465"><ele>2384.94</ele><time>2026-08-12T13:05:37.000Z</time></trkpt>
        <trkpt lat="29.542502" lon="103.332413"><ele>2385.3186</ele><time>2026-08-12T13:05:53.000Z</time></trkpt>
        <trkpt lat="29.542474" lon="103.332372"><ele>2384.9043</ele><time>2026-08-12T13:06:03.000Z</time></trkpt>
        <trkpt lat="29.54245" lon="103.332327"><ele>2384.7717</ele><time>2026-08-12T13:06:10.000Z</time></trkpt>
        <trkpt lat="29.542427" lon="103.332275"><ele>2386.236</ele><time>2026-08-12T13:06:18.000Z</time></trkpt>
        <trkpt lat="29.542401" lon="103.332233"><ele>2387.0762</ele><time>2026-08-12T13:06:25.000Z</time></trkpt>
        <trkpt lat="29.542379" lon="103.33218"><ele>2386.4421</ele><time>2026-08-12T13:06:37.000Z</time></trkpt>
        <trkpt lat="29.542353" lon="103.332138"><ele>2385.827</ele><time>2026-08-12T13:06:44.000Z</time></trkpt>
        <trkpt lat="29.542317" lon="103.332093"><ele>2385.358</ele><time>2026-08-12T13:06:51.000Z</time></trkpt>
        <trkpt lat="29.542278" lon="103.332057"><ele>2385.307</ele><time>2026-08-12T13:06:56.000Z</time></trkpt>
        <trkpt lat="29.542236" lon="103.33209"><ele>2384.1052</ele><time>2026-08-12T13:07:06.000Z</time></trkpt>
        <trkpt lat="29.542232" lon="103.33214"><ele>2382.961</ele><time>2026-08-12T13:08:19.000Z</time></trkpt>
        <trkpt lat="29.542253" lon="103.332086"><ele>2382.1282</ele><time>2026-08-12T13:09:27.000Z</time></trkpt>
        <trkpt lat="29.542251" lon="103.332031"><ele>2381.8618</ele><time>2026-08-12T13:09:32.000Z</time></trkpt>
        <trkpt lat="29.542254" lon="103.331975"><ele>2381.677</ele><time>2026-08-12T13:09:38.000Z</time></trkpt>
        <trkpt lat="29.54228" lon="103.331932"><ele>2382.6687</ele><time>2026-08-12T13:09:48.000Z</time></trkpt>
        <trkpt lat="29.542305" lon="103.331883"><ele>2381.7148</ele><time>2026-08-12T13:10:00.000Z</time></trkpt>
        <trkpt lat="29.542255" lon="103.331901"><ele>2381.249</ele><time>2026-08-12T13:10:19.000Z</time></trkpt>
        <trkpt lat="29.542208" lon="103.331896"><ele>2381.9158</ele><time>2026-08-12T13:10:24.000Z</time></trkpt>
        <trkpt lat="29.542167" lon="103.331877"><ele>2382.7273</ele><time>2026-08-12T13:10:56.000Z</time></trkpt>
        <trkpt lat="29.542268" lon="103.33191"><ele>2384.7446</ele><time>2026-08-12T13:30:16.000Z</time></trkpt>
        <trkpt lat="29.542214" lon="103.331904"><ele>2386.976</ele><time>2026-08-12T13:30:17.000Z</time></trkpt>
        <trkpt lat="29.542163" lon="103.331863"><ele>2389.434</ele><time>2026-08-12T13:30:20.000Z</time></trkpt>
        <trkpt lat="29.542202" lon="103.331889"><ele>2388.6863</ele><time>2026-08-12T13:30:23.000Z</time></trkpt>
        <trkpt lat="29.542203" lon="103.331946"><ele>2387.057</ele><time>2026-08-12T13:32:32.000Z</time></trkpt>
        <trkpt lat="29.542161" lon="103.331976"><ele>2387.0173</ele><time>2026-08-12T13:32:38.000Z</time></trkpt>
        <trkpt lat="29.542117" lon="103.331967"><ele>2386.6057</ele><time>2026-08-12T13:32:51.000Z</time></trkpt>
        <trkpt lat="29.542072" lon="103.331956"><ele>2386.7788</ele><time>2026-08-12T13:32:58.000Z</time></trkpt>
        <trkpt lat="29.542028" lon="103.331971"><ele>2384.965</ele><time>2026-08-12T13:33:13.000Z</time></trkpt>
        <trkpt lat="29.542025" lon="103.332023"><ele>2384.629</ele><time>2026-08-12T13:33:19.000Z</time></trkpt>
        <trkpt lat="29.541998" lon="103.33207"><ele>2385.1914</ele><time>2026-08-12T13:33:28.000Z</time></trkpt>
        <trkpt lat="29.541952" lon="103.332067"><ele>2385.232</ele><time>2026-08-12T13:33:35.000Z</time></trkpt>
        <trkpt lat="29.541903" lon="103.332066"><ele>2385.148</ele><time>2026-08-12T13:33:42.000Z</time></trkpt>
        <trkpt lat="29.541852" lon="103.332073"><ele>2384.6636</ele><time>2026-08-12T13:33:49.000Z</time></trkpt>
        <trkpt lat="29.541803" lon="103.332071"><ele>2384.5574</ele><time>2026-08-12T13:33:54.000Z</time></trkpt>
        <trkpt lat="29.541749" lon="103.332066"><ele>2384.2283</ele><time>2026-08-12T13:34:01.000Z</time></trkpt>
        <trkpt lat="29.541705" lon="103.332051"><ele>2384.6497</ele><time>2026-08-12T13:34:08.000Z</time></trkpt>
        <trkpt lat="29.541706" lon="103.331997"><ele>2383.5474</ele><time>2026-08-12T13:34:15.000Z</time></trkpt>
        <trkpt lat="29.54172" lon="103.331944"><ele>2383.1394</ele><time>2026-08-12T13:34:20.000Z</time></trkpt>
        <trkpt lat="29.541741" lon="103.331898"><ele>2382.8665</ele><time>2026-08-12T13:34:25.000Z</time></trkpt>
        <trkpt lat="29.541766" lon="103.331853"><ele>2382.4497</ele><time>2026-08-12T13:34:30.000Z</time></trkpt>
        <trkpt lat="29.541789" lon="103.331802"><ele>2381.735</ele><time>2026-08-12T13:34:36.000Z</time></trkpt>
        <trkpt lat="29.541807" lon="103.331749"><ele>2381.0554</ele><time>2026-08-12T13:34:42.000Z</time></trkpt>
        <trkpt lat="29.541809" lon="103.331691"><ele>2380.9595</ele><time>2026-08-12T13:34:49.000Z</time></trkpt>
        <trkpt lat="29.541773" lon="103.331659"><ele>2381.5378</ele><time>2026-08-12T13:35:39.000Z</time></trkpt>
        <trkpt lat="29.541727" lon="103.331673"><ele>2381.095</ele><time>2026-08-12T13:35:47.000Z</time></trkpt>
        <trkpt lat="29.541679" lon="103.331672"><ele>2380.9622</ele><time>2026-08-12T13:36:01.000Z</time></trkpt>
        <trkpt lat="29.541632" lon="103.331679"><ele>2381.386</ele><time>2026-08-12T13:36:06.000Z</time></trkpt>
        <trkpt lat="29.541581" lon="103.331686"><ele>2381.6638</ele><time>2026-08-12T13:36:11.000Z</time></trkpt>
        <trkpt lat="29.541536" lon="103.331688"><ele>2381.799</ele><time>2026-08-12T13:36:16.000Z</time></trkpt>
        <trkpt lat="29.541485" lon="103.331694"><ele>2382.515</ele><time>2026-08-12T13:36:21.000Z</time></trkpt>
        <trkpt lat="29.541434" lon="103.331699"><ele>2383.3816</ele><time>2026-08-12T13:36:27.000Z</time></trkpt>
        <trkpt lat="29.541381" lon="103.331708"><ele>2384.5857</ele><time>2026-08-12T13:36:33.000Z</time></trkpt>
        <trkpt lat="29.541342" lon="103.331724"><ele>2386.7131</ele><time>2026-08-12T13:36:37.000Z</time></trkpt>
        <trkpt lat="29.541301" lon="103.331745"><ele>2387.4373</ele><time>2026-08-12T13:36:42.000Z</time></trkpt>
        <trkpt lat="29.541256" lon="103.331757"><ele>2388.0574</ele><time>2026-08-12T13:36:47.000Z</time></trkpt>
        <trkpt lat="29.541209" lon="103.331776"><ele>2388.9363</ele><time>2026-08-12T13:36:53.000Z</time></trkpt>
        <trkpt lat="29.541162" lon="103.331793"><ele>2389.2507</ele><time>2026-08-12T13:36:59.000Z</time></trkpt>
        <trkpt lat="29.541116" lon="103.331786"><ele>2389.0708</ele><time>2026-08-12T13:37:05.000Z</time></trkpt>
        <trkpt lat="29.541069" lon="103.331792"><ele>2388.3694</ele><time>2026-08-12T13:37:23.000Z</time></trkpt>
        <trkpt lat="29.541022" lon="103.331786"><ele>2387.6858</ele><time>2026-08-12T13:37:31.000Z</time></trkpt>
        <trkpt lat="29.540972" lon="103.331779"><ele>2388.6025</ele><time>2026-08-12T13:37:39.000Z</time></trkpt>
        <trkpt lat="29.540929" lon="103.331759"><ele>2388.5464</ele><time>2026-08-12T13:37:46.000Z</time></trkpt>
        <trkpt lat="29.540887" lon="103.331738"><ele>2389.0671</ele><time>2026-08-12T13:38:07.000Z</time></trkpt>
        <trkpt lat="29.54084" lon="103.331711"><ele>2389.5564</ele><time>2026-08-12T13:38:12.000Z</time></trkpt>
        <trkpt lat="29.540793" lon="103.331694"><ele>2390.004</ele><time>2026-08-12T13:38:17.000Z</time></trkpt>
        <trkpt lat="29.540743" lon="103.331687"><ele>2389.7305</ele><time>2026-08-12T13:38:24.000Z</time></trkpt>
        <trkpt lat="29.540697" lon="103.331672"><ele>2390.0266</ele><time>2026-08-12T13:38:31.000Z</time></trkpt>
        <trkpt lat="29.540647" lon="103.331676"><ele>2390.369</ele><time>2026-08-12T13:38:38.000Z</time></trkpt>
        <trkpt lat="29.540608" lon="103.331707"><ele>2390.9321</ele><time>2026-08-12T13:38:53.000Z</time></trkpt>
        <trkpt lat="29.540576" lon="103.331747"><ele>2392.1248</ele><time>2026-08-12T13:38:58.000Z</time></trkpt>
        <trkpt lat="29.54054" lon="103.331787"><ele>2392.6047</ele><time>2026-08-12T13:39:03.000Z</time></trkpt>
        <trkpt lat="29.540499" lon="103.33181"><ele>2392.5703</ele><time>2026-08-12T13:39:10.000Z</time></trkpt>
        <trkpt lat="29.540452" lon="103.331838"><ele>2392.4553</ele><time>2026-08-12T13:39:17.000Z</time></trkpt>
        <trkpt lat="29.540405" lon="103.33185"><ele>2392.2473</ele><time>2026-08-12T13:39:22.000Z</time></trkpt>
        <trkpt lat="29.540358" lon="103.331845"><ele>2392.194</ele><time>2026-08-12T13:39:29.000Z</time></trkpt>
        <trkpt lat="29.540312" lon="103.331857"><ele>2392.324</ele><time>2026-08-12T13:39:35.000Z</time></trkpt>
        <trkpt lat="29.540269" lon="103.331883"><ele>2392.1274</ele><time>2026-08-12T13:39:41.000Z</time></trkpt>
        <trkpt lat="29.540254" lon="103.331935"><ele>2394.5667</ele><time>2026-08-12T13:39:46.000Z</time></trkpt>
        <trkpt lat="29.540253" lon="103.331986"><ele>2395.5654</ele><time>2026-08-12T13:39:51.000Z</time></trkpt>
        <trkpt lat="29.540225" lon="103.332026"><ele>2395.9937</ele><time>2026-08-12T13:39:58.000Z</time></trkpt>
        <trkpt lat="29.540226" lon="103.332077"><ele>2396.7097</ele><time>2026-08-12T13:40:14.000Z</time></trkpt>
        <trkpt lat="29.540202" lon="103.332128"><ele>2396.5703</ele><time>2026-08-12T13:40:27.000Z</time></trkpt>
        <trkpt lat="29.540216" lon="103.332043"><ele>2396.639</ele><time>2026-08-12T13:41:12.000Z</time></trkpt>
        <trkpt lat="29.540275" lon="103.332077"><ele>2393.04</ele><time>2026-08-12T13:41:14.000Z</time></trkpt>
        <trkpt lat="29.540254" lon="103.332122"><ele>2390.893</ele><time>2026-08-12T13:41:16.000Z</time></trkpt>
        <trkpt lat="29.540205" lon="103.332141"><ele>2390.51</ele><time>2026-08-12T13:41:19.000Z</time></trkpt>
        <trkpt lat="29.540148" lon="103.332125"><ele>2393.25</ele><time>2026-08-12T13:41:21.000Z</time></trkpt>
        <trkpt lat="29.540102" lon="103.332155"><ele>2396.3406</ele><time>2026-08-12T13:41:25.000Z</time></trkpt>
        <trkpt lat="29.540055" lon="103.332154"><ele>2398.7944</ele><time>2026-08-12T13:41:28.000Z</time></trkpt>
        <trkpt lat="29.539992" lon="103.332201"><ele>2398.6873</ele><time>2026-08-12T13:41:32.000Z</time></trkpt>
        <trkpt lat="29.539943" lon="103.33222"><ele>2400.172</ele><time>2026-08-12T13:41:37.000Z</time></trkpt>
        <trkpt lat="29.539896" lon="103.332239"><ele>2400.0586</ele><time>2026-08-12T13:41:41.000Z</time></trkpt>
        <trkpt lat="29.539847" lon="103.332267"><ele>2401.6729</ele><time>2026-08-12T13:41:45.000Z</time></trkpt>
        <trkpt lat="29.539807" lon="103.332293"><ele>2402.7437</ele><time>2026-08-12T13:41:49.000Z</time></trkpt>
        <trkpt lat="29.539764" lon="103.332328"><ele>2401.7698</ele><time>2026-08-12T13:41:54.000Z</time></trkpt>
        <trkpt lat="29.539721" lon="103.332347"><ele>2402.2512</ele><time>2026-08-12T13:41:59.000Z</time></trkpt>
        <trkpt lat="29.539679" lon="103.332377"><ele>2401.974</ele><time>2026-08-12T13:42:05.000Z</time></trkpt>
        <trkpt lat="29.539647" lon="103.332412"><ele>2400.8982</ele><time>2026-08-12T13:42:13.000Z</time></trkpt>
        <trkpt lat="29.539604" lon="103.332436"><ele>2400.554</ele><time>2026-08-12T13:42:21.000Z</time></trkpt>
        <trkpt lat="29.53957" lon="103.33247"><ele>2400.9749</ele><time>2026-08-12T13:42:31.000Z</time></trkpt>
        <trkpt lat="29.539533" lon="103.332499"><ele>2402.1357</ele><time>2026-08-12T13:42:40.000Z</time></trkpt>
        <trkpt lat="29.539491" lon="103.332522"><ele>2402.5876</ele><time>2026-08-12T13:43:10.000Z</time></trkpt>
        <trkpt lat="29.539442" lon="103.332536"><ele>2402.9778</ele><time>2026-08-12T13:43:24.000Z</time></trkpt>
        <trkpt lat="29.539412" lon="103.332582"><ele>2403.647</ele><time>2026-08-12T13:44:42.000Z</time></trkpt>
        <trkpt lat="29.539381" lon="103.332621"><ele>2403.9797</ele><time>2026-08-12T13:44:48.000Z</time></trkpt>
        <trkpt lat="29.539351" lon="103.33266"><ele>2404.1006</ele><time>2026-08-12T13:44:54.000Z</time></trkpt>
        <trkpt lat="29.539319" lon="103.332698"><ele>2404.4387</ele><time>2026-08-12T13:45:00.000Z</time></trkpt>
        <trkpt lat="29.539283" lon="103.332731"><ele>2404.944</ele><time>2026-08-12T13:45:07.000Z</time></trkpt>
        <trkpt lat="29.539247" lon="103.332761"><ele>2405.1187</ele><time>2026-08-12T13:45:16.000Z</time></trkpt>
        <trkpt lat="29.539205" lon="103.332791"><ele>2405.8933</ele><time>2026-08-12T13:45:24.000Z</time></trkpt>
        <trkpt lat="29.539159" lon="103.332815"><ele>2406.9043</ele><time>2026-08-12T13:45:31.000Z</time></trkpt>
        <trkpt lat="29.539112" lon="103.332839"><ele>2407.7852</ele><time>2026-08-12T13:45:37.000Z</time></trkpt>
        <trkpt lat="29.539075" lon="103.332874"><ele>2408.638</ele><time>2026-08-12T13:45:43.000Z</time></trkpt>
        <trkpt lat="29.539039" lon="103.332908"><ele>2408.8525</ele><time>2026-08-12T13:45:49.000Z</time></trkpt>
        <trkpt lat="29.539008" lon="103.332951"><ele>2409.6726</ele><time>2026-08-12T13:45:59.000Z</time></trkpt>
        <trkpt lat="29.53897" lon="103.332983"><ele>2410.9636</ele><time>2026-08-12T13:46:05.000Z</time></trkpt>
        <trkpt lat="29.538927" lon="103.333009"><ele>2411.8293</ele><time>2026-08-12T13:46:12.000Z</time></trkpt>
        <trkpt lat="29.538879" lon="103.33303"><ele>2411.9243</ele><time>2026-08-12T13:46:19.000Z</time></trkpt>
        <trkpt lat="29.538834" lon="103.333051"><ele>2412.1602</ele><time>2026-08-12T13:46:25.000Z</time></trkpt>
        <trkpt lat="29.538789" lon="103.33307"><ele>2412.081</ele><time>2026-08-12T13:46:30.000Z</time></trkpt>
        <trkpt lat="29.538746" lon="103.333086"><ele>2412.6167</ele><time>2026-08-12T13:46:35.000Z</time></trkpt>
        <trkpt lat="29.538703" lon="103.333111"><ele>2413.4705</ele><time>2026-08-12T13:46:41.000Z</time></trkpt>
        <trkpt lat="29.53867" lon="103.333141"><ele>2415.0564</ele><time>2026-08-12T13:46:53.000Z</time></trkpt>
        <trkpt lat="29.538623" lon="103.333158"><ele>2415.2898</ele><time>2026-08-12T13:47:00.000Z</time></trkpt>
        <trkpt lat="29.538575" lon="103.333167"><ele>2415.477</ele><time>2026-08-12T13:47:07.000Z</time></trkpt>
        <trkpt lat="29.538531" lon="103.333178"><ele>2416.1174</ele><time>2026-08-12T13:47:15.000Z</time></trkpt>
        <trkpt lat="29.53848" lon="103.333192"><ele>2416.715</ele><time>2026-08-12T13:47:20.000Z</time></trkpt>
        <trkpt lat="29.538435" lon="103.33321"><ele>2416.898</ele><time>2026-08-12T13:47:28.000Z</time></trkpt>
        <trkpt lat="29.538388" lon="103.333216"><ele>2416.3994</ele><time>2026-08-12T13:47:37.000Z</time></trkpt>
        <trkpt lat="29.538343" lon="103.333228"><ele>2417.8235</ele><time>2026-08-12T13:47:44.000Z</time></trkpt>
        <trkpt lat="29.538297" lon="103.333236"><ele>2418.599</ele><time>2026-08-12T13:47:52.000Z</time></trkpt>
        <trkpt lat="29.538254" lon="103.333268"><ele>2417.9456</ele><time>2026-08-12T13:48:01.000Z</time></trkpt>
        <trkpt lat="29.538207" lon="103.333288"><ele>2417.7102</ele><time>2026-08-12T13:48:08.000Z</time></trkpt>
        <trkpt lat="29.538163" lon="103.33331"><ele>2418.3618</ele><time>2026-08-12T13:48:18.000Z</time></trkpt>
        <trkpt lat="29.53812" lon="103.333336"><ele>2418.2595</ele><time>2026-08-12T13:48:24.000Z</time></trkpt>
        <trkpt lat="29.53808" lon="103.333366"><ele>2418.7068</ele><time>2026-08-12T13:48:29.000Z</time></trkpt>
        <trkpt lat="29.538038" lon="103.333395"><ele>2418.9338</ele><time>2026-08-12T13:48:34.000Z</time></trkpt>
        <trkpt lat="29.537996" lon="103.333421"><ele>2419.2158</ele><time>2026-08-12T13:48:40.000Z</time></trkpt>
        <trkpt lat="29.537951" lon="103.333447"><ele>2419.9243</ele><time>2026-08-12T13:48:48.000Z</time></trkpt>
        <trkpt lat="29.537906" lon="103.33346"><ele>2420.3442</ele><time>2026-08-12T13:48:54.000Z</time></trkpt>
        <trkpt lat="29.537862" lon="103.333471"><ele>2419.8333</ele><time>2026-08-12T13:49:23.000Z</time></trkpt>
        <trkpt lat="29.53783" lon="103.333509"><ele>2419.9956</ele><time>2026-08-12T13:49:38.000Z</time></trkpt>
        <trkpt lat="29.537787" lon="103.33353"><ele>2420.516</ele><time>2026-08-12T13:49:49.000Z</time></trkpt>
        <trkpt lat="29.537748" lon="103.333567"><ele>2420.4238</ele><time>2026-08-12T13:49:56.000Z</time></trkpt>
        <trkpt lat="29.537795" lon="103.33355"><ele>2419.8691</ele><time>2026-08-12T13:50:11.000Z</time></trkpt>
        <trkpt lat="29.537761" lon="103.333583"><ele>2420.0203</ele><time>2026-08-12T13:50:33.000Z</time></trkpt>
        <trkpt lat="29.537723" lon="103.33362"><ele>2420.0137</ele><time>2026-08-12T13:50:39.000Z</time></trkpt>
        <trkpt lat="29.53769" lon="103.333661"><ele>2420.0122</ele><time>2026-08-12T13:50:46.000Z</time></trkpt>
        <trkpt lat="29.537651" lon="103.333699"><ele>2420.23</ele><time>2026-08-12T13:50:56.000Z</time></trkpt>
        <trkpt lat="29.537611" lon="103.333725"><ele>2420.3833</ele><time>2026-08-12T13:51:04.000Z</time></trkpt>
        <trkpt lat="29.537566" lon="103.333739"><ele>2420.441</ele><time>2026-08-12T13:51:13.000Z</time></trkpt>
        <trkpt lat="29.53752" lon="103.333756"><ele>2421.4822</ele><time>2026-08-12T13:51:21.000Z</time></trkpt>
        <trkpt lat="29.537473" lon="103.333771"><ele>2423.759</ele><time>2026-08-12T13:51:32.000Z</time></trkpt>
        <trkpt lat="29.537425" lon="103.333767"><ele>2424.3079</ele><time>2026-08-12T13:51:40.000Z</time></trkpt>
        <trkpt lat="29.537374" lon="103.33376"><ele>2424.771</ele><time>2026-08-12T13:52:02.000Z</time></trkpt>
        <trkpt lat="29.537327" lon="103.333752"><ele>2424.9746</ele><time>2026-08-12T13:52:10.000Z</time></trkpt>
        <trkpt lat="29.537283" lon="103.333774"><ele>2425.6052</ele><time>2026-08-12T13:52:19.000Z</time></trkpt>
        <trkpt lat="29.537265" lon="103.333822"><ele>2428.398</ele><time>2026-08-12T13:52:26.000Z</time></trkpt>
        <trkpt lat="29.537251" lon="103.33386"><ele>2431.6533</ele><time>2026-08-12T13:52:48.000Z</time></trkpt>
        <trkpt lat="29.537245" lon="103.333915"><ele>2431.7334</ele><time>2026-08-12T13:53:36.000Z</time></trkpt>
        <trkpt lat="29.537229" lon="103.333963"><ele>2432.1355</ele><time>2026-08-12T13:53:45.000Z</time></trkpt>
        <trkpt lat="29.537208" lon="103.334012"><ele>2431.8757</ele><time>2026-08-12T13:53:56.000Z</time></trkpt>
        <trkpt lat="29.537195" lon="103.334068"><ele>2432.3523</ele><time>2026-08-12T13:54:04.000Z</time></trkpt>
        <trkpt lat="29.537168" lon="103.334111"><ele>2432.56</ele><time>2026-08-12T13:54:18.000Z</time></trkpt>
        <trkpt lat="29.537122" lon="103.33413"><ele>2433.1992</ele><time>2026-08-12T13:55:54.000Z</time></trkpt>
        <trkpt lat="29.537077" lon="103.334145"><ele>2433.44</ele><time>2026-08-12T13:56:05.000Z</time></trkpt>
        <trkpt lat="29.537034" lon="103.334175"><ele>2434.1362</ele><time>2026-08-12T13:56:12.000Z</time></trkpt>
        <trkpt lat="29.53701" lon="103.334207"><ele>2437.5073</ele><time>2026-08-12T13:56:18.000Z</time></trkpt>
        <trkpt lat="29.536965" lon="103.334225"><ele>2438.602</ele><time>2026-08-12T13:56:34.000Z</time></trkpt>
        <trkpt lat="29.536923" lon="103.334233"><ele>2437.0427</ele><time>2026-08-12T13:59:26.000Z</time></trkpt>
        <trkpt lat="29.536878" lon="103.334255"><ele>2437.1208</ele><time>2026-08-12T13:59:34.000Z</time></trkpt>
        <trkpt lat="29.536839" lon="103.334282"><ele>2437.6555</ele><time>2026-08-12T13:59:43.000Z</time></trkpt>
        <trkpt lat="29.536798" lon="103.334304"><ele>2438.7522</ele><time>2026-08-12T13:59:53.000Z</time></trkpt>
        <trkpt lat="29.536754" lon="103.33432"><ele>2439.7756</ele><time>2026-08-12T14:00:03.000Z</time></trkpt>
        <trkpt lat="29.536706" lon="103.334327"><ele>2440.4282</ele><time>2026-08-12T14:00:11.000Z</time></trkpt>
        <trkpt lat="29.536655" lon="103.334334"><ele>2441.327</ele><time>2026-08-12T14:00:18.000Z</time></trkpt>
        <trkpt lat="29.536609" lon="103.334339"><ele>2443.087</ele><time>2026-08-12T14:00:24.000Z</time></trkpt>
        <trkpt lat="29.536562" lon="103.334345"><ele>2444.6667</ele><time>2026-08-12T14:00:31.000Z</time></trkpt>
        <trkpt lat="29.536521" lon="103.334355"><ele>2447.3945</ele><time>2026-08-12T14:00:38.000Z</time></trkpt>
        <trkpt lat="29.536473" lon="103.334347"><ele>2449.2656</ele><time>2026-08-12T14:00:45.000Z</time></trkpt>
        <trkpt lat="29.53643" lon="103.33436"><ele>2450.4287</ele><time>2026-08-12T14:01:29.000Z</time></trkpt>
        <trkpt lat="29.536389" lon="103.334365"><ele>2447.855</ele><time>2026-08-12T14:03:24.000Z</time></trkpt>
        <trkpt lat="29.536339" lon="103.334361"><ele>2447.493</ele><time>2026-08-12T14:03:33.000Z</time></trkpt>
        <trkpt lat="29.536294" lon="103.33435"><ele>2447.4282</ele><time>2026-08-12T14:03:41.000Z</time></trkpt>
        <trkpt lat="29.536249" lon="103.334342"><ele>2448.3613</ele><time>2026-08-12T14:03:50.000Z</time></trkpt>
        <trkpt lat="29.536205" lon="103.33432"><ele>2448.9883</ele><time>2026-08-12T14:03:59.000Z</time></trkpt>
        <trkpt lat="29.536165" lon="103.334299"><ele>2450.1536</ele><time>2026-08-12T14:04:45.000Z</time></trkpt>
        <trkpt lat="29.536119" lon="103.334279"><ele>2450.7634</ele><time>2026-08-12T14:04:52.000Z</time></trkpt>
        <trkpt lat="29.536078" lon="103.334257"><ele>2452.0063</ele><time>2026-08-12T14:04:59.000Z</time></trkpt>
        <trkpt lat="29.53603" lon="103.334226"><ele>2452.1252</ele><time>2026-08-12T14:06:23.000Z</time></trkpt>
        <trkpt lat="29.535985" lon="103.334209"><ele>2452.3098</ele><time>2026-08-12T14:06:33.000Z</time></trkpt>
        <trkpt lat="29.535946" lon="103.334173"><ele>2452.5095</ele><time>2026-08-12T14:06:42.000Z</time></trkpt>
        <trkpt lat="29.535907" lon="103.334146"><ele>2453.7507</ele><time>2026-08-12T14:06:49.000Z</time></trkpt>
        <trkpt lat="29.535864" lon="103.334127"><ele>2454.4844</ele><time>2026-08-12T14:06:59.000Z</time></trkpt>
        <trkpt lat="29.535822" lon="103.334116"><ele>2456.631</ele><time>2026-08-12T14:07:52.000Z</time></trkpt>
        <trkpt lat="29.535787" lon="103.334085"><ele>2459.2002</ele><time>2026-08-12T14:09:11.000Z</time></trkpt>
        <trkpt lat="29.535748" lon="103.334055"><ele>2460.1963</ele><time>2026-08-12T14:09:16.000Z</time></trkpt>
        <trkpt lat="29.535711" lon="103.334025"><ele>2460.797</ele><time>2026-08-12T14:09:21.000Z</time></trkpt>
        <trkpt lat="29.535672" lon="103.333999"><ele>2460.4736</ele><time>2026-08-12T14:09:27.000Z</time></trkpt>
        <trkpt lat="29.535638" lon="103.333968"><ele>2461.8943</ele><time>2026-08-12T14:09:34.000Z</time></trkpt>
        <trkpt lat="29.535609" lon="103.333943"><ele>2465.101</ele><time>2026-08-12T14:15:28.000Z</time></trkpt>
        <trkpt lat="29.535584" lon="103.333901"><ele>2464.613</ele><time>2026-08-12T14:15:39.000Z</time></trkpt>
        <trkpt lat="29.535549" lon="103.333867"><ele>2466.527</ele><time>2026-08-12T14:15:49.000Z</time></trkpt>
        <trkpt lat="29.535533" lon="103.333816"><ele>2467.916</ele><time>2026-08-12T14:16:01.000Z</time></trkpt>
        <trkpt lat="29.535499" lon="103.333782"><ele>2469.0393</ele><time>2026-08-12T14:16:36.000Z</time></trkpt>
        <trkpt lat="29.535457" lon="103.333749"><ele>2469.9407</ele><time>2026-08-12T14:16:42.000Z</time></trkpt>
        <trkpt lat="29.535417" lon="103.333715"><ele>2470.222</ele><time>2026-08-12T14:16:47.000Z</time></trkpt>
        <trkpt lat="29.535391" lon="103.333669"><ele>2470.245</ele><time>2026-08-12T14:16:53.000Z</time></trkpt>
        <trkpt lat="29.535379" lon="103.333617"><ele>2471.0217</ele><time>2026-08-12T14:16:59.000Z</time></trkpt>
        <trkpt lat="29.535381" lon="103.333565"><ele>2471.9722</ele><time>2026-08-12T14:17:07.000Z</time></trkpt>
        <trkpt lat="29.535387" lon="103.33351"><ele>2472.1294</ele><time>2026-08-12T14:17:40.000Z</time></trkpt>
        <trkpt lat="29.535402" lon="103.333461"><ele>2472.2449</ele><time>2026-08-12T14:17:46.000Z</time></trkpt>
        <trkpt lat="29.535411" lon="103.333409"><ele>2472.1523</ele><time>2026-08-12T14:18:34.000Z</time></trkpt>
        <trkpt lat="29.535419" lon="103.333355"><ele>2471.764</ele><time>2026-08-12T14:18:38.000Z</time></trkpt>
        <trkpt lat="29.535416" lon="103.333298"><ele>2471.3809</ele><time>2026-08-12T14:18:44.000Z</time></trkpt>
        <trkpt lat="29.535416" lon="103.333244"><ele>2471.3167</ele><time>2026-08-12T14:18:49.000Z</time></trkpt>
        <trkpt lat="29.535413" lon="103.333185"><ele>2471.715</ele><time>2026-08-12T14:18:55.000Z</time></trkpt>
        <trkpt lat="29.535399" lon="103.333126"><ele>2472.1086</ele><time>2026-08-12T14:19:01.000Z</time></trkpt>
        <trkpt lat="29.535382" lon="103.333074"><ele>2472.3562</ele><time>2026-08-12T14:19:06.000Z</time></trkpt>
        <trkpt lat="29.535366" lon="103.333021"><ele>2472.507</ele><time>2026-08-12T14:19:12.000Z</time></trkpt>
        <trkpt lat="29.535343" lon="103.332968"><ele>2473.1704</ele><time>2026-08-12T14:19:18.000Z</time></trkpt>
        <trkpt lat="29.535314" lon="103.332929"><ele>2473.9902</ele><time>2026-08-12T14:19:23.000Z</time></trkpt>
        <trkpt lat="29.535279" lon="103.332893"><ele>2474.284</ele><time>2026-08-12T14:19:28.000Z</time></trkpt>
        <trkpt lat="29.535243" lon="103.332854"><ele>2474.8477</ele><time>2026-08-12T14:19:33.000Z</time></trkpt>
        <trkpt lat="29.535211" lon="103.332814"><ele>2475.654</ele><time>2026-08-12T14:19:38.000Z</time></trkpt>
        <trkpt lat="29.535172" lon="103.332781"><ele>2476.714</ele><time>2026-08-12T14:20:02.000Z</time></trkpt>
        <trkpt lat="29.535129" lon="103.332743"><ele>2477.4338</ele><time>2026-08-12T14:20:07.000Z</time></trkpt>
        <trkpt lat="29.535085" lon="103.332707"><ele>2477.4016</ele><time>2026-08-12T14:20:12.000Z</time></trkpt>
        <trkpt lat="29.535051" lon="103.332661"><ele>2477.3572</ele><time>2026-08-12T14:20:18.000Z</time></trkpt>
        <trkpt lat="29.535026" lon="103.332607"><ele>2476.8064</ele><time>2026-08-12T14:20:24.000Z</time></trkpt>
        <trkpt lat="29.53501" lon="103.332559"><ele>2475.9045</ele><time>2026-08-12T14:20:29.000Z</time></trkpt>
        <trkpt lat="29.535" lon="103.3325"><ele>2475.2217</ele><time>2026-08-12T14:20:35.000Z</time></trkpt>
        <trkpt lat="29.535" lon="103.33244"><ele>2475.3743</ele><time>2026-08-12T14:20:41.000Z</time></trkpt>
        <trkpt lat="29.535" lon="103.332389"><ele>2476.2043</ele><time>2026-08-12T14:20:46.000Z</time></trkpt>
        <trkpt lat="29.535002" lon="103.332331"><ele>2477.427</ele><time>2026-08-12T14:20:51.000Z</time></trkpt>
        <trkpt lat="29.535008" lon="103.332276"><ele>2478.0745</ele><time>2026-08-12T14:20:57.000Z</time></trkpt>
        <trkpt lat="29.534998" lon="103.332226"><ele>2478.7454</ele><time>2026-08-12T14:21:04.000Z</time></trkpt>
        <trkpt lat="29.534985" lon="103.332169"><ele>2479.5</ele><time>2026-08-12T14:21:14.000Z</time></trkpt>
        <trkpt lat="29.534983" lon="103.332111"><ele>2480.2776</ele><time>2026-08-12T14:21:19.000Z</time></trkpt>
        <trkpt lat="29.534979" lon="103.332059"><ele>2480.1829</ele><time>2026-08-12T14:21:27.000Z</time></trkpt>
        <trkpt lat="29.534977" lon="103.332007"><ele>2481.5474</ele><time>2026-08-12T14:21:34.000Z</time></trkpt>
        <trkpt lat="29.534977" lon="103.331947"><ele>2482.3635</ele><time>2026-08-12T14:21:41.000Z</time></trkpt>
        <trkpt lat="29.534965" lon="103.331879"><ele>2481.3293</ele><time>2026-08-12T14:21:48.000Z</time></trkpt>
        <trkpt lat="29.534941" lon="103.331835"><ele>2481.879</ele><time>2026-08-12T14:21:55.000Z</time></trkpt>
        <trkpt lat="29.534943" lon="103.331781"><ele>2481.7693</ele><time>2026-08-12T14:22:02.000Z</time></trkpt>
        <trkpt lat="29.534943" lon="103.331723"><ele>2482.1106</ele><time>2026-08-12T14:22:07.000Z</time></trkpt>
        <trkpt lat="29.534936" lon="103.33167"><ele>2482.1914</ele><time>2026-08-12T14:22:12.000Z</time></trkpt>
        <trkpt lat="29.53493" lon="103.331611"><ele>2482.3235</ele><time>2026-08-12T14:22:18.000Z</time></trkpt>
        <trkpt lat="29.534924" lon="103.331556"><ele>2482.4863</ele><time>2026-08-12T14:22:23.000Z</time></trkpt>
        <trkpt lat="29.534919" lon="103.331497"><ele>2482.5598</ele><time>2026-08-12T14:22:29.000Z</time></trkpt>
        <trkpt lat="29.534907" lon="103.331447"><ele>2482.5552</ele><time>2026-08-12T14:22:35.000Z</time></trkpt>
        <trkpt lat="29.534875" lon="103.331402"><ele>2482.4475</ele><time>2026-08-12T14:22:42.000Z</time></trkpt>
        <trkpt lat="29.534838" lon="103.331366"><ele>2482.3171</ele><time>2026-08-12T14:22:48.000Z</time></trkpt>
        <trkpt lat="29.534791" lon="103.331347"><ele>2482.0266</ele><time>2026-08-12T14:23:01.000Z</time></trkpt>
        <trkpt lat="29.534746" lon="103.33134"><ele>2481.7527</ele><time>2026-08-12T14:23:07.000Z</time></trkpt>
        <trkpt lat="29.534709" lon="103.331377"><ele>2482.0764</ele><time>2026-08-12T14:23:15.000Z</time></trkpt>
        <trkpt lat="29.534685" lon="103.331424"><ele>2483.227</ele><time>2026-08-12T14:23:33.000Z</time></trkpt>
        <trkpt lat="29.534673" lon="103.331479"><ele>2483.3137</ele><time>2026-08-12T14:23:39.000Z</time></trkpt>
        <trkpt lat="29.534679" lon="103.331532"><ele>2484.0461</ele><time>2026-08-12T14:23:53.000Z</time></trkpt>
        <trkpt lat="29.53468" lon="103.33159"><ele>2484.6125</ele><time>2026-08-12T14:23:59.000Z</time></trkpt>
        <trkpt lat="29.534693" lon="103.33164"><ele>2484.7622</ele><time>2026-08-12T14:24:05.000Z</time></trkpt>
        <trkpt lat="29.534707" lon="103.33169"><ele>2485.3523</ele><time>2026-08-12T14:24:24.000Z</time></trkpt>
        <trkpt lat="29.534712" lon="103.331747"><ele>2486.2644</ele><time>2026-08-12T14:24:31.000Z</time></trkpt>
        <trkpt lat="29.534718" lon="103.331804"><ele>2485.984</ele><time>2026-08-12T14:24:36.000Z</time></trkpt>
        <trkpt lat="29.534731" lon="103.331856"><ele>2485.996</ele><time>2026-08-12T14:24:42.000Z</time></trkpt>
        <trkpt lat="29.53473" lon="103.331909"><ele>2486.8892</ele><time>2026-08-12T14:24:50.000Z</time></trkpt>
        <trkpt lat="29.534732" lon="103.331969"><ele>2487.2932</ele><time>2026-08-12T14:24:56.000Z</time></trkpt>
        <trkpt lat="29.534725" lon="103.332025"><ele>2487.379</ele><time>2026-08-12T14:25:02.000Z</time></trkpt>
        <trkpt lat="29.534712" lon="103.332081"><ele>2488.2598</ele><time>2026-08-12T14:25:09.000Z</time></trkpt>
        <trkpt lat="29.534698" lon="103.332135"><ele>2488.551</ele><time>2026-08-12T14:25:16.000Z</time></trkpt>
        <trkpt lat="29.534678" lon="103.332186"><ele>2488.7234</ele><time>2026-08-12T14:25:23.000Z</time></trkpt>
        <trkpt lat="29.534672" lon="103.332238"><ele>2489.3726</ele><time>2026-08-12T14:25:30.000Z</time></trkpt>
        <trkpt lat="29.534667" lon="103.332291"><ele>2490.207</ele><time>2026-08-12T14:25:36.000Z</time></trkpt>
        <trkpt lat="29.534666" lon="103.332351"><ele>2490.2085</ele><time>2026-08-12T14:25:42.000Z</time></trkpt>
        <trkpt lat="29.53467" lon="103.332412"><ele>2490.1145</ele><time>2026-08-12T14:25:48.000Z</time></trkpt>
        <trkpt lat="29.534679" lon="103.332463"><ele>2490.4866</ele><time>2026-08-12T14:25:53.000Z</time></trkpt>
        <trkpt lat="29.534689" lon="103.332516"><ele>2490.8518</ele><time>2026-08-12T14:25:58.000Z</time></trkpt>
        <trkpt lat="29.534701" lon="103.332566"><ele>2490.409</ele><time>2026-08-12T14:26:03.000Z</time></trkpt>
        <trkpt lat="29.534713" lon="103.332618"><ele>2490.467</ele><time>2026-08-12T14:26:08.000Z</time></trkpt>
        <trkpt lat="29.534738" lon="103.332666"><ele>2491.2014</ele><time>2026-08-12T14:26:17.000Z</time></trkpt>
        <trkpt lat="29.534754" lon="103.332715"><ele>2491.8918</ele><time>2026-08-12T14:26:22.000Z</time></trkpt>
        <trkpt lat="29.534766" lon="103.332765"><ele>2492.2563</ele><time>2026-08-12T14:26:27.000Z</time></trkpt>
        <trkpt lat="29.534788" lon="103.332818"><ele>2492.7136</ele><time>2026-08-12T14:26:33.000Z</time></trkpt>
        <trkpt lat="29.534816" lon="103.332863"><ele>2493.3928</ele><time>2026-08-12T14:26:39.000Z</time></trkpt>
        <trkpt lat="29.534791" lon="103.332908"><ele>2494.75</ele><time>2026-08-12T14:26:49.000Z</time></trkpt>
        <trkpt lat="29.534749" lon="103.332916"><ele>2496.703</ele><time>2026-08-12T14:26:54.000Z</time></trkpt>
        <trkpt lat="29.534718" lon="103.332936"><ele>2500.0027</ele><time>2026-08-12T14:27:18.000Z</time></trkpt>
        <trkpt lat="29.534676" lon="103.33294"><ele>2502.2817</ele><time>2026-08-12T14:27:55.000Z</time></trkpt>
        <trkpt lat="29.534635" lon="103.332966"><ele>2502.5022</ele><time>2026-08-12T14:28:10.000Z</time></trkpt>
        <trkpt lat="29.534591" lon="103.332981"><ele>2502.6082</ele><time>2026-08-12T14:28:43.000Z</time></trkpt>
        <trkpt lat="29.534534" lon="103.332989"><ele>2502.8643</ele><time>2026-08-12T14:30:37.000Z</time></trkpt>
        <trkpt lat="29.534479" lon="103.332998"><ele>2503.36</ele><time>2026-08-12T14:30:41.000Z</time></trkpt>
        <trkpt lat="29.534428" lon="103.333017"><ele>2503.3396</ele><time>2026-08-12T14:30:46.000Z</time></trkpt>
        <trkpt lat="29.53438" lon="103.333038"><ele>2504.2632</ele><time>2026-08-12T14:30:52.000Z</time></trkpt>
        <trkpt lat="29.534344" lon="103.333068"><ele>2506.3982</ele><time>2026-08-12T14:30:58.000Z</time></trkpt>
        <trkpt lat="29.534317" lon="103.333106"><ele>2508.135</ele><time>2026-08-12T14:31:21.000Z</time></trkpt>
        <trkpt lat="29.534275" lon="103.333105"><ele>2510.1765</ele><time>2026-08-12T14:31:33.000Z</time></trkpt>
        <trkpt lat="29.534234" lon="103.333077"><ele>2511.5476</ele><time>2026-08-12T14:31:40.000Z</time></trkpt>
        <trkpt lat="29.534199" lon="103.333099"><ele>2514.047</ele><time>2026-08-12T14:31:52.000Z</time></trkpt>
        <trkpt lat="29.534164" lon="103.333118"><ele>2516.993</ele><time>2026-08-12T14:33:18.000Z</time></trkpt>
        <trkpt lat="29.534122" lon="103.333136"><ele>2517.7112</ele><time>2026-08-12T14:33:23.000Z</time></trkpt>
        <trkpt lat="29.53408" lon="103.333151"><ele>2518.656</ele><time>2026-08-12T14:33:28.000Z</time></trkpt>
        <trkpt lat="29.534038" lon="103.333178"><ele>2519.587</ele><time>2026-08-12T14:33:35.000Z</time></trkpt>
        <trkpt lat="29.533999" lon="103.333189"><ele>2526.4133</ele><time>2026-08-12T14:34:47.000Z</time></trkpt>
        <trkpt lat="29.533892" lon="103.333223"><ele>2526.4133</ele><time>2026-08-12T14:35:30.000Z</time></trkpt>
        <trkpt lat="29.533846" lon="103.333201"><ele>2526.864</ele><time>2026-08-12T14:36:54.000Z</time></trkpt>
        <trkpt lat="29.533804" lon="103.33316"><ele>2528.4124</ele><time>2026-08-12T14:37:57.000Z</time></trkpt>
        <trkpt lat="29.533767" lon="103.333129"><ele>2529.9182</ele><time>2026-08-12T14:38:08.000Z</time></trkpt>
        <trkpt lat="29.533725" lon="103.333122"><ele>2532.1167</ele><time>2026-08-12T14:39:10.000Z</time></trkpt>
        <trkpt lat="29.533686" lon="103.333089"><ele>2532.489</ele><time>2026-08-12T14:39:20.000Z</time></trkpt>
        <trkpt lat="29.533648" lon="103.333057"><ele>2533.2297</ele><time>2026-08-12T14:39:34.000Z</time></trkpt>
        <trkpt lat="29.53362" lon="103.333027"><ele>2537.2495</ele><time>2026-08-12T14:41:41.000Z</time></trkpt>
        <trkpt lat="29.533583" lon="103.332974"><ele>2538.7407</ele><time>2026-08-12T14:41:54.000Z</time></trkpt>
        <trkpt lat="29.533549" lon="103.332939"><ele>2539.9731</ele><time>2026-08-12T14:41:58.000Z</time></trkpt>
        <trkpt lat="29.533508" lon="103.332914"><ele>2541.2976</ele><time>2026-08-12T14:42:07.000Z</time></trkpt>
        <trkpt lat="29.533468" lon="103.332889"><ele>2542.9412</ele><time>2026-08-12T14:43:33.000Z</time></trkpt>
        <trkpt lat="29.533432" lon="103.332863"><ele>2544.4536</ele><time>2026-08-12T14:43:39.000Z</time></trkpt>
        <trkpt lat="29.533397" lon="103.33283"><ele>2546.4575</ele><time>2026-08-12T14:45:07.000Z</time></trkpt>
        <trkpt lat="29.533356" lon="103.3328"><ele>2549.026</ele><time>2026-08-12T14:45:32.000Z</time></trkpt>
        <trkpt lat="29.533317" lon="103.332767"><ele>2551.3198</ele><time>2026-08-12T14:45:38.000Z</time></trkpt>
        <trkpt lat="29.53327" lon="103.332725"><ele>2551.6533</ele><time>2026-08-12T14:47:31.000Z</time></trkpt>
        <trkpt lat="29.533233" lon="103.332701"><ele>2553.635</ele><time>2026-08-12T14:47:36.000Z</time></trkpt>
        <trkpt lat="29.533196" lon="103.332673"><ele>2555.2422</ele><time>2026-08-12T14:48:28.000Z</time></trkpt>
        <trkpt lat="29.533164" lon="103.332635"><ele>2556.28</ele><time>2026-08-12T14:48:41.000Z</time></trkpt>
        <trkpt lat="29.533123" lon="103.332604"><ele>2557.9355</ele><time>2026-08-12T14:51:45.000Z</time></trkpt>
        <trkpt lat="29.533076" lon="103.332559"><ele>2558.014</ele><time>2026-08-12T14:51:48.000Z</time></trkpt>
        <trkpt lat="29.533042" lon="103.332512"><ele>2557.3086</ele><time>2026-08-12T14:51:52.000Z</time></trkpt>
        <trkpt lat="29.533005" lon="103.332479"><ele>2558.4407</ele><time>2026-08-12T14:51:57.000Z</time></trkpt>
        <trkpt lat="29.532977" lon="103.332439"><ele>2560.8933</ele><time>2026-08-12T14:52:02.000Z</time></trkpt>
        <trkpt lat="29.532937" lon="103.332409"><ele>2562.6877</ele><time>2026-08-12T14:52:53.000Z</time></trkpt>
        <trkpt lat="29.532896" lon="103.332369"><ele>2564.1782</ele><time>2026-08-12T14:52:59.000Z</time></trkpt>
        <trkpt lat="29.53287" lon="103.332333"><ele>2566.3125</ele><time>2026-08-12T14:53:08.000Z</time></trkpt>
        <trkpt lat="29.532836" lon="103.332301"><ele>2567.5754</ele><time>2026-08-12T14:53:45.000Z</time></trkpt>
        <trkpt lat="29.532808" lon="103.332259"><ele>2569.3943</ele><time>2026-08-12T14:53:55.000Z</time></trkpt>
        <trkpt lat="29.532782" lon="103.332222"><ele>2572.4253</ele><time>2026-08-12T14:54:02.000Z</time></trkpt>
        <trkpt lat="29.532767" lon="103.332176"><ele>2575.3164</ele><time>2026-08-12T14:54:10.000Z</time></trkpt>
        <trkpt lat="29.532736" lon="103.332136"><ele>2577.2083</ele><time>2026-08-12T14:54:19.000Z</time></trkpt>
        <trkpt lat="29.532703" lon="103.332097"><ele>2577.9578</ele><time>2026-08-12T14:54:28.000Z</time></trkpt>
        <trkpt lat="29.53267" lon="103.332064"><ele>2580.0618</ele><time>2026-08-12T14:54:39.000Z</time></trkpt>
        <trkpt lat="29.532674" lon="103.332026"><ele>2583.3984</ele><time>2026-08-12T14:56:37.000Z</time></trkpt>
        <trkpt lat="29.532634" lon="103.332007"><ele>2585.5364</ele><time>2026-08-12T15:00:31.000Z</time></trkpt>
        <trkpt lat="29.532591" lon="103.331981"><ele>2585.407</ele><time>2026-08-12T15:00:45.000Z</time></trkpt>
        <trkpt lat="29.532561" lon="103.331943"><ele>2586.1948</ele><time>2026-08-12T15:01:39.000Z</time></trkpt>
        <trkpt lat="29.53254" lon="103.331896"><ele>2586.5066</ele><time>2026-08-12T15:01:48.000Z</time></trkpt>
        <trkpt lat="29.532534" lon="103.331844"><ele>2587.2583</ele><time>2026-08-12T15:01:59.000Z</time></trkpt>
        <trkpt lat="29.53251" lon="103.331793"><ele>2588.7002</ele><time>2026-08-12T15:03:17.000Z</time></trkpt>
        <trkpt lat="29.532497" lon="103.33174"><ele>2590.74</ele><time>2026-08-12T15:03:26.000Z</time></trkpt>
        <trkpt lat="29.532473" lon="103.331692"><ele>2591.467</ele><time>2026-08-12T15:04:20.000Z</time></trkpt>
        <trkpt lat="29.532443" lon="103.331657"><ele>2593.2031</ele><time>2026-08-12T15:04:29.000Z</time></trkpt>
        <trkpt lat="29.53241" lon="103.331621"><ele>2595.5264</ele><time>2026-08-12T15:05:07.000Z</time></trkpt>
        <trkpt lat="29.532388" lon="103.331573"><ele>2596.8892</ele><time>2026-08-12T15:05:15.000Z</time></trkpt>
        <trkpt lat="29.53238" lon="103.331521"><ele>2598.7002</ele><time>2026-08-12T15:05:23.000Z</time></trkpt>
        <trkpt lat="29.532373" lon="103.33147"><ele>2600.3318</ele><time>2026-08-12T15:05:33.000Z</time></trkpt>
        <trkpt lat="29.532361" lon="103.331428"><ele>2603.4312</ele><time>2026-08-12T15:05:41.000Z</time></trkpt>
        <trkpt lat="29.532352" lon="103.331387"><ele>2607.0535</ele><time>2026-08-12T15:05:49.000Z</time></trkpt>
        <trkpt lat="29.532324" lon="103.33134"><ele>2608.1902</ele><time>2026-08-12T15:05:57.000Z</time></trkpt>
        <trkpt lat="29.532294" lon="103.331296"><ele>2609.4998</ele><time>2026-08-12T15:06:04.000Z</time></trkpt>
        <trkpt lat="29.532273" lon="103.331246"><ele>2610.5361</ele><time>2026-08-12T15:06:12.000Z</time></trkpt>
        <trkpt lat="29.532266" lon="103.33119"><ele>2610.3674</ele><time>2026-08-12T15:06:21.000Z</time></trkpt>
        <trkpt lat="29.53228" lon="103.331139"><ele>2610.954</ele><time>2026-08-12T15:06:30.000Z</time></trkpt>
        <trkpt lat="29.532293" lon="103.331132"><ele>2611.4946</ele><time>2026-08-12T15:09:58.000Z</time></trkpt>
        <trkpt lat="29.532294" lon="103.331133"><ele>2611.4946</ele><time>2026-08-12T15:10:42.000Z</time></trkpt>
        <trkpt lat="29.532523" lon="103.331099"><ele>2607.066</ele><time>2026-08-12T15:39:58.000Z</time></trkpt>
        <trkpt lat="29.532435" lon="103.331098"><ele>2607.0928</ele><time>2026-08-12T15:39:59.000Z</time></trkpt>
        <trkpt lat="29.53235" lon="103.331129"><ele>2605.8713</ele><time>2026-08-12T15:40:00.000Z</time></trkpt>
        <trkpt lat="29.532313" lon="103.331138"><ele>2609.2913</ele><time>2026-08-12T15:40:03.000Z</time></trkpt>
        <trkpt lat="29.532315" lon="103.331127"><ele>2614.449</ele><time>2026-08-12T15:40:20.000Z</time></trkpt>
        <trkpt lat="29.532283" lon="103.331161"><ele>2616.1482</ele><time>2026-08-12T15:43:04.000Z</time></trkpt>
        <trkpt lat="29.532278" lon="103.331213"><ele>2618.6387</ele><time>2026-08-12T15:43:13.000Z</time></trkpt>
        <trkpt lat="29.532249" lon="103.331251"><ele>2620.2405</ele><time>2026-08-12T15:43:22.000Z</time></trkpt>
        <trkpt lat="29.532238" lon="103.331302"><ele>2622.0286</ele><time>2026-08-12T15:43:31.000Z</time></trkpt>
        <trkpt lat="29.532206" lon="103.331344"><ele>2623.6577</ele><time>2026-08-12T15:43:39.000Z</time></trkpt>
        <trkpt lat="29.532195" lon="103.331391"><ele>2625.4749</ele><time>2026-08-12T15:43:50.000Z</time></trkpt>
        <trkpt lat="29.532169" lon="103.33135"><ele>2626.539</ele><time>2026-08-12T15:44:01.000Z</time></trkpt>
        <trkpt lat="29.532151" lon="103.331304"><ele>2627.5188</ele><time>2026-08-12T15:44:27.000Z</time></trkpt>
        <trkpt lat="29.532138" lon="103.331253"><ele>2628.7195</ele><time>2026-08-12T15:44:35.000Z</time></trkpt>
        <trkpt lat="29.532135" lon="103.331199"><ele>2629.8958</ele><time>2026-08-12T15:44:44.000Z</time></trkpt>
        <trkpt lat="29.532133" lon="103.331148"><ele>2631.9714</ele><time>2026-08-12T15:44:54.000Z</time></trkpt>
        <trkpt lat="29.532136" lon="103.3311"><ele>2634.7551</ele><time>2026-08-12T15:45:04.000Z</time></trkpt>
        <trkpt lat="29.53214" lon="103.331043"><ele>2635.384</ele><time>2026-08-12T15:45:49.000Z</time></trkpt>
        <trkpt lat="29.532151" lon="103.330998"><ele>2638.0671</ele><time>2026-08-12T15:46:18.000Z</time></trkpt>
        <trkpt lat="29.532153" lon="103.330942"><ele>2638.5676</ele><time>2026-08-12T15:46:25.000Z</time></trkpt>
        <trkpt lat="29.532171" lon="103.330891"><ele>2639.2358</ele><time>2026-08-12T15:46:33.000Z</time></trkpt>
        <trkpt lat="29.532165" lon="103.330839"><ele>2639.757</ele><time>2026-08-12T15:46:40.000Z</time></trkpt>
        <trkpt lat="29.532152" lon="103.330786"><ele>2640.1904</ele><time>2026-08-12T15:46:47.000Z</time></trkpt>
        <trkpt lat="29.532133" lon="103.330737"><ele>2640.0579</ele><time>2026-08-12T15:46:52.000Z</time></trkpt>
        <trkpt lat="29.532143" lon="103.33068"><ele>2640.6094</ele><time>2026-08-12T15:47:00.000Z</time></trkpt>
        <trkpt lat="29.532162" lon="103.330632"><ele>2641.6316</ele><time>2026-08-12T15:47:07.000Z</time></trkpt>
        <trkpt lat="29.532159" lon="103.330573"><ele>2641.1543</ele><time>2026-08-12T15:47:38.000Z</time></trkpt>
        <trkpt lat="29.532149" lon="103.330521"><ele>2641.4966</ele><time>2026-08-12T15:47:44.000Z</time></trkpt>
        <trkpt lat="29.532157" lon="103.33047"><ele>2641.9138</ele><time>2026-08-12T15:48:01.000Z</time></trkpt>
        <trkpt lat="29.532158" lon="103.330419"><ele>2644.0564</ele><time>2026-08-12T15:48:14.000Z</time></trkpt>
        <trkpt lat="29.532113" lon="103.330402"><ele>2645.8752</ele><time>2026-08-12T15:50:40.000Z</time></trkpt>
        <trkpt lat="29.532095" lon="103.330356"><ele>2647.1484</ele><time>2026-08-12T15:50:54.000Z</time></trkpt>
        <trkpt lat="29.532103" lon="103.330302"><ele>2648.111</ele><time>2026-08-12T15:51:03.000Z</time></trkpt>
        <trkpt lat="29.532129" lon="103.330263"><ele>2649.8464</ele><time>2026-08-12T15:51:12.000Z</time></trkpt>
        <trkpt lat="29.532162" lon="103.330228"><ele>2650.9207</ele><time>2026-08-12T15:51:28.000Z</time></trkpt>
        <trkpt lat="29.532122" lon="103.330211"><ele>2652.8516</ele><time>2026-08-12T15:53:11.000Z</time></trkpt>
        <trkpt lat="29.532078" lon="103.3302"><ele>2654.5127</ele><time>2026-08-12T15:53:19.000Z</time></trkpt>
        <trkpt lat="29.532056" lon="103.330226"><ele>2658.398</ele><time>2026-08-12T15:53:59.000Z</time></trkpt>
        <trkpt lat="29.532014" lon="103.330233"><ele>2660.6367</ele><time>2026-08-12T15:55:43.000Z</time></trkpt>
        <trkpt lat="29.53197" lon="103.330224"><ele>2662.1392</ele><time>2026-08-12T15:55:54.000Z</time></trkpt>
        <trkpt lat="29.531925" lon="103.330218"><ele>2663.8005</ele><time>2026-08-12T15:56:05.000Z</time></trkpt>
        <trkpt lat="29.531882" lon="103.330216"><ele>2665.537</ele><time>2026-08-12T15:56:15.000Z</time></trkpt>
        <trkpt lat="29.531861" lon="103.330226"><ele>2670.066</ele><time>2026-08-12T15:56:19.000Z</time></trkpt>
        <trkpt lat="29.531876" lon="103.330177"><ele>2671.0637</ele><time>2026-08-12T15:56:29.000Z</time></trkpt>
        <trkpt lat="29.53184" lon="103.330177"><ele>2674.268</ele><time>2026-08-12T15:58:19.000Z</time></trkpt>
        <trkpt lat="29.531811" lon="103.330158"><ele>2677.724</ele><time>2026-08-12T15:58:30.000Z</time></trkpt>
        <trkpt lat="29.531776" lon="103.330126"><ele>2678.8328</ele><time>2026-08-12T15:58:41.000Z</time></trkpt>
        <trkpt lat="29.531754" lon="103.330092"><ele>2682.3225</ele><time>2026-08-12T16:00:30.000Z</time></trkpt>
        <trkpt lat="29.53171" lon="103.330073"><ele>2682.7234</ele><time>2026-08-12T16:00:38.000Z</time></trkpt>
        <trkpt lat="29.531667" lon="103.330059"><ele>2682.1235</ele><time>2026-08-12T16:00:46.000Z</time></trkpt>
        <trkpt lat="29.531623" lon="103.330057"><ele>2683.4358</ele><time>2026-08-12T16:00:58.000Z</time></trkpt>
        <trkpt lat="29.531579" lon="103.330047"><ele>2685.1448</ele><time>2026-08-12T16:01:10.000Z</time></trkpt>
        <trkpt lat="29.531545" lon="103.330019"><ele>2687.5178</ele><time>2026-08-12T16:02:54.000Z</time></trkpt>
        <trkpt lat="29.531507" lon="103.329994"><ele>2688.98</ele><time>2026-08-12T16:03:00.000Z</time></trkpt>
        <trkpt lat="29.531466" lon="103.32996"><ele>2690.0474</ele><time>2026-08-12T16:03:11.000Z</time></trkpt>
        <trkpt lat="29.531443" lon="103.329929"><ele>2693.4373</ele><time>2026-08-12T16:03:30.000Z</time></trkpt>
        <trkpt lat="29.531422" lon="103.329891"><ele>2696.3323</ele><time>2026-08-12T16:04:51.000Z</time></trkpt>
        <trkpt lat="29.531378" lon="103.329878"><ele>2696.983</ele><time>2026-08-12T16:05:03.000Z</time></trkpt>
        <trkpt lat="29.531337" lon="103.329865"><ele>2698.975</ele><time>2026-08-12T16:05:13.000Z</time></trkpt>
        <trkpt lat="29.531322" lon="103.329817"><ele>2701.147</ele><time>2026-08-12T16:05:32.000Z</time></trkpt>
        <trkpt lat="29.531308" lon="103.329773"><ele>2704.2651</ele><time>2026-08-12T16:06:48.000Z</time></trkpt>
        <trkpt lat="29.531303" lon="103.329735"><ele>2708.403</ele><time>2026-08-12T16:07:36.000Z</time></trkpt>
        <trkpt lat="29.531272" lon="103.329701"><ele>2710.1904</ele><time>2026-08-12T16:09:33.000Z</time></trkpt>
        <trkpt lat="29.531235" lon="103.329664"><ele>2710.6194</ele><time>2026-08-12T16:11:27.000Z</time></trkpt>
        <trkpt lat="29.531187" lon="103.329629"><ele>2711.455</ele><time>2026-08-12T16:11:48.000Z</time></trkpt>
        <trkpt lat="29.531177" lon="103.329582"><ele>2714.1729</ele><time>2026-08-12T16:12:07.000Z</time></trkpt>
        <trkpt lat="29.531147" lon="103.329549"><ele>2716.5464</ele><time>2026-08-12T16:12:16.000Z</time></trkpt>
        <trkpt lat="29.531136" lon="103.329505"><ele>2719.3994</ele><time>2026-08-12T16:12:32.000Z</time></trkpt>
        <trkpt lat="29.53112" lon="103.329467"><ele>2722.5205</ele><time>2026-08-12T16:12:40.000Z</time></trkpt>
        <trkpt lat="29.531107" lon="103.329426"><ele>2725.4463</ele><time>2026-08-12T16:14:09.000Z</time></trkpt>
        <trkpt lat="29.531093" lon="103.329373"><ele>2725.4363</ele><time>2026-08-12T16:14:20.000Z</time></trkpt>
        <trkpt lat="29.531087" lon="103.329316"><ele>2725.197</ele><time>2026-08-12T16:14:35.000Z</time></trkpt>
        <trkpt lat="29.531081" lon="103.329259"><ele>2725.6091</ele><time>2026-08-12T16:14:51.000Z</time></trkpt>
        <trkpt lat="29.531075" lon="103.329206"><ele>2726.6</ele><time>2026-08-12T16:14:57.000Z</time></trkpt>
        <trkpt lat="29.531069" lon="103.32915"><ele>2728.0513</ele><time>2026-08-12T16:15:06.000Z</time></trkpt>
        <trkpt lat="29.531068" lon="103.329095"><ele>2729.0056</ele><time>2026-08-12T16:15:14.000Z</time></trkpt>
        <trkpt lat="29.531059" lon="103.329041"><ele>2729.3296</ele><time>2026-08-12T16:15:57.000Z</time></trkpt>
        <trkpt lat="29.531055" lon="103.328987"><ele>2730.1433</ele><time>2026-08-12T16:16:05.000Z</time></trkpt>
        <trkpt lat="29.53106" lon="103.328931"><ele>2730.9768</ele><time>2026-08-12T16:16:16.000Z</time></trkpt>
        <trkpt lat="29.531057" lon="103.328878"><ele>2731.763</ele><time>2026-08-12T16:16:25.000Z</time></trkpt>
        <trkpt lat="29.531071" lon="103.328827"><ele>2732.9197</ele><time>2026-08-12T16:16:36.000Z</time></trkpt>
        <trkpt lat="29.531095" lon="103.328779"><ele>2733.7573</ele><time>2026-08-12T16:16:47.000Z</time></trkpt>
        <trkpt lat="29.531113" lon="103.328729"><ele>2734.289</ele><time>2026-08-12T16:20:04.000Z</time></trkpt>
        <trkpt lat="29.531117" lon="103.328674"><ele>2734.3035</ele><time>2026-08-12T16:20:20.000Z</time></trkpt>
        <trkpt lat="29.531127" lon="103.328623"><ele>2734.3845</ele><time>2026-08-12T16:20:55.000Z</time></trkpt>
        <trkpt lat="29.531142" lon="103.328572"><ele>2734.3818</ele><time>2026-08-12T16:21:05.000Z</time></trkpt>
        <trkpt lat="29.531146" lon="103.328521"><ele>2734.1184</ele><time>2026-08-12T16:21:13.000Z</time></trkpt>
        <trkpt lat="29.531164" lon="103.328469"><ele>2734.5881</ele><time>2026-08-12T16:21:37.000Z</time></trkpt>
        <trkpt lat="29.531187" lon="103.328418"><ele>2735.7031</ele><time>2026-08-12T16:21:44.000Z</time></trkpt>
        <trkpt lat="29.5312" lon="103.32837"><ele>2736.7766</ele><time>2026-08-12T16:21:59.000Z</time></trkpt>
        <trkpt lat="29.531208" lon="103.328316"><ele>2738.3826</ele><time>2026-08-12T16:22:05.000Z</time></trkpt>
        <trkpt lat="29.531199" lon="103.328258"><ele>2738.6074</ele><time>2026-08-12T16:26:02.000Z</time></trkpt>
        <trkpt lat="29.531215" lon="103.328204"><ele>2738.8103</ele><time>2026-08-12T16:26:07.000Z</time></trkpt>
        <trkpt lat="29.531237" lon="103.328154"><ele>2739.4734</ele><time>2026-08-12T16:26:12.000Z</time></trkpt>
        <trkpt lat="29.531218" lon="103.328089"><ele>2740.2068</ele><time>2026-08-12T16:26:21.000Z</time></trkpt>
        <trkpt lat="29.531222" lon="103.328031"><ele>2739.5942</ele><time>2026-08-12T16:26:28.000Z</time></trkpt>
        <trkpt lat="29.531221" lon="103.327978"><ele>2740.5608</ele><time>2026-08-12T16:26:35.000Z</time></trkpt>
        <trkpt lat="29.531233" lon="103.327923"><ele>2742.0107</ele><time>2026-08-12T16:26:43.000Z</time></trkpt>
        <trkpt lat="29.531226" lon="103.327872"><ele>2742.9019</ele><time>2026-08-12T16:26:50.000Z</time></trkpt>
        <trkpt lat="29.531204" lon="103.327821"><ele>2743.523</ele><time>2026-08-12T16:27:06.000Z</time></trkpt>
        <trkpt lat="29.5312" lon="103.327771"><ele>2745.0615</ele><time>2026-08-12T16:27:20.000Z</time></trkpt>
        <trkpt lat="29.531207" lon="103.327731"><ele>2748.1653</ele><time>2026-08-12T16:30:09.000Z</time></trkpt>
        <trkpt lat="29.531203" lon="103.327678"><ele>2749.6167</ele><time>2026-08-12T16:31:25.000Z</time></trkpt>
        <trkpt lat="29.531205" lon="103.327625"><ele>2750.4133</ele><time>2026-08-12T16:31:34.000Z</time></trkpt>
        <trkpt lat="29.531188" lon="103.327573"><ele>2752.0369</ele><time>2026-08-12T16:31:42.000Z</time></trkpt>
        <trkpt lat="29.531193" lon="103.327525"><ele>2754.5273</ele><time>2026-08-12T16:31:51.000Z</time></trkpt>
        <trkpt lat="29.531185" lon="103.327475"><ele>2755.6934</ele><time>2026-08-12T16:32:02.000Z</time></trkpt>
        <trkpt lat="29.531186" lon="103.327415"><ele>2757.9211</ele><time>2026-08-12T16:32:13.000Z</time></trkpt>
        <trkpt lat="29.531185" lon="103.327366"><ele>2759.4192</ele><time>2026-08-12T16:32:48.000Z</time></trkpt>
        <trkpt lat="29.531195" lon="103.327314"><ele>2760.5552</ele><time>2026-08-12T16:33:06.000Z</time></trkpt>
        <trkpt lat="29.53119" lon="103.327265"><ele>2762.3542</ele><time>2026-08-12T16:33:32.000Z</time></trkpt>
        <trkpt lat="29.531173" lon="103.327217"><ele>2764.006</ele><time>2026-08-12T16:33:39.000Z</time></trkpt>
        <trkpt lat="29.531166" lon="103.327169"><ele>2766.4104</ele><time>2026-08-12T16:33:47.000Z</time></trkpt>
        <trkpt lat="29.531158" lon="103.327125"><ele>2768.9963</ele><time>2026-08-12T16:35:33.000Z</time></trkpt>
        <trkpt lat="29.531132" lon="103.327081"><ele>2771.0698</ele><time>2026-08-12T16:36:41.000Z</time></trkpt>
        <trkpt lat="29.531088" lon="103.327061"><ele>2771.2012</ele><time>2026-08-12T16:37:00.000Z</time></trkpt>
        <trkpt lat="29.531051" lon="103.327031"><ele>2772.9932</ele><time>2026-08-12T16:37:09.000Z</time></trkpt>
        <trkpt lat="29.531026" lon="103.327005"><ele>2777.0835</ele><time>2026-08-12T16:37:29.000Z</time></trkpt>
        <trkpt lat="29.53099" lon="103.327011"><ele>2780.6472</ele><time>2026-08-12T16:47:01.000Z</time></trkpt>
        <trkpt lat="29.530947" lon="103.326989"><ele>2781.5964</ele><time>2026-08-12T16:47:20.000Z</time></trkpt>
        <trkpt lat="29.530897" lon="103.326981"><ele>2781.3381</ele><time>2026-08-12T16:47:31.000Z</time></trkpt>
        <trkpt lat="29.530858" lon="103.326951"><ele>2781.618</ele><time>2026-08-12T16:47:43.000Z</time></trkpt>
        <trkpt lat="29.53083" lon="103.326908"><ele>2782.3674</ele><time>2026-08-12T16:47:52.000Z</time></trkpt>
        <trkpt lat="29.530797" lon="103.326866"><ele>2782.393</ele><time>2026-08-12T16:48:14.000Z</time></trkpt>
        <trkpt lat="29.530765" lon="103.326829"><ele>2783.2974</ele><time>2026-08-12T16:48:25.000Z</time></trkpt>
        <trkpt lat="29.530719" lon="103.326835"><ele>2784.2861</ele><time>2026-08-12T16:50:42.000Z</time></trkpt>
        <trkpt lat="29.530673" lon="103.326841"><ele>2785.1035</ele><time>2026-08-12T16:50:49.000Z</time></trkpt>
        <trkpt lat="29.530629" lon="103.326849"><ele>2787.4397</ele><time>2026-08-12T16:50:59.000Z</time></trkpt>
        <trkpt lat="29.530577" lon="103.326866"><ele>2788.4854</ele><time>2026-08-12T16:51:15.000Z</time></trkpt>
        <trkpt lat="29.530534" lon="103.326887"><ele>2788.8625</ele><time>2026-08-12T16:51:26.000Z</time></trkpt>
        <trkpt lat="29.530496" lon="103.326903"><ele>2791.4312</ele><time>2026-08-12T16:52:28.000Z</time></trkpt>
        <trkpt lat="29.53045" lon="103.326928"><ele>2791.5122</ele><time>2026-08-12T16:52:35.000Z</time></trkpt>
        <trkpt lat="29.530408" lon="103.326949"><ele>2791.7441</ele><time>2026-08-12T16:52:42.000Z</time></trkpt>
        <trkpt lat="29.530364" lon="103.326967"><ele>2792.179</ele><time>2026-08-12T16:52:50.000Z</time></trkpt>
        <trkpt lat="29.530323" lon="103.326995"><ele>2793.381</ele><time>2026-08-12T16:52:59.000Z</time></trkpt>
        <trkpt lat="29.53028" lon="103.327012"><ele>2796.1138</ele><time>2026-08-12T16:53:12.000Z</time></trkpt>
        <trkpt lat="29.530239" lon="103.327029"><ele>2797.8352</ele><time>2026-08-12T16:53:22.000Z</time></trkpt>
        <trkpt lat="29.530194" lon="103.32705"><ele>2798.3284</ele><time>2026-08-12T16:53:37.000Z</time></trkpt>
        <trkpt lat="29.53016" lon="103.327079"><ele>2799.9917</ele><time>2026-08-12T16:53:45.000Z</time></trkpt>
        <trkpt lat="29.530127" lon="103.327113"><ele>2801.013</ele><time>2026-08-12T16:53:52.000Z</time></trkpt>
        <trkpt lat="29.530087" lon="103.327142"><ele>2801.959</ele><time>2026-08-12T16:54:01.000Z</time></trkpt>
        <trkpt lat="29.530053" lon="103.327178"><ele>2801.948</ele><time>2026-08-12T16:54:07.000Z</time></trkpt>
        <trkpt lat="29.530017" lon="103.327212"><ele>2802.9727</ele><time>2026-08-12T16:54:13.000Z</time></trkpt>
        <trkpt lat="29.529982" lon="103.327251"><ele>2804.4104</ele><time>2026-08-12T16:54:19.000Z</time></trkpt>
        <trkpt lat="29.529949" lon="103.32729"><ele>2805.0862</ele><time>2026-08-12T16:54:31.000Z</time></trkpt>
        <trkpt lat="29.52991" lon="103.327324"><ele>2805.1587</ele><time>2026-08-12T16:54:39.000Z</time></trkpt>
        <trkpt lat="29.529875" lon="103.327357"><ele>2805.328</ele><time>2026-08-12T16:54:48.000Z</time></trkpt>
        <trkpt lat="29.529852" lon="103.327394"><ele>2802.4954</ele><time>2026-08-12T16:56:00.000Z</time></trkpt>
        <trkpt lat="29.529828" lon="103.327442"><ele>2803.3198</ele><time>2026-08-12T16:56:07.000Z</time></trkpt>
        <trkpt lat="29.529808" lon="103.327491"><ele>2804.1934</ele><time>2026-08-12T16:56:12.000Z</time></trkpt>
        <trkpt lat="29.529784" lon="103.327536"><ele>2804.8474</ele><time>2026-08-12T16:56:16.000Z</time></trkpt>
        <trkpt lat="29.529758" lon="103.32759"><ele>2803.8252</ele><time>2026-08-12T16:56:21.000Z</time></trkpt>
        <trkpt lat="29.529743" lon="103.327643"><ele>2803.4734</ele><time>2026-08-12T16:56:26.000Z</time></trkpt>
        <trkpt lat="29.529727" lon="103.327695"><ele>2804.5342</ele><time>2026-08-12T16:56:34.000Z</time></trkpt>
        <trkpt lat="29.529707" lon="103.327734"><ele>2807.045</ele><time>2026-08-12T16:56:43.000Z</time></trkpt>
        <trkpt lat="29.529662" lon="103.327752"><ele>2807.8425</ele><time>2026-08-12T16:57:06.000Z</time></trkpt>
        <trkpt lat="29.529612" lon="103.327766"><ele>2808.2725</ele><time>2026-08-12T16:57:46.000Z</time></trkpt>
        <trkpt lat="29.529565" lon="103.32778"><ele>2808.3381</ele><time>2026-08-12T16:57:50.000Z</time></trkpt>
        <trkpt lat="29.529516" lon="103.327806"><ele>2808.0493</ele><time>2026-08-12T16:57:55.000Z</time></trkpt>
        <trkpt lat="29.529501" lon="103.327859"><ele>2807.6597</ele><time>2026-08-12T16:58:01.000Z</time></trkpt>
        <trkpt lat="29.529497" lon="103.327911"><ele>2807.4856</ele><time>2026-08-12T16:58:06.000Z</time></trkpt>
        <trkpt lat="29.529495" lon="103.327963"><ele>2807.2822</ele><time>2026-08-12T16:58:13.000Z</time></trkpt>
        <trkpt lat="29.529497" lon="103.328018"><ele>2808.1243</ele><time>2026-08-12T16:58:19.000Z</time></trkpt>
        <trkpt lat="29.52949" lon="103.328077"><ele>2808.5989</ele><time>2026-08-12T16:58:26.000Z</time></trkpt>
        <trkpt lat="29.529492" lon="103.328132"><ele>2809.101</ele><time>2026-08-12T16:58:33.000Z</time></trkpt>
        <trkpt lat="29.529505" lon="103.328183"><ele>2810.3398</ele><time>2026-08-12T16:58:44.000Z</time></trkpt>
        <trkpt lat="29.529521" lon="103.328236"><ele>2810.6099</ele><time>2026-08-12T16:58:52.000Z</time></trkpt>
        <trkpt lat="29.529567" lon="103.328257"><ele>2810.9543</ele><time>2026-08-12T16:58:57.000Z</time></trkpt>
        <trkpt lat="29.529614" lon="103.328271"><ele>2811.1272</ele><time>2026-08-12T16:59:02.000Z</time></trkpt>
        <trkpt lat="29.529666" lon="103.328287"><ele>2810.522</ele><time>2026-08-12T16:59:08.000Z</time></trkpt>
        <trkpt lat="29.529708" lon="103.328304"><ele>2811.19</ele><time>2026-08-12T16:59:14.000Z</time></trkpt>
        <trkpt lat="29.52974" lon="103.328349"><ele>2812.0115</ele><time>2026-08-12T16:59:21.000Z</time></trkpt>
        <trkpt lat="29.529786" lon="103.32837"><ele>2811.9998</ele><time>2026-08-12T16:59:27.000Z</time></trkpt>
        <trkpt lat="29.529831" lon="103.328389"><ele>2812.1724</ele><time>2026-08-12T16:59:32.000Z</time></trkpt>
        <trkpt lat="29.529867" lon="103.32842"><ele>2811.882</ele><time>2026-08-12T16:59:39.000Z</time></trkpt>
        <trkpt lat="29.52988" lon="103.328472"><ele>2810.1265</ele><time>2026-08-12T16:59:47.000Z</time></trkpt>
        <trkpt lat="29.52989" lon="103.328522"><ele>2809.472</ele><time>2026-08-12T16:59:53.000Z</time></trkpt>
        <trkpt lat="29.529916" lon="103.328567"><ele>2809.4702</ele><time>2026-08-12T16:59:59.000Z</time></trkpt>
        <trkpt lat="29.52996" lon="103.328582"><ele>2810.7197</ele><time>2026-08-12T17:00:05.000Z</time></trkpt>
        <trkpt lat="29.529915" lon="103.328592"><ele>2818.4578</ele><time>2026-08-12T17:02:04.000Z</time></trkpt>
        <trkpt lat="29.529892" lon="103.328549"><ele>2816.9016</ele><time>2026-08-12T17:02:15.000Z</time></trkpt>
        <trkpt lat="29.529891" lon="103.328493"><ele>2815.961</ele><time>2026-08-12T17:02:52.000Z</time></trkpt>
        <trkpt lat="29.52987" lon="103.328443"><ele>2815.6995</ele><time>2026-08-12T17:02:58.000Z</time></trkpt>
        <trkpt lat="29.529835" lon="103.328409"><ele>2815.5625</ele><time>2026-08-12T17:03:04.000Z</time></trkpt>
        <trkpt lat="29.529799" lon="103.328378"><ele>2815.655</ele><time>2026-08-12T17:03:10.000Z</time></trkpt>
        <trkpt lat="29.529753" lon="103.328355"><ele>2816.0547</ele><time>2026-08-12T17:03:16.000Z</time></trkpt>
        <trkpt lat="29.529715" lon="103.328321"><ele>2816.247</ele><time>2026-08-12T17:03:23.000Z</time></trkpt>
        <trkpt lat="29.529693" lon="103.328269"><ele>2816.4922</ele><time>2026-08-12T17:03:29.000Z</time></trkpt>
        <trkpt lat="29.529649" lon="103.328247"><ele>2816.9602</ele><time>2026-08-12T17:03:35.000Z</time></trkpt>
        <trkpt lat="29.529599" lon="103.32825"><ele>2817.102</ele><time>2026-08-12T17:03:41.000Z</time></trkpt>
        <trkpt lat="29.529548" lon="103.328256"><ele>2817.47</ele><time>2026-08-12T17:03:47.000Z</time></trkpt>
        <trkpt lat="29.529504" lon="103.328252"><ele>2816.657</ele><time>2026-08-12T17:04:17.000Z</time></trkpt>
        <trkpt lat="29.529484" lon="103.328204"><ele>2815.9326</ele><time>2026-08-12T17:05:19.000Z</time></trkpt>
        <trkpt lat="29.52951" lon="103.328157"><ele>2817.4004</ele><time>2026-08-12T17:05:31.000Z</time></trkpt>
        <trkpt lat="29.529506" lon="103.328097"><ele>2816.7678</ele><time>2026-08-12T17:05:37.000Z</time></trkpt>
        <trkpt lat="29.529515" lon="103.328047"><ele>2816.2537</ele><time>2026-08-12T17:05:50.000Z</time></trkpt>
        <trkpt lat="29.529522" lon="103.327985"><ele>2815.936</ele><time>2026-08-12T17:05:55.000Z</time></trkpt>
        <trkpt lat="29.529519" lon="103.327929"><ele>2815.6484</ele><time>2026-08-12T17:06:00.000Z</time></trkpt>
        <trkpt lat="29.529522" lon="103.327878"><ele>2816.1177</ele><time>2026-08-12T17:06:05.000Z</time></trkpt>
        <trkpt lat="29.529512" lon="103.327824"><ele>2816.256</ele><time>2026-08-12T17:06:12.000Z</time></trkpt>
        <trkpt lat="29.529468" lon="103.327806"><ele>2816.5222</ele><time>2026-08-12T17:06:17.000Z</time></trkpt>
        <trkpt lat="29.529413" lon="103.327799"><ele>2816.0688</ele><time>2026-08-12T17:06:22.000Z</time></trkpt>
        <trkpt lat="29.529366" lon="103.327778"><ele>2815.4204</ele><time>2026-08-12T17:06:28.000Z</time></trkpt>
        <trkpt lat="29.52932" lon="103.327771"><ele>2815.0764</ele><time>2026-08-12T17:06:37.000Z</time></trkpt>
        <trkpt lat="29.529282" lon="103.327803"><ele>2814.4766</ele><time>2026-08-12T17:06:46.000Z</time></trkpt>
        <trkpt lat="29.529257" lon="103.327853"><ele>2814.475</ele><time>2026-08-12T17:06:53.000Z</time></trkpt>
        <trkpt lat="29.529244" lon="103.327905"><ele>2814.2732</ele><time>2026-08-12T17:07:00.000Z</time></trkpt>
        <trkpt lat="29.529233" lon="103.327961"><ele>2815.11</ele><time>2026-08-12T17:07:08.000Z</time></trkpt>
        <trkpt lat="29.529223" lon="103.32801"><ele>2816.1357</ele><time>2026-08-12T17:07:16.000Z</time></trkpt>
        <trkpt lat="29.529217" lon="103.328062"><ele>2816.5376</ele><time>2026-08-12T17:07:25.000Z</time></trkpt>
        <trkpt lat="29.52921" lon="103.328113"><ele>2816.3347</ele><time>2026-08-12T17:08:49.000Z</time></trkpt>
        <trkpt lat="29.529181" lon="103.328154"><ele>2816.0862</ele><time>2026-08-12T17:08:56.000Z</time></trkpt>
        <trkpt lat="29.52917" lon="103.328207"><ele>2816.2214</ele><time>2026-08-12T17:09:07.000Z</time></trkpt>
        <trkpt lat="29.529164" lon="103.328264"><ele>2816.8728</ele><time>2026-08-12T17:09:15.000Z</time></trkpt>
        <trkpt lat="29.529159" lon="103.328317"><ele>2817.8008</ele><time>2026-08-12T17:09:25.000Z</time></trkpt>
        <trkpt lat="29.52913" lon="103.328363"><ele>2818.8403</ele><time>2026-08-12T17:10:40.000Z</time></trkpt>
        <trkpt lat="29.529116" lon="103.328417"><ele>2818.3123</ele><time>2026-08-12T17:10:49.000Z</time></trkpt>
        <trkpt lat="29.529097" lon="103.328468"><ele>2817.099</ele><time>2026-08-12T17:11:01.000Z</time></trkpt>
        <trkpt lat="29.529067" lon="103.328513"><ele>2817.9016</ele><time>2026-08-12T17:12:49.000Z</time></trkpt>
        <trkpt lat="29.529042" lon="103.32856"><ele>2817.8828</ele><time>2026-08-12T17:13:01.000Z</time></trkpt>
        <trkpt lat="29.529039" lon="103.328621"><ele>2818.729</ele><time>2026-08-12T17:13:06.000Z</time></trkpt>
        <trkpt lat="29.529047" lon="103.328657"><ele>2823.1516</ele><time>2026-08-12T17:13:18.000Z</time></trkpt>
        <trkpt lat="29.529033" lon="103.32871"><ele>2824.0623</ele><time>2026-08-12T17:14:29.000Z</time></trkpt>
        <trkpt lat="29.529019" lon="103.328761"><ele>2824.8643</ele><time>2026-08-12T17:14:41.000Z</time></trkpt>
        <trkpt lat="29.529" lon="103.328822"><ele>2824.733</ele><time>2026-08-12T17:15:22.000Z</time></trkpt>
        <trkpt lat="29.528969" lon="103.328867"><ele>2824.8845</ele><time>2026-08-12T17:15:33.000Z</time></trkpt>
        <trkpt lat="29.528944" lon="103.328912"><ele>2825.3718</ele><time>2026-08-12T17:15:38.000Z</time></trkpt>
        <trkpt lat="29.52892" lon="103.328958"><ele>2825.5266</ele><time>2026-08-12T17:15:44.000Z</time></trkpt>
        <trkpt lat="29.52889" lon="103.328999"><ele>2825.6182</ele><time>2026-08-12T17:15:57.000Z</time></trkpt>
        <trkpt lat="29.528871" lon="103.329047"><ele>2826.2092</ele><time>2026-08-12T17:16:05.000Z</time></trkpt>
        <trkpt lat="29.528847" lon="103.329089"><ele>2828.824</ele><time>2026-08-12T17:17:11.000Z</time></trkpt>
        <trkpt lat="29.52884" lon="103.329141"><ele>2828.9258</ele><time>2026-08-12T17:18:02.000Z</time></trkpt>
        <trkpt lat="29.528822" lon="103.329194"><ele>2829.2239</ele><time>2026-08-12T17:18:09.000Z</time></trkpt>
        <trkpt lat="29.528791" lon="103.329241"><ele>2830.801</ele><time>2026-08-12T17:18:17.000Z</time></trkpt>
        <trkpt lat="29.528746" lon="103.329283"><ele>2831.202</ele><time>2026-08-12T17:18:22.000Z</time></trkpt>
        <trkpt lat="29.528734" lon="103.32934"><ele>2832.3389</ele><time>2026-08-12T17:18:28.000Z</time></trkpt>
        <trkpt lat="29.528705" lon="103.329383"><ele>2833.89</ele><time>2026-08-12T17:18:38.000Z</time></trkpt>
        <trkpt lat="29.528685" lon="103.329433"><ele>2834.442</ele><time>2026-08-12T17:18:55.000Z</time></trkpt>
        <trkpt lat="29.528685" lon="103.329445"><ele>2835.575</ele><time>2026-08-12T17:20:07.000Z</time></trkpt>
        <trkpt lat="29.528645" lon="103.329602"><ele>2835.575</ele><time>2026-08-12T17:20:55.000Z</time></trkpt>
        <trkpt lat="29.528628" lon="103.329649"><ele>2838.0088</ele><time>2026-08-12T17:21:16.000Z</time></trkpt>
        <trkpt lat="29.528621" lon="103.329694"><ele>2840.5474</ele><time>2026-08-12T17:21:34.000Z</time></trkpt>
        <trkpt lat="29.528624" lon="103.329745"><ele>2841.7385</ele><time>2026-08-12T17:21:43.000Z</time></trkpt>
        <trkpt lat="29.528611" lon="103.329799"><ele>2842.0515</ele><time>2026-08-12T17:21:49.000Z</time></trkpt>
        <trkpt lat="29.528608" lon="103.329859"><ele>2844.4492</ele><time>2026-08-12T17:21:55.000Z</time></trkpt>
        <trkpt lat="29.528586" lon="103.329905"><ele>2846.8774</ele><time>2026-08-12T17:22:06.000Z</time></trkpt>
        <trkpt lat="29.52856" lon="103.329939"><ele>2849.441</ele><time>2026-08-12T17:22:19.000Z</time></trkpt>
        <trkpt lat="29.528534" lon="103.329982"><ele>2850.928</ele><time>2026-08-12T17:22:29.000Z</time></trkpt>
        <trkpt lat="29.528509" lon="103.330024"><ele>2852.3787</ele><time>2026-08-12T17:22:36.000Z</time></trkpt>
        <trkpt lat="29.528489" lon="103.330075"><ele>2854.0142</ele><time>2026-08-12T17:22:43.000Z</time></trkpt>
        <trkpt lat="29.52845" lon="103.330108"><ele>2854.4531</ele><time>2026-08-12T17:22:49.000Z</time></trkpt>
        <trkpt lat="29.52841" lon="103.330138"><ele>2853.6946</ele><time>2026-08-12T17:23:01.000Z</time></trkpt>
        <trkpt lat="29.528373" lon="103.330171"><ele>2852.4678</ele><time>2026-08-12T17:23:09.000Z</time></trkpt>
        <trkpt lat="29.528336" lon="103.330202"><ele>2852.1748</ele><time>2026-08-12T17:23:15.000Z</time></trkpt>
        <trkpt lat="29.528305" lon="103.330249"><ele>2851.885</ele><time>2026-08-12T17:23:23.000Z</time></trkpt>
        <trkpt lat="29.528284" lon="103.330295"><ele>2851.4858</ele><time>2026-08-12T17:23:36.000Z</time></trkpt>
        <trkpt lat="29.52829" lon="103.3303"><ele>2852.6707</ele><time>2026-08-12T17:25:25.000Z</time></trkpt>
        <trkpt lat="29.52831" lon="103.3303"><ele>2852.6707</ele><time>2026-08-12T17:26:13.000Z</time></trkpt>
        <trkpt lat="29.528312" lon="103.33029"><ele>2852.5442</ele><time>2026-08-12T17:35:06.000Z</time></trkpt>
        <trkpt lat="29.528312" lon="103.330292"><ele>2852.5442</ele><time>2026-08-12T17:35:54.000Z</time></trkpt>
        <trkpt lat="29.528312" lon="103.33029"><ele>2852.6345</ele><time>2026-08-12T17:37:32.000Z</time></trkpt>
        <trkpt lat="29.528314" lon="103.330302"><ele>2852.6345</ele><time>2026-08-12T17:38:20.000Z</time></trkpt>
        <trkpt lat="29.52829" lon="103.330299"><ele>2853.7104</ele><time>2026-08-12T17:44:45.000Z</time></trkpt>
        <trkpt lat="29.52829" lon="103.330299"><ele>2853.7104</ele><time>2026-08-12T17:45:33.000Z</time></trkpt>
        <trkpt lat="29.528324" lon="103.330408"><ele>2872.7766</ele><time>2026-08-12T17:50:19.000Z</time></trkpt>
        <trkpt lat="29.528344" lon="103.330367"><ele>2883.1116</ele><time>2026-08-12T17:50:21.000Z</time></trkpt>
        <trkpt lat="29.528296" lon="103.330321"><ele>2886.5679</ele><time>2026-08-12T17:50:23.000Z</time></trkpt>
        <trkpt lat="29.5283" lon="103.330328"><ele>2881.0593</ele><time>2026-08-12T17:50:26.000Z</time></trkpt>
        <trkpt lat="29.528311" lon="103.330314"><ele>2875.598</ele><time>2026-08-12T17:50:35.000Z</time></trkpt>
        <trkpt lat="29.528326" lon="103.330333"><ele>2871.1726</ele><time>2026-08-12T17:50:43.000Z</time></trkpt>
        <trkpt lat="29.528308" lon="103.330361"><ele>2867.3313</ele><time>2026-08-12T17:52:26.000Z</time></trkpt>
        <trkpt lat="29.528326" lon="103.330424"><ele>2867.433</ele><time>2026-08-12T17:53:15.000Z</time></trkpt>
        <trkpt lat="29.528293" lon="103.330378"><ele>2869.2212</ele><time>2026-08-12T18:08:20.000Z</time></trkpt>
        <trkpt lat="29.52825" lon="103.330343"><ele>2868.946</ele><time>2026-08-12T18:08:25.000Z</time></trkpt>
        <trkpt lat="29.528209" lon="103.330318"><ele>2868.9963</ele><time>2026-08-12T18:08:35.000Z</time></trkpt>
        <trkpt lat="29.528166" lon="103.330334"><ele>2869.0166</ele><time>2026-08-12T18:08:42.000Z</time></trkpt>
        <trkpt lat="29.528118" lon="103.330335"><ele>2869.0469</ele><time>2026-08-12T18:08:45.000Z</time></trkpt>
        <trkpt lat="29.528294" lon="103.330399"><ele>2861.6062</ele><time>2026-08-12T18:10:15.000Z</time></trkpt>
        <trkpt lat="29.528334" lon="103.330376"><ele>2860.386</ele><time>2026-08-12T18:10:18.000Z</time></trkpt>
        <trkpt lat="29.528354" lon="103.330326"><ele>2859.684</ele><time>2026-08-12T18:10:24.000Z</time></trkpt>
        <trkpt lat="29.528326" lon="103.330373"><ele>2861.1802</ele><time>2026-08-12T18:12:10.000Z</time></trkpt>
        <trkpt lat="29.528317" lon="103.330428"><ele>2860.9644</ele><time>2026-08-12T18:12:15.000Z</time></trkpt>
        <trkpt lat="29.528323" lon="103.330482"><ele>2859.8965</ele><time>2026-08-12T18:12:19.000Z</time></trkpt>
        <trkpt lat="29.528331" lon="103.330534"><ele>2859.113</ele><time>2026-08-12T18:12:24.000Z</time></trkpt>
        <trkpt lat="29.528337" lon="103.330584"><ele>2860.1243</ele><time>2026-08-12T18:12:35.000Z</time></trkpt>
        <trkpt lat="29.528307" lon="103.330625"><ele>2860.2197</ele><time>2026-08-12T18:12:54.000Z</time></trkpt>
        <trkpt lat="29.528294" lon="103.330676"><ele>2860.4797</ele><time>2026-08-12T18:13:04.000Z</time></trkpt>
        <trkpt lat="29.528252" lon="103.330711"><ele>2861.2344</ele><time>2026-08-12T18:13:14.000Z</time></trkpt>
        <trkpt lat="29.528227" lon="103.330758"><ele>2863.2444</ele><time>2026-08-12T18:13:21.000Z</time></trkpt>
        <trkpt lat="29.528191" lon="103.330797"><ele>2863.0002</ele><time>2026-08-12T18:13:31.000Z</time></trkpt>
        <trkpt lat="29.528152" lon="103.330824"><ele>2862.4856</ele><time>2026-08-12T18:13:37.000Z</time></trkpt>
        <trkpt lat="29.528123" lon="103.330868"><ele>2862.425</ele><time>2026-08-12T18:14:09.000Z</time></trkpt>
        <trkpt lat="29.528108" lon="103.330919"><ele>2862.2341</ele><time>2026-08-12T18:14:16.000Z</time></trkpt>
        <trkpt lat="29.528098" lon="103.330972"><ele>2862.2146</ele><time>2026-08-12T18:14:24.000Z</time></trkpt>
        <trkpt lat="29.528097" lon="103.331024"><ele>2862.6765</ele><time>2026-08-12T18:14:34.000Z</time></trkpt>
        <trkpt lat="29.528092" lon="103.331076"><ele>2864.046</ele><time>2026-08-12T18:14:43.000Z</time></trkpt>
        <trkpt lat="29.52806" lon="103.33111"><ele>2865.5383</ele><time>2026-08-12T18:14:55.000Z</time></trkpt>
        <trkpt lat="29.528041" lon="103.331157"><ele>2866.2334</ele><time>2026-08-12T18:15:23.000Z</time></trkpt>
        <trkpt lat="29.528022" lon="103.331213"><ele>2866.48</ele><time>2026-08-12T18:15:30.000Z</time></trkpt>
        <trkpt lat="29.528008" lon="103.331257"><ele>2868.958</ele><time>2026-08-12T18:15:40.000Z</time></trkpt>
        <trkpt lat="29.527972" lon="103.331288"><ele>2869.6018</ele><time>2026-08-12T18:15:50.000Z</time></trkpt>
        <trkpt lat="29.527926" lon="103.331308"><ele>2869.5667</ele><time>2026-08-12T18:16:33.000Z</time></trkpt>
        <trkpt lat="29.527892" lon="103.331342"><ele>2869.6497</ele><time>2026-08-12T18:16:39.000Z</time></trkpt>
        <trkpt lat="29.527857" lon="103.331392"><ele>2870.0088</ele><time>2026-08-12T18:16:45.000Z</time></trkpt>
        <trkpt lat="29.527823" lon="103.331431"><ele>2870.7856</ele><time>2026-08-12T18:16:52.000Z</time></trkpt>
        <trkpt lat="29.527794" lon="103.331476"><ele>2871.63</ele><time>2026-08-12T18:16:58.000Z</time></trkpt>
        <trkpt lat="29.527768" lon="103.331525"><ele>2872.8433</ele><time>2026-08-12T18:17:08.000Z</time></trkpt>
        <trkpt lat="29.527746" lon="103.331572"><ele>2873.966</ele><time>2026-08-12T18:17:40.000Z</time></trkpt>
        <trkpt lat="29.527711" lon="103.331609"><ele>2873.7578</ele><time>2026-08-12T18:17:46.000Z</time></trkpt>
        <trkpt lat="29.52768" lon="103.331649"><ele>2873.532</ele><time>2026-08-12T18:17:53.000Z</time></trkpt>
        <trkpt lat="29.527678" lon="103.331702"><ele>2874.7366</ele><time>2026-08-12T18:18:07.000Z</time></trkpt>
        <trkpt lat="29.527683" lon="103.331757"><ele>2875.102</ele><time>2026-08-12T18:18:14.000Z</time></trkpt>
        <trkpt lat="29.527706" lon="103.331808"><ele>2874.4583</ele><time>2026-08-12T18:18:30.000Z</time></trkpt>
        <trkpt lat="29.527709" lon="103.331862"><ele>2874.517</ele><time>2026-08-12T18:18:34.000Z</time></trkpt>
        <trkpt lat="29.527701" lon="103.331917"><ele>2875.5137</ele><time>2026-08-12T18:18:40.000Z</time></trkpt>
        <trkpt lat="29.527694" lon="103.331973"><ele>2876.2493</ele><time>2026-08-12T18:18:47.000Z</time></trkpt>
        <trkpt lat="29.52767" lon="103.332023"><ele>2877.3171</ele><time>2026-08-12T18:18:57.000Z</time></trkpt>
        <trkpt lat="29.527643" lon="103.33207"><ele>2878.1653</ele><time>2026-08-12T18:19:09.000Z</time></trkpt>
        <trkpt lat="29.5276" lon="103.332086"><ele>2878.003</ele><time>2026-08-12T18:19:21.000Z</time></trkpt>
        <trkpt lat="29.527556" lon="103.332096"><ele>2878.3992</ele><time>2026-08-12T18:19:49.000Z</time></trkpt>
        <trkpt lat="29.527522" lon="103.332134"><ele>2879.7031</ele><time>2026-08-12T18:20:23.000Z</time></trkpt>
        <trkpt lat="29.527529" lon="103.332184"><ele>2881.2708</ele><time>2026-08-12T18:20:31.000Z</time></trkpt>
        <trkpt lat="29.527556" lon="103.332227"><ele>2882.49</ele><time>2026-08-12T18:20:40.000Z</time></trkpt>
        <trkpt lat="29.527575" lon="103.332276"><ele>2883.5383</ele><time>2026-08-12T18:20:50.000Z</time></trkpt>
        <trkpt lat="29.527562" lon="103.332323"><ele>2884.8462</ele><time>2026-08-12T18:21:04.000Z</time></trkpt>
        <trkpt lat="29.527525" lon="103.332362"><ele>2885.3884</ele><time>2026-08-12T18:21:17.000Z</time></trkpt>
        <trkpt lat="29.527527" lon="103.332396"><ele>2889.4792</ele><time>2026-08-12T18:22:12.000Z</time></trkpt>
        <trkpt lat="29.527498" lon="103.332429"><ele>2892.585</ele><time>2026-08-12T18:23:58.000Z</time></trkpt>
        <trkpt lat="29.527462" lon="103.332461"><ele>2892.5967</ele><time>2026-08-12T18:24:05.000Z</time></trkpt>
        <trkpt lat="29.527425" lon="103.33249"><ele>2893.7678</ele><time>2026-08-12T18:24:15.000Z</time></trkpt>
        <trkpt lat="29.527382" lon="103.332506"><ele>2894.6226</ele><time>2026-08-12T18:24:24.000Z</time></trkpt>
        <trkpt lat="29.527329" lon="103.332493"><ele>2895.365</ele><time>2026-08-12T18:24:33.000Z</time></trkpt>
        <trkpt lat="29.527289" lon="103.332472"><ele>2897.2102</ele><time>2026-08-12T18:24:41.000Z</time></trkpt>
        <trkpt lat="29.52728" lon="103.332438"><ele>2901.5244</ele><time>2026-08-12T18:24:57.000Z</time></trkpt>
        <trkpt lat="29.527243" lon="103.332428"><ele>2904.342</ele><time>2026-08-12T18:25:34.000Z</time></trkpt>
        <trkpt lat="29.527212" lon="103.332379"><ele>2903.7837</ele><time>2026-08-12T18:25:40.000Z</time></trkpt>
        <trkpt lat="29.527179" lon="103.332343"><ele>2904.5583</ele><time>2026-08-12T18:25:47.000Z</time></trkpt>
        <trkpt lat="29.527139" lon="103.33231"><ele>2905.1494</ele><time>2026-08-12T18:25:53.000Z</time></trkpt>
        <trkpt lat="29.527093" lon="103.332307"><ele>2905.5876</ele><time>2026-08-12T18:26:01.000Z</time></trkpt>
        <trkpt lat="29.527057" lon="103.332339"><ele>2905.7607</ele><time>2026-08-12T18:26:18.000Z</time></trkpt>
        <trkpt lat="29.527045" lon="103.332391"><ele>2905.9639</ele><time>2026-08-12T18:26:28.000Z</time></trkpt>
        <trkpt lat="29.527043" lon="103.33245"><ele>2906.4216</ele><time>2026-08-12T18:26:39.000Z</time></trkpt>
        <trkpt lat="29.527041" lon="103.33251"><ele>2907.1438</ele><time>2026-08-12T18:26:47.000Z</time></trkpt>
        <trkpt lat="29.527063" lon="103.332561"><ele>2907.6123</ele><time>2026-08-12T18:26:55.000Z</time></trkpt>
        <trkpt lat="29.527072" lon="103.332612"><ele>2907.8213</ele><time>2026-08-12T18:27:08.000Z</time></trkpt>
        <trkpt lat="29.527076" lon="103.332667"><ele>2908.311</ele><time>2026-08-12T18:27:20.000Z</time></trkpt>
        <trkpt lat="29.527074" lon="103.332724"><ele>2908.4387</ele><time>2026-08-12T18:27:28.000Z</time></trkpt>
        <trkpt lat="29.527048" lon="103.332769"><ele>2908.6924</ele><time>2026-08-12T18:27:41.000Z</time></trkpt>
        <trkpt lat="29.527039" lon="103.332826"><ele>2908.0908</ele><time>2026-08-12T18:27:48.000Z</time></trkpt>
        <trkpt lat="29.527028" lon="103.332884"><ele>2908.0586</ele><time>2026-08-12T18:27:58.000Z</time></trkpt>
        <trkpt lat="29.527037" lon="103.332935"><ele>2908.176</ele><time>2026-08-12T18:28:06.000Z</time></trkpt>
        <trkpt lat="29.527037" lon="103.332986"><ele>2908.7048</ele><time>2026-08-12T18:28:11.000Z</time></trkpt>
        <trkpt lat="29.527054" lon="103.333036"><ele>2909.3364</ele><time>2026-08-12T18:28:19.000Z</time></trkpt>
        <trkpt lat="29.527079" lon="103.333087"><ele>2909.8752</ele><time>2026-08-12T18:28:27.000Z</time></trkpt>
        <trkpt lat="29.527119" lon="103.333128"><ele>2910.6355</ele><time>2026-08-12T18:28:32.000Z</time></trkpt>
        <trkpt lat="29.527136" lon="103.333178"><ele>2911.7473</ele><time>2026-08-12T18:28:38.000Z</time></trkpt>
        <trkpt lat="29.527145" lon="103.333237"><ele>2913.0466</ele><time>2026-08-12T18:28:44.000Z</time></trkpt>
        <trkpt lat="29.527126" lon="103.333283"><ele>2913.9119</ele><time>2026-08-12T18:28:50.000Z</time></trkpt>
        <trkpt lat="29.527096" lon="103.333327"><ele>2914.9968</ele><time>2026-08-12T18:28:58.000Z</time></trkpt>
        <trkpt lat="29.527062" lon="103.333367"><ele>2916.3894</ele><time>2026-08-12T18:29:05.000Z</time></trkpt>
        <trkpt lat="29.527019" lon="103.333393"><ele>2917.0894</ele><time>2026-08-12T18:29:14.000Z</time></trkpt>
        <trkpt lat="29.526978" lon="103.333428"><ele>2916.8306</ele><time>2026-08-12T18:29:23.000Z</time></trkpt>
        <trkpt lat="29.526937" lon="103.333454"><ele>2917.6626</ele><time>2026-08-12T18:29:35.000Z</time></trkpt>
        <trkpt lat="29.526896" lon="103.333477"><ele>2918.7527</ele><time>2026-08-12T18:29:48.000Z</time></trkpt>
        <trkpt lat="29.52685" lon="103.333477"><ele>2919.0935</ele><time>2026-08-12T18:29:56.000Z</time></trkpt>
        <trkpt lat="29.526806" lon="103.333483"><ele>2920.561</ele><time>2026-08-12T18:30:34.000Z</time></trkpt>
        <trkpt lat="29.526766" lon="103.333504"><ele>2922.4734</ele><time>2026-08-12T18:30:45.000Z</time></trkpt>
        <trkpt lat="29.526719" lon="103.333509"><ele>2924.1868</ele><time>2026-08-12T18:30:56.000Z</time></trkpt>
        <trkpt lat="29.526676" lon="103.333517"><ele>2926.0698</ele><time>2026-08-12T18:31:03.000Z</time></trkpt>
        <trkpt lat="29.526657" lon="103.333511"><ele>2929.8953</ele><time>2026-08-12T18:31:56.000Z</time></trkpt>
        <trkpt lat="29.52658" lon="103.333585"><ele>2929.8953</ele><time>2026-08-12T18:32:45.000Z</time></trkpt>
        <trkpt lat="29.526539" lon="103.333607"><ele>2931.4722</ele><time>2026-08-12T18:32:53.000Z</time></trkpt>
        <trkpt lat="29.526496" lon="103.333631"><ele>2932.8374</ele><time>2026-08-12T18:33:01.000Z</time></trkpt>
        <trkpt lat="29.526452" lon="103.333647"><ele>2933.6829</ele><time>2026-08-12T18:33:20.000Z</time></trkpt>
        <trkpt lat="29.52639" lon="103.333669"><ele>2934.3674</ele><time>2026-08-12T18:33:55.000Z</time></trkpt>
        <trkpt lat="29.526348" lon="103.333696"><ele>2934.5845</ele><time>2026-08-12T18:33:57.000Z</time></trkpt>
        <trkpt lat="29.526312" lon="103.333725"><ele>2935.6216</ele><time>2026-08-12T18:34:11.000Z</time></trkpt>
        <trkpt lat="29.526263" lon="103.333743"><ele>2936.9443</ele><time>2026-08-12T18:34:41.000Z</time></trkpt>
        <trkpt lat="29.526215" lon="103.333758"><ele>2937.3154</ele><time>2026-08-12T18:34:51.000Z</time></trkpt>
        <trkpt lat="29.526171" lon="103.333776"><ele>2938.1216</ele><time>2026-08-12T18:34:59.000Z</time></trkpt>
        <trkpt lat="29.526136" lon="103.333813"><ele>2938.6604</ele><time>2026-08-12T18:35:06.000Z</time></trkpt>
        <trkpt lat="29.526098" lon="103.333846"><ele>2939.8213</ele><time>2026-08-12T18:35:16.000Z</time></trkpt>
        <trkpt lat="29.526059" lon="103.333872"><ele>2941.0457</ele><time>2026-08-12T18:35:28.000Z</time></trkpt>
        <trkpt lat="29.526015" lon="103.333889"><ele>2942.6956</ele><time>2026-08-12T18:35:45.000Z</time></trkpt>
        <trkpt lat="29.525977" lon="103.333912"><ele>2944.3599</ele><time>2026-08-12T18:35:52.000Z</time></trkpt>
        <trkpt lat="29.525936" lon="103.333942"><ele>2945.1453</ele><time>2026-08-12T18:36:01.000Z</time></trkpt>
        <trkpt lat="29.525911" lon="103.333971"><ele>2948.6174</ele><time>2026-08-12T18:36:36.000Z</time></trkpt>
        <trkpt lat="29.525874" lon="103.333964"><ele>2951.8035</ele><time>2026-08-12T18:38:20.000Z</time></trkpt>
        <trkpt lat="29.525827" lon="103.333995"><ele>2953.1538</ele><time>2026-08-12T18:42:33.000Z</time></trkpt>
        <trkpt lat="29.525793" lon="103.334032"><ele>2954.4272</ele><time>2026-08-12T18:42:36.000Z</time></trkpt>
        <trkpt lat="29.525753" lon="103.334058"><ele>2955.6829</ele><time>2026-08-12T18:42:41.000Z</time></trkpt>
        <trkpt lat="29.525736" lon="103.334111"><ele>2956.8147</ele><time>2026-08-12T18:43:01.000Z</time></trkpt>
        <trkpt lat="29.525773" lon="103.334164"><ele>2957.8396</ele><time>2026-08-12T18:43:04.000Z</time></trkpt>
        <trkpt lat="29.525736" lon="103.334137"><ele>2959.564</ele><time>2026-08-12T18:43:13.000Z</time></trkpt>
        <trkpt lat="29.525694" lon="103.334158"><ele>2959.4458</ele><time>2026-08-12T18:43:23.000Z</time></trkpt>
        <trkpt lat="29.525652" lon="103.334183"><ele>2959.1726</ele><time>2026-08-12T18:43:32.000Z</time></trkpt>
        <trkpt lat="29.52561" lon="103.334199"><ele>2959.4612</ele><time>2026-08-12T18:43:39.000Z</time></trkpt>
        <trkpt lat="29.525566" lon="103.334217"><ele>2959.2383</ele><time>2026-08-12T18:43:47.000Z</time></trkpt>
        <trkpt lat="29.525548" lon="103.334268"><ele>2958.8206</ele><time>2026-08-12T18:43:55.000Z</time></trkpt>
        <trkpt lat="29.525514" lon="103.334309"><ele>2958.655</ele><time>2026-08-12T18:44:03.000Z</time></trkpt>
        <trkpt lat="29.525485" lon="103.334354"><ele>2958.5056</ele><time>2026-08-12T18:44:11.000Z</time></trkpt>
        <trkpt lat="29.52545" lon="103.334391"><ele>2958.235</ele><time>2026-08-12T18:44:20.000Z</time></trkpt>
        <trkpt lat="29.525427" lon="103.334434"><ele>2959.1475</ele><time>2026-08-12T18:44:31.000Z</time></trkpt>
        <trkpt lat="29.525398" lon="103.334475"><ele>2959.1897</ele><time>2026-08-12T18:44:44.000Z</time></trkpt>
        <trkpt lat="29.525374" lon="103.334519"><ele>2959.9358</ele><time>2026-08-12T18:44:55.000Z</time></trkpt>
        <trkpt lat="29.52535" lon="103.334567"><ele>2960.4287</ele><time>2026-08-12T18:45:07.000Z</time></trkpt>
        <trkpt lat="29.525313" lon="103.334602"><ele>2961.463</ele><time>2026-08-12T18:45:44.000Z</time></trkpt>
        <trkpt lat="29.525287" lon="103.334648"><ele>2962.0964</ele><time>2026-08-12T18:46:14.000Z</time></trkpt>
        <trkpt lat="29.52525" lon="103.334683"><ele>2962.4287</ele><time>2026-08-12T18:46:23.000Z</time></trkpt>
        <trkpt lat="29.525205" lon="103.334702"><ele>2962.482</ele><time>2026-08-12T18:46:33.000Z</time></trkpt>
        <trkpt lat="29.525167" lon="103.334729"><ele>2963.4595</ele><time>2026-08-12T18:46:47.000Z</time></trkpt>
        <trkpt lat="29.525132" lon="103.334753"><ele>2966.0625</ele><time>2026-08-12T18:46:59.000Z</time></trkpt>
        <trkpt lat="29.525089" lon="103.334775"><ele>2967.797</ele><time>2026-08-12T18:47:08.000Z</time></trkpt>
        <trkpt lat="29.525049" lon="103.334796"><ele>2968.7952</ele><time>2026-08-12T18:47:20.000Z</time></trkpt>
        <trkpt lat="29.525009" lon="103.334813"><ele>2970.6694</ele><time>2026-08-12T18:47:57.000Z</time></trkpt>
        <trkpt lat="29.524966" lon="103.334828"><ele>2971.5366</ele><time>2026-08-12T18:48:32.000Z</time></trkpt>
        <trkpt lat="29.524919" lon="103.334827"><ele>2972.795</ele><time>2026-08-12T18:49:05.000Z</time></trkpt>
        <trkpt lat="29.524872" lon="103.334813"><ele>2974.588</ele><time>2026-08-12T18:49:11.000Z</time></trkpt>
        <trkpt lat="29.524828" lon="103.334786"><ele>2976.3733</ele><time>2026-08-12T18:49:18.000Z</time></trkpt>
        <trkpt lat="29.524783" lon="103.334762"><ele>2976.4275</ele><time>2026-08-12T18:49:25.000Z</time></trkpt>
        <trkpt lat="29.524733" lon="103.334759"><ele>2976.2222</ele><time>2026-08-12T18:49:34.000Z</time></trkpt>
        <trkpt lat="29.524687" lon="103.334774"><ele>2976.947</ele><time>2026-08-12T18:49:46.000Z</time></trkpt>
        <trkpt lat="29.524647" lon="103.334798"><ele>2977.8347</ele><time>2026-08-12T18:50:04.000Z</time></trkpt>
        <trkpt lat="29.52461" lon="103.334834"><ele>2977.8472</ele><time>2026-08-12T18:50:58.000Z</time></trkpt>
        <trkpt lat="29.524561" lon="103.334849"><ele>2979.4363</ele><time>2026-08-12T18:51:03.000Z</time></trkpt>
        <trkpt lat="29.524521" lon="103.33487"><ele>2981.432</ele><time>2026-08-12T18:51:09.000Z</time></trkpt>
        <trkpt lat="29.524475" lon="103.334891"><ele>2981.6208</ele><time>2026-08-12T18:51:16.000Z</time></trkpt>
        <trkpt lat="29.52443" lon="103.33492"><ele>2981.4412</ele><time>2026-08-12T18:51:24.000Z</time></trkpt>
        <trkpt lat="29.524387" lon="103.334934"><ele>2981.6855</ele><time>2026-08-12T18:51:31.000Z</time></trkpt>
        <trkpt lat="29.524343" lon="103.334946"><ele>2982.1343</ele><time>2026-08-12T18:51:40.000Z</time></trkpt>
        <trkpt lat="29.524295" lon="103.334963"><ele>2982.5786</ele><time>2026-08-12T18:51:47.000Z</time></trkpt>
        <trkpt lat="29.524247" lon="103.334982"><ele>2982.3132</ele><time>2026-08-12T18:51:53.000Z</time></trkpt>
        <trkpt lat="29.524202" lon="103.334998"><ele>2981.9907</ele><time>2026-08-12T18:51:59.000Z</time></trkpt>
        <trkpt lat="29.524159" lon="103.335013"><ele>2981.1204</ele><time>2026-08-12T18:52:05.000Z</time></trkpt>
        <trkpt lat="29.524107" lon="103.335001"><ele>2981.9517</ele><time>2026-08-12T18:52:13.000Z</time></trkpt>
        <trkpt lat="29.524065" lon="103.334982"><ele>2982.8484</ele><time>2026-08-12T18:52:17.000Z</time></trkpt>
        <trkpt lat="29.524019" lon="103.334979"><ele>2982.662</ele><time>2026-08-12T18:52:22.000Z</time></trkpt>
        <trkpt lat="29.52397" lon="103.334978"><ele>2983.2832</ele><time>2026-08-12T18:52:34.000Z</time></trkpt>
        <trkpt lat="29.523923" lon="103.334967"><ele>2983.7825</ele><time>2026-08-12T18:52:44.000Z</time></trkpt>
        <trkpt lat="29.523874" lon="103.334968"><ele>2983.7737</ele><time>2026-08-12T18:52:55.000Z</time></trkpt>
        <trkpt lat="29.52383" lon="103.334943"><ele>2983.533</ele><time>2026-08-12T18:53:03.000Z</time></trkpt>
        <trkpt lat="29.523787" lon="103.334925"><ele>2983.1865</ele><time>2026-08-12T18:53:10.000Z</time></trkpt>
        <trkpt lat="29.523742" lon="103.33492"><ele>2984.2488</ele><time>2026-08-12T18:53:18.000Z</time></trkpt>
        <trkpt lat="29.523699" lon="103.334897"><ele>2985.0698</ele><time>2026-08-12T18:53:26.000Z</time></trkpt>
        <trkpt lat="29.523648" lon="103.334902"><ele>2985.2412</ele><time>2026-08-12T18:53:35.000Z</time></trkpt>
        <trkpt lat="29.523601" lon="103.334916"><ele>2985.079</ele><time>2026-08-12T18:53:43.000Z</time></trkpt>
        <trkpt lat="29.523553" lon="103.334926"><ele>2984.9233</ele><time>2026-08-12T18:53:52.000Z</time></trkpt>
        <trkpt lat="29.523509" lon="103.334913"><ele>2985.6702</ele><time>2026-08-12T18:54:01.000Z</time></trkpt>
        <trkpt lat="29.523463" lon="103.334913"><ele>2986.7825</ele><time>2026-08-12T18:54:10.000Z</time></trkpt>
        <trkpt lat="29.523419" lon="103.334891"><ele>2987.3472</ele><time>2026-08-12T18:54:29.000Z</time></trkpt>
        <trkpt lat="29.523374" lon="103.334876"><ele>2987.8435</ele><time>2026-08-12T18:54:37.000Z</time></trkpt>
        <trkpt lat="29.523326" lon="103.334858"><ele>2988.4136</ele><time>2026-08-12T18:54:45.000Z</time></trkpt>
        <trkpt lat="29.523281" lon="103.334847"><ele>2988.6274</ele><time>2026-08-12T18:54:54.000Z</time></trkpt>
        <trkpt lat="29.523237" lon="103.334833"><ele>2989.2856</ele><time>2026-08-12T18:55:03.000Z</time></trkpt>
        <trkpt lat="29.523196" lon="103.334809"><ele>2989.15</ele><time>2026-08-12T18:55:10.000Z</time></trkpt>
        <trkpt lat="29.523155" lon="103.334786"><ele>2989.4768</ele><time>2026-08-12T18:55:17.000Z</time></trkpt>
        <trkpt lat="29.523114" lon="103.334771"><ele>2991.003</ele><time>2026-08-12T18:55:26.000Z</time></trkpt>
        <trkpt lat="29.523069" lon="103.334728"><ele>2990.651</ele><time>2026-08-12T18:57:21.000Z</time></trkpt>
        <trkpt lat="29.523022" lon="103.334713"><ele>2990.8787</ele><time>2026-08-12T18:59:23.000Z</time></trkpt>
        <trkpt lat="29.522971" lon="103.334724"><ele>2991.6382</ele><time>2026-08-12T18:59:32.000Z</time></trkpt>
        <trkpt lat="29.522929" lon="103.334754"><ele>2991.4321</ele><time>2026-08-12T18:59:38.000Z</time></trkpt>
        <trkpt lat="29.522885" lon="103.334765"><ele>2992.275</ele><time>2026-08-12T18:59:46.000Z</time></trkpt>
        <trkpt lat="29.522838" lon="103.334762"><ele>2993.3638</ele><time>2026-08-12T18:59:57.000Z</time></trkpt>
        <trkpt lat="29.522796" lon="103.33478"><ele>2994.831</ele><time>2026-08-12T19:00:09.000Z</time></trkpt>
        <trkpt lat="29.522746" lon="103.334781"><ele>2996.409</ele><time>2026-08-12T19:00:15.000Z</time></trkpt>
        <trkpt lat="29.522708" lon="103.334797"><ele>2998.672</ele><time>2026-08-12T19:00:37.000Z</time></trkpt>
        <trkpt lat="29.522704" lon="103.334848"><ele>3000.1565</ele><time>2026-08-12T19:02:51.000Z</time></trkpt>
        <trkpt lat="29.522725" lon="103.334902"><ele>3000.6184</ele><time>2026-08-12T19:03:13.000Z</time></trkpt>
        <trkpt lat="29.52273" lon="103.334961"><ele>3001.4146</ele><time>2026-08-12T19:03:18.000Z</time></trkpt>
        <trkpt lat="29.522741" lon="103.33501"><ele>3002.4958</ele><time>2026-08-12T19:03:23.000Z</time></trkpt>
        <trkpt lat="29.522734" lon="103.335067"><ele>3002.9734</ele><time>2026-08-12T19:04:55.000Z</time></trkpt>
        <trkpt lat="29.522753" lon="103.335121"><ele>3003.2947</ele><time>2026-08-12T19:05:09.000Z</time></trkpt>
        <trkpt lat="29.52275" lon="103.335175"><ele>3004.459</ele><time>2026-08-12T19:05:19.000Z</time></trkpt>
        <trkpt lat="29.522743" lon="103.335228"><ele>3005.855</ele><time>2026-08-12T19:05:44.000Z</time></trkpt>
        <trkpt lat="29.522751" lon="103.335277"><ele>3007.5317</ele><time>2026-08-12T19:06:30.000Z</time></trkpt>
        <trkpt lat="29.522751" lon="103.335333"><ele>3007.6797</ele><time>2026-08-12T19:08:09.000Z</time></trkpt>
        <trkpt lat="29.522702" lon="103.335331"><ele>3007.695</ele><time>2026-08-12T19:08:29.000Z</time></trkpt>
        <trkpt lat="29.522654" lon="103.335346"><ele>3007.5254</ele><time>2026-08-12T19:08:38.000Z</time></trkpt>
        <trkpt lat="29.5227" lon="103.335334"><ele>3008.0603</ele><time>2026-08-12T19:09:38.000Z</time></trkpt>
        <trkpt lat="29.522761" lon="103.335317"><ele>3009.4187</ele><time>2026-08-12T19:09:45.000Z</time></trkpt>
        <trkpt lat="29.522782" lon="103.33536"><ele>3011.885</ele><time>2026-08-12T19:10:24.000Z</time></trkpt>
        <trkpt lat="29.522787" lon="103.335411"><ele>3010.623</ele><time>2026-08-12T19:10:52.000Z</time></trkpt>
        <trkpt lat="29.522796" lon="103.335466"><ele>3011.047</ele><time>2026-08-12T19:11:01.000Z</time></trkpt>
        <trkpt lat="29.522802" lon="103.335518"><ele>3011.9539</ele><time>2026-08-12T19:11:07.000Z</time></trkpt>
        <trkpt lat="29.522807" lon="103.335571"><ele>3012.753</ele><time>2026-08-12T19:11:16.000Z</time></trkpt>
        <trkpt lat="29.522812" lon="103.335625"><ele>3013.7</ele><time>2026-08-12T19:11:34.000Z</time></trkpt>
        <trkpt lat="29.522817" lon="103.335679"><ele>3014.6208</ele><time>2026-08-12T19:11:45.000Z</time></trkpt>
        <trkpt lat="29.522822" lon="103.335732"><ele>3014.629</ele><time>2026-08-12T19:12:26.000Z</time></trkpt>
        <trkpt lat="29.522832" lon="103.335784"><ele>3015.5994</ele><time>2026-08-12T19:12:38.000Z</time></trkpt>
        <trkpt lat="29.522855" lon="103.335829"><ele>3015.5632</ele><time>2026-08-12T19:13:57.000Z</time></trkpt>
        <trkpt lat="29.522899" lon="103.33585"><ele>3017.0498</ele><time>2026-08-12T19:14:05.000Z</time></trkpt>
        <trkpt lat="29.522923" lon="103.33587"><ele>3021.046</ele><time>2026-08-12T19:18:55.000Z</time></trkpt>
        <trkpt lat="29.522969" lon="103.335871"><ele>3022.5037</ele><time>2026-08-12T19:19:03.000Z</time></trkpt>
        <trkpt lat="29.523009" lon="103.335905"><ele>3022.5093</ele><time>2026-08-12T19:19:12.000Z</time></trkpt>
        <trkpt lat="29.52297" lon="103.335931"><ele>3022.8289</ele><time>2026-08-12T19:19:21.000Z</time></trkpt>
        <trkpt lat="29.522923" lon="103.335941"><ele>3023.028</ele><time>2026-08-12T19:19:30.000Z</time></trkpt>
        <trkpt lat="29.522883" lon="103.335967"><ele>3024.0537</ele><time>2026-08-12T19:19:38.000Z</time></trkpt>
        <trkpt lat="29.52286" lon="103.335919"><ele>3023.2766</ele><time>2026-08-12T19:20:41.000Z</time></trkpt>
        <trkpt lat="29.52289" lon="103.335961"><ele>3023.458</ele><time>2026-08-12T19:21:49.000Z</time></trkpt>
        <trkpt lat="29.522875" lon="103.33601"><ele>3023.3904</ele><time>2026-08-12T19:22:00.000Z</time></trkpt>
        <trkpt lat="29.522855" lon="103.336061"><ele>3024.01</ele><time>2026-08-12T19:22:08.000Z</time></trkpt>
        <trkpt lat="29.522855" lon="103.336115"><ele>3024.4033</ele><time>2026-08-12T19:22:20.000Z</time></trkpt>
        <trkpt lat="29.522874" lon="103.336165"><ele>3024.2856</ele><time>2026-08-12T19:22:27.000Z</time></trkpt>
        <trkpt lat="29.522837" lon="103.336068"><ele>3022.7556</ele><time>2026-08-12T19:24:59.000Z</time></trkpt>
        <trkpt lat="29.52288" lon="103.336052"><ele>3022.42</ele><time>2026-08-12T19:25:08.000Z</time></trkpt>
        <trkpt lat="29.522924" lon="103.336071"><ele>3022.7793</ele><time>2026-08-12T19:25:45.000Z</time></trkpt>
        <trkpt lat="29.522969" lon="103.336084"><ele>3022.4177</ele><time>2026-08-12T19:25:53.000Z</time></trkpt>
        <trkpt lat="29.522999" lon="103.336126"><ele>3022.7417</ele><time>2026-08-12T19:26:00.000Z</time></trkpt>
        <trkpt lat="29.523027" lon="103.336171"><ele>3022.679</ele><time>2026-08-12T19:26:07.000Z</time></trkpt>
        <trkpt lat="29.523042" lon="103.336224"><ele>3021.512</ele><time>2026-08-12T19:26:13.000Z</time></trkpt>
        <trkpt lat="29.523056" lon="103.336274"><ele>3021.9827</ele><time>2026-08-12T19:26:20.000Z</time></trkpt>
        <trkpt lat="29.523052" lon="103.336325"><ele>3021.6694</ele><time>2026-08-12T19:26:27.000Z</time></trkpt>
        <trkpt lat="29.523065" lon="103.336378"><ele>3021.9358</ele><time>2026-08-12T19:26:35.000Z</time></trkpt>
        <trkpt lat="29.52306" lon="103.336434"><ele>3023.4592</ele><time>2026-08-12T19:26:59.000Z</time></trkpt>
        <trkpt lat="29.523039" lon="103.336476"><ele>3025.7192</ele><time>2026-08-12T19:27:10.000Z</time></trkpt>
        <trkpt lat="29.52304" lon="103.336528"><ele>3025.1116</ele><time>2026-08-12T19:27:17.000Z</time></trkpt>
        <trkpt lat="29.52308" lon="103.336561"><ele>3023.307</ele><time>2026-08-12T19:30:39.000Z</time></trkpt>
        <trkpt lat="29.523099" lon="103.336609"><ele>3023.2314</ele><time>2026-08-12T19:30:42.000Z</time></trkpt>
        <trkpt lat="29.523111" lon="103.336659"><ele>3023.94</ele><time>2026-08-12T19:30:48.000Z</time></trkpt>
        <trkpt lat="29.523127" lon="103.336717"><ele>3025.0627</ele><time>2026-08-12T19:31:06.000Z</time></trkpt>
        <trkpt lat="29.523145" lon="103.336768"><ele>3025.4597</ele><time>2026-08-12T19:31:16.000Z</time></trkpt>
        <trkpt lat="29.523114" lon="103.336808"><ele>3025.98</ele><time>2026-08-12T19:32:23.000Z</time></trkpt>
        <trkpt lat="29.523112" lon="103.336863"><ele>3027.2686</ele><time>2026-08-12T19:32:31.000Z</time></trkpt>
        <trkpt lat="29.523116" lon="103.336917"><ele>3027.4922</ele><time>2026-08-12T19:32:39.000Z</time></trkpt>
        <trkpt lat="29.523123" lon="103.336971"><ele>3028.8809</ele><time>2026-08-12T19:32:49.000Z</time></trkpt>
        <trkpt lat="29.523112" lon="103.337021"><ele>3028.947</ele><time>2026-08-12T19:32:56.000Z</time></trkpt>
        <trkpt lat="29.523102" lon="103.337071"><ele>3029.9116</ele><time>2026-08-12T19:33:06.000Z</time></trkpt>
        <trkpt lat="29.523101" lon="103.337115"><ele>3032.5562</ele><time>2026-08-12T19:33:23.000Z</time></trkpt>
        <trkpt lat="29.52307" lon="103.337154"><ele>3033.3774</ele><time>2026-08-12T19:33:41.000Z</time></trkpt>
        <trkpt lat="29.523031" lon="103.33718"><ele>3033.961</ele><time>2026-08-12T19:33:52.000Z</time></trkpt>
        <trkpt lat="29.522991" lon="103.337154"><ele>3034.2986</ele><time>2026-08-12T19:34:47.000Z</time></trkpt>
        <trkpt lat="29.522932" lon="103.337193"><ele>3034.2986</ele><time>2026-08-12T19:35:38.000Z</time></trkpt>
        <trkpt lat="29.522885" lon="103.337192"><ele>3035.3696</ele><time>2026-08-12T19:35:58.000Z</time></trkpt>
        <trkpt lat="29.522844" lon="103.337211"><ele>3036.4375</ele><time>2026-08-12T19:36:07.000Z</time></trkpt>
        <trkpt lat="29.522799" lon="103.337218"><ele>3037.087</ele><time>2026-08-12T19:36:29.000Z</time></trkpt>
        <trkpt lat="29.522748" lon="103.337226"><ele>3037.6729</ele><time>2026-08-12T19:36:38.000Z</time></trkpt>
        <trkpt lat="29.522699" lon="103.337224"><ele>3038.0564</ele><time>2026-08-12T19:36:45.000Z</time></trkpt>
        <trkpt lat="29.522662" lon="103.337252"><ele>3037.0422</ele><time>2026-08-12T19:36:56.000Z</time></trkpt>
        <trkpt lat="29.52266" lon="103.337198"><ele>3036.1626</ele><time>2026-08-12T19:37:25.000Z</time></trkpt>
        <trkpt lat="29.52266" lon="103.33714"><ele>3036.079</ele><time>2026-08-12T19:37:33.000Z</time></trkpt>
        <trkpt lat="29.522687" lon="103.337096"><ele>3036.3535</ele><time>2026-08-12T19:37:53.000Z</time></trkpt>
        <trkpt lat="29.522729" lon="103.337075"><ele>3037.108</ele><time>2026-08-12T19:38:53.000Z</time></trkpt>
        <trkpt lat="29.522775" lon="103.337072"><ele>3036.4854</ele><time>2026-08-12T19:39:18.000Z</time></trkpt>
        <trkpt lat="29.5228" lon="103.337027"><ele>3036.938</ele><time>2026-08-12T19:39:35.000Z</time></trkpt>
        <trkpt lat="29.522823" lon="103.337063"><ele>3039.554</ele><time>2026-08-12T19:40:46.000Z</time></trkpt>
        <trkpt lat="29.522848" lon="103.337107"><ele>3038.9236</ele><time>2026-08-12T19:41:14.000Z</time></trkpt>
        <trkpt lat="29.522862" lon="103.337159"><ele>3038.3857</ele><time>2026-08-12T19:41:21.000Z</time></trkpt>
        <trkpt lat="29.522913" lon="103.337182"><ele>3038.9817</ele><time>2026-08-12T19:41:47.000Z</time></trkpt>
        <trkpt lat="29.522964" lon="103.337186"><ele>3039.6467</ele><time>2026-08-12T19:41:58.000Z</time></trkpt>
        <trkpt lat="29.523012" lon="103.337179"><ele>3039.8523</ele><time>2026-08-12T19:42:05.000Z</time></trkpt>
        <trkpt lat="29.523055" lon="103.337165"><ele>3038.919</ele><time>2026-08-12T19:42:12.000Z</time></trkpt>
        <trkpt lat="29.523091" lon="103.337136"><ele>3037.6538</ele><time>2026-08-12T19:42:20.000Z</time></trkpt>
        <trkpt lat="29.523117" lon="103.337094"><ele>3036.8984</ele><time>2026-08-12T19:42:29.000Z</time></trkpt>
        <trkpt lat="29.523096" lon="103.337047"><ele>3036.3435</ele><time>2026-08-12T19:42:40.000Z</time></trkpt>
        <trkpt lat="29.523094" lon="103.336994"><ele>3037.3982</ele><time>2026-08-12T19:42:48.000Z</time></trkpt>
        <trkpt lat="29.523091" lon="103.336938"><ele>3037.8303</ele><time>2026-08-12T19:42:56.000Z</time></trkpt>
        <trkpt lat="29.5231" lon="103.336897"><ele>3034.4448</ele><time>2026-08-12T19:45:06.000Z</time></trkpt>
        <trkpt lat="29.523076" lon="103.336852"><ele>3032.9578</ele><time>2026-08-12T19:45:12.000Z</time></trkpt>
        <trkpt lat="29.523062" lon="103.336803"><ele>3030.8428</ele><time>2026-08-12T19:45:17.000Z</time></trkpt>
        <trkpt lat="29.523067" lon="103.336753"><ele>3029.6702</ele><time>2026-08-12T19:45:22.000Z</time></trkpt>
        <trkpt lat="29.523114" lon="103.336761"><ele>3028.423</ele><time>2026-08-12T19:45:26.000Z</time></trkpt>
        <trkpt lat="29.523159" lon="103.336772"><ele>3027.4927</ele><time>2026-08-12T19:45:32.000Z</time></trkpt>
        <trkpt lat="29.523176" lon="103.336726"><ele>3025.6216</ele><time>2026-08-12T19:45:55.000Z</time></trkpt>
        <trkpt lat="29.523164" lon="103.336668"><ele>3024.3113</ele><time>2026-08-12T19:46:43.000Z</time></trkpt>
        <trkpt lat="29.523159" lon="103.336613"><ele>3023.6687</ele><time>2026-08-12T19:46:49.000Z</time></trkpt>
        <trkpt lat="29.523157" lon="103.336557"><ele>3023.517</ele><time>2026-08-12T19:46:55.000Z</time></trkpt>
        <trkpt lat="29.523151" lon="103.336501"><ele>3023.1658</ele><time>2026-08-12T19:47:02.000Z</time></trkpt>
        <trkpt lat="29.523144" lon="103.336442"><ele>3023.0588</ele><time>2026-08-12T19:47:09.000Z</time></trkpt>
        <trkpt lat="29.523194" lon="103.33642"><ele>3022.7368</ele><time>2026-08-12T19:47:19.000Z</time></trkpt>
        <trkpt lat="29.523241" lon="103.336404"><ele>3022.2585</ele><time>2026-08-12T19:47:25.000Z</time></trkpt>
        <trkpt lat="29.523287" lon="103.336406"><ele>3021.771</ele><time>2026-08-12T19:47:31.000Z</time></trkpt>
        <trkpt lat="29.523333" lon="103.336414"><ele>3021.5815</ele><time>2026-08-12T19:47:37.000Z</time></trkpt>
        <trkpt lat="29.523381" lon="103.336417"><ele>3021.7554</ele><time>2026-08-12T19:47:43.000Z</time></trkpt>
        <trkpt lat="29.523427" lon="103.336414"><ele>3021.583</ele><time>2026-08-12T19:47:49.000Z</time></trkpt>
        <trkpt lat="29.523472" lon="103.336402"><ele>3021.307</ele><time>2026-08-12T19:47:55.000Z</time></trkpt>
        <trkpt lat="29.52352" lon="103.336419"><ele>3021.1638</ele><time>2026-08-12T19:48:01.000Z</time></trkpt>
        <trkpt lat="29.523557" lon="103.336455"><ele>3021.939</ele><time>2026-08-12T19:48:09.000Z</time></trkpt>
        <trkpt lat="29.523602" lon="103.336461"><ele>3021.7646</ele><time>2026-08-12T19:48:20.000Z</time></trkpt>
        <trkpt lat="29.523648" lon="103.336438"><ele>3021.9485</ele><time>2026-08-12T19:48:28.000Z</time></trkpt>
        <trkpt lat="29.523693" lon="103.336433"><ele>3021.9033</ele><time>2026-08-12T19:48:33.000Z</time></trkpt>
        <trkpt lat="29.523746" lon="103.336433"><ele>3021.665</ele><time>2026-08-12T19:48:40.000Z</time></trkpt>
        <trkpt lat="29.523794" lon="103.336436"><ele>3021.7695</ele><time>2026-08-12T19:48:48.000Z</time></trkpt>
        <trkpt lat="29.523825" lon="103.336476"><ele>3021.429</ele><time>2026-08-12T19:48:58.000Z</time></trkpt>
        <trkpt lat="29.523868" lon="103.336495"><ele>3020.857</ele><time>2026-08-12T19:49:06.000Z</time></trkpt>
        <trkpt lat="29.523916" lon="103.336496"><ele>3020.045</ele><time>2026-08-12T19:49:14.000Z</time></trkpt>
        <trkpt lat="29.523963" lon="103.336475"><ele>3019.9016</ele><time>2026-08-12T19:49:21.000Z</time></trkpt>
        <trkpt lat="29.524006" lon="103.336446"><ele>3019.535</ele><time>2026-08-12T19:49:29.000Z</time></trkpt>
        <trkpt lat="29.524051" lon="103.336421"><ele>3018.7998</ele><time>2026-08-12T19:49:38.000Z</time></trkpt>
        <trkpt lat="29.524096" lon="103.3364"><ele>3017.7175</ele><time>2026-08-12T19:49:45.000Z</time></trkpt>
        <trkpt lat="29.524144" lon="103.336406"><ele>3017.0066</ele><time>2026-08-12T19:49:51.000Z</time></trkpt>
        <trkpt lat="29.524191" lon="103.336412"><ele>3016.2424</ele><time>2026-08-12T19:50:02.000Z</time></trkpt>
        <trkpt lat="29.524235" lon="103.336419"><ele>3015.4304</ele><time>2026-08-12T19:50:10.000Z</time></trkpt>
        <trkpt lat="29.524268" lon="103.336378"><ele>3015.009</ele><time>2026-08-12T19:50:31.000Z</time></trkpt>
        <trkpt lat="29.524293" lon="103.336335"><ele>3013.7742</ele><time>2026-08-12T19:50:38.000Z</time></trkpt>
        <trkpt lat="29.524322" lon="103.336294"><ele>3013.0762</ele><time>2026-08-12T19:50:49.000Z</time></trkpt>
        <trkpt lat="29.524358" lon="103.336256"><ele>3011.544</ele><time>2026-08-12T19:50:59.000Z</time></trkpt>
        <trkpt lat="29.524393" lon="103.336221"><ele>3009.9587</ele><time>2026-08-12T19:51:08.000Z</time></trkpt>
        <trkpt lat="29.524429" lon="103.336184"><ele>3008.3462</ele><time>2026-08-12T19:51:16.000Z</time></trkpt>
        <trkpt lat="29.524468" lon="103.336157"><ele>3006.7393</ele><time>2026-08-12T19:51:27.000Z</time></trkpt>
        <trkpt lat="29.524498" lon="103.336122"><ele>3004.454</ele><time>2026-08-12T19:51:39.000Z</time></trkpt>
        <trkpt lat="29.52453" lon="103.336088"><ele>3003.0972</ele><time>2026-08-12T19:51:47.000Z</time></trkpt>
        <trkpt lat="29.524566" lon="103.336051"><ele>3002.3252</ele><time>2026-08-12T19:51:54.000Z</time></trkpt>
        <trkpt lat="29.524602" lon="103.336016"><ele>3001.615</ele><time>2026-08-12T19:52:01.000Z</time></trkpt>
        <trkpt lat="29.524637" lon="103.335979"><ele>3001.075</ele><time>2026-08-12T19:52:08.000Z</time></trkpt>
        <trkpt lat="29.52468" lon="103.335948"><ele>3000.7307</ele><time>2026-08-12T19:52:16.000Z</time></trkpt>
        <trkpt lat="29.524721" lon="103.335912"><ele>2999.9446</ele><time>2026-08-12T19:52:23.000Z</time></trkpt>
        <trkpt lat="29.524756" lon="103.335876"><ele>2999.5889</ele><time>2026-08-12T19:52:29.000Z</time></trkpt>
        <trkpt lat="29.524794" lon="103.335843"><ele>2999.744</ele><time>2026-08-12T19:52:36.000Z</time></trkpt>
        <trkpt lat="29.524785" lon="103.335791"><ele>3000.0393</ele><time>2026-08-12T19:52:48.000Z</time></trkpt>
        <trkpt lat="29.524832" lon="103.335806"><ele>3001.3896</ele><time>2026-08-12T19:53:19.000Z</time></trkpt>
        <trkpt lat="29.524881" lon="103.335808"><ele>3000.735</ele><time>2026-08-12T19:53:25.000Z</time></trkpt>
        <trkpt lat="29.524932" lon="103.335804"><ele>3000.5674</ele><time>2026-08-12T19:53:32.000Z</time></trkpt>
        <trkpt lat="29.524983" lon="103.335804"><ele>3000.318</ele><time>2026-08-12T19:53:39.000Z</time></trkpt>
        <trkpt lat="29.525029" lon="103.335804"><ele>2999.9854</ele><time>2026-08-12T19:53:46.000Z</time></trkpt>
        <trkpt lat="29.525082" lon="103.335814"><ele>2999.856</ele><time>2026-08-12T19:54:01.000Z</time></trkpt>
        <trkpt lat="29.525126" lon="103.335839"><ele>2999.767</ele><time>2026-08-12T19:54:08.000Z</time></trkpt>
        <trkpt lat="29.525148" lon="103.33589"><ele>3000.3562</ele><time>2026-08-12T19:54:15.000Z</time></trkpt>
        <trkpt lat="29.525162" lon="103.335939"><ele>3001.248</ele><time>2026-08-12T19:54:22.000Z</time></trkpt>
        <trkpt lat="29.525171" lon="103.335992"><ele>3001.7798</ele><time>2026-08-12T19:54:30.000Z</time></trkpt>
        <trkpt lat="29.525205" lon="103.336022"><ele>3003.3164</ele><time>2026-08-12T19:54:55.000Z</time></trkpt>
        <trkpt lat="29.525236" lon="103.336065"><ele>3003.157</ele><time>2026-08-12T19:55:05.000Z</time></trkpt>
        <trkpt lat="29.525274" lon="103.336096"><ele>3002.578</ele><time>2026-08-12T19:55:16.000Z</time></trkpt>
        <trkpt lat="29.525325" lon="103.336072"><ele>3001.9387</ele><time>2026-08-12T19:55:33.000Z</time></trkpt>
        <trkpt lat="29.525257" lon="103.336157"><ele>3001.8901</ele><time>2026-08-12T19:56:09.000Z</time></trkpt>
        <trkpt lat="29.525327" lon="103.336089"><ele>2998.178</ele><time>2026-08-12T19:56:57.000Z</time></trkpt>
        <trkpt lat="29.52537" lon="103.33612"><ele>2989.599</ele><time>2026-08-12T19:57:00.000Z</time></trkpt>
        <trkpt lat="29.525349" lon="103.336156"><ele>2985.9763</ele><time>2026-08-12T19:57:04.000Z</time></trkpt>
        <trkpt lat="29.52534" lon="103.336182"><ele>2992.461</ele><time>2026-08-12T19:57:15.000Z</time></trkpt>
        <trkpt lat="29.525315" lon="103.336184"><ele>2988.2551</ele><time>2026-08-12T19:57:38.000Z</time></trkpt>
        <trkpt lat="29.525287" lon="103.336156"><ele>2984.99</ele><time>2026-08-12T19:57:59.000Z</time></trkpt>
        <trkpt lat="29.525325" lon="103.336101"><ele>2985.1143</ele><time>2026-08-12T19:58:07.000Z</time></trkpt>
        <trkpt lat="29.525351" lon="103.336059"><ele>2985.2505</ele><time>2026-08-12T19:58:13.000Z</time></trkpt>
        <trkpt lat="29.525383" lon="103.33602"><ele>2985.3015</ele><time>2026-08-12T19:58:21.000Z</time></trkpt>
        <trkpt lat="29.525416" lon="103.335969"><ele>2985.419</ele><time>2026-08-12T19:58:27.000Z</time></trkpt>
        <trkpt lat="29.525448" lon="103.335927"><ele>2985.4277</ele><time>2026-08-12T19:58:33.000Z</time></trkpt>
        <trkpt lat="29.525494" lon="103.335918"><ele>2986.0579</ele><time>2026-08-12T19:58:45.000Z</time></trkpt>
        <trkpt lat="29.525516" lon="103.335871"><ele>2985.928</ele><time>2026-08-12T19:58:50.000Z</time></trkpt>
        <trkpt lat="29.525184" lon="103.336114"><ele>0</ele><time>2026-08-12T19:59:49.000Z</time></trkpt>
        <trkpt lat="29.525203" lon="103.336063"><ele>0</ele><time>2026-08-12T20:00:17.000Z</time></trkpt>
      </trkseg>
  </trk>
</gpx>